<?xml version="1.0" encoding="UTF-8" standalone="no" ?>
<gpx xmlns="http://www.topografix.com/GPX/1/1" xmlns:xsi="http://www.w3.org/2001/XMLSchema-instance" xsi:schemaLocation="http://www.topografix.com/GPX/1/1 http://www.topografix.com/GPX/1/1/gpx.xsd" version="1.1" creator="VisuGPX - https://www.visugpx.com">
  <metadata>
    <name>[CHJ] Sainté Planfoy La Ric Sainté</name>
    <desc><![CDATA[Sainté Planfoy La Ric Sainté]]></desc>
  </metadata>
  <trk>
    <name><![CDATA[[CHJ] Sainté Planfoy La Ric Sainté_1]]></name>
    <trkseg>
      <trkpt lat="45.42663" lon="4.39647">
        <ele>569.61029052734</ele>
        <time>2015-12-22T18:05:02.000Z</time>
      </trkpt>
      <trkpt lat="45.42667" lon="4.39661">
        <ele>569.33477783203</ele>
        <time>2015-12-22T18:05:04.000Z</time>
      </trkpt>
      <trkpt lat="45.42669" lon="4.39669">
        <ele>570.29241943359</ele>
        <time>2015-12-22T18:05:06.000Z</time>
      </trkpt>
      <trkpt lat="45.42673" lon="4.39679">
        <ele>568.31646728516</ele>
        <time>2015-12-22T18:05:09.000Z</time>
      </trkpt>
      <trkpt lat="45.42675" lon="4.39675">
        <ele>568.58612060547</ele>
        <time>2015-12-22T18:05:12.000Z</time>
      </trkpt>
      <trkpt lat="45.42675" lon="4.39676">
        <ele>568.55316162109</ele>
        <time>2015-12-22T18:05:14.000Z</time>
      </trkpt>
      <trkpt lat="45.42666" lon="4.39696">
        <ele>571.9130859375</ele>
        <time>2015-12-22T18:05:18.000Z</time>
      </trkpt>
      <trkpt lat="45.42662" lon="4.39701">
        <ele>571.85003662109</ele>
        <time>2015-12-22T18:05:20.000Z</time>
      </trkpt>
      <trkpt lat="45.42659" lon="4.39706">
        <ele>572.81481933594</ele>
        <time>2015-12-22T18:05:22.000Z</time>
      </trkpt>
      <trkpt lat="45.42659" lon="4.39712">
        <ele>574.48443603516</ele>
        <time>2015-12-22T18:05:25.000Z</time>
      </trkpt>
      <trkpt lat="45.42658" lon="4.39717">
        <ele>577.47180175781</ele>
        <time>2015-12-22T18:05:28.000Z</time>
      </trkpt>
      <trkpt lat="45.42658" lon="4.3972">
        <ele>578.94476318359</ele>
        <time>2015-12-22T18:05:31.000Z</time>
      </trkpt>
      <trkpt lat="45.42656" lon="4.39722">
        <ele>578.49810791016</ele>
        <time>2015-12-22T18:05:33.000Z</time>
      </trkpt>
      <trkpt lat="45.42654" lon="4.39727">
        <ele>577.51812744141</ele>
        <time>2015-12-22T18:05:36.000Z</time>
      </trkpt>
      <trkpt lat="45.42653" lon="4.39732">
        <ele>576.66076660156</ele>
        <time>2015-12-22T18:05:38.000Z</time>
      </trkpt>
      <trkpt lat="45.4265" lon="4.39739">
        <ele>576.66400146484</ele>
        <time>2015-12-22T18:05:41.000Z</time>
      </trkpt>
      <trkpt lat="45.42651" lon="4.39742">
        <ele>577.12481689453</ele>
        <time>2015-12-22T18:05:43.000Z</time>
      </trkpt>
      <trkpt lat="45.42649" lon="4.39746">
        <ele>577.82269287109</ele>
        <time>2015-12-22T18:05:46.000Z</time>
      </trkpt>
      <trkpt lat="45.42648" lon="4.39751">
        <ele>578.87683105469</ele>
        <time>2015-12-22T18:05:48.000Z</time>
      </trkpt>
      <trkpt lat="45.42646" lon="4.39755">
        <ele>579.39788818359</ele>
        <time>2015-12-22T18:05:50.000Z</time>
      </trkpt>
      <trkpt lat="45.42645" lon="4.39758">
        <ele>579.26232910156</ele>
        <time>2015-12-22T18:05:53.000Z</time>
      </trkpt>
      <trkpt lat="45.42643" lon="4.39762">
        <ele>579.4013671875</ele>
        <time>2015-12-22T18:05:55.000Z</time>
      </trkpt>
      <trkpt lat="45.42639" lon="4.39768">
        <ele>579.13177490234</ele>
        <time>2015-12-22T18:05:58.000Z</time>
      </trkpt>
      <trkpt lat="45.42635" lon="4.39771">
        <ele>578.78460693359</ele>
        <time>2015-12-22T18:06:01.000Z</time>
      </trkpt>
      <trkpt lat="45.42632" lon="4.39777">
        <ele>579.10131835938</ele>
        <time>2015-12-22T18:06:04.000Z</time>
      </trkpt>
      <trkpt lat="45.4263" lon="4.39781">
        <ele>579.13195800781</ele>
        <time>2015-12-22T18:06:06.000Z</time>
      </trkpt>
      <trkpt lat="45.42621" lon="4.39784">
        <ele>578.29449462891</ele>
        <time>2015-12-22T18:06:09.000Z</time>
      </trkpt>
      <trkpt lat="45.42614" lon="4.39786">
        <ele>578.02612304688</ele>
        <time>2015-12-22T18:06:11.000Z</time>
      </trkpt>
      <trkpt lat="45.42609" lon="4.39787">
        <ele>578.28045654297</ele>
        <time>2015-12-22T18:06:13.000Z</time>
      </trkpt>
      <trkpt lat="45.42602" lon="4.39791">
        <ele>577.18646240234</ele>
        <time>2015-12-22T18:06:16.000Z</time>
      </trkpt>
      <trkpt lat="45.42598" lon="4.39794">
        <ele>575.86486816406</ele>
        <time>2015-12-22T18:06:18.000Z</time>
      </trkpt>
      <trkpt lat="45.42593" lon="4.39797">
        <ele>575.45867919922</ele>
        <time>2015-12-22T18:06:20.000Z</time>
      </trkpt>
      <trkpt lat="45.42587" lon="4.398">
        <ele>575.41485595703</ele>
        <time>2015-12-22T18:06:22.000Z</time>
      </trkpt>
      <trkpt lat="45.42579" lon="4.39805">
        <ele>573.97338867188</ele>
        <time>2015-12-22T18:06:25.000Z</time>
      </trkpt>
      <trkpt lat="45.42574" lon="4.39809">
        <ele>572.841796875</ele>
        <time>2015-12-22T18:06:27.000Z</time>
      </trkpt>
      <trkpt lat="45.4257" lon="4.39815">
        <ele>572.49206542969</ele>
        <time>2015-12-22T18:06:30.000Z</time>
      </trkpt>
      <trkpt lat="45.42568" lon="4.39816">
        <ele>572.54669189453</ele>
        <time>2015-12-22T18:06:33.000Z</time>
      </trkpt>
      <trkpt lat="45.42566" lon="4.39817">
        <ele>572.16564941406</ele>
        <time>2015-12-22T18:06:35.000Z</time>
      </trkpt>
      <trkpt lat="45.42561" lon="4.39834">
        <ele>571.5908203125</ele>
        <time>2015-12-22T18:06:38.000Z</time>
      </trkpt>
      <trkpt lat="45.42561" lon="4.39847">
        <ele>572.32983398438</ele>
        <time>2015-12-22T18:06:41.000Z</time>
      </trkpt>
      <trkpt lat="45.42561" lon="4.39855">
        <ele>572.53289794922</ele>
        <time>2015-12-22T18:06:43.000Z</time>
      </trkpt>
      <trkpt lat="45.42561" lon="4.39866">
        <ele>572.28741455078</ele>
        <time>2015-12-22T18:06:45.000Z</time>
      </trkpt>
      <trkpt lat="45.42562" lon="4.39882">
        <ele>571.54956054688</ele>
        <time>2015-12-22T18:06:48.000Z</time>
      </trkpt>
      <trkpt lat="45.42562" lon="4.39888">
        <ele>571.13494873047</ele>
        <time>2015-12-22T18:06:50.000Z</time>
      </trkpt>
      <trkpt lat="45.42558" lon="4.39895">
        <ele>570.83587646484</ele>
        <time>2015-12-22T18:06:53.000Z</time>
      </trkpt>
      <trkpt lat="45.42554" lon="4.39904">
        <ele>570.98474121094</ele>
        <time>2015-12-22T18:06:56.000Z</time>
      </trkpt>
      <trkpt lat="45.42551" lon="4.39909">
        <ele>570.66009521484</ele>
        <time>2015-12-22T18:06:58.000Z</time>
      </trkpt>
      <trkpt lat="45.42547" lon="4.39916">
        <ele>573.29052734375</ele>
        <time>2015-12-22T18:07:01.000Z</time>
      </trkpt>
      <trkpt lat="45.42539" lon="4.3992">
        <ele>570.97381591797</ele>
        <time>2015-12-22T18:07:04.000Z</time>
      </trkpt>
      <trkpt lat="45.42534" lon="4.39926">
        <ele>574.89605712891</ele>
        <time>2015-12-22T18:07:07.000Z</time>
      </trkpt>
      <trkpt lat="45.42529" lon="4.39933">
        <ele>578.90838623047</ele>
        <time>2015-12-22T18:07:10.000Z</time>
      </trkpt>
      <trkpt lat="45.42527" lon="4.39937">
        <ele>579.71881103516</ele>
        <time>2015-12-22T18:07:12.000Z</time>
      </trkpt>
      <trkpt lat="45.42525" lon="4.3994">
        <ele>579.92163085938</ele>
        <time>2015-12-22T18:07:14.000Z</time>
      </trkpt>
      <trkpt lat="45.42522" lon="4.39947">
        <ele>580.10229492188</ele>
        <time>2015-12-22T18:07:17.000Z</time>
      </trkpt>
      <trkpt lat="45.42522" lon="4.39954">
        <ele>579.98901367188</ele>
        <time>2015-12-22T18:07:19.000Z</time>
      </trkpt>
      <trkpt lat="45.42518" lon="4.39962">
        <ele>580.48638916016</ele>
        <time>2015-12-22T18:07:22.000Z</time>
      </trkpt>
      <trkpt lat="45.42516" lon="4.39969">
        <ele>580.34716796875</ele>
        <time>2015-12-22T18:07:24.000Z</time>
      </trkpt>
      <trkpt lat="45.42508" lon="4.39971">
        <ele>576.61968994141</ele>
        <time>2015-12-22T18:07:26.000Z</time>
      </trkpt>
      <trkpt lat="45.425" lon="4.39979">
        <ele>577.00201416016</ele>
        <time>2015-12-22T18:07:29.000Z</time>
      </trkpt>
      <trkpt lat="45.42496" lon="4.39989">
        <ele>576.40582275391</ele>
        <time>2015-12-22T18:07:32.000Z</time>
      </trkpt>
      <trkpt lat="45.42494" lon="4.39991">
        <ele>577.46514892578</ele>
        <time>2015-12-22T18:07:35.000Z</time>
      </trkpt>
      <trkpt lat="45.42491" lon="4.39992">
        <ele>577.25146484375</ele>
        <time>2015-12-22T18:07:37.000Z</time>
      </trkpt>
      <trkpt lat="45.42487" lon="4.40002">
        <ele>577.79504394531</ele>
        <time>2015-12-22T18:07:40.000Z</time>
      </trkpt>
      <trkpt lat="45.42485" lon="4.40011">
        <ele>577.74438476562</ele>
        <time>2015-12-22T18:07:42.000Z</time>
      </trkpt>
      <trkpt lat="45.42482" lon="4.40017">
        <ele>580.41949462891</ele>
        <time>2015-12-22T18:07:45.000Z</time>
      </trkpt>
      <trkpt lat="45.42479" lon="4.40024">
        <ele>583.30603027344</ele>
        <time>2015-12-22T18:07:47.000Z</time>
      </trkpt>
      <trkpt lat="45.42476" lon="4.40038">
        <ele>585.22790527344</ele>
        <time>2015-12-22T18:07:50.000Z</time>
      </trkpt>
      <trkpt lat="45.42473" lon="4.40054">
        <ele>587.80657958984</ele>
        <time>2015-12-22T18:07:53.000Z</time>
      </trkpt>
      <trkpt lat="45.42469" lon="4.40063">
        <ele>590.27111816406</ele>
        <time>2015-12-22T18:07:56.000Z</time>
      </trkpt>
      <trkpt lat="45.42468" lon="4.40066">
        <ele>590.55816650391</ele>
        <time>2015-12-22T18:07:58.000Z</time>
      </trkpt>
      <trkpt lat="45.42466" lon="4.40073">
        <ele>590.90539550781</ele>
        <time>2015-12-22T18:08:00.000Z</time>
      </trkpt>
      <trkpt lat="45.42461" lon="4.40085">
        <ele>591.33172607422</ele>
        <time>2015-12-22T18:08:03.000Z</time>
      </trkpt>
      <trkpt lat="45.42455" lon="4.40096">
        <ele>593.33465576172</ele>
        <time>2015-12-22T18:08:06.000Z</time>
      </trkpt>
      <trkpt lat="45.4245" lon="4.40103">
        <ele>594.49633789062</ele>
        <time>2015-12-22T18:08:08.000Z</time>
      </trkpt>
      <trkpt lat="45.42447" lon="4.40112">
        <ele>595.85424804688</ele>
        <time>2015-12-22T18:08:10.000Z</time>
      </trkpt>
      <trkpt lat="45.42441" lon="4.40122">
        <ele>598.34338378906</ele>
        <time>2015-12-22T18:08:13.000Z</time>
      </trkpt>
      <trkpt lat="45.42439" lon="4.40135">
        <ele>598.56665039062</ele>
        <time>2015-12-22T18:08:15.000Z</time>
      </trkpt>
      <trkpt lat="45.42437" lon="4.40144">
        <ele>598.02172851562</ele>
        <time>2015-12-22T18:08:17.000Z</time>
      </trkpt>
      <trkpt lat="45.42432" lon="4.40161">
        <ele>598.47528076172</ele>
        <time>2015-12-22T18:08:20.000Z</time>
      </trkpt>
      <trkpt lat="45.42426" lon="4.4017">
        <ele>599.64447021484</ele>
        <time>2015-12-22T18:08:23.000Z</time>
      </trkpt>
      <trkpt lat="45.42424" lon="4.40176">
        <ele>600.13861083984</ele>
        <time>2015-12-22T18:08:25.000Z</time>
      </trkpt>
      <trkpt lat="45.42422" lon="4.40178">
        <ele>600.380859375</ele>
        <time>2015-12-22T18:08:27.000Z</time>
      </trkpt>
      <trkpt lat="45.42418" lon="4.40187">
        <ele>599.76385498047</ele>
        <time>2015-12-22T18:08:30.000Z</time>
      </trkpt>
      <trkpt lat="45.42415" lon="4.40191">
        <ele>589.95001220703</ele>
        <time>2015-12-22T18:08:32.000Z</time>
      </trkpt>
      <trkpt lat="45.42413" lon="4.40192">
        <ele>589.36700439453</ele>
        <time>2015-12-22T18:08:36.000Z</time>
      </trkpt>
      <trkpt lat="45.42411" lon="4.40194">
        <ele>588.04168701172</ele>
        <time>2015-12-22T18:08:38.000Z</time>
      </trkpt>
      <trkpt lat="45.42406" lon="4.40204">
        <ele>589.20068359375</ele>
        <time>2015-12-22T18:08:41.000Z</time>
      </trkpt>
      <trkpt lat="45.42404" lon="4.40211">
        <ele>591.38513183594</ele>
        <time>2015-12-22T18:08:43.000Z</time>
      </trkpt>
      <trkpt lat="45.42401" lon="4.40216">
        <ele>593.76177978516</ele>
        <time>2015-12-22T18:08:45.000Z</time>
      </trkpt>
      <trkpt lat="45.42398" lon="4.40221">
        <ele>594.466796875</ele>
        <time>2015-12-22T18:08:47.000Z</time>
      </trkpt>
      <trkpt lat="45.42395" lon="4.40226">
        <ele>594.23461914062</ele>
        <time>2015-12-22T18:08:50.000Z</time>
      </trkpt>
      <trkpt lat="45.4239" lon="4.40232">
        <ele>593.56140136719</ele>
        <time>2015-12-22T18:08:53.000Z</time>
      </trkpt>
      <trkpt lat="45.42388" lon="4.40239">
        <ele>593.15441894531</ele>
        <time>2015-12-22T18:08:55.000Z</time>
      </trkpt>
      <trkpt lat="45.42387" lon="4.40245">
        <ele>592.40063476562</ele>
        <time>2015-12-22T18:08:57.000Z</time>
      </trkpt>
      <trkpt lat="45.42386" lon="4.40255">
        <ele>591.29577636719</ele>
        <time>2015-12-22T18:09:00.000Z</time>
      </trkpt>
      <trkpt lat="45.42382" lon="4.40264">
        <ele>590.61486816406</ele>
        <time>2015-12-22T18:09:02.000Z</time>
      </trkpt>
      <trkpt lat="45.42377" lon="4.40272">
        <ele>589.85150146484</ele>
        <time>2015-12-22T18:09:05.000Z</time>
      </trkpt>
      <trkpt lat="45.42371" lon="4.40278">
        <ele>592.01019287109</ele>
        <time>2015-12-22T18:09:08.000Z</time>
      </trkpt>
      <trkpt lat="45.4237" lon="4.40287">
        <ele>592.23187255859</ele>
        <time>2015-12-22T18:09:11.000Z</time>
      </trkpt>
      <trkpt lat="45.42368" lon="4.403">
        <ele>593.61633300781</ele>
        <time>2015-12-22T18:09:14.000Z</time>
      </trkpt>
      <trkpt lat="45.42366" lon="4.40308">
        <ele>594.34924316406</ele>
        <time>2015-12-22T18:09:16.000Z</time>
      </trkpt>
      <trkpt lat="45.42362" lon="4.40318">
        <ele>596.63714599609</ele>
        <time>2015-12-22T18:09:19.000Z</time>
      </trkpt>
      <trkpt lat="45.42358" lon="4.4032">
        <ele>597.52807617188</ele>
        <time>2015-12-22T18:09:21.000Z</time>
      </trkpt>
      <trkpt lat="45.42354" lon="4.40323">
        <ele>597.52465820312</ele>
        <time>2015-12-22T18:09:23.000Z</time>
      </trkpt>
      <trkpt lat="45.42348" lon="4.40328">
        <ele>598.31176757812</ele>
        <time>2015-12-22T18:09:26.000Z</time>
      </trkpt>
      <trkpt lat="45.42346" lon="4.40338">
        <ele>598.51733398438</ele>
        <time>2015-12-22T18:09:29.000Z</time>
      </trkpt>
      <trkpt lat="45.42345" lon="4.40343">
        <ele>598.56811523438</ele>
        <time>2015-12-22T18:09:31.000Z</time>
      </trkpt>
      <trkpt lat="45.42345" lon="4.40349">
        <ele>598.36138916016</ele>
        <time>2015-12-22T18:09:34.000Z</time>
      </trkpt>
      <trkpt lat="45.42344" lon="4.40355">
        <ele>598.08532714844</ele>
        <time>2015-12-22T18:09:36.000Z</time>
      </trkpt>
      <trkpt lat="45.42344" lon="4.40363">
        <ele>597.76171875</ele>
        <time>2015-12-22T18:09:38.000Z</time>
      </trkpt>
      <trkpt lat="45.42345" lon="4.40377">
        <ele>597.66497802734</ele>
        <time>2015-12-22T18:09:41.000Z</time>
      </trkpt>
      <trkpt lat="45.42345" lon="4.40383">
        <ele>597.39984130859</ele>
        <time>2015-12-22T18:09:43.000Z</time>
      </trkpt>
      <trkpt lat="45.42344" lon="4.40392">
        <ele>597.625</ele>
        <time>2015-12-22T18:09:45.000Z</time>
      </trkpt>
      <trkpt lat="45.42342" lon="4.40399">
        <ele>597.81988525391</ele>
        <time>2015-12-22T18:09:47.000Z</time>
      </trkpt>
      <trkpt lat="45.4234" lon="4.40411">
        <ele>597.08648681641</ele>
        <time>2015-12-22T18:09:50.000Z</time>
      </trkpt>
      <trkpt lat="45.4234" lon="4.40417">
        <ele>596.96588134766</ele>
        <time>2015-12-22T18:09:52.000Z</time>
      </trkpt>
      <trkpt lat="45.42338" lon="4.40424">
        <ele>596.71533203125</ele>
        <time>2015-12-22T18:09:54.000Z</time>
      </trkpt>
      <trkpt lat="45.42334" lon="4.4043">
        <ele>596.12347412109</ele>
        <time>2015-12-22T18:09:57.000Z</time>
      </trkpt>
      <trkpt lat="45.4233" lon="4.40443">
        <ele>596.892578125</ele>
        <time>2015-12-22T18:10:00.000Z</time>
      </trkpt>
      <trkpt lat="45.42329" lon="4.40451">
        <ele>596.81091308594</ele>
        <time>2015-12-22T18:10:03.000Z</time>
      </trkpt>
      <trkpt lat="45.42325" lon="4.40457">
        <ele>597.0400390625</ele>
        <time>2015-12-22T18:10:06.000Z</time>
      </trkpt>
      <trkpt lat="45.42321" lon="4.40462">
        <ele>597.70391845703</ele>
        <time>2015-12-22T18:10:08.000Z</time>
      </trkpt>
      <trkpt lat="45.42325" lon="4.40472">
        <ele>597.70031738281</ele>
        <time>2015-12-22T18:10:11.000Z</time>
      </trkpt>
      <trkpt lat="45.42325" lon="4.40479">
        <ele>597.4736328125</ele>
        <time>2015-12-22T18:10:13.000Z</time>
      </trkpt>
      <trkpt lat="45.42324" lon="4.40487">
        <ele>597.77874755859</ele>
        <time>2015-12-22T18:10:16.000Z</time>
      </trkpt>
      <trkpt lat="45.42321" lon="4.40492">
        <ele>598.25579833984</ele>
        <time>2015-12-22T18:10:18.000Z</time>
      </trkpt>
      <trkpt lat="45.42314" lon="4.40498">
        <ele>598.15051269531</ele>
        <time>2015-12-22T18:10:20.000Z</time>
      </trkpt>
      <trkpt lat="45.42308" lon="4.40506">
        <ele>598.35498046875</ele>
        <time>2015-12-22T18:10:22.000Z</time>
      </trkpt>
      <trkpt lat="45.42305" lon="4.40515">
        <ele>598.47106933594</ele>
        <time>2015-12-22T18:10:24.000Z</time>
      </trkpt>
      <trkpt lat="45.42304" lon="4.40525">
        <ele>599.65832519531</ele>
        <time>2015-12-22T18:10:27.000Z</time>
      </trkpt>
      <trkpt lat="45.42302" lon="4.40533">
        <ele>600.32543945312</ele>
        <time>2015-12-22T18:10:31.000Z</time>
      </trkpt>
      <trkpt lat="45.42298" lon="4.4054">
        <ele>601.23675537109</ele>
        <time>2015-12-22T18:10:34.000Z</time>
      </trkpt>
      <trkpt lat="45.42293" lon="4.40543">
        <ele>600.63580322266</ele>
        <time>2015-12-22T18:10:36.000Z</time>
      </trkpt>
      <trkpt lat="45.42281" lon="4.4055">
        <ele>599.82348632812</ele>
        <time>2015-12-22T18:10:39.000Z</time>
      </trkpt>
      <trkpt lat="45.42275" lon="4.40551">
        <ele>601.24157714844</ele>
        <time>2015-12-22T18:10:41.000Z</time>
      </trkpt>
      <trkpt lat="45.42266" lon="4.40552">
        <ele>602.43823242188</ele>
        <time>2015-12-22T18:10:44.000Z</time>
      </trkpt>
      <trkpt lat="45.4226" lon="4.40555">
        <ele>602.14392089844</ele>
        <time>2015-12-22T18:10:46.000Z</time>
      </trkpt>
      <trkpt lat="45.42249" lon="4.40555">
        <ele>600.79364013672</ele>
        <time>2015-12-22T18:10:49.000Z</time>
      </trkpt>
      <trkpt lat="45.42244" lon="4.40557">
        <ele>600.10638427734</ele>
        <time>2015-12-22T18:10:51.000Z</time>
      </trkpt>
      <trkpt lat="45.42237" lon="4.40561">
        <ele>601.28869628906</ele>
        <time>2015-12-22T18:10:53.000Z</time>
      </trkpt>
      <trkpt lat="45.4223" lon="4.40564">
        <ele>600.18176269531</ele>
        <time>2015-12-22T18:10:55.000Z</time>
      </trkpt>
      <trkpt lat="45.42226" lon="4.40565">
        <ele>598.80505371094</ele>
        <time>2015-12-22T18:10:58.000Z</time>
      </trkpt>
      <trkpt lat="45.42223" lon="4.40565">
        <ele>596.9091796875</ele>
        <time>2015-12-22T18:11:01.000Z</time>
      </trkpt>
      <trkpt lat="45.42223" lon="4.40569">
        <ele>595.87194824219</ele>
        <time>2015-12-22T18:11:04.000Z</time>
      </trkpt>
      <trkpt lat="45.42221" lon="4.40574">
        <ele>595.25207519531</ele>
        <time>2015-12-22T18:11:06.000Z</time>
      </trkpt>
      <trkpt lat="45.42215" lon="4.40578">
        <ele>593.82196044922</ele>
        <time>2015-12-22T18:11:08.000Z</time>
      </trkpt>
      <trkpt lat="45.42209" lon="4.40586">
        <ele>592.4560546875</ele>
        <time>2015-12-22T18:11:11.000Z</time>
      </trkpt>
      <trkpt lat="45.42207" lon="4.40591">
        <ele>592.39807128906</ele>
        <time>2015-12-22T18:11:13.000Z</time>
      </trkpt>
      <trkpt lat="45.42199" lon="4.40597">
        <ele>592.61553955078</ele>
        <time>2015-12-22T18:11:15.000Z</time>
      </trkpt>
      <trkpt lat="45.42184" lon="4.40599">
        <ele>591.76733398438</ele>
        <time>2015-12-22T18:11:18.000Z</time>
      </trkpt>
      <trkpt lat="45.42177" lon="4.40597">
        <ele>593.07989501953</ele>
        <time>2015-12-22T18:11:21.000Z</time>
      </trkpt>
      <trkpt lat="45.42168" lon="4.40597">
        <ele>593.49786376953</ele>
        <time>2015-12-22T18:11:23.000Z</time>
      </trkpt>
      <trkpt lat="45.42164" lon="4.40599">
        <ele>593.11614990234</ele>
        <time>2015-12-22T18:11:25.000Z</time>
      </trkpt>
      <trkpt lat="45.42153" lon="4.40607">
        <ele>592.77203369141</ele>
        <time>2015-12-22T18:11:28.000Z</time>
      </trkpt>
      <trkpt lat="45.42143" lon="4.4061">
        <ele>591.8896484375</ele>
        <time>2015-12-22T18:11:30.000Z</time>
      </trkpt>
      <trkpt lat="45.42139" lon="4.40612">
        <ele>592.15460205078</ele>
        <time>2015-12-22T18:11:32.000Z</time>
      </trkpt>
      <trkpt lat="45.42129" lon="4.40611">
        <ele>589.65588378906</ele>
        <time>2015-12-22T18:11:35.000Z</time>
      </trkpt>
      <trkpt lat="45.42122" lon="4.40609">
        <ele>587.29986572266</ele>
        <time>2015-12-22T18:11:37.000Z</time>
      </trkpt>
      <trkpt lat="45.42114" lon="4.40608">
        <ele>585.91198730469</ele>
        <time>2015-12-22T18:11:39.000Z</time>
      </trkpt>
      <trkpt lat="45.42107" lon="4.40608">
        <ele>587.11041259766</ele>
        <time>2015-12-22T18:11:42.000Z</time>
      </trkpt>
      <trkpt lat="45.42102" lon="4.40604">
        <ele>587.50354003906</ele>
        <time>2015-12-22T18:11:44.000Z</time>
      </trkpt>
      <trkpt lat="45.42097" lon="4.40605">
        <ele>589.18408203125</ele>
        <time>2015-12-22T18:11:46.000Z</time>
      </trkpt>
      <trkpt lat="45.42094" lon="4.40608">
        <ele>593.04876708984</ele>
        <time>2015-12-22T18:11:48.000Z</time>
      </trkpt>
      <trkpt lat="45.42086" lon="4.40606">
        <ele>592.21545410156</ele>
        <time>2015-12-22T18:11:51.000Z</time>
      </trkpt>
      <trkpt lat="45.42075" lon="4.40605">
        <ele>588.19799804688</ele>
        <time>2015-12-22T18:11:54.000Z</time>
      </trkpt>
      <trkpt lat="45.42067" lon="4.40605">
        <ele>587.00231933594</ele>
        <time>2015-12-22T18:11:57.000Z</time>
      </trkpt>
      <trkpt lat="45.4206" lon="4.40604">
        <ele>585.28723144531</ele>
        <time>2015-12-22T18:12:00.000Z</time>
      </trkpt>
      <trkpt lat="45.42057" lon="4.40604">
        <ele>586.13549804688</ele>
        <time>2015-12-22T18:12:02.000Z</time>
      </trkpt>
      <trkpt lat="45.42048" lon="4.40603">
        <ele>588.78967285156</ele>
        <time>2015-12-22T18:12:05.000Z</time>
      </trkpt>
      <trkpt lat="45.42043" lon="4.40602">
        <ele>589.47784423828</ele>
        <time>2015-12-22T18:12:07.000Z</time>
      </trkpt>
      <trkpt lat="45.42037" lon="4.40599">
        <ele>588.71307373047</ele>
        <time>2015-12-22T18:12:10.000Z</time>
      </trkpt>
      <trkpt lat="45.42028" lon="4.40595">
        <ele>587.89825439453</ele>
        <time>2015-12-22T18:12:12.000Z</time>
      </trkpt>
      <trkpt lat="45.42017" lon="4.40592">
        <ele>586.85827636719</ele>
        <time>2015-12-22T18:12:15.000Z</time>
      </trkpt>
      <trkpt lat="45.42007" lon="4.40589">
        <ele>586.74438476562</ele>
        <time>2015-12-22T18:12:18.000Z</time>
      </trkpt>
      <trkpt lat="45.41999" lon="4.40588">
        <ele>585.88525390625</ele>
        <time>2015-12-22T18:12:20.000Z</time>
      </trkpt>
      <trkpt lat="45.4199" lon="4.40588">
        <ele>585.16857910156</ele>
        <time>2015-12-22T18:12:22.000Z</time>
      </trkpt>
      <trkpt lat="45.41975" lon="4.40588">
        <ele>585.12640380859</ele>
        <time>2015-12-22T18:12:25.000Z</time>
      </trkpt>
      <trkpt lat="45.41963" lon="4.40586">
        <ele>587.00152587891</ele>
        <time>2015-12-22T18:12:28.000Z</time>
      </trkpt>
      <trkpt lat="45.41955" lon="4.40584">
        <ele>588.63360595703</ele>
        <time>2015-12-22T18:12:30.000Z</time>
      </trkpt>
      <trkpt lat="45.41946" lon="4.40581">
        <ele>588.67352294922</ele>
        <time>2015-12-22T18:12:33.000Z</time>
      </trkpt>
      <trkpt lat="45.41936" lon="4.40579">
        <ele>587.94445800781</ele>
        <time>2015-12-22T18:12:35.000Z</time>
      </trkpt>
      <trkpt lat="45.41942" lon="4.40585">
        <ele>583.82336425781</ele>
        <time>2015-12-22T18:12:37.000Z</time>
      </trkpt>
      <trkpt lat="45.41943" lon="4.40591">
        <ele>582.07427978516</ele>
        <time>2015-12-22T18:12:40.000Z</time>
      </trkpt>
      <trkpt lat="45.41942" lon="4.40592">
        <ele>581.59564208984</ele>
        <time>2015-12-22T18:12:42.000Z</time>
      </trkpt>
      <trkpt lat="45.4194" lon="4.40593">
        <ele>581.05163574219</ele>
        <time>2015-12-22T18:12:44.000Z</time>
      </trkpt>
      <trkpt lat="45.41938" lon="4.40596">
        <ele>580.90710449219</ele>
        <time>2015-12-22T18:12:46.000Z</time>
      </trkpt>
      <trkpt lat="45.41929" lon="4.40599">
        <ele>579.9140625</ele>
        <time>2015-12-22T18:12:49.000Z</time>
      </trkpt>
      <trkpt lat="45.41922" lon="4.40608">
        <ele>579.91363525391</ele>
        <time>2015-12-22T18:12:51.000Z</time>
      </trkpt>
      <trkpt lat="45.41911" lon="4.4063">
        <ele>581.52679443359</ele>
        <time>2015-12-22T18:12:54.000Z</time>
      </trkpt>
      <trkpt lat="45.41906" lon="4.40636">
        <ele>584.04644775391</ele>
        <time>2015-12-22T18:12:57.000Z</time>
      </trkpt>
      <trkpt lat="45.41904" lon="4.40638">
        <ele>584.88397216797</ele>
        <time>2015-12-22T18:12:59.000Z</time>
      </trkpt>
      <trkpt lat="45.41902" lon="4.40639">
        <ele>586.06396484375</ele>
        <time>2015-12-22T18:13:01.000Z</time>
      </trkpt>
      <trkpt lat="45.41899" lon="4.40636">
        <ele>584.80078125</ele>
        <time>2015-12-22T18:13:04.000Z</time>
      </trkpt>
      <trkpt lat="45.41896" lon="4.4063">
        <ele>583.09100341797</ele>
        <time>2015-12-22T18:13:06.000Z</time>
      </trkpt>
      <trkpt lat="45.41895" lon="4.40626">
        <ele>581.50720214844</ele>
        <time>2015-12-22T18:13:08.000Z</time>
      </trkpt>
      <trkpt lat="45.4189" lon="4.40623">
        <ele>579.03228759766</ele>
        <time>2015-12-22T18:13:11.000Z</time>
      </trkpt>
      <trkpt lat="45.41886" lon="4.40618">
        <ele>579.27905273438</ele>
        <time>2015-12-22T18:13:13.000Z</time>
      </trkpt>
      <trkpt lat="45.41879" lon="4.4061">
        <ele>573.29461669922</ele>
        <time>2015-12-22T18:13:16.000Z</time>
      </trkpt>
      <trkpt lat="45.41872" lon="4.40609">
        <ele>571.44671630859</ele>
        <time>2015-12-22T18:13:18.000Z</time>
      </trkpt>
      <trkpt lat="45.41863" lon="4.40607">
        <ele>569.33502197266</ele>
        <time>2015-12-22T18:13:21.000Z</time>
      </trkpt>
      <trkpt lat="45.41856" lon="4.40604">
        <ele>570.85870361328</ele>
        <time>2015-12-22T18:13:24.000Z</time>
      </trkpt>
      <trkpt lat="45.41846" lon="4.40606">
        <ele>570.45190429688</ele>
        <time>2015-12-22T18:13:26.000Z</time>
      </trkpt>
      <trkpt lat="45.41841" lon="4.40608">
        <ele>572.22613525391</ele>
        <time>2015-12-22T18:13:28.000Z</time>
      </trkpt>
      <trkpt lat="45.41837" lon="4.40609">
        <ele>574.28405761719</ele>
        <time>2015-12-22T18:13:31.000Z</time>
      </trkpt>
      <trkpt lat="45.41827" lon="4.40614">
        <ele>577.42932128906</ele>
        <time>2015-12-22T18:13:34.000Z</time>
      </trkpt>
      <trkpt lat="45.41819" lon="4.40614">
        <ele>578.8955078125</ele>
        <time>2015-12-22T18:13:37.000Z</time>
      </trkpt>
      <trkpt lat="45.41811" lon="4.40614">
        <ele>580.31506347656</ele>
        <time>2015-12-22T18:13:40.000Z</time>
      </trkpt>
      <trkpt lat="45.41803" lon="4.40615">
        <ele>581.12097167969</ele>
        <time>2015-12-22T18:13:43.000Z</time>
      </trkpt>
      <trkpt lat="45.41797" lon="4.40615">
        <ele>581.35552978516</ele>
        <time>2015-12-22T18:13:45.000Z</time>
      </trkpt>
      <trkpt lat="45.41792" lon="4.40617">
        <ele>579.24383544922</ele>
        <time>2015-12-22T18:13:47.000Z</time>
      </trkpt>
      <trkpt lat="45.41786" lon="4.40619">
        <ele>575.66796875</ele>
        <time>2015-12-22T18:13:49.000Z</time>
      </trkpt>
      <trkpt lat="45.41782" lon="4.40621">
        <ele>573.08197021484</ele>
        <time>2015-12-22T18:13:51.000Z</time>
      </trkpt>
      <trkpt lat="45.41774" lon="4.40624">
        <ele>572.81927490234</ele>
        <time>2015-12-22T18:13:54.000Z</time>
      </trkpt>
      <trkpt lat="45.41764" lon="4.40628">
        <ele>573.11920166016</ele>
        <time>2015-12-22T18:13:57.000Z</time>
      </trkpt>
      <trkpt lat="45.41759" lon="4.40629">
        <ele>572.98791503906</ele>
        <time>2015-12-22T18:13:59.000Z</time>
      </trkpt>
      <trkpt lat="45.41752" lon="4.40633">
        <ele>571.53686523438</ele>
        <time>2015-12-22T18:14:02.000Z</time>
      </trkpt>
      <trkpt lat="45.41744" lon="4.40637">
        <ele>571.67309570312</ele>
        <time>2015-12-22T18:14:05.000Z</time>
      </trkpt>
      <trkpt lat="45.41739" lon="4.40639">
        <ele>572.67669677734</ele>
        <time>2015-12-22T18:14:07.000Z</time>
      </trkpt>
      <trkpt lat="45.41733" lon="4.40641">
        <ele>573.22222900391</ele>
        <time>2015-12-22T18:14:10.000Z</time>
      </trkpt>
      <trkpt lat="45.41723" lon="4.40644">
        <ele>572.25561523438</ele>
        <time>2015-12-22T18:14:13.000Z</time>
      </trkpt>
      <trkpt lat="45.41718" lon="4.40644">
        <ele>571.55834960938</ele>
        <time>2015-12-22T18:14:15.000Z</time>
      </trkpt>
      <trkpt lat="45.41713" lon="4.40644">
        <ele>573.37542724609</ele>
        <time>2015-12-22T18:14:17.000Z</time>
      </trkpt>
      <trkpt lat="45.41707" lon="4.40645">
        <ele>575.56726074219</ele>
        <time>2015-12-22T18:14:19.000Z</time>
      </trkpt>
      <trkpt lat="45.41698" lon="4.40646">
        <ele>577.82733154297</ele>
        <time>2015-12-22T18:14:22.000Z</time>
      </trkpt>
      <trkpt lat="45.41692" lon="4.40648">
        <ele>577.55603027344</ele>
        <time>2015-12-22T18:14:24.000Z</time>
      </trkpt>
      <trkpt lat="45.41687" lon="4.40649">
        <ele>577.84197998047</ele>
        <time>2015-12-22T18:14:26.000Z</time>
      </trkpt>
      <trkpt lat="45.41682" lon="4.40649">
        <ele>577.97631835938</ele>
        <time>2015-12-22T18:14:28.000Z</time>
      </trkpt>
      <trkpt lat="45.41673" lon="4.40648">
        <ele>579.41735839844</ele>
        <time>2015-12-22T18:14:31.000Z</time>
      </trkpt>
      <trkpt lat="45.41665" lon="4.40647">
        <ele>577.28869628906</ele>
        <time>2015-12-22T18:14:34.000Z</time>
      </trkpt>
      <trkpt lat="45.4166" lon="4.40646">
        <ele>577.27056884766</ele>
        <time>2015-12-22T18:14:36.000Z</time>
      </trkpt>
      <trkpt lat="45.41651" lon="4.40643">
        <ele>575.06420898438</ele>
        <time>2015-12-22T18:14:39.000Z</time>
      </trkpt>
      <trkpt lat="45.41646" lon="4.40644">
        <ele>573.29809570312</ele>
        <time>2015-12-22T18:14:41.000Z</time>
      </trkpt>
      <trkpt lat="45.4164" lon="4.40646">
        <ele>571.74468994141</ele>
        <time>2015-12-22T18:14:43.000Z</time>
      </trkpt>
      <trkpt lat="45.41634" lon="4.4065">
        <ele>571.75970458984</ele>
        <time>2015-12-22T18:14:46.000Z</time>
      </trkpt>
      <trkpt lat="45.41627" lon="4.40656">
        <ele>572.966796875</ele>
        <time>2015-12-22T18:14:49.000Z</time>
      </trkpt>
      <trkpt lat="45.41624" lon="4.4066">
        <ele>574.86065673828</ele>
        <time>2015-12-22T18:14:51.000Z</time>
      </trkpt>
      <trkpt lat="45.41621" lon="4.40669">
        <ele>575.48095703125</ele>
        <time>2015-12-22T18:14:54.000Z</time>
      </trkpt>
      <trkpt lat="45.41616" lon="4.40676">
        <ele>574.90484619141</ele>
        <time>2015-12-22T18:14:57.000Z</time>
      </trkpt>
      <trkpt lat="45.4161" lon="4.40683">
        <ele>573.21887207031</ele>
        <time>2015-12-22T18:15:00.000Z</time>
      </trkpt>
      <trkpt lat="45.41605" lon="4.40682">
        <ele>573.74072265625</ele>
        <time>2015-12-22T18:15:03.000Z</time>
      </trkpt>
      <trkpt lat="45.416" lon="4.40681">
        <ele>572.79888916016</ele>
        <time>2015-12-22T18:15:06.000Z</time>
      </trkpt>
      <trkpt lat="45.41597" lon="4.40682">
        <ele>570.69281005859</ele>
        <time>2015-12-22T18:15:08.000Z</time>
      </trkpt>
      <trkpt lat="45.41589" lon="4.40682">
        <ele>570.19915771484</ele>
        <time>2015-12-22T18:15:11.000Z</time>
      </trkpt>
      <trkpt lat="45.41581" lon="4.4068">
        <ele>571.46771240234</ele>
        <time>2015-12-22T18:15:14.000Z</time>
      </trkpt>
      <trkpt lat="45.41574" lon="4.4068">
        <ele>570.38427734375</ele>
        <time>2015-12-22T18:15:16.000Z</time>
      </trkpt>
      <trkpt lat="45.4157" lon="4.40679">
        <ele>570.03985595703</ele>
        <time>2015-12-22T18:15:18.000Z</time>
      </trkpt>
      <trkpt lat="45.41565" lon="4.40679">
        <ele>568.63049316406</ele>
        <time>2015-12-22T18:15:20.000Z</time>
      </trkpt>
      <trkpt lat="45.41563" lon="4.40677">
        <ele>568.47735595703</ele>
        <time>2015-12-22T18:15:22.000Z</time>
      </trkpt>
      <trkpt lat="45.41557" lon="4.40675">
        <ele>568.59600830078</ele>
        <time>2015-12-22T18:15:25.000Z</time>
      </trkpt>
      <trkpt lat="45.41552" lon="4.40674">
        <ele>567.11004638672</ele>
        <time>2015-12-22T18:15:28.000Z</time>
      </trkpt>
      <trkpt lat="45.41545" lon="4.40675">
        <ele>565.44793701172</ele>
        <time>2015-12-22T18:15:30.000Z</time>
      </trkpt>
      <trkpt lat="45.41542" lon="4.40667">
        <ele>565.47583007812</ele>
        <time>2015-12-22T18:15:33.000Z</time>
      </trkpt>
      <trkpt lat="45.4154" lon="4.40655">
        <ele>565.00170898438</ele>
        <time>2015-12-22T18:15:36.000Z</time>
      </trkpt>
      <trkpt lat="45.41539" lon="4.40647">
        <ele>565.30578613281</ele>
        <time>2015-12-22T18:15:39.000Z</time>
      </trkpt>
      <trkpt lat="45.41538" lon="4.40637">
        <ele>563.51013183594</ele>
        <time>2015-12-22T18:15:42.000Z</time>
      </trkpt>
      <trkpt lat="45.41537" lon="4.40629">
        <ele>562.35522460938</ele>
        <time>2015-12-22T18:15:44.000Z</time>
      </trkpt>
      <trkpt lat="45.41539" lon="4.4062">
        <ele>561.13153076172</ele>
        <time>2015-12-22T18:15:47.000Z</time>
      </trkpt>
      <trkpt lat="45.41541" lon="4.40613">
        <ele>561.41625976562</ele>
        <time>2015-12-22T18:15:49.000Z</time>
      </trkpt>
      <trkpt lat="45.41544" lon="4.40602">
        <ele>564.70349121094</ele>
        <time>2015-12-22T18:15:52.000Z</time>
      </trkpt>
      <trkpt lat="45.41547" lon="4.40594">
        <ele>567.10412597656</ele>
        <time>2015-12-22T18:15:54.000Z</time>
      </trkpt>
      <trkpt lat="45.41545" lon="4.40581">
        <ele>569.90423583984</ele>
        <time>2015-12-22T18:15:57.000Z</time>
      </trkpt>
      <trkpt lat="45.41546" lon="4.40571">
        <ele>570.18853759766</ele>
        <time>2015-12-22T18:16:00.000Z</time>
      </trkpt>
      <trkpt lat="45.41546" lon="4.40565">
        <ele>571.03515625</ele>
        <time>2015-12-22T18:16:02.000Z</time>
      </trkpt>
      <trkpt lat="45.41548" lon="4.40552">
        <ele>572.38336181641</ele>
        <time>2015-12-22T18:16:05.000Z</time>
      </trkpt>
      <trkpt lat="45.41551" lon="4.40539">
        <ele>575.49505615234</ele>
        <time>2015-12-22T18:16:08.000Z</time>
      </trkpt>
      <trkpt lat="45.41551" lon="4.40531">
        <ele>577.70947265625</ele>
        <time>2015-12-22T18:16:10.000Z</time>
      </trkpt>
      <trkpt lat="45.4155" lon="4.40523">
        <ele>579.43572998047</ele>
        <time>2015-12-22T18:16:12.000Z</time>
      </trkpt>
      <trkpt lat="45.41549" lon="4.40508">
        <ele>578.18713378906</ele>
        <time>2015-12-22T18:16:15.000Z</time>
      </trkpt>
      <trkpt lat="45.41546" lon="4.40495">
        <ele>574.55383300781</ele>
        <time>2015-12-22T18:16:18.000Z</time>
      </trkpt>
      <trkpt lat="45.41531" lon="4.4048">
        <ele>569.02569580078</ele>
        <time>2015-12-22T18:16:21.000Z</time>
      </trkpt>
      <trkpt lat="45.41523" lon="4.40468">
        <ele>566.50048828125</ele>
        <time>2015-12-22T18:16:24.000Z</time>
      </trkpt>
      <trkpt lat="45.41521" lon="4.4046">
        <ele>566.03985595703</ele>
        <time>2015-12-22T18:16:26.000Z</time>
      </trkpt>
      <trkpt lat="45.41518" lon="4.40451">
        <ele>564.67993164062</ele>
        <time>2015-12-22T18:16:29.000Z</time>
      </trkpt>
      <trkpt lat="45.41514" lon="4.40441">
        <ele>565.53540039062</ele>
        <time>2015-12-22T18:16:32.000Z</time>
      </trkpt>
      <trkpt lat="45.41507" lon="4.40431">
        <ele>564.84741210938</ele>
        <time>2015-12-22T18:16:35.000Z</time>
      </trkpt>
      <trkpt lat="45.41502" lon="4.40425">
        <ele>564.1591796875</ele>
        <time>2015-12-22T18:16:37.000Z</time>
      </trkpt>
      <trkpt lat="45.41496" lon="4.40417">
        <ele>565.23968505859</ele>
        <time>2015-12-22T18:16:40.000Z</time>
      </trkpt>
      <trkpt lat="45.41493" lon="4.40411">
        <ele>564.42980957031</ele>
        <time>2015-12-22T18:16:42.000Z</time>
      </trkpt>
      <trkpt lat="45.41486" lon="4.40404">
        <ele>566.15063476562</ele>
        <time>2015-12-22T18:16:45.000Z</time>
      </trkpt>
      <trkpt lat="45.41483" lon="4.40396">
        <ele>566.88983154297</ele>
        <time>2015-12-22T18:16:48.000Z</time>
      </trkpt>
      <trkpt lat="45.41476" lon="4.4039">
        <ele>567.75378417969</ele>
        <time>2015-12-22T18:16:51.000Z</time>
      </trkpt>
      <trkpt lat="45.41473" lon="4.40385">
        <ele>567.92761230469</ele>
        <time>2015-12-22T18:16:53.000Z</time>
      </trkpt>
      <trkpt lat="45.41467" lon="4.40381">
        <ele>565.50427246094</ele>
        <time>2015-12-22T18:16:56.000Z</time>
      </trkpt>
      <trkpt lat="45.41461" lon="4.40376">
        <ele>565.69549560547</ele>
        <time>2015-12-22T18:16:59.000Z</time>
      </trkpt>
      <trkpt lat="45.41457" lon="4.40372">
        <ele>567.62603759766</ele>
        <time>2015-12-22T18:17:01.000Z</time>
      </trkpt>
      <trkpt lat="45.4145" lon="4.40363">
        <ele>568.99792480469</ele>
        <time>2015-12-22T18:17:04.000Z</time>
      </trkpt>
      <trkpt lat="45.41447" lon="4.40358">
        <ele>569.46356201172</ele>
        <time>2015-12-22T18:17:06.000Z</time>
      </trkpt>
      <trkpt lat="45.41443" lon="4.40353">
        <ele>570.30932617188</ele>
        <time>2015-12-22T18:17:08.000Z</time>
      </trkpt>
      <trkpt lat="45.41436" lon="4.40348">
        <ele>572.50311279297</ele>
        <time>2015-12-22T18:17:11.000Z</time>
      </trkpt>
      <trkpt lat="45.41432" lon="4.40346">
        <ele>573.76129150391</ele>
        <time>2015-12-22T18:17:13.000Z</time>
      </trkpt>
      <trkpt lat="45.41428" lon="4.40343">
        <ele>574.88366699219</ele>
        <time>2015-12-22T18:17:15.000Z</time>
      </trkpt>
      <trkpt lat="45.41425" lon="4.40339">
        <ele>574.37969970703</ele>
        <time>2015-12-22T18:17:17.000Z</time>
      </trkpt>
      <trkpt lat="45.41419" lon="4.40336">
        <ele>572.25628662109</ele>
        <time>2015-12-22T18:17:20.000Z</time>
      </trkpt>
      <trkpt lat="45.41415" lon="4.40337">
        <ele>570.46398925781</ele>
        <time>2015-12-22T18:17:22.000Z</time>
      </trkpt>
      <trkpt lat="45.4141" lon="4.40335">
        <ele>572.24438476562</ele>
        <time>2015-12-22T18:17:25.000Z</time>
      </trkpt>
      <trkpt lat="45.41406" lon="4.40331">
        <ele>573.07818603516</ele>
        <time>2015-12-22T18:17:27.000Z</time>
      </trkpt>
      <trkpt lat="45.41401" lon="4.40324">
        <ele>574.29827880859</ele>
        <time>2015-12-22T18:17:30.000Z</time>
      </trkpt>
      <trkpt lat="45.41396" lon="4.40324">
        <ele>574.12414550781</ele>
        <time>2015-12-22T18:17:32.000Z</time>
      </trkpt>
      <trkpt lat="45.41393" lon="4.40327">
        <ele>572.89520263672</ele>
        <time>2015-12-22T18:17:34.000Z</time>
      </trkpt>
      <trkpt lat="45.4139" lon="4.40331">
        <ele>573.18865966797</ele>
        <time>2015-12-22T18:17:36.000Z</time>
      </trkpt>
      <trkpt lat="45.41386" lon="4.40334">
        <ele>573.46166992188</ele>
        <time>2015-12-22T18:17:39.000Z</time>
      </trkpt>
      <trkpt lat="45.41383" lon="4.40335">
        <ele>573.47827148438</ele>
        <time>2015-12-22T18:17:41.000Z</time>
      </trkpt>
      <trkpt lat="45.41373" lon="4.40334">
        <ele>573.75970458984</ele>
        <time>2015-12-22T18:17:45.000Z</time>
      </trkpt>
      <trkpt lat="45.41367" lon="4.40332">
        <ele>575.67248535156</ele>
        <time>2015-12-22T18:17:47.000Z</time>
      </trkpt>
      <trkpt lat="45.41364" lon="4.4033">
        <ele>576.42175292969</ele>
        <time>2015-12-22T18:17:49.000Z</time>
      </trkpt>
      <trkpt lat="45.41359" lon="4.40326">
        <ele>577.82989501953</ele>
        <time>2015-12-22T18:17:52.000Z</time>
      </trkpt>
      <trkpt lat="45.41357" lon="4.4032">
        <ele>577.39404296875</ele>
        <time>2015-12-22T18:17:54.000Z</time>
      </trkpt>
      <trkpt lat="45.41354" lon="4.40311">
        <ele>574.93005371094</ele>
        <time>2015-12-22T18:17:57.000Z</time>
      </trkpt>
      <trkpt lat="45.41354" lon="4.40305">
        <ele>575.17425537109</ele>
        <time>2015-12-22T18:18:00.000Z</time>
      </trkpt>
      <trkpt lat="45.41355" lon="4.40302">
        <ele>574.9560546875</ele>
        <time>2015-12-22T18:18:02.000Z</time>
      </trkpt>
      <trkpt lat="45.4136" lon="4.40297">
        <ele>574.90649414062</ele>
        <time>2015-12-22T18:18:05.000Z</time>
      </trkpt>
      <trkpt lat="45.41364" lon="4.40291">
        <ele>574.2177734375</ele>
        <time>2015-12-22T18:18:08.000Z</time>
      </trkpt>
      <trkpt lat="45.41368" lon="4.40288">
        <ele>572.58190917969</ele>
        <time>2015-12-22T18:18:10.000Z</time>
      </trkpt>
      <trkpt lat="45.41373" lon="4.40282">
        <ele>570.03460693359</ele>
        <time>2015-12-22T18:18:13.000Z</time>
      </trkpt>
      <trkpt lat="45.41378" lon="4.40274">
        <ele>569.68310546875</ele>
        <time>2015-12-22T18:18:16.000Z</time>
      </trkpt>
      <trkpt lat="45.4138" lon="4.4027">
        <ele>568.26745605469</ele>
        <time>2015-12-22T18:18:18.000Z</time>
      </trkpt>
      <trkpt lat="45.41384" lon="4.40261">
        <ele>568.37634277344</ele>
        <time>2015-12-22T18:18:21.000Z</time>
      </trkpt>
      <trkpt lat="45.41389" lon="4.40253">
        <ele>568.71484375</ele>
        <time>2015-12-22T18:18:24.000Z</time>
      </trkpt>
      <trkpt lat="45.41395" lon="4.40248">
        <ele>570.6787109375</ele>
        <time>2015-12-22T18:18:27.000Z</time>
      </trkpt>
      <trkpt lat="45.41399" lon="4.40245">
        <ele>572.53167724609</ele>
        <time>2015-12-22T18:18:30.000Z</time>
      </trkpt>
      <trkpt lat="45.41403" lon="4.40242">
        <ele>574.23858642578</ele>
        <time>2015-12-22T18:18:32.000Z</time>
      </trkpt>
      <trkpt lat="45.41408" lon="4.40237">
        <ele>574.03479003906</ele>
        <time>2015-12-22T18:18:35.000Z</time>
      </trkpt>
      <trkpt lat="45.4141" lon="4.40231">
        <ele>573.66485595703</ele>
        <time>2015-12-22T18:18:37.000Z</time>
      </trkpt>
      <trkpt lat="45.41415" lon="4.40223">
        <ele>572.58941650391</ele>
        <time>2015-12-22T18:18:40.000Z</time>
      </trkpt>
      <trkpt lat="45.4142" lon="4.40217">
        <ele>570.24853515625</ele>
        <time>2015-12-22T18:18:42.000Z</time>
      </trkpt>
      <trkpt lat="45.41423" lon="4.4021">
        <ele>569.29064941406</ele>
        <time>2015-12-22T18:18:44.000Z</time>
      </trkpt>
      <trkpt lat="45.41428" lon="4.40203">
        <ele>570.94677734375</ele>
        <time>2015-12-22T18:18:47.000Z</time>
      </trkpt>
      <trkpt lat="45.41433" lon="4.40201">
        <ele>570.20080566406</ele>
        <time>2015-12-22T18:18:50.000Z</time>
      </trkpt>
      <trkpt lat="45.41436" lon="4.40199">
        <ele>570.42340087891</ele>
        <time>2015-12-22T18:18:52.000Z</time>
      </trkpt>
      <trkpt lat="45.41443" lon="4.40194">
        <ele>569.32391357422</ele>
        <time>2015-12-22T18:18:55.000Z</time>
      </trkpt>
      <trkpt lat="45.41451" lon="4.40183">
        <ele>569.32287597656</ele>
        <time>2015-12-22T18:18:58.000Z</time>
      </trkpt>
      <trkpt lat="45.41454" lon="4.40174">
        <ele>569.63513183594</ele>
        <time>2015-12-22T18:19:01.000Z</time>
      </trkpt>
      <trkpt lat="45.41455" lon="4.40161">
        <ele>568.06774902344</ele>
        <time>2015-12-22T18:19:04.000Z</time>
      </trkpt>
      <trkpt lat="45.41456" lon="4.40151">
        <ele>567.46087646484</ele>
        <time>2015-12-22T18:19:06.000Z</time>
      </trkpt>
      <trkpt lat="45.41455" lon="4.40144">
        <ele>567.36083984375</ele>
        <time>2015-12-22T18:19:08.000Z</time>
      </trkpt>
      <trkpt lat="45.41453" lon="4.40134">
        <ele>568.82983398438</ele>
        <time>2015-12-22T18:19:11.000Z</time>
      </trkpt>
      <trkpt lat="45.41452" lon="4.40128">
        <ele>569.89691162109</ele>
        <time>2015-12-22T18:19:13.000Z</time>
      </trkpt>
      <trkpt lat="45.4145" lon="4.40118">
        <ele>571.43286132812</ele>
        <time>2015-12-22T18:19:16.000Z</time>
      </trkpt>
      <trkpt lat="45.41449" lon="4.40112">
        <ele>572.10455322266</ele>
        <time>2015-12-22T18:19:18.000Z</time>
      </trkpt>
      <trkpt lat="45.41447" lon="4.40104">
        <ele>572.1025390625</ele>
        <time>2015-12-22T18:19:21.000Z</time>
      </trkpt>
      <trkpt lat="45.41444" lon="4.40098">
        <ele>572.15600585938</ele>
        <time>2015-12-22T18:19:23.000Z</time>
      </trkpt>
      <trkpt lat="45.41438" lon="4.40094">
        <ele>571.57629394531</ele>
        <time>2015-12-22T18:19:26.000Z</time>
      </trkpt>
      <trkpt lat="45.41431" lon="4.40095">
        <ele>571.97430419922</ele>
        <time>2015-12-22T18:19:29.000Z</time>
      </trkpt>
      <trkpt lat="45.41427" lon="4.40098">
        <ele>571.57330322266</ele>
        <time>2015-12-22T18:19:31.000Z</time>
      </trkpt>
      <trkpt lat="45.41418" lon="4.40102">
        <ele>573.24145507812</ele>
        <time>2015-12-22T18:19:34.000Z</time>
      </trkpt>
      <trkpt lat="45.41412" lon="4.40106">
        <ele>572.34265136719</ele>
        <time>2015-12-22T18:19:36.000Z</time>
      </trkpt>
      <trkpt lat="45.41407" lon="4.4011">
        <ele>571.56726074219</ele>
        <time>2015-12-22T18:19:38.000Z</time>
      </trkpt>
      <trkpt lat="45.41398" lon="4.40116">
        <ele>573.25939941406</ele>
        <time>2015-12-22T18:19:41.000Z</time>
      </trkpt>
      <trkpt lat="45.41394" lon="4.40118">
        <ele>574.52258300781</ele>
        <time>2015-12-22T18:19:43.000Z</time>
      </trkpt>
      <trkpt lat="45.41387" lon="4.40117">
        <ele>575.92047119141</ele>
        <time>2015-12-22T18:19:45.000Z</time>
      </trkpt>
      <trkpt lat="45.41381" lon="4.40117">
        <ele>577.60180664062</ele>
        <time>2015-12-22T18:19:47.000Z</time>
      </trkpt>
      <trkpt lat="45.41377" lon="4.40118">
        <ele>577.15734863281</ele>
        <time>2015-12-22T18:19:49.000Z</time>
      </trkpt>
      <trkpt lat="45.41373" lon="4.40117">
        <ele>576.60491943359</ele>
        <time>2015-12-22T18:19:51.000Z</time>
      </trkpt>
      <trkpt lat="45.4137" lon="4.40118">
        <ele>577.74725341797</ele>
        <time>2015-12-22T18:19:54.000Z</time>
      </trkpt>
      <trkpt lat="45.41368" lon="4.40119">
        <ele>579.46832275391</ele>
        <time>2015-12-22T18:19:56.000Z</time>
      </trkpt>
      <trkpt lat="45.41361" lon="4.40119">
        <ele>579.85845947266</ele>
        <time>2015-12-22T18:19:59.000Z</time>
      </trkpt>
      <trkpt lat="45.41355" lon="4.40118">
        <ele>579.85986328125</ele>
        <time>2015-12-22T18:20:02.000Z</time>
      </trkpt>
      <trkpt lat="45.41349" lon="4.40117">
        <ele>578.88677978516</ele>
        <time>2015-12-22T18:20:05.000Z</time>
      </trkpt>
      <trkpt lat="45.41347" lon="4.40116">
        <ele>580.27264404297</ele>
        <time>2015-12-22T18:20:07.000Z</time>
      </trkpt>
      <trkpt lat="45.41345" lon="4.40108">
        <ele>583.59075927734</ele>
        <time>2015-12-22T18:20:10.000Z</time>
      </trkpt>
      <trkpt lat="45.41343" lon="4.40092">
        <ele>580.15936279297</ele>
        <time>2015-12-22T18:20:13.000Z</time>
      </trkpt>
      <trkpt lat="45.41341" lon="4.40084">
        <ele>579.04241943359</ele>
        <time>2015-12-22T18:20:16.000Z</time>
      </trkpt>
      <trkpt lat="45.41339" lon="4.4008">
        <ele>577.67614746094</ele>
        <time>2015-12-22T18:20:18.000Z</time>
      </trkpt>
      <trkpt lat="45.41327" lon="4.4008">
        <ele>573.68432617188</ele>
        <time>2015-12-22T18:20:21.000Z</time>
      </trkpt>
      <trkpt lat="45.41315" lon="4.40087">
        <ele>568.49761962891</ele>
        <time>2015-12-22T18:20:24.000Z</time>
      </trkpt>
      <trkpt lat="45.4131" lon="4.40093">
        <ele>568.26989746094</ele>
        <time>2015-12-22T18:20:26.000Z</time>
      </trkpt>
      <trkpt lat="45.41301" lon="4.40098">
        <ele>568.96893310547</ele>
        <time>2015-12-22T18:20:29.000Z</time>
      </trkpt>
      <trkpt lat="45.41294" lon="4.40101">
        <ele>569.55596923828</ele>
        <time>2015-12-22T18:20:31.000Z</time>
      </trkpt>
      <trkpt lat="45.41285" lon="4.40106">
        <ele>570.39672851562</ele>
        <time>2015-12-22T18:20:34.000Z</time>
      </trkpt>
      <trkpt lat="45.41282" lon="4.40105">
        <ele>571.94702148438</ele>
        <time>2015-12-22T18:20:36.000Z</time>
      </trkpt>
      <trkpt lat="45.4128" lon="4.40104">
        <ele>571.82928466797</ele>
        <time>2015-12-22T18:20:39.000Z</time>
      </trkpt>
      <trkpt lat="45.41278" lon="4.40103">
        <ele>573.26837158203</ele>
        <time>2015-12-22T18:20:42.000Z</time>
      </trkpt>
      <trkpt lat="45.41276" lon="4.40102">
        <ele>575.18090820312</ele>
        <time>2015-12-22T18:20:44.000Z</time>
      </trkpt>
      <trkpt lat="45.41274" lon="4.40101">
        <ele>576.23608398438</ele>
        <time>2015-12-22T18:20:47.000Z</time>
      </trkpt>
      <trkpt lat="45.41272" lon="4.40099">
        <ele>577.16345214844</ele>
        <time>2015-12-22T18:20:49.000Z</time>
      </trkpt>
      <trkpt lat="45.4127" lon="4.40099">
        <ele>575.52062988281</ele>
        <time>2015-12-22T18:20:51.000Z</time>
      </trkpt>
      <trkpt lat="45.41266" lon="4.40103">
        <ele>574.87847900391</ele>
        <time>2015-12-22T18:20:53.000Z</time>
      </trkpt>
      <trkpt lat="45.41261" lon="4.4011">
        <ele>577.00286865234</ele>
        <time>2015-12-22T18:20:56.000Z</time>
      </trkpt>
      <trkpt lat="45.41258" lon="4.40115">
        <ele>577.32904052734</ele>
        <time>2015-12-22T18:20:58.000Z</time>
      </trkpt>
      <trkpt lat="45.41255" lon="4.40123">
        <ele>577.43182373047</ele>
        <time>2015-12-22T18:21:01.000Z</time>
      </trkpt>
      <trkpt lat="45.41252" lon="4.40124">
        <ele>576.43347167969</ele>
        <time>2015-12-22T18:21:04.000Z</time>
      </trkpt>
      <trkpt lat="45.4125" lon="4.40123">
        <ele>577.97265625</ele>
        <time>2015-12-22T18:21:06.000Z</time>
      </trkpt>
      <trkpt lat="45.41248" lon="4.40124">
        <ele>580.81658935547</ele>
        <time>2015-12-22T18:21:09.000Z</time>
      </trkpt>
      <trkpt lat="45.41246" lon="4.40124">
        <ele>581.498046875</ele>
        <time>2015-12-22T18:21:13.000Z</time>
      </trkpt>
      <trkpt lat="45.41245" lon="4.40124">
        <ele>580.14562988281</ele>
        <time>2015-12-22T18:21:16.000Z</time>
      </trkpt>
      <trkpt lat="45.41246" lon="4.40129">
        <ele>577.25549316406</ele>
        <time>2015-12-22T18:21:19.000Z</time>
      </trkpt>
      <trkpt lat="45.41249" lon="4.40135">
        <ele>574.42498779297</ele>
        <time>2015-12-22T18:21:21.000Z</time>
      </trkpt>
      <trkpt lat="45.41251" lon="4.40144">
        <ele>572.82318115234</ele>
        <time>2015-12-22T18:21:24.000Z</time>
      </trkpt>
      <trkpt lat="45.41251" lon="4.40147">
        <ele>572.49774169922</ele>
        <time>2015-12-22T18:21:26.000Z</time>
      </trkpt>
      <trkpt lat="45.4125" lon="4.40153">
        <ele>572.29315185547</ele>
        <time>2015-12-22T18:21:29.000Z</time>
      </trkpt>
      <trkpt lat="45.41249" lon="4.40157">
        <ele>572.853515625</ele>
        <time>2015-12-22T18:21:31.000Z</time>
      </trkpt>
      <trkpt lat="45.41249" lon="4.40166">
        <ele>573.70062255859</ele>
        <time>2015-12-22T18:21:34.000Z</time>
      </trkpt>
      <trkpt lat="45.41249" lon="4.40171">
        <ele>574.07196044922</ele>
        <time>2015-12-22T18:21:36.000Z</time>
      </trkpt>
      <trkpt lat="45.41249" lon="4.40174">
        <ele>574.08502197266</ele>
        <time>2015-12-22T18:21:38.000Z</time>
      </trkpt>
      <trkpt lat="45.41249" lon="4.40179">
        <ele>573.97491455078</ele>
        <time>2015-12-22T18:21:40.000Z</time>
      </trkpt>
      <trkpt lat="45.41248" lon="4.40182">
        <ele>573.81823730469</ele>
        <time>2015-12-22T18:21:42.000Z</time>
      </trkpt>
      <trkpt lat="45.41248" lon="4.40191">
        <ele>573.42504882812</ele>
        <time>2015-12-22T18:21:45.000Z</time>
      </trkpt>
      <trkpt lat="45.41249" lon="4.402">
        <ele>572.82208251953</ele>
        <time>2015-12-22T18:21:48.000Z</time>
      </trkpt>
      <trkpt lat="45.41251" lon="4.40208">
        <ele>572.74566650391</ele>
        <time>2015-12-22T18:21:51.000Z</time>
      </trkpt>
      <trkpt lat="45.4125" lon="4.40211">
        <ele>573.13714599609</ele>
        <time>2015-12-22T18:21:53.000Z</time>
      </trkpt>
      <trkpt lat="45.41248" lon="4.40219">
        <ele>573.79956054688</ele>
        <time>2015-12-22T18:21:56.000Z</time>
      </trkpt>
      <trkpt lat="45.41243" lon="4.40224">
        <ele>574.68041992188</ele>
        <time>2015-12-22T18:21:58.000Z</time>
      </trkpt>
      <trkpt lat="45.4124" lon="4.40232">
        <ele>574.86596679688</ele>
        <time>2015-12-22T18:22:01.000Z</time>
      </trkpt>
      <trkpt lat="45.41233" lon="4.40237">
        <ele>574.96661376953</ele>
        <time>2015-12-22T18:22:04.000Z</time>
      </trkpt>
      <trkpt lat="45.4123" lon="4.40239">
        <ele>574.61187744141</ele>
        <time>2015-12-22T18:22:06.000Z</time>
      </trkpt>
      <trkpt lat="45.41225" lon="4.40241">
        <ele>574.15173339844</ele>
        <time>2015-12-22T18:22:09.000Z</time>
      </trkpt>
      <trkpt lat="45.4122" lon="4.40243">
        <ele>573.98974609375</ele>
        <time>2015-12-22T18:22:11.000Z</time>
      </trkpt>
      <trkpt lat="45.41219" lon="4.40248">
        <ele>573.71740722656</ele>
        <time>2015-12-22T18:22:13.000Z</time>
      </trkpt>
      <trkpt lat="45.41217" lon="4.40252">
        <ele>573.68902587891</ele>
        <time>2015-12-22T18:22:16.000Z</time>
      </trkpt>
      <trkpt lat="45.41211" lon="4.40257">
        <ele>571.20068359375</ele>
        <time>2015-12-22T18:22:19.000Z</time>
      </trkpt>
      <trkpt lat="45.41208" lon="4.40258">
        <ele>571.92553710938</ele>
        <time>2015-12-22T18:22:22.000Z</time>
      </trkpt>
      <trkpt lat="45.41207" lon="4.40261">
        <ele>571.71160888672</ele>
        <time>2015-12-22T18:22:24.000Z</time>
      </trkpt>
      <trkpt lat="45.41206" lon="4.40262">
        <ele>570.82177734375</ele>
        <time>2015-12-22T18:22:26.000Z</time>
      </trkpt>
      <trkpt lat="45.41204" lon="4.40265">
        <ele>571.82592773438</ele>
        <time>2015-12-22T18:22:29.000Z</time>
      </trkpt>
      <trkpt lat="45.41203" lon="4.40269">
        <ele>572.06890869141</ele>
        <time>2015-12-22T18:22:31.000Z</time>
      </trkpt>
      <trkpt lat="45.41203" lon="4.40271">
        <ele>576.82238769531</ele>
        <time>2015-12-22T18:22:35.000Z</time>
      </trkpt>
      <trkpt lat="45.41199" lon="4.40276">
        <ele>580.16351318359</ele>
        <time>2015-12-22T18:22:38.000Z</time>
      </trkpt>
      <trkpt lat="45.41196" lon="4.40282">
        <ele>581.71179199219</ele>
        <time>2015-12-22T18:22:40.000Z</time>
      </trkpt>
      <trkpt lat="45.41191" lon="4.4029">
        <ele>581.63482666016</ele>
        <time>2015-12-22T18:22:43.000Z</time>
      </trkpt>
      <trkpt lat="45.41189" lon="4.40292">
        <ele>581.22686767578</ele>
        <time>2015-12-22T18:22:45.000Z</time>
      </trkpt>
      <trkpt lat="45.41185" lon="4.40298">
        <ele>580.18859863281</ele>
        <time>2015-12-22T18:22:48.000Z</time>
      </trkpt>
      <trkpt lat="45.41183" lon="4.403">
        <ele>579.60821533203</ele>
        <time>2015-12-22T18:22:51.000Z</time>
      </trkpt>
      <trkpt lat="45.41181" lon="4.40299">
        <ele>578.68096923828</ele>
        <time>2015-12-22T18:22:53.000Z</time>
      </trkpt>
      <trkpt lat="45.41176" lon="4.403">
        <ele>575.9794921875</ele>
        <time>2015-12-22T18:22:55.000Z</time>
      </trkpt>
      <trkpt lat="45.41171" lon="4.40299">
        <ele>575.12744140625</ele>
        <time>2015-12-22T18:22:58.000Z</time>
      </trkpt>
      <trkpt lat="45.41169" lon="4.403">
        <ele>574.81683349609</ele>
        <time>2015-12-22T18:23:00.000Z</time>
      </trkpt>
      <trkpt lat="45.41169" lon="4.40299">
        <ele>576.83050537109</ele>
        <time>2015-12-22T18:23:03.000Z</time>
      </trkpt>
      <trkpt lat="45.41168" lon="4.40296">
        <ele>579.41180419922</ele>
        <time>2015-12-22T18:23:06.000Z</time>
      </trkpt>
      <trkpt lat="45.41168" lon="4.40292">
        <ele>581.16198730469</ele>
        <time>2015-12-22T18:23:08.000Z</time>
      </trkpt>
      <trkpt lat="45.41167" lon="4.40286">
        <ele>584.15698242188</ele>
        <time>2015-12-22T18:23:11.000Z</time>
      </trkpt>
      <trkpt lat="45.41166" lon="4.40284">
        <ele>585.68310546875</ele>
        <time>2015-12-22T18:23:13.000Z</time>
      </trkpt>
      <trkpt lat="45.41165" lon="4.4028">
        <ele>587.78930664062</ele>
        <time>2015-12-22T18:23:15.000Z</time>
      </trkpt>
      <trkpt lat="45.41164" lon="4.40271">
        <ele>589.96667480469</ele>
        <time>2015-12-22T18:23:18.000Z</time>
      </trkpt>
      <trkpt lat="45.41162" lon="4.40264">
        <ele>592.62066650391</ele>
        <time>2015-12-22T18:23:21.000Z</time>
      </trkpt>
      <trkpt lat="45.41161" lon="4.40258">
        <ele>595.19946289062</ele>
        <time>2015-12-22T18:23:24.000Z</time>
      </trkpt>
      <trkpt lat="45.41161" lon="4.40251">
        <ele>595.85125732422</ele>
        <time>2015-12-22T18:23:27.000Z</time>
      </trkpt>
      <trkpt lat="45.41163" lon="4.40244">
        <ele>596.59497070312</ele>
        <time>2015-12-22T18:23:29.000Z</time>
      </trkpt>
      <trkpt lat="45.41163" lon="4.40235">
        <ele>596.80401611328</ele>
        <time>2015-12-22T18:23:32.000Z</time>
      </trkpt>
      <trkpt lat="45.41162" lon="4.40228">
        <ele>595.96978759766</ele>
        <time>2015-12-22T18:23:35.000Z</time>
      </trkpt>
      <trkpt lat="45.41161" lon="4.40222">
        <ele>596.43206787109</ele>
        <time>2015-12-22T18:23:37.000Z</time>
      </trkpt>
      <trkpt lat="45.4116" lon="4.40215">
        <ele>598.10711669922</ele>
        <time>2015-12-22T18:23:39.000Z</time>
      </trkpt>
      <trkpt lat="45.41158" lon="4.40206">
        <ele>599.29974365234</ele>
        <time>2015-12-22T18:23:42.000Z</time>
      </trkpt>
      <trkpt lat="45.41157" lon="4.402">
        <ele>598.89727783203</ele>
        <time>2015-12-22T18:23:44.000Z</time>
      </trkpt>
      <trkpt lat="45.41154" lon="4.40193">
        <ele>598.26007080078</ele>
        <time>2015-12-22T18:23:46.000Z</time>
      </trkpt>
      <trkpt lat="45.41147" lon="4.40186">
        <ele>596.27630615234</ele>
        <time>2015-12-22T18:23:49.000Z</time>
      </trkpt>
      <trkpt lat="45.41142" lon="4.40178">
        <ele>597.19079589844</ele>
        <time>2015-12-22T18:23:52.000Z</time>
      </trkpt>
      <trkpt lat="45.41138" lon="4.40171">
        <ele>597.54058837891</ele>
        <time>2015-12-22T18:23:55.000Z</time>
      </trkpt>
      <trkpt lat="45.41135" lon="4.40165">
        <ele>597.2001953125</ele>
        <time>2015-12-22T18:23:57.000Z</time>
      </trkpt>
      <trkpt lat="45.41129" lon="4.40159">
        <ele>598.39361572266</ele>
        <time>2015-12-22T18:24:00.000Z</time>
      </trkpt>
      <trkpt lat="45.41126" lon="4.40153">
        <ele>599.26702880859</ele>
        <time>2015-12-22T18:24:02.000Z</time>
      </trkpt>
      <trkpt lat="45.41122" lon="4.40146">
        <ele>598.85778808594</ele>
        <time>2015-12-22T18:24:05.000Z</time>
      </trkpt>
      <trkpt lat="45.41118" lon="4.40138">
        <ele>597.32214355469</ele>
        <time>2015-12-22T18:24:08.000Z</time>
      </trkpt>
      <trkpt lat="45.41115" lon="4.40132">
        <ele>598.76275634766</ele>
        <time>2015-12-22T18:24:10.000Z</time>
      </trkpt>
      <trkpt lat="45.41106" lon="4.40125">
        <ele>600.10272216797</ele>
        <time>2015-12-22T18:24:13.000Z</time>
      </trkpt>
      <trkpt lat="45.41104" lon="4.40119">
        <ele>599.74737548828</ele>
        <time>2015-12-22T18:24:15.000Z</time>
      </trkpt>
      <trkpt lat="45.411" lon="4.4011">
        <ele>602.46929931641</ele>
        <time>2015-12-22T18:24:18.000Z</time>
      </trkpt>
      <trkpt lat="45.41096" lon="4.401">
        <ele>603.8203125</ele>
        <time>2015-12-22T18:24:21.000Z</time>
      </trkpt>
      <trkpt lat="45.41095" lon="4.40093">
        <ele>604.48962402344</ele>
        <time>2015-12-22T18:24:24.000Z</time>
      </trkpt>
      <trkpt lat="45.41092" lon="4.40087">
        <ele>604.73907470703</ele>
        <time>2015-12-22T18:24:26.000Z</time>
      </trkpt>
      <trkpt lat="45.41087" lon="4.4008">
        <ele>603.7021484375</ele>
        <time>2015-12-22T18:24:29.000Z</time>
      </trkpt>
      <trkpt lat="45.41084" lon="4.40073">
        <ele>601.63116455078</ele>
        <time>2015-12-22T18:24:32.000Z</time>
      </trkpt>
      <trkpt lat="45.4108" lon="4.40066">
        <ele>600.86187744141</ele>
        <time>2015-12-22T18:24:35.000Z</time>
      </trkpt>
      <trkpt lat="45.41079" lon="4.40061">
        <ele>600.90789794922</ele>
        <time>2015-12-22T18:24:37.000Z</time>
      </trkpt>
      <trkpt lat="45.41077" lon="4.40053">
        <ele>600.23565673828</ele>
        <time>2015-12-22T18:24:40.000Z</time>
      </trkpt>
      <trkpt lat="45.41076" lon="4.40049">
        <ele>600.11938476562</ele>
        <time>2015-12-22T18:24:42.000Z</time>
      </trkpt>
      <trkpt lat="45.41075" lon="4.40045">
        <ele>600.61627197266</ele>
        <time>2015-12-22T18:24:44.000Z</time>
      </trkpt>
      <trkpt lat="45.41072" lon="4.40042">
        <ele>600.67919921875</ele>
        <time>2015-12-22T18:24:47.000Z</time>
      </trkpt>
      <trkpt lat="45.4107" lon="4.40039">
        <ele>601.62255859375</ele>
        <time>2015-12-22T18:24:49.000Z</time>
      </trkpt>
      <trkpt lat="45.41066" lon="4.40033">
        <ele>602.47998046875</ele>
        <time>2015-12-22T18:24:52.000Z</time>
      </trkpt>
      <trkpt lat="45.41062" lon="4.40029">
        <ele>602.98016357422</ele>
        <time>2015-12-22T18:24:54.000Z</time>
      </trkpt>
      <trkpt lat="45.41058" lon="4.40024">
        <ele>604.53356933594</ele>
        <time>2015-12-22T18:24:57.000Z</time>
      </trkpt>
      <trkpt lat="45.41054" lon="4.40023">
        <ele>606.07415771484</ele>
        <time>2015-12-22T18:24:59.000Z</time>
      </trkpt>
      <trkpt lat="45.4105" lon="4.40021">
        <ele>606.90991210938</ele>
        <time>2015-12-22T18:25:02.000Z</time>
      </trkpt>
      <trkpt lat="45.41046" lon="4.4002">
        <ele>608.64886474609</ele>
        <time>2015-12-22T18:25:05.000Z</time>
      </trkpt>
      <trkpt lat="45.41044" lon="4.40019">
        <ele>609.65606689453</ele>
        <time>2015-12-22T18:25:07.000Z</time>
      </trkpt>
      <trkpt lat="45.41041" lon="4.40018">
        <ele>609.31976318359</ele>
        <time>2015-12-22T18:25:09.000Z</time>
      </trkpt>
      <trkpt lat="45.41037" lon="4.40016">
        <ele>597.94311523438</ele>
        <time>2015-12-22T18:25:12.000Z</time>
      </trkpt>
      <trkpt lat="45.41033" lon="4.40016">
        <ele>584.98309326172</ele>
        <time>2015-12-22T18:25:14.000Z</time>
      </trkpt>
      <trkpt lat="45.4103" lon="4.40015">
        <ele>590.3251953125</ele>
        <time>2015-12-22T18:25:18.000Z</time>
      </trkpt>
      <trkpt lat="45.41026" lon="4.40014">
        <ele>598.03350830078</ele>
        <time>2015-12-22T18:25:20.000Z</time>
      </trkpt>
      <trkpt lat="45.41023" lon="4.40013">
        <ele>602.50109863281</ele>
        <time>2015-12-22T18:25:22.000Z</time>
      </trkpt>
      <trkpt lat="45.41019" lon="4.40014">
        <ele>606.83166503906</ele>
        <time>2015-12-22T18:25:25.000Z</time>
      </trkpt>
      <trkpt lat="45.41016" lon="4.40014">
        <ele>608.30529785156</ele>
        <time>2015-12-22T18:25:27.000Z</time>
      </trkpt>
      <trkpt lat="45.41012" lon="4.40014">
        <ele>610.36279296875</ele>
        <time>2015-12-22T18:25:29.000Z</time>
      </trkpt>
      <trkpt lat="45.41008" lon="4.40014">
        <ele>611.36975097656</ele>
        <time>2015-12-22T18:25:31.000Z</time>
      </trkpt>
      <trkpt lat="45.41001" lon="4.40015">
        <ele>613.3525390625</ele>
        <time>2015-12-22T18:25:34.000Z</time>
      </trkpt>
      <trkpt lat="45.40995" lon="4.40018">
        <ele>615.75811767578</ele>
        <time>2015-12-22T18:25:37.000Z</time>
      </trkpt>
      <trkpt lat="45.40991" lon="4.40022">
        <ele>618.21417236328</ele>
        <time>2015-12-22T18:25:40.000Z</time>
      </trkpt>
      <trkpt lat="45.40987" lon="4.40023">
        <ele>618.19323730469</ele>
        <time>2015-12-22T18:25:42.000Z</time>
      </trkpt>
      <trkpt lat="45.40981" lon="4.40026">
        <ele>618.44964599609</ele>
        <time>2015-12-22T18:25:45.000Z</time>
      </trkpt>
      <trkpt lat="45.40979" lon="4.40027">
        <ele>618.07244873047</ele>
        <time>2015-12-22T18:25:47.000Z</time>
      </trkpt>
      <trkpt lat="45.40975" lon="4.40031">
        <ele>617.40277099609</ele>
        <time>2015-12-22T18:25:50.000Z</time>
      </trkpt>
      <trkpt lat="45.40972" lon="4.40036">
        <ele>616.21228027344</ele>
        <time>2015-12-22T18:25:53.000Z</time>
      </trkpt>
      <trkpt lat="45.40968" lon="4.40037">
        <ele>617.02447509766</ele>
        <time>2015-12-22T18:25:56.000Z</time>
      </trkpt>
      <trkpt lat="45.40966" lon="4.40039">
        <ele>617.73504638672</ele>
        <time>2015-12-22T18:25:58.000Z</time>
      </trkpt>
      <trkpt lat="45.40963" lon="4.40042">
        <ele>617.92657470703</ele>
        <time>2015-12-22T18:26:01.000Z</time>
      </trkpt>
      <trkpt lat="45.40961" lon="4.40047">
        <ele>617.31854248047</ele>
        <time>2015-12-22T18:26:03.000Z</time>
      </trkpt>
      <trkpt lat="45.40956" lon="4.40049">
        <ele>618.60028076172</ele>
        <time>2015-12-22T18:26:06.000Z</time>
      </trkpt>
      <trkpt lat="45.40953" lon="4.40052">
        <ele>619.45153808594</ele>
        <time>2015-12-22T18:26:09.000Z</time>
      </trkpt>
      <trkpt lat="45.40952" lon="4.40054">
        <ele>619.84893798828</ele>
        <time>2015-12-22T18:26:11.000Z</time>
      </trkpt>
      <trkpt lat="45.4095" lon="4.40059">
        <ele>619.85595703125</ele>
        <time>2015-12-22T18:26:14.000Z</time>
      </trkpt>
      <trkpt lat="45.40947" lon="4.40067">
        <ele>621.22161865234</ele>
        <time>2015-12-22T18:26:17.000Z</time>
      </trkpt>
      <trkpt lat="45.40945" lon="4.40071">
        <ele>621.8115234375</ele>
        <time>2015-12-22T18:26:20.000Z</time>
      </trkpt>
      <trkpt lat="45.40944" lon="4.40074">
        <ele>622.53143310547</ele>
        <time>2015-12-22T18:26:22.000Z</time>
      </trkpt>
      <trkpt lat="45.40944" lon="4.40077">
        <ele>622.94311523438</ele>
        <time>2015-12-22T18:26:25.000Z</time>
      </trkpt>
      <trkpt lat="45.40945" lon="4.40081">
        <ele>623.23504638672</ele>
        <time>2015-12-22T18:26:27.000Z</time>
      </trkpt>
      <trkpt lat="45.40951" lon="4.40085">
        <ele>623.58770751953</ele>
        <time>2015-12-22T18:26:30.000Z</time>
      </trkpt>
      <trkpt lat="45.40956" lon="4.40087">
        <ele>623.95001220703</ele>
        <time>2015-12-22T18:26:32.000Z</time>
      </trkpt>
      <trkpt lat="45.40963" lon="4.40087">
        <ele>627.87176513672</ele>
        <time>2015-12-22T18:26:35.000Z</time>
      </trkpt>
      <trkpt lat="45.40968" lon="4.40089">
        <ele>629.97198486328</ele>
        <time>2015-12-22T18:26:37.000Z</time>
      </trkpt>
      <trkpt lat="45.40972" lon="4.40092">
        <ele>630.671875</ele>
        <time>2015-12-22T18:26:40.000Z</time>
      </trkpt>
      <trkpt lat="45.40973" lon="4.40094">
        <ele>629.89788818359</ele>
        <time>2015-12-22T18:26:43.000Z</time>
      </trkpt>
      <trkpt lat="45.40971" lon="4.40098">
        <ele>629.63116455078</ele>
        <time>2015-12-22T18:26:46.000Z</time>
      </trkpt>
      <trkpt lat="45.40968" lon="4.40103">
        <ele>629.24432373047</ele>
        <time>2015-12-22T18:26:49.000Z</time>
      </trkpt>
      <trkpt lat="45.40965" lon="4.40109">
        <ele>628.34002685547</ele>
        <time>2015-12-22T18:26:51.000Z</time>
      </trkpt>
      <trkpt lat="45.40962" lon="4.40117">
        <ele>627.86279296875</ele>
        <time>2015-12-22T18:26:54.000Z</time>
      </trkpt>
      <trkpt lat="45.40959" lon="4.40121">
        <ele>628.94592285156</ele>
        <time>2015-12-22T18:26:57.000Z</time>
      </trkpt>
      <trkpt lat="45.40956" lon="4.40122">
        <ele>628.4208984375</ele>
        <time>2015-12-22T18:26:59.000Z</time>
      </trkpt>
      <trkpt lat="45.40952" lon="4.40122">
        <ele>626.58428955078</ele>
        <time>2015-12-22T18:27:02.000Z</time>
      </trkpt>
      <trkpt lat="45.40949" lon="4.40123">
        <ele>628.08740234375</ele>
        <time>2015-12-22T18:27:05.000Z</time>
      </trkpt>
      <trkpt lat="45.40945" lon="4.40127">
        <ele>629.36413574219</ele>
        <time>2015-12-22T18:27:09.000Z</time>
      </trkpt>
      <trkpt lat="45.40944" lon="4.40134">
        <ele>629.54925537109</ele>
        <time>2015-12-22T18:27:11.000Z</time>
      </trkpt>
      <trkpt lat="45.40942" lon="4.40139">
        <ele>629.84149169922</ele>
        <time>2015-12-22T18:27:13.000Z</time>
      </trkpt>
      <trkpt lat="45.40941" lon="4.40142">
        <ele>631.05444335938</ele>
        <time>2015-12-22T18:27:16.000Z</time>
      </trkpt>
      <trkpt lat="45.40939" lon="4.40144">
        <ele>632.03479003906</ele>
        <time>2015-12-22T18:27:20.000Z</time>
      </trkpt>
      <trkpt lat="45.40937" lon="4.40148">
        <ele>631.87329101562</ele>
        <time>2015-12-22T18:27:22.000Z</time>
      </trkpt>
      <trkpt lat="45.40932" lon="4.4015">
        <ele>630.49255371094</ele>
        <time>2015-12-22T18:27:25.000Z</time>
      </trkpt>
      <trkpt lat="45.40931" lon="4.40151">
        <ele>630.4052734375</ele>
        <time>2015-12-22T18:27:27.000Z</time>
      </trkpt>
      <trkpt lat="45.40928" lon="4.40155">
        <ele>630.4482421875</ele>
        <time>2015-12-22T18:27:30.000Z</time>
      </trkpt>
      <trkpt lat="45.40925" lon="4.40156">
        <ele>630.46875</ele>
        <time>2015-12-22T18:27:32.000Z</time>
      </trkpt>
      <trkpt lat="45.40922" lon="4.40156">
        <ele>631.47137451172</ele>
        <time>2015-12-22T18:27:36.000Z</time>
      </trkpt>
      <trkpt lat="45.40919" lon="4.40155">
        <ele>633.45568847656</ele>
        <time>2015-12-22T18:27:39.000Z</time>
      </trkpt>
      <trkpt lat="45.40918" lon="4.40156">
        <ele>633.70324707031</ele>
        <time>2015-12-22T18:27:41.000Z</time>
      </trkpt>
      <trkpt lat="45.40916" lon="4.40157">
        <ele>635.37292480469</ele>
        <time>2015-12-22T18:27:45.000Z</time>
      </trkpt>
      <trkpt lat="45.40914" lon="4.40159">
        <ele>635.49658203125</ele>
        <time>2015-12-22T18:27:48.000Z</time>
      </trkpt>
      <trkpt lat="45.40908" lon="4.4016">
        <ele>635.79803466797</ele>
        <time>2015-12-22T18:27:51.000Z</time>
      </trkpt>
      <trkpt lat="45.40902" lon="4.4016">
        <ele>634.34393310547</ele>
        <time>2015-12-22T18:27:54.000Z</time>
      </trkpt>
      <trkpt lat="45.409" lon="4.40159">
        <ele>634.11737060547</ele>
        <time>2015-12-22T18:27:57.000Z</time>
      </trkpt>
      <trkpt lat="45.40899" lon="4.40162">
        <ele>632.89263916016</ele>
        <time>2015-12-22T18:27:59.000Z</time>
      </trkpt>
      <trkpt lat="45.40898" lon="4.40166">
        <ele>634.42913818359</ele>
        <time>2015-12-22T18:28:02.000Z</time>
      </trkpt>
      <trkpt lat="45.40893" lon="4.4017">
        <ele>640.04388427734</ele>
        <time>2015-12-22T18:28:06.000Z</time>
      </trkpt>
      <trkpt lat="45.4089" lon="4.40175">
        <ele>643.01831054688</ele>
        <time>2015-12-22T18:28:09.000Z</time>
      </trkpt>
      <trkpt lat="45.40887" lon="4.40179">
        <ele>647.13641357422</ele>
        <time>2015-12-22T18:28:12.000Z</time>
      </trkpt>
      <trkpt lat="45.40884" lon="4.40182">
        <ele>648.97528076172</ele>
        <time>2015-12-22T18:28:15.000Z</time>
      </trkpt>
      <trkpt lat="45.40881" lon="4.40184">
        <ele>650.36096191406</ele>
        <time>2015-12-22T18:28:17.000Z</time>
      </trkpt>
      <trkpt lat="45.40878" lon="4.40188">
        <ele>652.07305908203</ele>
        <time>2015-12-22T18:28:20.000Z</time>
      </trkpt>
      <trkpt lat="45.40876" lon="4.40191">
        <ele>652.54187011719</ele>
        <time>2015-12-22T18:28:22.000Z</time>
      </trkpt>
      <trkpt lat="45.40874" lon="4.40194">
        <ele>652.92712402344</ele>
        <time>2015-12-22T18:28:25.000Z</time>
      </trkpt>
      <trkpt lat="45.40871" lon="4.40195">
        <ele>645.17523193359</ele>
        <time>2015-12-22T18:28:27.000Z</time>
      </trkpt>
      <trkpt lat="45.4087" lon="4.40195">
        <ele>645.40997314453</ele>
        <time>2015-12-22T18:28:30.000Z</time>
      </trkpt>
      <trkpt lat="45.40868" lon="4.40196">
        <ele>648.27801513672</ele>
        <time>2015-12-22T18:28:33.000Z</time>
      </trkpt>
      <trkpt lat="45.40864" lon="4.40199">
        <ele>652.98309326172</ele>
        <time>2015-12-22T18:28:36.000Z</time>
      </trkpt>
      <trkpt lat="45.40862" lon="4.40202">
        <ele>654.71923828125</ele>
        <time>2015-12-22T18:28:38.000Z</time>
      </trkpt>
      <trkpt lat="45.40858" lon="4.40205">
        <ele>656.6025390625</ele>
        <time>2015-12-22T18:28:41.000Z</time>
      </trkpt>
      <trkpt lat="45.40856" lon="4.40207">
        <ele>655.75653076172</ele>
        <time>2015-12-22T18:28:44.000Z</time>
      </trkpt>
      <trkpt lat="45.40853" lon="4.40207">
        <ele>655.5234375</ele>
        <time>2015-12-22T18:28:46.000Z</time>
      </trkpt>
      <trkpt lat="45.4085" lon="4.40207">
        <ele>656.12963867188</ele>
        <time>2015-12-22T18:28:48.000Z</time>
      </trkpt>
      <trkpt lat="45.40848" lon="4.40207">
        <ele>655.16265869141</ele>
        <time>2015-12-22T18:28:50.000Z</time>
      </trkpt>
      <trkpt lat="45.40844" lon="4.40207">
        <ele>643.80743408203</ele>
        <time>2015-12-22T18:28:53.000Z</time>
      </trkpt>
      <trkpt lat="45.40841" lon="4.40207">
        <ele>632.28747558594</ele>
        <time>2015-12-22T18:28:55.000Z</time>
      </trkpt>
      <trkpt lat="45.40838" lon="4.40207">
        <ele>638.45892333984</ele>
        <time>2015-12-22T18:28:58.000Z</time>
      </trkpt>
      <trkpt lat="45.40834" lon="4.40208">
        <ele>643.83966064453</ele>
        <time>2015-12-22T18:29:01.000Z</time>
      </trkpt>
      <trkpt lat="45.40831" lon="4.40208">
        <ele>646.29339599609</ele>
        <time>2015-12-22T18:29:03.000Z</time>
      </trkpt>
      <trkpt lat="45.40828" lon="4.40212">
        <ele>651.44049072266</ele>
        <time>2015-12-22T18:29:06.000Z</time>
      </trkpt>
      <trkpt lat="45.40826" lon="4.40214">
        <ele>652.98260498047</ele>
        <time>2015-12-22T18:29:09.000Z</time>
      </trkpt>
      <trkpt lat="45.40825" lon="4.40216">
        <ele>654.28088378906</ele>
        <time>2015-12-22T18:29:11.000Z</time>
      </trkpt>
      <trkpt lat="45.40824" lon="4.40219">
        <ele>654.97344970703</ele>
        <time>2015-12-22T18:29:13.000Z</time>
      </trkpt>
      <trkpt lat="45.40825" lon="4.40225">
        <ele>655.78900146484</ele>
        <time>2015-12-22T18:29:15.000Z</time>
      </trkpt>
      <trkpt lat="45.40826" lon="4.4023">
        <ele>656.88763427734</ele>
        <time>2015-12-22T18:29:17.000Z</time>
      </trkpt>
      <trkpt lat="45.40827" lon="4.40237">
        <ele>658.38366699219</ele>
        <time>2015-12-22T18:29:20.000Z</time>
      </trkpt>
      <trkpt lat="45.40828" lon="4.40239">
        <ele>659.24475097656</ele>
        <time>2015-12-22T18:29:22.000Z</time>
      </trkpt>
      <trkpt lat="45.40829" lon="4.40243">
        <ele>660.24353027344</ele>
        <time>2015-12-22T18:29:25.000Z</time>
      </trkpt>
      <trkpt lat="45.40829" lon="4.40246">
        <ele>660.61468505859</ele>
        <time>2015-12-22T18:29:27.000Z</time>
      </trkpt>
      <trkpt lat="45.4083" lon="4.40255">
        <ele>661.81512451172</ele>
        <time>2015-12-22T18:29:30.000Z</time>
      </trkpt>
      <trkpt lat="45.4083" lon="4.40265">
        <ele>663.09954833984</ele>
        <time>2015-12-22T18:29:33.000Z</time>
      </trkpt>
      <trkpt lat="45.4083" lon="4.40271">
        <ele>663.93322753906</ele>
        <time>2015-12-22T18:29:35.000Z</time>
      </trkpt>
      <trkpt lat="45.40831" lon="4.40275">
        <ele>664.93151855469</ele>
        <time>2015-12-22T18:29:37.000Z</time>
      </trkpt>
      <trkpt lat="45.40831" lon="4.40284">
        <ele>665.16455078125</ele>
        <time>2015-12-22T18:29:40.000Z</time>
      </trkpt>
      <trkpt lat="45.4083" lon="4.4029">
        <ele>665.67486572266</ele>
        <time>2015-12-22T18:29:43.000Z</time>
      </trkpt>
      <trkpt lat="45.40828" lon="4.40295">
        <ele>667.46844482422</ele>
        <time>2015-12-22T18:29:45.000Z</time>
      </trkpt>
      <trkpt lat="45.40828" lon="4.40304">
        <ele>667.33044433594</ele>
        <time>2015-12-22T18:29:48.000Z</time>
      </trkpt>
      <trkpt lat="45.40828" lon="4.4031">
        <ele>667.05926513672</ele>
        <time>2015-12-22T18:29:50.000Z</time>
      </trkpt>
      <trkpt lat="45.40826" lon="4.40318">
        <ele>666.97973632812</ele>
        <time>2015-12-22T18:29:53.000Z</time>
      </trkpt>
      <trkpt lat="45.40826" lon="4.40324">
        <ele>666.67315673828</ele>
        <time>2015-12-22T18:29:55.000Z</time>
      </trkpt>
      <trkpt lat="45.40826" lon="4.40332">
        <ele>665.98010253906</ele>
        <time>2015-12-22T18:29:58.000Z</time>
      </trkpt>
      <trkpt lat="45.40825" lon="4.4034">
        <ele>666.49835205078</ele>
        <time>2015-12-22T18:30:01.000Z</time>
      </trkpt>
      <trkpt lat="45.40826" lon="4.40344">
        <ele>666.14416503906</ele>
        <time>2015-12-22T18:30:03.000Z</time>
      </trkpt>
      <trkpt lat="45.40826" lon="4.40352">
        <ele>666.08569335938</ele>
        <time>2015-12-22T18:30:06.000Z</time>
      </trkpt>
      <trkpt lat="45.40826" lon="4.40358">
        <ele>666.96752929688</ele>
        <time>2015-12-22T18:30:08.000Z</time>
      </trkpt>
      <trkpt lat="45.40825" lon="4.40363">
        <ele>667.44390869141</ele>
        <time>2015-12-22T18:30:10.000Z</time>
      </trkpt>
      <trkpt lat="45.40825" lon="4.40371">
        <ele>668.38592529297</ele>
        <time>2015-12-22T18:30:13.000Z</time>
      </trkpt>
      <trkpt lat="45.40825" lon="4.40377">
        <ele>669.46801757812</ele>
        <time>2015-12-22T18:30:15.000Z</time>
      </trkpt>
      <trkpt lat="45.40825" lon="4.40384">
        <ele>670.50128173828</ele>
        <time>2015-12-22T18:30:18.000Z</time>
      </trkpt>
      <trkpt lat="45.40824" lon="4.40393">
        <ele>671.56658935547</ele>
        <time>2015-12-22T18:30:21.000Z</time>
      </trkpt>
      <trkpt lat="45.40824" lon="4.40399">
        <ele>672.10577392578</ele>
        <time>2015-12-22T18:30:24.000Z</time>
      </trkpt>
      <trkpt lat="45.40823" lon="4.40407">
        <ele>672.86889648438</ele>
        <time>2015-12-22T18:30:27.000Z</time>
      </trkpt>
      <trkpt lat="45.40824" lon="4.40412">
        <ele>673.45330810547</ele>
        <time>2015-12-22T18:30:29.000Z</time>
      </trkpt>
      <trkpt lat="45.40825" lon="4.40418">
        <ele>674.09130859375</ele>
        <time>2015-12-22T18:30:31.000Z</time>
      </trkpt>
      <trkpt lat="45.40826" lon="4.40425">
        <ele>676.03228759766</ele>
        <time>2015-12-22T18:30:34.000Z</time>
      </trkpt>
      <trkpt lat="45.40825" lon="4.4043">
        <ele>677.57336425781</ele>
        <time>2015-12-22T18:30:36.000Z</time>
      </trkpt>
      <trkpt lat="45.40826" lon="4.4044">
        <ele>678.80596923828</ele>
        <time>2015-12-22T18:30:39.000Z</time>
      </trkpt>
      <trkpt lat="45.40829" lon="4.40444">
        <ele>680.43548583984</ele>
        <time>2015-12-22T18:30:41.000Z</time>
      </trkpt>
      <trkpt lat="45.40831" lon="4.40449">
        <ele>681.57440185547</ele>
        <time>2015-12-22T18:30:43.000Z</time>
      </trkpt>
      <trkpt lat="45.40832" lon="4.40454">
        <ele>681.99365234375</ele>
        <time>2015-12-22T18:30:45.000Z</time>
      </trkpt>
      <trkpt lat="45.40833" lon="4.4046">
        <ele>682.07366943359</ele>
        <time>2015-12-22T18:30:47.000Z</time>
      </trkpt>
      <trkpt lat="45.40834" lon="4.4047">
        <ele>682.20611572266</ele>
        <time>2015-12-22T18:30:50.000Z</time>
      </trkpt>
      <trkpt lat="45.40836" lon="4.40476">
        <ele>683.01831054688</ele>
        <time>2015-12-22T18:30:52.000Z</time>
      </trkpt>
      <trkpt lat="45.40838" lon="4.40483">
        <ele>683.67065429688</ele>
        <time>2015-12-22T18:30:55.000Z</time>
      </trkpt>
      <trkpt lat="45.40841" lon="4.4049">
        <ele>683.83343505859</ele>
        <time>2015-12-22T18:30:58.000Z</time>
      </trkpt>
      <trkpt lat="45.40844" lon="4.40494">
        <ele>683.650390625</ele>
        <time>2015-12-22T18:31:00.000Z</time>
      </trkpt>
      <trkpt lat="45.40846" lon="4.40501">
        <ele>684.57995605469</ele>
        <time>2015-12-22T18:31:03.000Z</time>
      </trkpt>
      <trkpt lat="45.40847" lon="4.40507">
        <ele>684.40447998047</ele>
        <time>2015-12-22T18:31:06.000Z</time>
      </trkpt>
      <trkpt lat="45.40846" lon="4.40514">
        <ele>683.35882568359</ele>
        <time>2015-12-22T18:31:09.000Z</time>
      </trkpt>
      <trkpt lat="45.40844" lon="4.40518">
        <ele>682.71502685547</ele>
        <time>2015-12-22T18:31:11.000Z</time>
      </trkpt>
      <trkpt lat="45.40839" lon="4.4052">
        <ele>681.47430419922</ele>
        <time>2015-12-22T18:31:14.000Z</time>
      </trkpt>
      <trkpt lat="45.40834" lon="4.40519">
        <ele>682.38238525391</ele>
        <time>2015-12-22T18:31:17.000Z</time>
      </trkpt>
      <trkpt lat="45.40831" lon="4.40518">
        <ele>682.22412109375</ele>
        <time>2015-12-22T18:31:19.000Z</time>
      </trkpt>
      <trkpt lat="45.40829" lon="4.40517">
        <ele>681.67718505859</ele>
        <time>2015-12-22T18:31:22.000Z</time>
      </trkpt>
      <trkpt lat="45.40827" lon="4.40517">
        <ele>681.15679931641</ele>
        <time>2015-12-22T18:31:24.000Z</time>
      </trkpt>
      <trkpt lat="45.40825" lon="4.40514">
        <ele>681.13708496094</ele>
        <time>2015-12-22T18:31:27.000Z</time>
      </trkpt>
      <trkpt lat="45.40823" lon="4.40513">
        <ele>682.15155029297</ele>
        <time>2015-12-22T18:31:30.000Z</time>
      </trkpt>
      <trkpt lat="45.40819" lon="4.40513">
        <ele>680.51928710938</ele>
        <time>2015-12-22T18:31:33.000Z</time>
      </trkpt>
      <trkpt lat="45.40814" lon="4.40512">
        <ele>681.68780517578</ele>
        <time>2015-12-22T18:31:37.000Z</time>
      </trkpt>
      <trkpt lat="45.40812" lon="4.40511">
        <ele>681.71148681641</ele>
        <time>2015-12-22T18:31:40.000Z</time>
      </trkpt>
      <trkpt lat="45.40808" lon="4.40507">
        <ele>682.08410644531</ele>
        <time>2015-12-22T18:31:43.000Z</time>
      </trkpt>
      <trkpt lat="45.40806" lon="4.40506">
        <ele>682.68957519531</ele>
        <time>2015-12-22T18:31:45.000Z</time>
      </trkpt>
      <trkpt lat="45.40801" lon="4.40505">
        <ele>684.35949707031</ele>
        <time>2015-12-22T18:31:48.000Z</time>
      </trkpt>
      <trkpt lat="45.40797" lon="4.40506">
        <ele>684.66119384766</ele>
        <time>2015-12-22T18:31:52.000Z</time>
      </trkpt>
      <trkpt lat="45.40792" lon="4.40507">
        <ele>686.71325683594</ele>
        <time>2015-12-22T18:31:56.000Z</time>
      </trkpt>
      <trkpt lat="45.40789" lon="4.40508">
        <ele>686.99462890625</ele>
        <time>2015-12-22T18:31:58.000Z</time>
      </trkpt>
      <trkpt lat="45.40786" lon="4.40514">
        <ele>688.3408203125</ele>
        <time>2015-12-22T18:32:01.000Z</time>
      </trkpt>
      <trkpt lat="45.40785" lon="4.40515">
        <ele>688.75927734375</ele>
        <time>2015-12-22T18:32:03.000Z</time>
      </trkpt>
      <trkpt lat="45.40783" lon="4.40518">
        <ele>690.75018310547</ele>
        <time>2015-12-22T18:32:13.000Z</time>
      </trkpt>
      <trkpt lat="45.40781" lon="4.40524">
        <ele>693.40515136719</ele>
        <time>2015-12-22T18:32:15.000Z</time>
      </trkpt>
      <trkpt lat="45.40778" lon="4.40532">
        <ele>696.42572021484</ele>
        <time>2015-12-22T18:32:18.000Z</time>
      </trkpt>
      <trkpt lat="45.40776" lon="4.40535">
        <ele>697.09088134766</ele>
        <time>2015-12-22T18:32:20.000Z</time>
      </trkpt>
      <trkpt lat="45.40773" lon="4.40539">
        <ele>696.79162597656</ele>
        <time>2015-12-22T18:32:22.000Z</time>
      </trkpt>
      <trkpt lat="45.40767" lon="4.40548">
        <ele>697.36450195312</ele>
        <time>2015-12-22T18:32:25.000Z</time>
      </trkpt>
      <trkpt lat="45.40765" lon="4.4055">
        <ele>698.13372802734</ele>
        <time>2015-12-22T18:32:27.000Z</time>
      </trkpt>
      <trkpt lat="45.40759" lon="4.40557">
        <ele>698.28100585938</ele>
        <time>2015-12-22T18:32:30.000Z</time>
      </trkpt>
      <trkpt lat="45.40755" lon="4.40561">
        <ele>695.69775390625</ele>
        <time>2015-12-22T18:32:33.000Z</time>
      </trkpt>
      <trkpt lat="45.40751" lon="4.40569">
        <ele>696.07836914062</ele>
        <time>2015-12-22T18:32:36.000Z</time>
      </trkpt>
      <trkpt lat="45.40743" lon="4.40575">
        <ele>696.46966552734</ele>
        <time>2015-12-22T18:32:39.000Z</time>
      </trkpt>
      <trkpt lat="45.40739" lon="4.40576">
        <ele>696.47320556641</ele>
        <time>2015-12-22T18:32:41.000Z</time>
      </trkpt>
      <trkpt lat="45.40733" lon="4.40579">
        <ele>697.37005615234</ele>
        <time>2015-12-22T18:32:44.000Z</time>
      </trkpt>
      <trkpt lat="45.40728" lon="4.40584">
        <ele>696.73748779297</ele>
        <time>2015-12-22T18:32:46.000Z</time>
      </trkpt>
      <trkpt lat="45.40723" lon="4.40588">
        <ele>694.47082519531</ele>
        <time>2015-12-22T18:32:49.000Z</time>
      </trkpt>
      <trkpt lat="45.40718" lon="4.4059">
        <ele>694.09912109375</ele>
        <time>2015-12-22T18:32:52.000Z</time>
      </trkpt>
      <trkpt lat="45.40715" lon="4.40594">
        <ele>692.56622314453</ele>
        <time>2015-12-22T18:32:54.000Z</time>
      </trkpt>
      <trkpt lat="45.4071" lon="4.40598">
        <ele>691.98022460938</ele>
        <time>2015-12-22T18:32:56.000Z</time>
      </trkpt>
      <trkpt lat="45.40703" lon="4.40603">
        <ele>691.84094238281</ele>
        <time>2015-12-22T18:32:59.000Z</time>
      </trkpt>
      <trkpt lat="45.40697" lon="4.40607">
        <ele>691.52014160156</ele>
        <time>2015-12-22T18:33:01.000Z</time>
      </trkpt>
      <trkpt lat="45.4069" lon="4.40613">
        <ele>690.583984375</ele>
        <time>2015-12-22T18:33:04.000Z</time>
      </trkpt>
      <trkpt lat="45.40685" lon="4.4062">
        <ele>691.12774658203</ele>
        <time>2015-12-22T18:33:07.000Z</time>
      </trkpt>
      <trkpt lat="45.4068" lon="4.40625">
        <ele>691.14868164062</ele>
        <time>2015-12-22T18:33:09.000Z</time>
      </trkpt>
      <trkpt lat="45.40676" lon="4.4063">
        <ele>691.0830078125</ele>
        <time>2015-12-22T18:33:11.000Z</time>
      </trkpt>
      <trkpt lat="45.40672" lon="4.40641">
        <ele>689.41156005859</ele>
        <time>2015-12-22T18:33:14.000Z</time>
      </trkpt>
      <trkpt lat="45.40668" lon="4.40654">
        <ele>688.23291015625</ele>
        <time>2015-12-22T18:33:17.000Z</time>
      </trkpt>
      <trkpt lat="45.40662" lon="4.4066">
        <ele>688.75341796875</ele>
        <time>2015-12-22T18:33:20.000Z</time>
      </trkpt>
      <trkpt lat="45.40659" lon="4.40664">
        <ele>689.35791015625</ele>
        <time>2015-12-22T18:33:22.000Z</time>
      </trkpt>
      <trkpt lat="45.40653" lon="4.4067">
        <ele>689.47760009766</ele>
        <time>2015-12-22T18:33:25.000Z</time>
      </trkpt>
      <trkpt lat="45.40649" lon="4.40672">
        <ele>689.12902832031</ele>
        <time>2015-12-22T18:33:27.000Z</time>
      </trkpt>
      <trkpt lat="45.40643" lon="4.40677">
        <ele>687.67333984375</ele>
        <time>2015-12-22T18:33:30.000Z</time>
      </trkpt>
      <trkpt lat="45.40639" lon="4.40681">
        <ele>686.86834716797</ele>
        <time>2015-12-22T18:33:32.000Z</time>
      </trkpt>
      <trkpt lat="45.40631" lon="4.40683">
        <ele>686.81469726562</ele>
        <time>2015-12-22T18:33:35.000Z</time>
      </trkpt>
      <trkpt lat="45.40625" lon="4.40689">
        <ele>685.73413085938</ele>
        <time>2015-12-22T18:33:38.000Z</time>
      </trkpt>
      <trkpt lat="45.4062" lon="4.40693">
        <ele>685.46392822266</ele>
        <time>2015-12-22T18:33:40.000Z</time>
      </trkpt>
      <trkpt lat="45.40615" lon="4.40702">
        <ele>685.4697265625</ele>
        <time>2015-12-22T18:33:43.000Z</time>
      </trkpt>
      <trkpt lat="45.4061" lon="4.40709">
        <ele>684.02209472656</ele>
        <time>2015-12-22T18:33:46.000Z</time>
      </trkpt>
      <trkpt lat="45.40604" lon="4.40716">
        <ele>682.93707275391</ele>
        <time>2015-12-22T18:33:49.000Z</time>
      </trkpt>
      <trkpt lat="45.40599" lon="4.40721">
        <ele>684.38940429688</ele>
        <time>2015-12-22T18:33:51.000Z</time>
      </trkpt>
      <trkpt lat="45.40595" lon="4.40734">
        <ele>685.04797363281</ele>
        <time>2015-12-22T18:33:55.000Z</time>
      </trkpt>
      <trkpt lat="45.40589" lon="4.40742">
        <ele>688.97790527344</ele>
        <time>2015-12-22T18:33:58.000Z</time>
      </trkpt>
      <trkpt lat="45.40587" lon="4.40747">
        <ele>690.07373046875</ele>
        <time>2015-12-22T18:34:00.000Z</time>
      </trkpt>
      <trkpt lat="45.40585" lon="4.40751">
        <ele>690.86444091797</ele>
        <time>2015-12-22T18:34:04.000Z</time>
      </trkpt>
      <trkpt lat="45.40586" lon="4.40753">
        <ele>690.02130126953</ele>
        <time>2015-12-22T18:34:08.000Z</time>
      </trkpt>
      <trkpt lat="45.40585" lon="4.40761">
        <ele>689.84124755859</ele>
        <time>2015-12-22T18:34:11.000Z</time>
      </trkpt>
      <trkpt lat="45.40581" lon="4.40769">
        <ele>690.12506103516</ele>
        <time>2015-12-22T18:34:14.000Z</time>
      </trkpt>
      <trkpt lat="45.40579" lon="4.40775">
        <ele>689.78607177734</ele>
        <time>2015-12-22T18:34:16.000Z</time>
      </trkpt>
      <trkpt lat="45.40578" lon="4.40781">
        <ele>689.65637207031</ele>
        <time>2015-12-22T18:34:18.000Z</time>
      </trkpt>
      <trkpt lat="45.40577" lon="4.40787">
        <ele>689.36602783203</ele>
        <time>2015-12-22T18:34:20.000Z</time>
      </trkpt>
      <trkpt lat="45.40576" lon="4.40791">
        <ele>688.99060058594</ele>
        <time>2015-12-22T18:34:22.000Z</time>
      </trkpt>
      <trkpt lat="45.40571" lon="4.40796">
        <ele>688.46557617188</ele>
        <time>2015-12-22T18:34:25.000Z</time>
      </trkpt>
      <trkpt lat="45.40567" lon="4.40801">
        <ele>689.00799560547</ele>
        <time>2015-12-22T18:34:28.000Z</time>
      </trkpt>
      <trkpt lat="45.40565" lon="4.40806">
        <ele>689.01220703125</ele>
        <time>2015-12-22T18:34:30.000Z</time>
      </trkpt>
      <trkpt lat="45.40564" lon="4.40813">
        <ele>688.96105957031</ele>
        <time>2015-12-22T18:34:33.000Z</time>
      </trkpt>
      <trkpt lat="45.40562" lon="4.40817">
        <ele>689.56701660156</ele>
        <time>2015-12-22T18:34:35.000Z</time>
      </trkpt>
      <trkpt lat="45.40555" lon="4.40824">
        <ele>689.56585693359</ele>
        <time>2015-12-22T18:34:38.000Z</time>
      </trkpt>
      <trkpt lat="45.40549" lon="4.40833">
        <ele>689.89660644531</ele>
        <time>2015-12-22T18:34:41.000Z</time>
      </trkpt>
      <trkpt lat="45.40546" lon="4.40836">
        <ele>689.98504638672</ele>
        <time>2015-12-22T18:34:43.000Z</time>
      </trkpt>
      <trkpt lat="45.40545" lon="4.40838">
        <ele>688.83941650391</ele>
        <time>2015-12-22T18:34:45.000Z</time>
      </trkpt>
      <trkpt lat="45.40543" lon="4.40843">
        <ele>689.23785400391</ele>
        <time>2015-12-22T18:34:48.000Z</time>
      </trkpt>
      <trkpt lat="45.4054" lon="4.4085">
        <ele>690.35552978516</ele>
        <time>2015-12-22T18:34:51.000Z</time>
      </trkpt>
      <trkpt lat="45.40536" lon="4.40853">
        <ele>691.32720947266</ele>
        <time>2015-12-22T18:34:53.000Z</time>
      </trkpt>
      <trkpt lat="45.4053" lon="4.40853">
        <ele>691.20935058594</ele>
        <time>2015-12-22T18:34:56.000Z</time>
      </trkpt>
      <trkpt lat="45.40526" lon="4.40854">
        <ele>692.08905029297</ele>
        <time>2015-12-22T18:34:59.000Z</time>
      </trkpt>
      <trkpt lat="45.40525" lon="4.40862">
        <ele>693.33111572266</ele>
        <time>2015-12-22T18:35:02.000Z</time>
      </trkpt>
      <trkpt lat="45.40524" lon="4.40865">
        <ele>693.49627685547</ele>
        <time>2015-12-22T18:35:04.000Z</time>
      </trkpt>
      <trkpt lat="45.40522" lon="4.4087">
        <ele>693.25671386719</ele>
        <time>2015-12-22T18:35:06.000Z</time>
      </trkpt>
      <trkpt lat="45.40522" lon="4.40873">
        <ele>693.58984375</ele>
        <time>2015-12-22T18:35:08.000Z</time>
      </trkpt>
      <trkpt lat="45.40522" lon="4.40876">
        <ele>693.7568359375</ele>
        <time>2015-12-22T18:35:11.000Z</time>
      </trkpt>
      <trkpt lat="45.40522" lon="4.4088">
        <ele>693.27191162109</ele>
        <time>2015-12-22T18:35:13.000Z</time>
      </trkpt>
      <trkpt lat="45.4052" lon="4.40884">
        <ele>692.33728027344</ele>
        <time>2015-12-22T18:35:17.000Z</time>
      </trkpt>
      <trkpt lat="45.4052" lon="4.40891">
        <ele>693.85485839844</ele>
        <time>2015-12-22T18:35:20.000Z</time>
      </trkpt>
      <trkpt lat="45.40518" lon="4.40902">
        <ele>696.20098876953</ele>
        <time>2015-12-22T18:35:23.000Z</time>
      </trkpt>
      <trkpt lat="45.40516" lon="4.40911">
        <ele>696.25207519531</ele>
        <time>2015-12-22T18:35:26.000Z</time>
      </trkpt>
      <trkpt lat="45.40513" lon="4.40913">
        <ele>696.27227783203</ele>
        <time>2015-12-22T18:35:28.000Z</time>
      </trkpt>
      <trkpt lat="45.40509" lon="4.40915">
        <ele>697.546875</ele>
        <time>2015-12-22T18:35:31.000Z</time>
      </trkpt>
      <trkpt lat="45.40506" lon="4.40923">
        <ele>696.81518554688</ele>
        <time>2015-12-22T18:35:34.000Z</time>
      </trkpt>
      <trkpt lat="45.40506" lon="4.40926">
        <ele>696.56787109375</ele>
        <time>2015-12-22T18:35:36.000Z</time>
      </trkpt>
      <trkpt lat="45.40508" lon="4.40931">
        <ele>696.29388427734</ele>
        <time>2015-12-22T18:35:39.000Z</time>
      </trkpt>
      <trkpt lat="45.40506" lon="4.40933">
        <ele>696.4208984375</ele>
        <time>2015-12-22T18:35:43.000Z</time>
      </trkpt>
      <trkpt lat="45.40505" lon="4.40936">
        <ele>696.88665771484</ele>
        <time>2015-12-22T18:35:45.000Z</time>
      </trkpt>
      <trkpt lat="45.40503" lon="4.40941">
        <ele>697.73071289062</ele>
        <time>2015-12-22T18:35:47.000Z</time>
      </trkpt>
      <trkpt lat="45.40502" lon="4.40946">
        <ele>698.89233398438</ele>
        <time>2015-12-22T18:35:50.000Z</time>
      </trkpt>
      <trkpt lat="45.40501" lon="4.40951">
        <ele>698.62414550781</ele>
        <time>2015-12-22T18:35:53.000Z</time>
      </trkpt>
      <trkpt lat="45.40499" lon="4.40955">
        <ele>699.55554199219</ele>
        <time>2015-12-22T18:35:56.000Z</time>
      </trkpt>
      <trkpt lat="45.40498" lon="4.40957">
        <ele>700.73480224609</ele>
        <time>2015-12-22T18:35:58.000Z</time>
      </trkpt>
      <trkpt lat="45.40497" lon="4.40962">
        <ele>701.61376953125</ele>
        <time>2015-12-22T18:36:01.000Z</time>
      </trkpt>
      <trkpt lat="45.40497" lon="4.4097">
        <ele>702.15936279297</ele>
        <time>2015-12-22T18:36:05.000Z</time>
      </trkpt>
      <trkpt lat="45.40496" lon="4.40975">
        <ele>702.01519775391</ele>
        <time>2015-12-22T18:36:08.000Z</time>
      </trkpt>
      <trkpt lat="45.40495" lon="4.40979">
        <ele>701.88934326172</ele>
        <time>2015-12-22T18:36:11.000Z</time>
      </trkpt>
      <trkpt lat="45.40494" lon="4.40983">
        <ele>701.48474121094</ele>
        <time>2015-12-22T18:36:13.000Z</time>
      </trkpt>
      <trkpt lat="45.40492" lon="4.40987">
        <ele>699.80987548828</ele>
        <time>2015-12-22T18:36:15.000Z</time>
      </trkpt>
      <trkpt lat="45.40491" lon="4.40996">
        <ele>699.68817138672</ele>
        <time>2015-12-22T18:36:18.000Z</time>
      </trkpt>
      <trkpt lat="45.4049" lon="4.41001">
        <ele>699.89678955078</ele>
        <time>2015-12-22T18:36:22.000Z</time>
      </trkpt>
      <trkpt lat="45.40489" lon="4.41004">
        <ele>700.82202148438</ele>
        <time>2015-12-22T18:36:25.000Z</time>
      </trkpt>
      <trkpt lat="45.40487" lon="4.41007">
        <ele>703.05670166016</ele>
        <time>2015-12-22T18:36:27.000Z</time>
      </trkpt>
      <trkpt lat="45.40485" lon="4.41012">
        <ele>703.67321777344</ele>
        <time>2015-12-22T18:36:31.000Z</time>
      </trkpt>
      <trkpt lat="45.40483" lon="4.41015">
        <ele>703.83551025391</ele>
        <time>2015-12-22T18:36:34.000Z</time>
      </trkpt>
      <trkpt lat="45.40483" lon="4.41018">
        <ele>705.0654296875</ele>
        <time>2015-12-22T18:36:36.000Z</time>
      </trkpt>
      <trkpt lat="45.40483" lon="4.41024">
        <ele>706.564453125</ele>
        <time>2015-12-22T18:36:39.000Z</time>
      </trkpt>
      <trkpt lat="45.40483" lon="4.41027">
        <ele>707.19012451172</ele>
        <time>2015-12-22T18:36:41.000Z</time>
      </trkpt>
      <trkpt lat="45.40482" lon="4.41031">
        <ele>708.37969970703</ele>
        <time>2015-12-22T18:36:44.000Z</time>
      </trkpt>
      <trkpt lat="45.40482" lon="4.41033">
        <ele>708.39074707031</ele>
        <time>2015-12-22T18:36:47.000Z</time>
      </trkpt>
      <trkpt lat="45.40482" lon="4.41035">
        <ele>707.93719482422</ele>
        <time>2015-12-22T18:36:49.000Z</time>
      </trkpt>
      <trkpt lat="45.40478" lon="4.41039">
        <ele>705.55401611328</ele>
        <time>2015-12-22T18:36:52.000Z</time>
      </trkpt>
      <trkpt lat="45.40476" lon="4.41049">
        <ele>704.32550048828</ele>
        <time>2015-12-22T18:36:54.000Z</time>
      </trkpt>
      <trkpt lat="45.40474" lon="4.41055">
        <ele>703.95129394531</ele>
        <time>2015-12-22T18:36:57.000Z</time>
      </trkpt>
      <trkpt lat="45.40474" lon="4.41057">
        <ele>703.78314208984</ele>
        <time>2015-12-22T18:37:00.000Z</time>
      </trkpt>
      <trkpt lat="45.40474" lon="4.41061">
        <ele>703.51489257812</ele>
        <time>2015-12-22T18:37:02.000Z</time>
      </trkpt>
      <trkpt lat="45.40471" lon="4.41066">
        <ele>703.0009765625</ele>
        <time>2015-12-22T18:37:06.000Z</time>
      </trkpt>
      <trkpt lat="45.40471" lon="4.41069">
        <ele>702.19775390625</ele>
        <time>2015-12-22T18:37:08.000Z</time>
      </trkpt>
      <trkpt lat="45.4047" lon="4.41073">
        <ele>702.34826660156</ele>
        <time>2015-12-22T18:37:11.000Z</time>
      </trkpt>
      <trkpt lat="45.40469" lon="4.41077">
        <ele>702.46008300781</ele>
        <time>2015-12-22T18:37:13.000Z</time>
      </trkpt>
      <trkpt lat="45.40469" lon="4.41079">
        <ele>703.18688964844</ele>
        <time>2015-12-22T18:37:15.000Z</time>
      </trkpt>
      <trkpt lat="45.40466" lon="4.41082">
        <ele>703.58648681641</ele>
        <time>2015-12-22T18:37:18.000Z</time>
      </trkpt>
      <trkpt lat="45.40465" lon="4.41086">
        <ele>704.43469238281</ele>
        <time>2015-12-22T18:37:20.000Z</time>
      </trkpt>
      <trkpt lat="45.40464" lon="4.41093">
        <ele>705.82318115234</ele>
        <time>2015-12-22T18:37:23.000Z</time>
      </trkpt>
      <trkpt lat="45.40463" lon="4.41098">
        <ele>706.83660888672</ele>
        <time>2015-12-22T18:37:25.000Z</time>
      </trkpt>
      <trkpt lat="45.40462" lon="4.41101">
        <ele>708.76733398438</ele>
        <time>2015-12-22T18:37:28.000Z</time>
      </trkpt>
      <trkpt lat="45.40461" lon="4.41108">
        <ele>711.80609130859</ele>
        <time>2015-12-22T18:37:31.000Z</time>
      </trkpt>
      <trkpt lat="45.4046" lon="4.41113">
        <ele>712.39215087891</ele>
        <time>2015-12-22T18:37:33.000Z</time>
      </trkpt>
      <trkpt lat="45.40458" lon="4.41118">
        <ele>712.52551269531</ele>
        <time>2015-12-22T18:37:36.000Z</time>
      </trkpt>
      <trkpt lat="45.40456" lon="4.41121">
        <ele>712.81896972656</ele>
        <time>2015-12-22T18:37:38.000Z</time>
      </trkpt>
      <trkpt lat="45.40452" lon="4.41126">
        <ele>712.62115478516</ele>
        <time>2015-12-22T18:37:40.000Z</time>
      </trkpt>
      <trkpt lat="45.40447" lon="4.41129">
        <ele>710.55895996094</ele>
        <time>2015-12-22T18:37:43.000Z</time>
      </trkpt>
      <trkpt lat="45.40446" lon="4.41133">
        <ele>711.39221191406</ele>
        <time>2015-12-22T18:37:45.000Z</time>
      </trkpt>
      <trkpt lat="45.40446" lon="4.41139">
        <ele>712.90795898438</ele>
        <time>2015-12-22T18:37:48.000Z</time>
      </trkpt>
      <trkpt lat="45.40443" lon="4.41144">
        <ele>715.29187011719</ele>
        <time>2015-12-22T18:37:51.000Z</time>
      </trkpt>
      <trkpt lat="45.40443" lon="4.41147">
        <ele>676.09112548828</ele>
        <time>2015-12-22T18:37:53.000Z</time>
      </trkpt>
      <trkpt lat="45.40444" lon="4.41152">
        <ele>678.36199951172</ele>
        <time>2015-12-22T18:37:55.000Z</time>
      </trkpt>
      <trkpt lat="45.40441" lon="4.41155">
        <ele>688.27886962891</ele>
        <time>2015-12-22T18:37:57.000Z</time>
      </trkpt>
      <trkpt lat="45.40441" lon="4.41161">
        <ele>701.04144287109</ele>
        <time>2015-12-22T18:38:00.000Z</time>
      </trkpt>
      <trkpt lat="45.40441" lon="4.41166">
        <ele>707.27716064453</ele>
        <time>2015-12-22T18:38:02.000Z</time>
      </trkpt>
      <trkpt lat="45.40437" lon="4.41169">
        <ele>712.23718261719</ele>
        <time>2015-12-22T18:38:05.000Z</time>
      </trkpt>
      <trkpt lat="45.40436" lon="4.41171">
        <ele>713.73785400391</ele>
        <time>2015-12-22T18:38:07.000Z</time>
      </trkpt>
      <trkpt lat="45.40434" lon="4.41179">
        <ele>715.51672363281</ele>
        <time>2015-12-22T18:38:10.000Z</time>
      </trkpt>
      <trkpt lat="45.40434" lon="4.41185">
        <ele>715.63726806641</ele>
        <time>2015-12-22T18:38:12.000Z</time>
      </trkpt>
      <trkpt lat="45.40433" lon="4.41187">
        <ele>716.52264404297</ele>
        <time>2015-12-22T18:38:14.000Z</time>
      </trkpt>
      <trkpt lat="45.40432" lon="4.41189">
        <ele>717.91101074219</ele>
        <time>2015-12-22T18:38:17.000Z</time>
      </trkpt>
      <trkpt lat="45.4043" lon="4.41192">
        <ele>719.41687011719</ele>
        <time>2015-12-22T18:38:19.000Z</time>
      </trkpt>
      <trkpt lat="45.40426" lon="4.41199">
        <ele>719.72540283203</ele>
        <time>2015-12-22T18:38:22.000Z</time>
      </trkpt>
      <trkpt lat="45.40421" lon="4.41204">
        <ele>719.66961669922</ele>
        <time>2015-12-22T18:38:25.000Z</time>
      </trkpt>
      <trkpt lat="45.40416" lon="4.4121">
        <ele>719.46417236328</ele>
        <time>2015-12-22T18:38:28.000Z</time>
      </trkpt>
      <trkpt lat="45.40412" lon="4.41215">
        <ele>718.78491210938</ele>
        <time>2015-12-22T18:38:30.000Z</time>
      </trkpt>
      <trkpt lat="45.40411" lon="4.41221">
        <ele>718.88055419922</ele>
        <time>2015-12-22T18:38:32.000Z</time>
      </trkpt>
      <trkpt lat="45.40406" lon="4.41225">
        <ele>719.32788085938</ele>
        <time>2015-12-22T18:38:35.000Z</time>
      </trkpt>
      <trkpt lat="45.40403" lon="4.41228">
        <ele>718.42315673828</ele>
        <time>2015-12-22T18:38:38.000Z</time>
      </trkpt>
      <trkpt lat="45.40398" lon="4.41235">
        <ele>720.86358642578</ele>
        <time>2015-12-22T18:38:40.000Z</time>
      </trkpt>
      <trkpt lat="45.40395" lon="4.41242">
        <ele>723.96075439453</ele>
        <time>2015-12-22T18:38:43.000Z</time>
      </trkpt>
      <trkpt lat="45.40392" lon="4.41249">
        <ele>724.74963378906</ele>
        <time>2015-12-22T18:38:46.000Z</time>
      </trkpt>
      <trkpt lat="45.40388" lon="4.41258">
        <ele>726.01287841797</ele>
        <time>2015-12-22T18:38:49.000Z</time>
      </trkpt>
      <trkpt lat="45.40382" lon="4.41263">
        <ele>727.77514648438</ele>
        <time>2015-12-22T18:38:52.000Z</time>
      </trkpt>
      <trkpt lat="45.40375" lon="4.41264">
        <ele>727.98974609375</ele>
        <time>2015-12-22T18:38:55.000Z</time>
      </trkpt>
      <trkpt lat="45.40372" lon="4.41267">
        <ele>727.69598388672</ele>
        <time>2015-12-22T18:38:58.000Z</time>
      </trkpt>
      <trkpt lat="45.4037" lon="4.41272">
        <ele>727.20904541016</ele>
        <time>2015-12-22T18:39:00.000Z</time>
      </trkpt>
      <trkpt lat="45.40369" lon="4.41279">
        <ele>726.32049560547</ele>
        <time>2015-12-22T18:39:03.000Z</time>
      </trkpt>
      <trkpt lat="45.40366" lon="4.41283">
        <ele>725.00866699219</ele>
        <time>2015-12-22T18:39:05.000Z</time>
      </trkpt>
      <trkpt lat="45.40364" lon="4.41292">
        <ele>726.14459228516</ele>
        <time>2015-12-22T18:39:08.000Z</time>
      </trkpt>
      <trkpt lat="45.40362" lon="4.41298">
        <ele>727.54339599609</ele>
        <time>2015-12-22T18:39:11.000Z</time>
      </trkpt>
      <trkpt lat="45.4036" lon="4.41303">
        <ele>729.00579833984</ele>
        <time>2015-12-22T18:39:13.000Z</time>
      </trkpt>
      <trkpt lat="45.40355" lon="4.4131">
        <ele>714.47698974609</ele>
        <time>2015-12-22T18:39:16.000Z</time>
      </trkpt>
      <trkpt lat="45.4035" lon="4.41316">
        <ele>714.66186523438</ele>
        <time>2015-12-22T18:39:19.000Z</time>
      </trkpt>
      <trkpt lat="45.40347" lon="4.41319">
        <ele>718.93627929688</ele>
        <time>2015-12-22T18:39:21.000Z</time>
      </trkpt>
      <trkpt lat="45.40343" lon="4.41324">
        <ele>722.57067871094</ele>
        <time>2015-12-22T18:39:24.000Z</time>
      </trkpt>
      <trkpt lat="45.40342" lon="4.41328">
        <ele>723.40637207031</ele>
        <time>2015-12-22T18:39:26.000Z</time>
      </trkpt>
      <trkpt lat="45.40341" lon="4.41335">
        <ele>724.81756591797</ele>
        <time>2015-12-22T18:39:28.000Z</time>
      </trkpt>
      <trkpt lat="45.40338" lon="4.41341">
        <ele>724.50500488281</ele>
        <time>2015-12-22T18:39:31.000Z</time>
      </trkpt>
      <trkpt lat="45.40334" lon="4.4135">
        <ele>727.77764892578</ele>
        <time>2015-12-22T18:39:34.000Z</time>
      </trkpt>
      <trkpt lat="45.40332" lon="4.41356">
        <ele>729.74700927734</ele>
        <time>2015-12-22T18:39:36.000Z</time>
      </trkpt>
      <trkpt lat="45.40329" lon="4.41359">
        <ele>730.48187255859</ele>
        <time>2015-12-22T18:39:38.000Z</time>
      </trkpt>
      <trkpt lat="45.40326" lon="4.41364">
        <ele>730.0341796875</ele>
        <time>2015-12-22T18:39:41.000Z</time>
      </trkpt>
      <trkpt lat="45.40325" lon="4.41368">
        <ele>731.25622558594</ele>
        <time>2015-12-22T18:39:43.000Z</time>
      </trkpt>
      <trkpt lat="45.40322" lon="4.41378">
        <ele>734.38018798828</ele>
        <time>2015-12-22T18:39:46.000Z</time>
      </trkpt>
      <trkpt lat="45.40319" lon="4.41383">
        <ele>734.68280029297</ele>
        <time>2015-12-22T18:39:48.000Z</time>
      </trkpt>
      <trkpt lat="45.40317" lon="4.41385">
        <ele>735.33721923828</ele>
        <time>2015-12-22T18:39:50.000Z</time>
      </trkpt>
      <trkpt lat="45.40314" lon="4.4139">
        <ele>737.46850585938</ele>
        <time>2015-12-22T18:39:52.000Z</time>
      </trkpt>
      <trkpt lat="45.40313" lon="4.41393">
        <ele>737.48284912109</ele>
        <time>2015-12-22T18:39:54.000Z</time>
      </trkpt>
      <trkpt lat="45.40311" lon="4.41399">
        <ele>736.85119628906</ele>
        <time>2015-12-22T18:39:56.000Z</time>
      </trkpt>
      <trkpt lat="45.40308" lon="4.41407">
        <ele>735.36846923828</ele>
        <time>2015-12-22T18:39:59.000Z</time>
      </trkpt>
      <trkpt lat="45.40305" lon="4.41413">
        <ele>734.45849609375</ele>
        <time>2015-12-22T18:40:02.000Z</time>
      </trkpt>
      <trkpt lat="45.40301" lon="4.41421">
        <ele>734.26898193359</ele>
        <time>2015-12-22T18:40:05.000Z</time>
      </trkpt>
      <trkpt lat="45.40299" lon="4.41429">
        <ele>734.76953125</ele>
        <time>2015-12-22T18:40:08.000Z</time>
      </trkpt>
      <trkpt lat="45.40297" lon="4.41434">
        <ele>734.99060058594</ele>
        <time>2015-12-22T18:40:10.000Z</time>
      </trkpt>
      <trkpt lat="45.40294" lon="4.41437">
        <ele>735.26678466797</ele>
        <time>2015-12-22T18:40:12.000Z</time>
      </trkpt>
      <trkpt lat="45.4029" lon="4.41445">
        <ele>735.841796875</ele>
        <time>2015-12-22T18:40:15.000Z</time>
      </trkpt>
      <trkpt lat="45.40289" lon="4.4145">
        <ele>736.82678222656</ele>
        <time>2015-12-22T18:40:17.000Z</time>
      </trkpt>
      <trkpt lat="45.40287" lon="4.41454">
        <ele>736.80865478516</ele>
        <time>2015-12-22T18:40:19.000Z</time>
      </trkpt>
      <trkpt lat="45.40285" lon="4.41459">
        <ele>737.86407470703</ele>
        <time>2015-12-22T18:40:21.000Z</time>
      </trkpt>
      <trkpt lat="45.4028" lon="4.41466">
        <ele>739.23492431641</ele>
        <time>2015-12-22T18:40:24.000Z</time>
      </trkpt>
      <trkpt lat="45.40278" lon="4.41472">
        <ele>739.43981933594</ele>
        <time>2015-12-22T18:40:26.000Z</time>
      </trkpt>
      <trkpt lat="45.40275" lon="4.41477">
        <ele>738.54217529297</ele>
        <time>2015-12-22T18:40:28.000Z</time>
      </trkpt>
      <trkpt lat="45.40272" lon="4.41479">
        <ele>738.43603515625</ele>
        <time>2015-12-22T18:40:30.000Z</time>
      </trkpt>
      <trkpt lat="45.40269" lon="4.41486">
        <ele>740.86517333984</ele>
        <time>2015-12-22T18:40:33.000Z</time>
      </trkpt>
      <trkpt lat="45.40267" lon="4.41492">
        <ele>740.37084960938</ele>
        <time>2015-12-22T18:40:36.000Z</time>
      </trkpt>
      <trkpt lat="45.40264" lon="4.41496">
        <ele>739.28454589844</ele>
        <time>2015-12-22T18:40:38.000Z</time>
      </trkpt>
      <trkpt lat="45.40262" lon="4.41499">
        <ele>738.62835693359</ele>
        <time>2015-12-22T18:40:40.000Z</time>
      </trkpt>
      <trkpt lat="45.4026" lon="4.41506">
        <ele>737.88293457031</ele>
        <time>2015-12-22T18:40:43.000Z</time>
      </trkpt>
      <trkpt lat="45.40257" lon="4.4151">
        <ele>738.16888427734</ele>
        <time>2015-12-22T18:40:45.000Z</time>
      </trkpt>
      <trkpt lat="45.40255" lon="4.41513">
        <ele>739.76251220703</ele>
        <time>2015-12-22T18:40:47.000Z</time>
      </trkpt>
      <trkpt lat="45.40252" lon="4.41519">
        <ele>742.22875976562</ele>
        <time>2015-12-22T18:40:50.000Z</time>
      </trkpt>
      <trkpt lat="45.4025" lon="4.41525">
        <ele>742.90753173828</ele>
        <time>2015-12-22T18:40:53.000Z</time>
      </trkpt>
      <trkpt lat="45.40248" lon="4.41534">
        <ele>743.78210449219</ele>
        <time>2015-12-22T18:40:56.000Z</time>
      </trkpt>
      <trkpt lat="45.40245" lon="4.41537">
        <ele>745.35772705078</ele>
        <time>2015-12-22T18:40:58.000Z</time>
      </trkpt>
      <trkpt lat="45.40243" lon="4.41544">
        <ele>746.62518310547</ele>
        <time>2015-12-22T18:41:01.000Z</time>
      </trkpt>
      <trkpt lat="45.40242" lon="4.41551">
        <ele>747.337890625</ele>
        <time>2015-12-22T18:41:03.000Z</time>
      </trkpt>
      <trkpt lat="45.40242" lon="4.41557">
        <ele>748.38940429688</ele>
        <time>2015-12-22T18:41:06.000Z</time>
      </trkpt>
      <trkpt lat="45.4024" lon="4.41561">
        <ele>749.15582275391</ele>
        <time>2015-12-22T18:41:08.000Z</time>
      </trkpt>
      <trkpt lat="45.40239" lon="4.41566">
        <ele>749.47344970703</ele>
        <time>2015-12-22T18:41:10.000Z</time>
      </trkpt>
      <trkpt lat="45.40236" lon="4.41573">
        <ele>749.23419189453</ele>
        <time>2015-12-22T18:41:13.000Z</time>
      </trkpt>
      <trkpt lat="45.40232" lon="4.41579">
        <ele>748.39025878906</ele>
        <time>2015-12-22T18:41:16.000Z</time>
      </trkpt>
      <trkpt lat="45.40228" lon="4.41586">
        <ele>748.04620361328</ele>
        <time>2015-12-22T18:41:19.000Z</time>
      </trkpt>
      <trkpt lat="45.40224" lon="4.41589">
        <ele>749.322265625</ele>
        <time>2015-12-22T18:41:22.000Z</time>
      </trkpt>
      <trkpt lat="45.40224" lon="4.41593">
        <ele>749.45599365234</ele>
        <time>2015-12-22T18:41:25.000Z</time>
      </trkpt>
      <trkpt lat="45.40222" lon="4.416">
        <ele>749.85845947266</ele>
        <time>2015-12-22T18:41:28.000Z</time>
      </trkpt>
      <trkpt lat="45.40219" lon="4.41603">
        <ele>750.35131835938</ele>
        <time>2015-12-22T18:41:31.000Z</time>
      </trkpt>
      <trkpt lat="45.40216" lon="4.41605">
        <ele>752.53002929688</ele>
        <time>2015-12-22T18:41:33.000Z</time>
      </trkpt>
      <trkpt lat="45.40213" lon="4.41608">
        <ele>754.75848388672</ele>
        <time>2015-12-22T18:41:36.000Z</time>
      </trkpt>
      <trkpt lat="45.40213" lon="4.41614">
        <ele>755.63049316406</ele>
        <time>2015-12-22T18:41:39.000Z</time>
      </trkpt>
      <trkpt lat="45.40212" lon="4.41623">
        <ele>756.48315429688</ele>
        <time>2015-12-22T18:41:42.000Z</time>
      </trkpt>
      <trkpt lat="45.40211" lon="4.4163">
        <ele>756.86553955078</ele>
        <time>2015-12-22T18:41:44.000Z</time>
      </trkpt>
      <trkpt lat="45.40211" lon="4.41637">
        <ele>757.21905517578</ele>
        <time>2015-12-22T18:41:46.000Z</time>
      </trkpt>
      <trkpt lat="45.40209" lon="4.4164">
        <ele>758.66741943359</ele>
        <time>2015-12-22T18:41:49.000Z</time>
      </trkpt>
      <trkpt lat="45.40208" lon="4.41642">
        <ele>759.91790771484</ele>
        <time>2015-12-22T18:41:51.000Z</time>
      </trkpt>
      <trkpt lat="45.40205" lon="4.41643">
        <ele>760.77416992188</ele>
        <time>2015-12-22T18:41:54.000Z</time>
      </trkpt>
      <trkpt lat="45.40204" lon="4.41644">
        <ele>761.0029296875</ele>
        <time>2015-12-22T18:41:56.000Z</time>
      </trkpt>
      <trkpt lat="45.40202" lon="4.41646">
        <ele>760.7236328125</ele>
        <time>2015-12-22T18:41:58.000Z</time>
      </trkpt>
      <trkpt lat="45.402" lon="4.4165">
        <ele>760.20758056641</ele>
        <time>2015-12-22T18:42:01.000Z</time>
      </trkpt>
      <trkpt lat="45.40198" lon="4.41653">
        <ele>759.123046875</ele>
        <time>2015-12-22T18:42:04.000Z</time>
      </trkpt>
      <trkpt lat="45.40196" lon="4.41654">
        <ele>759.89587402344</ele>
        <time>2015-12-22T18:42:06.000Z</time>
      </trkpt>
      <trkpt lat="45.40195" lon="4.41657">
        <ele>760.89788818359</ele>
        <time>2015-12-22T18:42:09.000Z</time>
      </trkpt>
      <trkpt lat="45.40194" lon="4.41662">
        <ele>760.91131591797</ele>
        <time>2015-12-22T18:42:12.000Z</time>
      </trkpt>
      <trkpt lat="45.40192" lon="4.41664">
        <ele>760.74047851562</ele>
        <time>2015-12-22T18:42:15.000Z</time>
      </trkpt>
      <trkpt lat="45.40192" lon="4.41667">
        <ele>761.58502197266</ele>
        <time>2015-12-22T18:42:18.000Z</time>
      </trkpt>
      <trkpt lat="45.40191" lon="4.41673">
        <ele>762.47821044922</ele>
        <time>2015-12-22T18:42:20.000Z</time>
      </trkpt>
      <trkpt lat="45.40189" lon="4.41678">
        <ele>763.18109130859</ele>
        <time>2015-12-22T18:42:22.000Z</time>
      </trkpt>
      <trkpt lat="45.40188" lon="4.41683">
        <ele>763.18682861328</ele>
        <time>2015-12-22T18:42:24.000Z</time>
      </trkpt>
      <trkpt lat="45.40186" lon="4.4169">
        <ele>765.85797119141</ele>
        <time>2015-12-22T18:42:27.000Z</time>
      </trkpt>
      <trkpt lat="45.40185" lon="4.41694">
        <ele>767.48937988281</ele>
        <time>2015-12-22T18:42:29.000Z</time>
      </trkpt>
      <trkpt lat="45.40182" lon="4.41701">
        <ele>769.18408203125</ele>
        <time>2015-12-22T18:42:32.000Z</time>
      </trkpt>
      <trkpt lat="45.40179" lon="4.41705">
        <ele>767.564453125</ele>
        <time>2015-12-22T18:42:35.000Z</time>
      </trkpt>
      <trkpt lat="45.40179" lon="4.41708">
        <ele>766.94958496094</ele>
        <time>2015-12-22T18:42:37.000Z</time>
      </trkpt>
      <trkpt lat="45.40177" lon="4.41712">
        <ele>768.30432128906</ele>
        <time>2015-12-22T18:42:40.000Z</time>
      </trkpt>
      <trkpt lat="45.40174" lon="4.41714">
        <ele>769.33489990234</ele>
        <time>2015-12-22T18:42:42.000Z</time>
      </trkpt>
      <trkpt lat="45.40173" lon="4.41717">
        <ele>769.83337402344</ele>
        <time>2015-12-22T18:42:45.000Z</time>
      </trkpt>
      <trkpt lat="45.40171" lon="4.41723">
        <ele>770.29217529297</ele>
        <time>2015-12-22T18:42:48.000Z</time>
      </trkpt>
      <trkpt lat="45.4017" lon="4.41727">
        <ele>770.2080078125</ele>
        <time>2015-12-22T18:42:50.000Z</time>
      </trkpt>
      <trkpt lat="45.40166" lon="4.4173">
        <ele>770.17962646484</ele>
        <time>2015-12-22T18:42:53.000Z</time>
      </trkpt>
      <trkpt lat="45.40164" lon="4.41733">
        <ele>770.76275634766</ele>
        <time>2015-12-22T18:42:55.000Z</time>
      </trkpt>
      <trkpt lat="45.40162" lon="4.41738">
        <ele>769.62384033203</ele>
        <time>2015-12-22T18:42:58.000Z</time>
      </trkpt>
      <trkpt lat="45.40161" lon="4.41743">
        <ele>768.45922851562</ele>
        <time>2015-12-22T18:43:01.000Z</time>
      </trkpt>
      <trkpt lat="45.40158" lon="4.41746">
        <ele>767.97680664062</ele>
        <time>2015-12-22T18:43:03.000Z</time>
      </trkpt>
      <trkpt lat="45.40157" lon="4.41752">
        <ele>769.96734619141</ele>
        <time>2015-12-22T18:43:07.000Z</time>
      </trkpt>
      <trkpt lat="45.40154" lon="4.41754">
        <ele>771.34320068359</ele>
        <time>2015-12-22T18:43:10.000Z</time>
      </trkpt>
      <trkpt lat="45.40152" lon="4.41757">
        <ele>771.66693115234</ele>
        <time>2015-12-22T18:43:13.000Z</time>
      </trkpt>
      <trkpt lat="45.40149" lon="4.41759">
        <ele>771.49407958984</ele>
        <time>2015-12-22T18:43:16.000Z</time>
      </trkpt>
      <trkpt lat="45.40145" lon="4.4176">
        <ele>771.47375488281</ele>
        <time>2015-12-22T18:43:19.000Z</time>
      </trkpt>
      <trkpt lat="45.40142" lon="4.41762">
        <ele>772.44525146484</ele>
        <time>2015-12-22T18:43:22.000Z</time>
      </trkpt>
      <trkpt lat="45.40141" lon="4.41769">
        <ele>773.46569824219</ele>
        <time>2015-12-22T18:43:25.000Z</time>
      </trkpt>
      <trkpt lat="45.40138" lon="4.41777">
        <ele>775.34979248047</ele>
        <time>2015-12-22T18:43:29.000Z</time>
      </trkpt>
      <trkpt lat="45.40133" lon="4.41777">
        <ele>778.20440673828</ele>
        <time>2015-12-22T18:43:31.000Z</time>
      </trkpt>
      <trkpt lat="45.4013" lon="4.41779">
        <ele>778.93322753906</ele>
        <time>2015-12-22T18:43:33.000Z</time>
      </trkpt>
      <trkpt lat="45.40127" lon="4.41779">
        <ele>778.63299560547</ele>
        <time>2015-12-22T18:43:36.000Z</time>
      </trkpt>
      <trkpt lat="45.40125" lon="4.4178">
        <ele>778.18444824219</ele>
        <time>2015-12-22T18:43:38.000Z</time>
      </trkpt>
      <trkpt lat="45.40123" lon="4.41786">
        <ele>778.41552734375</ele>
        <time>2015-12-22T18:43:41.000Z</time>
      </trkpt>
      <trkpt lat="45.40122" lon="4.41794">
        <ele>778.34643554688</ele>
        <time>2015-12-22T18:43:44.000Z</time>
      </trkpt>
      <trkpt lat="45.40121" lon="4.41797">
        <ele>778.57019042969</ele>
        <time>2015-12-22T18:43:46.000Z</time>
      </trkpt>
      <trkpt lat="45.4012" lon="4.41801">
        <ele>780.33734130859</ele>
        <time>2015-12-22T18:43:48.000Z</time>
      </trkpt>
      <trkpt lat="45.40117" lon="4.41805">
        <ele>781.47894287109</ele>
        <time>2015-12-22T18:43:51.000Z</time>
      </trkpt>
      <trkpt lat="45.40116" lon="4.41808">
        <ele>782.04956054688</ele>
        <time>2015-12-22T18:43:53.000Z</time>
      </trkpt>
      <trkpt lat="45.40115" lon="4.41813">
        <ele>782.11682128906</ele>
        <time>2015-12-22T18:43:55.000Z</time>
      </trkpt>
      <trkpt lat="45.40116" lon="4.4182">
        <ele>781.86334228516</ele>
        <time>2015-12-22T18:43:58.000Z</time>
      </trkpt>
      <trkpt lat="45.40115" lon="4.41823">
        <ele>781.43414306641</ele>
        <time>2015-12-22T18:44:00.000Z</time>
      </trkpt>
      <trkpt lat="45.40111" lon="4.41828">
        <ele>779.45788574219</ele>
        <time>2015-12-22T18:44:03.000Z</time>
      </trkpt>
      <trkpt lat="45.40109" lon="4.41832">
        <ele>779.64807128906</ele>
        <time>2015-12-22T18:44:06.000Z</time>
      </trkpt>
      <trkpt lat="45.40108" lon="4.41836">
        <ele>780.33697509766</ele>
        <time>2015-12-22T18:44:08.000Z</time>
      </trkpt>
      <trkpt lat="45.40108" lon="4.4184">
        <ele>781.38665771484</ele>
        <time>2015-12-22T18:44:11.000Z</time>
      </trkpt>
      <trkpt lat="45.40108" lon="4.41842">
        <ele>782.32641601562</ele>
        <time>2015-12-22T18:44:13.000Z</time>
      </trkpt>
      <trkpt lat="45.40108" lon="4.41845">
        <ele>785.38592529297</ele>
        <time>2015-12-22T18:44:16.000Z</time>
      </trkpt>
      <trkpt lat="45.40107" lon="4.41847">
        <ele>786.03729248047</ele>
        <time>2015-12-22T18:44:18.000Z</time>
      </trkpt>
      <trkpt lat="45.40105" lon="4.41851">
        <ele>787.29675292969</ele>
        <time>2015-12-22T18:44:21.000Z</time>
      </trkpt>
      <trkpt lat="45.40102" lon="4.41854">
        <ele>787.9755859375</ele>
        <time>2015-12-22T18:44:23.000Z</time>
      </trkpt>
      <trkpt lat="45.401" lon="4.41857">
        <ele>787.69421386719</ele>
        <time>2015-12-22T18:44:25.000Z</time>
      </trkpt>
      <trkpt lat="45.401" lon="4.4186">
        <ele>787.5849609375</ele>
        <time>2015-12-22T18:44:27.000Z</time>
      </trkpt>
      <trkpt lat="45.40099" lon="4.41864">
        <ele>787.16125488281</ele>
        <time>2015-12-22T18:44:30.000Z</time>
      </trkpt>
      <trkpt lat="45.40098" lon="4.4187">
        <ele>787.19964599609</ele>
        <time>2015-12-22T18:44:33.000Z</time>
      </trkpt>
      <trkpt lat="45.40098" lon="4.41877">
        <ele>786.58093261719</ele>
        <time>2015-12-22T18:44:36.000Z</time>
      </trkpt>
      <trkpt lat="45.40096" lon="4.41881">
        <ele>788.08319091797</ele>
        <time>2015-12-22T18:44:39.000Z</time>
      </trkpt>
      <trkpt lat="45.40093" lon="4.41885">
        <ele>790.03051757812</ele>
        <time>2015-12-22T18:44:42.000Z</time>
      </trkpt>
      <trkpt lat="45.40092" lon="4.4189">
        <ele>790.99914550781</ele>
        <time>2015-12-22T18:44:44.000Z</time>
      </trkpt>
      <trkpt lat="45.4009" lon="4.41896">
        <ele>792.126953125</ele>
        <time>2015-12-22T18:44:47.000Z</time>
      </trkpt>
      <trkpt lat="45.40088" lon="4.41899">
        <ele>793.40185546875</ele>
        <time>2015-12-22T18:44:49.000Z</time>
      </trkpt>
      <trkpt lat="45.40085" lon="4.41906">
        <ele>794.37438964844</ele>
        <time>2015-12-22T18:44:52.000Z</time>
      </trkpt>
      <trkpt lat="45.40084" lon="4.41909">
        <ele>793.95098876953</ele>
        <time>2015-12-22T18:44:54.000Z</time>
      </trkpt>
      <trkpt lat="45.40084" lon="4.41913">
        <ele>793.39581298828</ele>
        <time>2015-12-22T18:44:56.000Z</time>
      </trkpt>
      <trkpt lat="45.40084" lon="4.41918">
        <ele>793.71624755859</ele>
        <time>2015-12-22T18:44:58.000Z</time>
      </trkpt>
      <trkpt lat="45.40084" lon="4.41922">
        <ele>793.69750976562</ele>
        <time>2015-12-22T18:45:01.000Z</time>
      </trkpt>
      <trkpt lat="45.40084" lon="4.41926">
        <ele>793.80694580078</ele>
        <time>2015-12-22T18:45:04.000Z</time>
      </trkpt>
      <trkpt lat="45.40084" lon="4.41929">
        <ele>793.33447265625</ele>
        <time>2015-12-22T18:45:06.000Z</time>
      </trkpt>
      <trkpt lat="45.40084" lon="4.41934">
        <ele>793.37097167969</ele>
        <time>2015-12-22T18:45:08.000Z</time>
      </trkpt>
      <trkpt lat="45.40081" lon="4.41938">
        <ele>792.81958007812</ele>
        <time>2015-12-22T18:45:10.000Z</time>
      </trkpt>
      <trkpt lat="45.4008" lon="4.41947">
        <ele>792.80645751953</ele>
        <time>2015-12-22T18:45:13.000Z</time>
      </trkpt>
      <trkpt lat="45.40079" lon="4.41951">
        <ele>794.09350585938</ele>
        <time>2015-12-22T18:45:15.000Z</time>
      </trkpt>
      <trkpt lat="45.40078" lon="4.41953">
        <ele>795.84100341797</ele>
        <time>2015-12-22T18:45:17.000Z</time>
      </trkpt>
      <trkpt lat="45.40074" lon="4.41954">
        <ele>797.18127441406</ele>
        <time>2015-12-22T18:45:20.000Z</time>
      </trkpt>
      <trkpt lat="45.40073" lon="4.41955">
        <ele>796.96203613281</ele>
        <time>2015-12-22T18:45:22.000Z</time>
      </trkpt>
      <trkpt lat="45.4007" lon="4.41955">
        <ele>796.64782714844</ele>
        <time>2015-12-22T18:45:24.000Z</time>
      </trkpt>
      <trkpt lat="45.40067" lon="4.41958">
        <ele>797.61602783203</ele>
        <time>2015-12-22T18:45:27.000Z</time>
      </trkpt>
      <trkpt lat="45.40063" lon="4.4196">
        <ele>799.02075195312</ele>
        <time>2015-12-22T18:45:29.000Z</time>
      </trkpt>
      <trkpt lat="45.40061" lon="4.41959">
        <ele>800.80822753906</ele>
        <time>2015-12-22T18:45:32.000Z</time>
      </trkpt>
      <trkpt lat="45.40059" lon="4.41959">
        <ele>801.0595703125</ele>
        <time>2015-12-22T18:45:34.000Z</time>
      </trkpt>
      <trkpt lat="45.40059" lon="4.41965">
        <ele>801.82171630859</ele>
        <time>2015-12-22T18:45:37.000Z</time>
      </trkpt>
      <trkpt lat="45.40057" lon="4.41967">
        <ele>803.22717285156</ele>
        <time>2015-12-22T18:45:39.000Z</time>
      </trkpt>
      <trkpt lat="45.40056" lon="4.41973">
        <ele>804.06817626953</ele>
        <time>2015-12-22T18:45:42.000Z</time>
      </trkpt>
      <trkpt lat="45.40055" lon="4.41982">
        <ele>804.52484130859</ele>
        <time>2015-12-22T18:45:45.000Z</time>
      </trkpt>
      <trkpt lat="45.40053" lon="4.41983">
        <ele>805.06842041016</ele>
        <time>2015-12-22T18:45:47.000Z</time>
      </trkpt>
      <trkpt lat="45.40052" lon="4.41987">
        <ele>805.63189697266</ele>
        <time>2015-12-22T18:45:49.000Z</time>
      </trkpt>
      <trkpt lat="45.40052" lon="4.4199">
        <ele>805.83361816406</ele>
        <time>2015-12-22T18:45:51.000Z</time>
      </trkpt>
      <trkpt lat="45.40051" lon="4.41995">
        <ele>807.33605957031</ele>
        <time>2015-12-22T18:45:54.000Z</time>
      </trkpt>
      <trkpt lat="45.40049" lon="4.41999">
        <ele>807.37341308594</ele>
        <time>2015-12-22T18:45:57.000Z</time>
      </trkpt>
      <trkpt lat="45.40047" lon="4.42003">
        <ele>806.2734375</ele>
        <time>2015-12-22T18:45:59.000Z</time>
      </trkpt>
      <trkpt lat="45.40044" lon="4.42007">
        <ele>806.09307861328</ele>
        <time>2015-12-22T18:46:02.000Z</time>
      </trkpt>
      <trkpt lat="45.4004" lon="4.42008">
        <ele>807.63256835938</ele>
        <time>2015-12-22T18:46:05.000Z</time>
      </trkpt>
      <trkpt lat="45.40037" lon="4.42012">
        <ele>809.49462890625</ele>
        <time>2015-12-22T18:46:08.000Z</time>
      </trkpt>
      <trkpt lat="45.40035" lon="4.42016">
        <ele>809.86798095703</ele>
        <time>2015-12-22T18:46:11.000Z</time>
      </trkpt>
      <trkpt lat="45.40032" lon="4.42016">
        <ele>810.66400146484</ele>
        <time>2015-12-22T18:46:13.000Z</time>
      </trkpt>
      <trkpt lat="45.40029" lon="4.42017">
        <ele>810.95623779297</ele>
        <time>2015-12-22T18:46:16.000Z</time>
      </trkpt>
      <trkpt lat="45.40026" lon="4.42023">
        <ele>811.45251464844</ele>
        <time>2015-12-22T18:46:19.000Z</time>
      </trkpt>
      <trkpt lat="45.40026" lon="4.42027">
        <ele>811.78637695312</ele>
        <time>2015-12-22T18:46:21.000Z</time>
      </trkpt>
      <trkpt lat="45.40024" lon="4.42032">
        <ele>810.73297119141</ele>
        <time>2015-12-22T18:46:23.000Z</time>
      </trkpt>
      <trkpt lat="45.4002" lon="4.42036">
        <ele>808.11956787109</ele>
        <time>2015-12-22T18:46:26.000Z</time>
      </trkpt>
      <trkpt lat="45.40015" lon="4.42038">
        <ele>810.23394775391</ele>
        <time>2015-12-22T18:46:29.000Z</time>
      </trkpt>
      <trkpt lat="45.40014" lon="4.4204">
        <ele>811.29833984375</ele>
        <time>2015-12-22T18:46:31.000Z</time>
      </trkpt>
      <trkpt lat="45.40014" lon="4.42043">
        <ele>810.98132324219</ele>
        <time>2015-12-22T18:46:33.000Z</time>
      </trkpt>
      <trkpt lat="45.40014" lon="4.42046">
        <ele>809.34893798828</ele>
        <time>2015-12-22T18:46:36.000Z</time>
      </trkpt>
      <trkpt lat="45.40015" lon="4.42047">
        <ele>809.09967041016</ele>
        <time>2015-12-22T18:46:38.000Z</time>
      </trkpt>
      <trkpt lat="45.40014" lon="4.4205">
        <ele>808.78820800781</ele>
        <time>2015-12-22T18:46:40.000Z</time>
      </trkpt>
      <trkpt lat="45.40013" lon="4.42051">
        <ele>808.56805419922</ele>
        <time>2015-12-22T18:46:42.000Z</time>
      </trkpt>
      <trkpt lat="45.40011" lon="4.42052">
        <ele>808.17559814453</ele>
        <time>2015-12-22T18:46:44.000Z</time>
      </trkpt>
      <trkpt lat="45.40009" lon="4.42053">
        <ele>809.42309570312</ele>
        <time>2015-12-22T18:46:46.000Z</time>
      </trkpt>
      <trkpt lat="45.40006" lon="4.42057">
        <ele>810.41784667969</ele>
        <time>2015-12-22T18:46:49.000Z</time>
      </trkpt>
      <trkpt lat="45.4" lon="4.42065">
        <ele>808.84338378906</ele>
        <time>2015-12-22T18:46:52.000Z</time>
      </trkpt>
      <trkpt lat="45.39997" lon="4.42072">
        <ele>808.53491210938</ele>
        <time>2015-12-22T18:46:55.000Z</time>
      </trkpt>
      <trkpt lat="45.39994" lon="4.42074">
        <ele>809.16278076172</ele>
        <time>2015-12-22T18:46:57.000Z</time>
      </trkpt>
      <trkpt lat="45.39992" lon="4.42076">
        <ele>808.87182617188</ele>
        <time>2015-12-22T18:47:00.000Z</time>
      </trkpt>
      <trkpt lat="45.39983" lon="4.42081">
        <ele>806.37377929688</ele>
        <time>2015-12-22T18:47:03.000Z</time>
      </trkpt>
      <trkpt lat="45.39977" lon="4.42087">
        <ele>805.17999267578</ele>
        <time>2015-12-22T18:47:05.000Z</time>
      </trkpt>
      <trkpt lat="45.39968" lon="4.42103">
        <ele>803.51580810547</ele>
        <time>2015-12-22T18:47:08.000Z</time>
      </trkpt>
      <trkpt lat="45.39966" lon="4.42113">
        <ele>804.48791503906</ele>
        <time>2015-12-22T18:47:10.000Z</time>
      </trkpt>
      <trkpt lat="45.39964" lon="4.42123">
        <ele>803.8369140625</ele>
        <time>2015-12-22T18:47:13.000Z</time>
      </trkpt>
      <trkpt lat="45.39963" lon="4.42127">
        <ele>803.36566162109</ele>
        <time>2015-12-22T18:47:15.000Z</time>
      </trkpt>
      <trkpt lat="45.3996" lon="4.42134">
        <ele>802.51190185547</ele>
        <time>2015-12-22T18:47:18.000Z</time>
      </trkpt>
      <trkpt lat="45.39958" lon="4.42135">
        <ele>801.82196044922</ele>
        <time>2015-12-22T18:47:20.000Z</time>
      </trkpt>
      <trkpt lat="45.39951" lon="4.42137">
        <ele>798.47479248047</ele>
        <time>2015-12-22T18:47:23.000Z</time>
      </trkpt>
      <trkpt lat="45.39948" lon="4.42137">
        <ele>795.36834716797</ele>
        <time>2015-12-22T18:47:25.000Z</time>
      </trkpt>
      <trkpt lat="45.39947" lon="4.42137">
        <ele>794.91961669922</ele>
        <time>2015-12-22T18:47:27.000Z</time>
      </trkpt>
      <trkpt lat="45.39944" lon="4.42145">
        <ele>800.48986816406</ele>
        <time>2015-12-22T18:47:30.000Z</time>
      </trkpt>
      <trkpt lat="45.39941" lon="4.42148">
        <ele>803.26403808594</ele>
        <time>2015-12-22T18:47:32.000Z</time>
      </trkpt>
      <trkpt lat="45.39938" lon="4.42149">
        <ele>807.76501464844</ele>
        <time>2015-12-22T18:47:35.000Z</time>
      </trkpt>
      <trkpt lat="45.39937" lon="4.42148">
        <ele>810.07409667969</ele>
        <time>2015-12-22T18:47:38.000Z</time>
      </trkpt>
      <trkpt lat="45.39937" lon="4.42151">
        <ele>811.55993652344</ele>
        <time>2015-12-22T18:47:41.000Z</time>
      </trkpt>
      <trkpt lat="45.39937" lon="4.42152">
        <ele>812.07720947266</ele>
        <time>2015-12-22T18:47:43.000Z</time>
      </trkpt>
      <trkpt lat="45.39938" lon="4.42157">
        <ele>813.22064208984</ele>
        <time>2015-12-22T18:47:46.000Z</time>
      </trkpt>
      <trkpt lat="45.39938" lon="4.42164">
        <ele>813.46990966797</ele>
        <time>2015-12-22T18:47:48.000Z</time>
      </trkpt>
      <trkpt lat="45.39938" lon="4.42171">
        <ele>814.68865966797</ele>
        <time>2015-12-22T18:47:50.000Z</time>
      </trkpt>
      <trkpt lat="45.3994" lon="4.42176">
        <ele>814.44213867188</ele>
        <time>2015-12-22T18:47:52.000Z</time>
      </trkpt>
      <trkpt lat="45.39945" lon="4.42182">
        <ele>813.47882080078</ele>
        <time>2015-12-22T18:47:56.000Z</time>
      </trkpt>
      <trkpt lat="45.39948" lon="4.42187">
        <ele>812.79644775391</ele>
        <time>2015-12-22T18:47:58.000Z</time>
      </trkpt>
      <trkpt lat="45.39949" lon="4.42193">
        <ele>812.25592041016</ele>
        <time>2015-12-22T18:48:00.000Z</time>
      </trkpt>
      <trkpt lat="45.39951" lon="4.42196">
        <ele>812.59112548828</ele>
        <time>2015-12-22T18:48:02.000Z</time>
      </trkpt>
      <trkpt lat="45.39952" lon="4.42199">
        <ele>813.16369628906</ele>
        <time>2015-12-22T18:48:05.000Z</time>
      </trkpt>
      <trkpt lat="45.39953" lon="4.42208">
        <ele>816.06494140625</ele>
        <time>2015-12-22T18:48:08.000Z</time>
      </trkpt>
      <trkpt lat="45.39953" lon="4.42213">
        <ele>817.59759521484</ele>
        <time>2015-12-22T18:48:11.000Z</time>
      </trkpt>
      <trkpt lat="45.39952" lon="4.42218">
        <ele>818.42034912109</ele>
        <time>2015-12-22T18:48:13.000Z</time>
      </trkpt>
      <trkpt lat="45.39952" lon="4.42227">
        <ele>820.1064453125</ele>
        <time>2015-12-22T18:48:15.000Z</time>
      </trkpt>
      <trkpt lat="45.39951" lon="4.42232">
        <ele>821.53125</ele>
        <time>2015-12-22T18:48:18.000Z</time>
      </trkpt>
      <trkpt lat="45.39951" lon="4.42236">
        <ele>821.35662841797</ele>
        <time>2015-12-22T18:48:20.000Z</time>
      </trkpt>
      <trkpt lat="45.3995" lon="4.42241">
        <ele>821.89910888672</ele>
        <time>2015-12-22T18:48:23.000Z</time>
      </trkpt>
      <trkpt lat="45.39949" lon="4.42245">
        <ele>822.76324462891</ele>
        <time>2015-12-22T18:48:25.000Z</time>
      </trkpt>
      <trkpt lat="45.39949" lon="4.4225">
        <ele>823.42926025391</ele>
        <time>2015-12-22T18:48:28.000Z</time>
      </trkpt>
      <trkpt lat="45.39948" lon="4.42253">
        <ele>823.55487060547</ele>
        <time>2015-12-22T18:48:31.000Z</time>
      </trkpt>
      <trkpt lat="45.39946" lon="4.42256">
        <ele>823.77044677734</ele>
        <time>2015-12-22T18:48:34.000Z</time>
      </trkpt>
      <trkpt lat="45.3994" lon="4.42255">
        <ele>823.78094482422</ele>
        <time>2015-12-22T18:48:37.000Z</time>
      </trkpt>
      <trkpt lat="45.39939" lon="4.42256">
        <ele>823.55572509766</ele>
        <time>2015-12-22T18:48:40.000Z</time>
      </trkpt>
      <trkpt lat="45.39938" lon="4.4226">
        <ele>822.71380615234</ele>
        <time>2015-12-22T18:48:43.000Z</time>
      </trkpt>
      <trkpt lat="45.39938" lon="4.42265">
        <ele>823.24816894531</ele>
        <time>2015-12-22T18:48:46.000Z</time>
      </trkpt>
      <trkpt lat="45.39938" lon="4.42269">
        <ele>823.39965820312</ele>
        <time>2015-12-22T18:48:48.000Z</time>
      </trkpt>
      <trkpt lat="45.39938" lon="4.42275">
        <ele>823.83483886719</ele>
        <time>2015-12-22T18:48:51.000Z</time>
      </trkpt>
      <trkpt lat="45.39938" lon="4.42279">
        <ele>824.02484130859</ele>
        <time>2015-12-22T18:48:53.000Z</time>
      </trkpt>
      <trkpt lat="45.39939" lon="4.42284">
        <ele>824.83160400391</ele>
        <time>2015-12-22T18:48:56.000Z</time>
      </trkpt>
      <trkpt lat="45.3994" lon="4.42289">
        <ele>825.84130859375</ele>
        <time>2015-12-22T18:48:59.000Z</time>
      </trkpt>
      <trkpt lat="45.3994" lon="4.42294">
        <ele>827.72204589844</ele>
        <time>2015-12-22T18:49:01.000Z</time>
      </trkpt>
      <trkpt lat="45.3994" lon="4.42297">
        <ele>829.13000488281</ele>
        <time>2015-12-22T18:49:04.000Z</time>
      </trkpt>
      <trkpt lat="45.39939" lon="4.42301">
        <ele>831.57653808594</ele>
        <time>2015-12-22T18:49:08.000Z</time>
      </trkpt>
      <trkpt lat="45.39938" lon="4.42302">
        <ele>833.33905029297</ele>
        <time>2015-12-22T18:49:10.000Z</time>
      </trkpt>
      <trkpt lat="45.39941" lon="4.42311">
        <ele>836.91241455078</ele>
        <time>2015-12-22T18:49:13.000Z</time>
      </trkpt>
      <trkpt lat="45.39941" lon="4.42313">
        <ele>837.27081298828</ele>
        <time>2015-12-22T18:49:15.000Z</time>
      </trkpt>
      <trkpt lat="45.39941" lon="4.42316">
        <ele>836.96856689453</ele>
        <time>2015-12-22T18:49:17.000Z</time>
      </trkpt>
      <trkpt lat="45.3994" lon="4.42318">
        <ele>836.74475097656</ele>
        <time>2015-12-22T18:49:20.000Z</time>
      </trkpt>
      <trkpt lat="45.39938" lon="4.42322">
        <ele>835.43273925781</ele>
        <time>2015-12-22T18:49:23.000Z</time>
      </trkpt>
      <trkpt lat="45.39937" lon="4.42327">
        <ele>835.94732666016</ele>
        <time>2015-12-22T18:49:25.000Z</time>
      </trkpt>
      <trkpt lat="45.39937" lon="4.42331">
        <ele>837.41247558594</ele>
        <time>2015-12-22T18:49:28.000Z</time>
      </trkpt>
      <trkpt lat="45.39937" lon="4.42335">
        <ele>837.68103027344</ele>
        <time>2015-12-22T18:49:30.000Z</time>
      </trkpt>
      <trkpt lat="45.39936" lon="4.42341">
        <ele>837.95202636719</ele>
        <time>2015-12-22T18:49:33.000Z</time>
      </trkpt>
      <trkpt lat="45.39936" lon="4.42344">
        <ele>838.45147705078</ele>
        <time>2015-12-22T18:49:36.000Z</time>
      </trkpt>
      <trkpt lat="45.39936" lon="4.42348">
        <ele>840.82611083984</ele>
        <time>2015-12-22T18:49:39.000Z</time>
      </trkpt>
      <trkpt lat="45.39935" lon="4.42352">
        <ele>841.95495605469</ele>
        <time>2015-12-22T18:49:41.000Z</time>
      </trkpt>
      <trkpt lat="45.39935" lon="4.42355">
        <ele>842.20825195312</ele>
        <time>2015-12-22T18:49:44.000Z</time>
      </trkpt>
      <trkpt lat="45.39934" lon="4.4236">
        <ele>840.51605224609</ele>
        <time>2015-12-22T18:49:47.000Z</time>
      </trkpt>
      <trkpt lat="45.39934" lon="4.42364">
        <ele>841.5029296875</ele>
        <time>2015-12-22T18:49:49.000Z</time>
      </trkpt>
      <trkpt lat="45.39933" lon="4.42369">
        <ele>841.78112792969</ele>
        <time>2015-12-22T18:49:52.000Z</time>
      </trkpt>
      <trkpt lat="45.39932" lon="4.42376">
        <ele>842.26672363281</ele>
        <time>2015-12-22T18:49:55.000Z</time>
      </trkpt>
      <trkpt lat="45.3993" lon="4.42378">
        <ele>841.63647460938</ele>
        <time>2015-12-22T18:49:57.000Z</time>
      </trkpt>
      <trkpt lat="45.3993" lon="4.42383">
        <ele>841.76794433594</ele>
        <time>2015-12-22T18:49:59.000Z</time>
      </trkpt>
      <trkpt lat="45.39928" lon="4.42385">
        <ele>841.65557861328</ele>
        <time>2015-12-22T18:50:01.000Z</time>
      </trkpt>
      <trkpt lat="45.39927" lon="4.42387">
        <ele>841.49206542969</ele>
        <time>2015-12-22T18:50:04.000Z</time>
      </trkpt>
      <trkpt lat="45.39925" lon="4.42388">
        <ele>843.0849609375</ele>
        <time>2015-12-22T18:50:06.000Z</time>
      </trkpt>
      <trkpt lat="45.39923" lon="4.42392">
        <ele>844.65405273438</ele>
        <time>2015-12-22T18:50:09.000Z</time>
      </trkpt>
      <trkpt lat="45.3992" lon="4.42401">
        <ele>844.818359375</ele>
        <time>2015-12-22T18:50:12.000Z</time>
      </trkpt>
      <trkpt lat="45.39919" lon="4.42406">
        <ele>844.69122314453</ele>
        <time>2015-12-22T18:50:14.000Z</time>
      </trkpt>
      <trkpt lat="45.39919" lon="4.42409">
        <ele>844.87786865234</ele>
        <time>2015-12-22T18:50:16.000Z</time>
      </trkpt>
      <trkpt lat="45.39918" lon="4.42413">
        <ele>845.19665527344</ele>
        <time>2015-12-22T18:50:19.000Z</time>
      </trkpt>
      <trkpt lat="45.39918" lon="4.42417">
        <ele>845.57965087891</ele>
        <time>2015-12-22T18:50:23.000Z</time>
      </trkpt>
      <trkpt lat="45.39918" lon="4.4242">
        <ele>845.25897216797</ele>
        <time>2015-12-22T18:50:25.000Z</time>
      </trkpt>
      <trkpt lat="45.39916" lon="4.42424">
        <ele>845.18670654297</ele>
        <time>2015-12-22T18:50:29.000Z</time>
      </trkpt>
      <trkpt lat="45.39915" lon="4.42426">
        <ele>845.30267333984</ele>
        <time>2015-12-22T18:50:31.000Z</time>
      </trkpt>
      <trkpt lat="45.39912" lon="4.42435">
        <ele>844.57214355469</ele>
        <time>2015-12-22T18:50:34.000Z</time>
      </trkpt>
      <trkpt lat="45.3991" lon="4.4244">
        <ele>845.81298828125</ele>
        <time>2015-12-22T18:50:37.000Z</time>
      </trkpt>
      <trkpt lat="45.39909" lon="4.42442">
        <ele>846.0166015625</ele>
        <time>2015-12-22T18:50:39.000Z</time>
      </trkpt>
      <trkpt lat="45.39908" lon="4.42445">
        <ele>845.09118652344</ele>
        <time>2015-12-22T18:50:42.000Z</time>
      </trkpt>
      <trkpt lat="45.39907" lon="4.42449">
        <ele>845.32757568359</ele>
        <time>2015-12-22T18:50:44.000Z</time>
      </trkpt>
      <trkpt lat="45.39906" lon="4.42453">
        <ele>845.76544189453</ele>
        <time>2015-12-22T18:50:46.000Z</time>
      </trkpt>
      <trkpt lat="45.39904" lon="4.42459">
        <ele>846.40795898438</ele>
        <time>2015-12-22T18:50:49.000Z</time>
      </trkpt>
      <trkpt lat="45.39903" lon="4.42461">
        <ele>847.11303710938</ele>
        <time>2015-12-22T18:50:52.000Z</time>
      </trkpt>
      <trkpt lat="45.39901" lon="4.42467">
        <ele>847.16284179688</ele>
        <time>2015-12-22T18:50:54.000Z</time>
      </trkpt>
      <trkpt lat="45.39901" lon="4.42475">
        <ele>847.95373535156</ele>
        <time>2015-12-22T18:50:57.000Z</time>
      </trkpt>
      <trkpt lat="45.39898" lon="4.42485">
        <ele>847.138671875</ele>
        <time>2015-12-22T18:51:00.000Z</time>
      </trkpt>
      <trkpt lat="45.39898" lon="4.42491">
        <ele>847.73895263672</ele>
        <time>2015-12-22T18:51:02.000Z</time>
      </trkpt>
      <trkpt lat="45.39895" lon="4.42499">
        <ele>848.47326660156</ele>
        <time>2015-12-22T18:51:05.000Z</time>
      </trkpt>
      <trkpt lat="45.39894" lon="4.42505">
        <ele>849.22583007812</ele>
        <time>2015-12-22T18:51:07.000Z</time>
      </trkpt>
      <trkpt lat="45.39893" lon="4.42516">
        <ele>850.01611328125</ele>
        <time>2015-12-22T18:51:10.000Z</time>
      </trkpt>
      <trkpt lat="45.39892" lon="4.42526">
        <ele>850.91253662109</ele>
        <time>2015-12-22T18:51:13.000Z</time>
      </trkpt>
      <trkpt lat="45.39891" lon="4.42532">
        <ele>851.13684082031</ele>
        <time>2015-12-22T18:51:15.000Z</time>
      </trkpt>
      <trkpt lat="45.3989" lon="4.42537">
        <ele>851.16094970703</ele>
        <time>2015-12-22T18:51:17.000Z</time>
      </trkpt>
      <trkpt lat="45.39889" lon="4.42541">
        <ele>851.61016845703</ele>
        <time>2015-12-22T18:51:19.000Z</time>
      </trkpt>
      <trkpt lat="45.39889" lon="4.42548">
        <ele>851.77270507812</ele>
        <time>2015-12-22T18:51:22.000Z</time>
      </trkpt>
      <trkpt lat="45.39888" lon="4.42556">
        <ele>850.39495849609</ele>
        <time>2015-12-22T18:51:25.000Z</time>
      </trkpt>
      <trkpt lat="45.39889" lon="4.42566">
        <ele>849.55059814453</ele>
        <time>2015-12-22T18:51:28.000Z</time>
      </trkpt>
      <trkpt lat="45.39889" lon="4.42575">
        <ele>849.82189941406</ele>
        <time>2015-12-22T18:51:31.000Z</time>
      </trkpt>
      <trkpt lat="45.39889" lon="4.42583">
        <ele>850.76934814453</ele>
        <time>2015-12-22T18:51:33.000Z</time>
      </trkpt>
      <trkpt lat="45.39888" lon="4.42588">
        <ele>852.72698974609</ele>
        <time>2015-12-22T18:51:36.000Z</time>
      </trkpt>
      <trkpt lat="45.39888" lon="4.42598">
        <ele>854.11657714844</ele>
        <time>2015-12-22T18:51:39.000Z</time>
      </trkpt>
      <trkpt lat="45.39891" lon="4.42604">
        <ele>854.56030273438</ele>
        <time>2015-12-22T18:51:41.000Z</time>
      </trkpt>
      <trkpt lat="45.39892" lon="4.4261">
        <ele>853.94323730469</ele>
        <time>2015-12-22T18:51:43.000Z</time>
      </trkpt>
      <trkpt lat="45.39896" lon="4.42615">
        <ele>851.99884033203</ele>
        <time>2015-12-22T18:51:45.000Z</time>
      </trkpt>
      <trkpt lat="45.39899" lon="4.42619">
        <ele>850.93096923828</ele>
        <time>2015-12-22T18:51:47.000Z</time>
      </trkpt>
      <trkpt lat="45.39906" lon="4.42625">
        <ele>848.80328369141</ele>
        <time>2015-12-22T18:51:50.000Z</time>
      </trkpt>
      <trkpt lat="45.39907" lon="4.42631">
        <ele>848.37091064453</ele>
        <time>2015-12-22T18:51:53.000Z</time>
      </trkpt>
      <trkpt lat="45.39907" lon="4.42637">
        <ele>848.87164306641</ele>
        <time>2015-12-22T18:51:56.000Z</time>
      </trkpt>
      <trkpt lat="45.39907" lon="4.4264">
        <ele>848.92639160156</ele>
        <time>2015-12-22T18:51:58.000Z</time>
      </trkpt>
      <trkpt lat="45.3991" lon="4.42646">
        <ele>847.28082275391</ele>
        <time>2015-12-22T18:52:01.000Z</time>
      </trkpt>
      <trkpt lat="45.39912" lon="4.42655">
        <ele>847.91522216797</ele>
        <time>2015-12-22T18:52:04.000Z</time>
      </trkpt>
      <trkpt lat="45.39911" lon="4.42662">
        <ele>848.73895263672</ele>
        <time>2015-12-22T18:52:06.000Z</time>
      </trkpt>
      <trkpt lat="45.39911" lon="4.4267">
        <ele>850.80126953125</ele>
        <time>2015-12-22T18:52:09.000Z</time>
      </trkpt>
      <trkpt lat="45.39909" lon="4.42676">
        <ele>852.70172119141</ele>
        <time>2015-12-22T18:52:12.000Z</time>
      </trkpt>
      <trkpt lat="45.39907" lon="4.42681">
        <ele>853.45220947266</ele>
        <time>2015-12-22T18:52:14.000Z</time>
      </trkpt>
      <trkpt lat="45.39904" lon="4.42685">
        <ele>853.50335693359</ele>
        <time>2015-12-22T18:52:16.000Z</time>
      </trkpt>
      <trkpt lat="45.39902" lon="4.42689">
        <ele>853.44818115234</ele>
        <time>2015-12-22T18:52:18.000Z</time>
      </trkpt>
      <trkpt lat="45.39901" lon="4.42695">
        <ele>854.42950439453</ele>
        <time>2015-12-22T18:52:21.000Z</time>
      </trkpt>
      <trkpt lat="45.39899" lon="4.427">
        <ele>855.12237548828</ele>
        <time>2015-12-22T18:52:24.000Z</time>
      </trkpt>
      <trkpt lat="45.39897" lon="4.42703">
        <ele>855.41748046875</ele>
        <time>2015-12-22T18:52:26.000Z</time>
      </trkpt>
      <trkpt lat="45.39895" lon="4.42707">
        <ele>856.96600341797</ele>
        <time>2015-12-22T18:52:29.000Z</time>
      </trkpt>
      <trkpt lat="45.39892" lon="4.4271">
        <ele>858.28308105469</ele>
        <time>2015-12-22T18:52:31.000Z</time>
      </trkpt>
      <trkpt lat="45.39888" lon="4.42715">
        <ele>861.49548339844</ele>
        <time>2015-12-22T18:52:34.000Z</time>
      </trkpt>
      <trkpt lat="45.39886" lon="4.42716">
        <ele>862.67144775391</ele>
        <time>2015-12-22T18:52:36.000Z</time>
      </trkpt>
      <trkpt lat="45.39885" lon="4.42716">
        <ele>862.78527832031</ele>
        <time>2015-12-22T18:52:38.000Z</time>
      </trkpt>
      <trkpt lat="45.39883" lon="4.42716">
        <ele>862.92614746094</ele>
        <time>2015-12-22T18:52:41.000Z</time>
      </trkpt>
      <trkpt lat="45.3988" lon="4.42716">
        <ele>862.23126220703</ele>
        <time>2015-12-22T18:52:43.000Z</time>
      </trkpt>
      <trkpt lat="45.39875" lon="4.42722">
        <ele>863.74713134766</ele>
        <time>2015-12-22T18:52:46.000Z</time>
      </trkpt>
      <trkpt lat="45.39869" lon="4.42725">
        <ele>867.30303955078</ele>
        <time>2015-12-22T18:52:49.000Z</time>
      </trkpt>
      <trkpt lat="45.39865" lon="4.42727">
        <ele>868.71691894531</ele>
        <time>2015-12-22T18:52:52.000Z</time>
      </trkpt>
      <trkpt lat="45.39863" lon="4.42727">
        <ele>869.34075927734</ele>
        <time>2015-12-22T18:52:54.000Z</time>
      </trkpt>
      <trkpt lat="45.3986" lon="4.42727">
        <ele>869.16735839844</ele>
        <time>2015-12-22T18:52:56.000Z</time>
      </trkpt>
      <trkpt lat="45.39856" lon="4.4273">
        <ele>869.37689208984</ele>
        <time>2015-12-22T18:52:59.000Z</time>
      </trkpt>
      <trkpt lat="45.39853" lon="4.42733">
        <ele>869.15100097656</ele>
        <time>2015-12-22T18:53:01.000Z</time>
      </trkpt>
      <trkpt lat="45.39851" lon="4.42736">
        <ele>868.23712158203</ele>
        <time>2015-12-22T18:53:04.000Z</time>
      </trkpt>
      <trkpt lat="45.39848" lon="4.42736">
        <ele>868.462890625</ele>
        <time>2015-12-22T18:53:06.000Z</time>
      </trkpt>
      <trkpt lat="45.39844" lon="4.42738">
        <ele>869.49127197266</ele>
        <time>2015-12-22T18:53:09.000Z</time>
      </trkpt>
      <trkpt lat="45.3984" lon="4.42739">
        <ele>870.25079345703</ele>
        <time>2015-12-22T18:53:11.000Z</time>
      </trkpt>
      <trkpt lat="45.39838" lon="4.4274">
        <ele>869.20672607422</ele>
        <time>2015-12-22T18:53:14.000Z</time>
      </trkpt>
      <trkpt lat="45.39837" lon="4.42744">
        <ele>868.81469726562</ele>
        <time>2015-12-22T18:53:16.000Z</time>
      </trkpt>
      <trkpt lat="45.39837" lon="4.42747">
        <ele>869.72747802734</ele>
        <time>2015-12-22T18:53:18.000Z</time>
      </trkpt>
      <trkpt lat="45.39835" lon="4.42753">
        <ele>871.78704833984</ele>
        <time>2015-12-22T18:53:20.000Z</time>
      </trkpt>
      <trkpt lat="45.39833" lon="4.42759">
        <ele>872.06726074219</ele>
        <time>2015-12-22T18:53:23.000Z</time>
      </trkpt>
      <trkpt lat="45.39832" lon="4.4276">
        <ele>872.15655517578</ele>
        <time>2015-12-22T18:53:25.000Z</time>
      </trkpt>
      <trkpt lat="45.3983" lon="4.42763">
        <ele>872.36712646484</ele>
        <time>2015-12-22T18:53:27.000Z</time>
      </trkpt>
      <trkpt lat="45.39827" lon="4.42766">
        <ele>872.81958007812</ele>
        <time>2015-12-22T18:53:30.000Z</time>
      </trkpt>
      <trkpt lat="45.39823" lon="4.42768">
        <ele>874.69146728516</ele>
        <time>2015-12-22T18:53:33.000Z</time>
      </trkpt>
      <trkpt lat="45.3982" lon="4.42772">
        <ele>875.97589111328</ele>
        <time>2015-12-22T18:53:35.000Z</time>
      </trkpt>
      <trkpt lat="45.39818" lon="4.42777">
        <ele>876.49298095703</ele>
        <time>2015-12-22T18:53:38.000Z</time>
      </trkpt>
      <trkpt lat="45.39815" lon="4.42779">
        <ele>876.18609619141</ele>
        <time>2015-12-22T18:53:40.000Z</time>
      </trkpt>
      <trkpt lat="45.39814" lon="4.42779">
        <ele>876.27459716797</ele>
        <time>2015-12-22T18:53:43.000Z</time>
      </trkpt>
      <trkpt lat="45.3981" lon="4.4278">
        <ele>876.95916748047</ele>
        <time>2015-12-22T18:53:46.000Z</time>
      </trkpt>
      <trkpt lat="45.39809" lon="4.42781">
        <ele>876.48614501953</ele>
        <time>2015-12-22T18:53:48.000Z</time>
      </trkpt>
      <trkpt lat="45.39807" lon="4.42785">
        <ele>875.68017578125</ele>
        <time>2015-12-22T18:53:51.000Z</time>
      </trkpt>
      <trkpt lat="45.39806" lon="4.42793">
        <ele>876.03161621094</ele>
        <time>2015-12-22T18:53:54.000Z</time>
      </trkpt>
      <trkpt lat="45.39805" lon="4.42797">
        <ele>875.5517578125</ele>
        <time>2015-12-22T18:53:57.000Z</time>
      </trkpt>
      <trkpt lat="45.39803" lon="4.42799">
        <ele>875.61968994141</ele>
        <time>2015-12-22T18:53:59.000Z</time>
      </trkpt>
      <trkpt lat="45.39798" lon="4.42798">
        <ele>874.81268310547</ele>
        <time>2015-12-22T18:54:01.000Z</time>
      </trkpt>
      <trkpt lat="45.39794" lon="4.42798">
        <ele>875.62194824219</ele>
        <time>2015-12-22T18:54:04.000Z</time>
      </trkpt>
      <trkpt lat="45.39792" lon="4.42802">
        <ele>877.72595214844</ele>
        <time>2015-12-22T18:54:06.000Z</time>
      </trkpt>
      <trkpt lat="45.3979" lon="4.42805">
        <ele>880.70245361328</ele>
        <time>2015-12-22T18:54:08.000Z</time>
      </trkpt>
      <trkpt lat="45.39787" lon="4.42807">
        <ele>885.6494140625</ele>
        <time>2015-12-22T18:54:11.000Z</time>
      </trkpt>
      <trkpt lat="45.39783" lon="4.42809">
        <ele>888.00091552734</ele>
        <time>2015-12-22T18:54:13.000Z</time>
      </trkpt>
      <trkpt lat="45.39781" lon="4.42811">
        <ele>889.34289550781</ele>
        <time>2015-12-22T18:54:16.000Z</time>
      </trkpt>
      <trkpt lat="45.3978" lon="4.42814">
        <ele>889.32287597656</ele>
        <time>2015-12-22T18:54:18.000Z</time>
      </trkpt>
      <trkpt lat="45.39777" lon="4.42816">
        <ele>888.29364013672</ele>
        <time>2015-12-22T18:54:20.000Z</time>
      </trkpt>
      <trkpt lat="45.39774" lon="4.42818">
        <ele>886.45147705078</ele>
        <time>2015-12-22T18:54:23.000Z</time>
      </trkpt>
      <trkpt lat="45.39771" lon="4.42822">
        <ele>885.91302490234</ele>
        <time>2015-12-22T18:54:26.000Z</time>
      </trkpt>
      <trkpt lat="45.39769" lon="4.42825">
        <ele>888.34765625</ele>
        <time>2015-12-22T18:54:29.000Z</time>
      </trkpt>
      <trkpt lat="45.39766" lon="4.42827">
        <ele>889.33563232422</ele>
        <time>2015-12-22T18:54:31.000Z</time>
      </trkpt>
      <trkpt lat="45.39764" lon="4.42827">
        <ele>888.98126220703</ele>
        <time>2015-12-22T18:54:33.000Z</time>
      </trkpt>
      <trkpt lat="45.39759" lon="4.42828">
        <ele>889.92633056641</ele>
        <time>2015-12-22T18:54:36.000Z</time>
      </trkpt>
      <trkpt lat="45.39758" lon="4.42828">
        <ele>890.91516113281</ele>
        <time>2015-12-22T18:54:38.000Z</time>
      </trkpt>
      <trkpt lat="45.39754" lon="4.42836">
        <ele>890.94860839844</ele>
        <time>2015-12-22T18:54:41.000Z</time>
      </trkpt>
      <trkpt lat="45.39753" lon="4.42842">
        <ele>891.76812744141</ele>
        <time>2015-12-22T18:54:43.000Z</time>
      </trkpt>
      <trkpt lat="45.39751" lon="4.42844">
        <ele>891.69165039062</ele>
        <time>2015-12-22T18:54:45.000Z</time>
      </trkpt>
      <trkpt lat="45.39748" lon="4.42845">
        <ele>891.05364990234</ele>
        <time>2015-12-22T18:54:48.000Z</time>
      </trkpt>
      <trkpt lat="45.39745" lon="4.42849">
        <ele>890.69030761719</ele>
        <time>2015-12-22T18:54:50.000Z</time>
      </trkpt>
      <trkpt lat="45.39742" lon="4.42852">
        <ele>891.25610351562</ele>
        <time>2015-12-22T18:54:52.000Z</time>
      </trkpt>
      <trkpt lat="45.39741" lon="4.42853">
        <ele>891.42987060547</ele>
        <time>2015-12-22T18:54:55.000Z</time>
      </trkpt>
      <trkpt lat="45.3974" lon="4.42853">
        <ele>891.73291015625</ele>
        <time>2015-12-22T18:54:58.000Z</time>
      </trkpt>
      <trkpt lat="45.39738" lon="4.42855">
        <ele>892.59417724609</ele>
        <time>2015-12-22T18:55:01.000Z</time>
      </trkpt>
      <trkpt lat="45.39735" lon="4.42859">
        <ele>892.02014160156</ele>
        <time>2015-12-22T18:55:04.000Z</time>
      </trkpt>
      <trkpt lat="45.39732" lon="4.42861">
        <ele>891.14617919922</ele>
        <time>2015-12-22T18:55:07.000Z</time>
      </trkpt>
      <trkpt lat="45.39729" lon="4.42862">
        <ele>891.23858642578</ele>
        <time>2015-12-22T18:55:09.000Z</time>
      </trkpt>
      <trkpt lat="45.39725" lon="4.42861">
        <ele>891.29327392578</ele>
        <time>2015-12-22T18:55:12.000Z</time>
      </trkpt>
      <trkpt lat="45.39722" lon="4.42863">
        <ele>890.70550537109</ele>
        <time>2015-12-22T18:55:14.000Z</time>
      </trkpt>
      <trkpt lat="45.39716" lon="4.42867">
        <ele>888.48779296875</ele>
        <time>2015-12-22T18:55:17.000Z</time>
      </trkpt>
      <trkpt lat="45.39711" lon="4.4287">
        <ele>888.42578125</ele>
        <time>2015-12-22T18:55:20.000Z</time>
      </trkpt>
      <trkpt lat="45.39709" lon="4.42871">
        <ele>889.07818603516</ele>
        <time>2015-12-22T18:55:22.000Z</time>
      </trkpt>
      <trkpt lat="45.39705" lon="4.42871">
        <ele>890.52325439453</ele>
        <time>2015-12-22T18:55:25.000Z</time>
      </trkpt>
      <trkpt lat="45.39701" lon="4.4287">
        <ele>892.32843017578</ele>
        <time>2015-12-22T18:55:28.000Z</time>
      </trkpt>
      <trkpt lat="45.39696" lon="4.4287">
        <ele>895.52709960938</ele>
        <time>2015-12-22T18:55:31.000Z</time>
      </trkpt>
      <trkpt lat="45.39693" lon="4.4287">
        <ele>896.47418212891</ele>
        <time>2015-12-22T18:55:34.000Z</time>
      </trkpt>
      <trkpt lat="45.39689" lon="4.4287">
        <ele>895.52716064453</ele>
        <time>2015-12-22T18:55:38.000Z</time>
      </trkpt>
      <trkpt lat="45.39687" lon="4.4287">
        <ele>894.37548828125</ele>
        <time>2015-12-22T18:55:40.000Z</time>
      </trkpt>
      <trkpt lat="45.39683" lon="4.42871">
        <ele>895.17529296875</ele>
        <time>2015-12-22T18:55:42.000Z</time>
      </trkpt>
      <trkpt lat="45.39679" lon="4.42875">
        <ele>898.54718017578</ele>
        <time>2015-12-22T18:55:45.000Z</time>
      </trkpt>
      <trkpt lat="45.39676" lon="4.42875">
        <ele>899.35021972656</ele>
        <time>2015-12-22T18:55:48.000Z</time>
      </trkpt>
      <trkpt lat="45.39671" lon="4.42875">
        <ele>899.94024658203</ele>
        <time>2015-12-22T18:55:50.000Z</time>
      </trkpt>
      <trkpt lat="45.39669" lon="4.42875">
        <ele>899.85815429688</ele>
        <time>2015-12-22T18:55:52.000Z</time>
      </trkpt>
      <trkpt lat="45.39663" lon="4.42875">
        <ele>900.06524658203</ele>
        <time>2015-12-22T18:55:55.000Z</time>
      </trkpt>
      <trkpt lat="45.39661" lon="4.42875">
        <ele>900.06829833984</ele>
        <time>2015-12-22T18:55:57.000Z</time>
      </trkpt>
      <trkpt lat="45.39656" lon="4.42875">
        <ele>898.64184570312</ele>
        <time>2015-12-22T18:56:00.000Z</time>
      </trkpt>
      <trkpt lat="45.39652" lon="4.42876">
        <ele>900.88671875</ele>
        <time>2015-12-22T18:56:03.000Z</time>
      </trkpt>
      <trkpt lat="45.39649" lon="4.42877">
        <ele>900.84704589844</ele>
        <time>2015-12-22T18:56:06.000Z</time>
      </trkpt>
      <trkpt lat="45.39647" lon="4.42877">
        <ele>900.82110595703</ele>
        <time>2015-12-22T18:56:08.000Z</time>
      </trkpt>
      <trkpt lat="45.39642" lon="4.42877">
        <ele>900.58203125</ele>
        <time>2015-12-22T18:56:11.000Z</time>
      </trkpt>
      <trkpt lat="45.39639" lon="4.42876">
        <ele>901.20715332031</ele>
        <time>2015-12-22T18:56:13.000Z</time>
      </trkpt>
      <trkpt lat="45.39635" lon="4.42876">
        <ele>902.15832519531</ele>
        <time>2015-12-22T18:56:16.000Z</time>
      </trkpt>
      <trkpt lat="45.39633" lon="4.42876">
        <ele>903.23779296875</ele>
        <time>2015-12-22T18:56:18.000Z</time>
      </trkpt>
      <trkpt lat="45.39629" lon="4.42876">
        <ele>903.55340576172</ele>
        <time>2015-12-22T18:56:20.000Z</time>
      </trkpt>
      <trkpt lat="45.39626" lon="4.42876">
        <ele>903.52374267578</ele>
        <time>2015-12-22T18:56:23.000Z</time>
      </trkpt>
      <trkpt lat="45.39624" lon="4.42876">
        <ele>904.11700439453</ele>
        <time>2015-12-22T18:56:25.000Z</time>
      </trkpt>
      <trkpt lat="45.39619" lon="4.42876">
        <ele>904.49859619141</ele>
        <time>2015-12-22T18:56:28.000Z</time>
      </trkpt>
      <trkpt lat="45.39613" lon="4.42877">
        <ele>905.87890625</ele>
        <time>2015-12-22T18:56:31.000Z</time>
      </trkpt>
      <trkpt lat="45.39609" lon="4.42876">
        <ele>907.3818359375</ele>
        <time>2015-12-22T18:56:34.000Z</time>
      </trkpt>
      <trkpt lat="45.39607" lon="4.42876">
        <ele>908.11151123047</ele>
        <time>2015-12-22T18:56:36.000Z</time>
      </trkpt>
      <trkpt lat="45.39606" lon="4.42875">
        <ele>907.85803222656</ele>
        <time>2015-12-22T18:56:38.000Z</time>
      </trkpt>
      <trkpt lat="45.39602" lon="4.42874">
        <ele>909.0087890625</ele>
        <time>2015-12-22T18:56:41.000Z</time>
      </trkpt>
      <trkpt lat="45.39597" lon="4.42873">
        <ele>910.11822509766</ele>
        <time>2015-12-22T18:56:44.000Z</time>
      </trkpt>
      <trkpt lat="45.39594" lon="4.42873">
        <ele>908.759765625</ele>
        <time>2015-12-22T18:56:46.000Z</time>
      </trkpt>
      <trkpt lat="45.39589" lon="4.42873">
        <ele>909.46649169922</ele>
        <time>2015-12-22T18:56:48.000Z</time>
      </trkpt>
      <trkpt lat="45.39584" lon="4.42873">
        <ele>908.94134521484</ele>
        <time>2015-12-22T18:56:51.000Z</time>
      </trkpt>
      <trkpt lat="45.39581" lon="4.42875">
        <ele>908.61865234375</ele>
        <time>2015-12-22T18:56:54.000Z</time>
      </trkpt>
      <trkpt lat="45.39579" lon="4.42876">
        <ele>909.82568359375</ele>
        <time>2015-12-22T18:56:56.000Z</time>
      </trkpt>
      <trkpt lat="45.39577" lon="4.42876">
        <ele>910.36352539062</ele>
        <time>2015-12-22T18:56:58.000Z</time>
      </trkpt>
      <trkpt lat="45.39574" lon="4.42876">
        <ele>911.73931884766</ele>
        <time>2015-12-22T18:57:01.000Z</time>
      </trkpt>
      <trkpt lat="45.39571" lon="4.42876">
        <ele>911.55841064453</ele>
        <time>2015-12-22T18:57:05.000Z</time>
      </trkpt>
      <trkpt lat="45.39567" lon="4.42874">
        <ele>912.26159667969</ele>
        <time>2015-12-22T18:57:08.000Z</time>
      </trkpt>
      <trkpt lat="45.39564" lon="4.42874">
        <ele>911.81176757812</ele>
        <time>2015-12-22T18:57:10.000Z</time>
      </trkpt>
      <trkpt lat="45.39561" lon="4.42873">
        <ele>908.78161621094</ele>
        <time>2015-12-22T18:57:13.000Z</time>
      </trkpt>
      <trkpt lat="45.39558" lon="4.4287">
        <ele>909.11346435547</ele>
        <time>2015-12-22T18:57:15.000Z</time>
      </trkpt>
      <trkpt lat="45.39556" lon="4.42868">
        <ele>910.47583007812</ele>
        <time>2015-12-22T18:57:17.000Z</time>
      </trkpt>
      <trkpt lat="45.39552" lon="4.42867">
        <ele>911.09564208984</ele>
        <time>2015-12-22T18:57:19.000Z</time>
      </trkpt>
      <trkpt lat="45.39548" lon="4.42864">
        <ele>911.72265625</ele>
        <time>2015-12-22T18:57:22.000Z</time>
      </trkpt>
      <trkpt lat="45.39542" lon="4.42865">
        <ele>911.87664794922</ele>
        <time>2015-12-22T18:57:25.000Z</time>
      </trkpt>
      <trkpt lat="45.39538" lon="4.42864">
        <ele>913.12896728516</ele>
        <time>2015-12-22T18:57:27.000Z</time>
      </trkpt>
      <trkpt lat="45.39534" lon="4.42864">
        <ele>913.89868164062</ele>
        <time>2015-12-22T18:57:30.000Z</time>
      </trkpt>
      <trkpt lat="45.3953" lon="4.42865">
        <ele>914.43957519531</ele>
        <time>2015-12-22T18:57:32.000Z</time>
      </trkpt>
      <trkpt lat="45.39526" lon="4.42865">
        <ele>916.54870605469</ele>
        <time>2015-12-22T18:57:35.000Z</time>
      </trkpt>
      <trkpt lat="45.39523" lon="4.42867">
        <ele>917.29113769531</ele>
        <time>2015-12-22T18:57:37.000Z</time>
      </trkpt>
      <trkpt lat="45.3952" lon="4.42871">
        <ele>918.47332763672</ele>
        <time>2015-12-22T18:57:40.000Z</time>
      </trkpt>
      <trkpt lat="45.39518" lon="4.42874">
        <ele>919.86596679688</ele>
        <time>2015-12-22T18:57:42.000Z</time>
      </trkpt>
      <trkpt lat="45.39515" lon="4.42876">
        <ele>920.40686035156</ele>
        <time>2015-12-22T18:57:44.000Z</time>
      </trkpt>
      <trkpt lat="45.39511" lon="4.4288">
        <ele>920.69213867188</ele>
        <time>2015-12-22T18:57:47.000Z</time>
      </trkpt>
      <trkpt lat="45.39507" lon="4.42884">
        <ele>921.482421875</ele>
        <time>2015-12-22T18:57:50.000Z</time>
      </trkpt>
      <trkpt lat="45.39504" lon="4.42888">
        <ele>921.8076171875</ele>
        <time>2015-12-22T18:57:52.000Z</time>
      </trkpt>
      <trkpt lat="45.39501" lon="4.42891">
        <ele>921.04357910156</ele>
        <time>2015-12-22T18:57:55.000Z</time>
      </trkpt>
      <trkpt lat="45.39499" lon="4.42897">
        <ele>922.54217529297</ele>
        <time>2015-12-22T18:57:58.000Z</time>
      </trkpt>
      <trkpt lat="45.39497" lon="4.42901">
        <ele>923.59320068359</ele>
        <time>2015-12-22T18:58:01.000Z</time>
      </trkpt>
      <trkpt lat="45.39495" lon="4.42907">
        <ele>925.61175537109</ele>
        <time>2015-12-22T18:58:04.000Z</time>
      </trkpt>
      <trkpt lat="45.39492" lon="4.42912">
        <ele>926.55993652344</ele>
        <time>2015-12-22T18:58:07.000Z</time>
      </trkpt>
      <trkpt lat="45.39491" lon="4.42916">
        <ele>926.86450195312</ele>
        <time>2015-12-22T18:58:09.000Z</time>
      </trkpt>
      <trkpt lat="45.39491" lon="4.42921">
        <ele>927.25634765625</ele>
        <time>2015-12-22T18:58:11.000Z</time>
      </trkpt>
      <trkpt lat="45.3949" lon="4.42928">
        <ele>928.22869873047</ele>
        <time>2015-12-22T18:58:14.000Z</time>
      </trkpt>
      <trkpt lat="45.39489" lon="4.42936">
        <ele>928.35229492188</ele>
        <time>2015-12-22T18:58:17.000Z</time>
      </trkpt>
      <trkpt lat="45.39489" lon="4.4294">
        <ele>928.12506103516</ele>
        <time>2015-12-22T18:58:19.000Z</time>
      </trkpt>
      <trkpt lat="45.39489" lon="4.42948">
        <ele>927.63299560547</ele>
        <time>2015-12-22T18:58:22.000Z</time>
      </trkpt>
      <trkpt lat="45.39488" lon="4.42952">
        <ele>926.24859619141</ele>
        <time>2015-12-22T18:58:25.000Z</time>
      </trkpt>
      <trkpt lat="45.39488" lon="4.42957">
        <ele>925.1396484375</ele>
        <time>2015-12-22T18:58:27.000Z</time>
      </trkpt>
      <trkpt lat="45.39487" lon="4.42963">
        <ele>925.18548583984</ele>
        <time>2015-12-22T18:58:30.000Z</time>
      </trkpt>
      <trkpt lat="45.39487" lon="4.42966">
        <ele>924.88250732422</ele>
        <time>2015-12-22T18:58:32.000Z</time>
      </trkpt>
      <trkpt lat="45.39486" lon="4.4297">
        <ele>924.86987304688</ele>
        <time>2015-12-22T18:58:35.000Z</time>
      </trkpt>
      <trkpt lat="45.39485" lon="4.42975">
        <ele>925.60308837891</ele>
        <time>2015-12-22T18:58:41.000Z</time>
      </trkpt>
      <trkpt lat="45.3948" lon="4.42987">
        <ele>929.66711425781</ele>
        <time>2015-12-22T18:58:44.000Z</time>
      </trkpt>
      <trkpt lat="45.39487" lon="4.42995">
        <ele>932.08337402344</ele>
        <time>2015-12-22T18:58:47.000Z</time>
      </trkpt>
      <trkpt lat="45.39491" lon="4.43">
        <ele>934.23699951172</ele>
        <time>2015-12-22T18:58:49.000Z</time>
      </trkpt>
      <trkpt lat="45.39491" lon="4.43002">
        <ele>934.66265869141</ele>
        <time>2015-12-22T18:58:51.000Z</time>
      </trkpt>
      <trkpt lat="45.39489" lon="4.43006">
        <ele>935.42138671875</ele>
        <time>2015-12-22T18:58:54.000Z</time>
      </trkpt>
      <trkpt lat="45.39487" lon="4.4301">
        <ele>935.23968505859</ele>
        <time>2015-12-22T18:58:57.000Z</time>
      </trkpt>
      <trkpt lat="45.39486" lon="4.43017">
        <ele>935.11242675781</ele>
        <time>2015-12-22T18:59:00.000Z</time>
      </trkpt>
      <trkpt lat="45.39481" lon="4.43021">
        <ele>935.04418945312</ele>
        <time>2015-12-22T18:59:03.000Z</time>
      </trkpt>
      <trkpt lat="45.39478" lon="4.43025">
        <ele>934.06652832031</ele>
        <time>2015-12-22T18:59:06.000Z</time>
      </trkpt>
      <trkpt lat="45.39478" lon="4.43027">
        <ele>935.07562255859</ele>
        <time>2015-12-22T18:59:08.000Z</time>
      </trkpt>
      <trkpt lat="45.39477" lon="4.43031">
        <ele>934.99926757812</ele>
        <time>2015-12-22T18:59:10.000Z</time>
      </trkpt>
      <trkpt lat="45.39473" lon="4.43039">
        <ele>935.87219238281</ele>
        <time>2015-12-22T18:59:13.000Z</time>
      </trkpt>
      <trkpt lat="45.39471" lon="4.43048">
        <ele>936.42407226562</ele>
        <time>2015-12-22T18:59:16.000Z</time>
      </trkpt>
      <trkpt lat="45.3947" lon="4.43056">
        <ele>937.24420166016</ele>
        <time>2015-12-22T18:59:18.000Z</time>
      </trkpt>
      <trkpt lat="45.39469" lon="4.43066">
        <ele>936.90533447266</ele>
        <time>2015-12-22T18:59:21.000Z</time>
      </trkpt>
      <trkpt lat="45.39469" lon="4.43076">
        <ele>937.63122558594</ele>
        <time>2015-12-22T18:59:24.000Z</time>
      </trkpt>
      <trkpt lat="45.39468" lon="4.43086">
        <ele>938.39849853516</ele>
        <time>2015-12-22T18:59:27.000Z</time>
      </trkpt>
      <trkpt lat="45.39468" lon="4.43092">
        <ele>938.55230712891</ele>
        <time>2015-12-22T18:59:29.000Z</time>
      </trkpt>
      <trkpt lat="45.39468" lon="4.43098">
        <ele>938.60546875</ele>
        <time>2015-12-22T18:59:31.000Z</time>
      </trkpt>
      <trkpt lat="45.39469" lon="4.43108">
        <ele>939.57012939453</ele>
        <time>2015-12-22T18:59:34.000Z</time>
      </trkpt>
      <trkpt lat="45.39468" lon="4.43117">
        <ele>940.31488037109</ele>
        <time>2015-12-22T18:59:37.000Z</time>
      </trkpt>
      <trkpt lat="45.39466" lon="4.43129">
        <ele>941.60711669922</ele>
        <time>2015-12-22T18:59:40.000Z</time>
      </trkpt>
      <trkpt lat="45.39466" lon="4.43138">
        <ele>942.64099121094</ele>
        <time>2015-12-22T18:59:43.000Z</time>
      </trkpt>
      <trkpt lat="45.39466" lon="4.43146">
        <ele>943.13006591797</ele>
        <time>2015-12-22T18:59:46.000Z</time>
      </trkpt>
      <trkpt lat="45.39466" lon="4.43156">
        <ele>943.95336914062</ele>
        <time>2015-12-22T18:59:49.000Z</time>
      </trkpt>
      <trkpt lat="45.39464" lon="4.43166">
        <ele>945.34173583984</ele>
        <time>2015-12-22T18:59:52.000Z</time>
      </trkpt>
      <trkpt lat="45.39463" lon="4.43173">
        <ele>946.306640625</ele>
        <time>2015-12-22T18:59:54.000Z</time>
      </trkpt>
      <trkpt lat="45.39464" lon="4.43184">
        <ele>945.72479248047</ele>
        <time>2015-12-22T18:59:57.000Z</time>
      </trkpt>
      <trkpt lat="45.39466" lon="4.43194">
        <ele>944.61584472656</ele>
        <time>2015-12-22T19:00:00.000Z</time>
      </trkpt>
      <trkpt lat="45.3947" lon="4.432">
        <ele>933.00994873047</ele>
        <time>2015-12-22T19:00:02.000Z</time>
      </trkpt>
      <trkpt lat="45.39467" lon="4.43209">
        <ele>919.81958007812</ele>
        <time>2015-12-22T19:00:05.000Z</time>
      </trkpt>
      <trkpt lat="45.39468" lon="4.43215">
        <ele>926.08319091797</ele>
        <time>2015-12-22T19:00:07.000Z</time>
      </trkpt>
      <trkpt lat="45.3947" lon="4.43225">
        <ele>934.45678710938</ele>
        <time>2015-12-22T19:00:10.000Z</time>
      </trkpt>
      <trkpt lat="45.39471" lon="4.43231">
        <ele>936.59008789062</ele>
        <time>2015-12-22T19:00:12.000Z</time>
      </trkpt>
      <trkpt lat="45.39469" lon="4.43239">
        <ele>938.74664306641</ele>
        <time>2015-12-22T19:00:15.000Z</time>
      </trkpt>
      <trkpt lat="45.3947" lon="4.43244">
        <ele>940.75994873047</ele>
        <time>2015-12-22T19:00:17.000Z</time>
      </trkpt>
      <trkpt lat="45.39471" lon="4.43253">
        <ele>942.77215576172</ele>
        <time>2015-12-22T19:00:20.000Z</time>
      </trkpt>
      <trkpt lat="45.3947" lon="4.43259">
        <ele>942.88061523438</ele>
        <time>2015-12-22T19:00:22.000Z</time>
      </trkpt>
      <trkpt lat="45.39468" lon="4.43269">
        <ele>945.14642333984</ele>
        <time>2015-12-22T19:00:25.000Z</time>
      </trkpt>
      <trkpt lat="45.39466" lon="4.43274">
        <ele>944.71661376953</ele>
        <time>2015-12-22T19:00:27.000Z</time>
      </trkpt>
      <trkpt lat="45.39464" lon="4.43279">
        <ele>944.24176025391</ele>
        <time>2015-12-22T19:00:29.000Z</time>
      </trkpt>
      <trkpt lat="45.39463" lon="4.43289">
        <ele>944.94604492188</ele>
        <time>2015-12-22T19:00:32.000Z</time>
      </trkpt>
      <trkpt lat="45.39461" lon="4.43296">
        <ele>944.71466064453</ele>
        <time>2015-12-22T19:00:34.000Z</time>
      </trkpt>
      <trkpt lat="45.39458" lon="4.43307">
        <ele>944.55767822266</ele>
        <time>2015-12-22T19:00:37.000Z</time>
      </trkpt>
      <trkpt lat="45.39457" lon="4.43314">
        <ele>944.30236816406</ele>
        <time>2015-12-22T19:00:39.000Z</time>
      </trkpt>
      <trkpt lat="45.39455" lon="4.43323">
        <ele>943.99621582031</ele>
        <time>2015-12-22T19:00:42.000Z</time>
      </trkpt>
      <trkpt lat="45.39454" lon="4.4333">
        <ele>943.78552246094</ele>
        <time>2015-12-22T19:00:44.000Z</time>
      </trkpt>
      <trkpt lat="45.39453" lon="4.43336">
        <ele>943.64227294922</ele>
        <time>2015-12-22T19:00:46.000Z</time>
      </trkpt>
      <trkpt lat="45.39451" lon="4.43344">
        <ele>944.09417724609</ele>
        <time>2015-12-22T19:00:48.000Z</time>
      </trkpt>
      <trkpt lat="45.3945" lon="4.43355">
        <ele>944.98315429688</ele>
        <time>2015-12-22T19:00:51.000Z</time>
      </trkpt>
      <trkpt lat="45.39449" lon="4.43362">
        <ele>945.39440917969</ele>
        <time>2015-12-22T19:00:53.000Z</time>
      </trkpt>
      <trkpt lat="45.39447" lon="4.43369">
        <ele>945.55541992188</ele>
        <time>2015-12-22T19:00:55.000Z</time>
      </trkpt>
      <trkpt lat="45.39448" lon="4.4338">
        <ele>903.3583984375</ele>
        <time>2015-12-22T19:00:57.000Z</time>
      </trkpt>
      <trkpt lat="45.39447" lon="4.43388">
        <ele>907.01293945312</ele>
        <time>2015-12-22T19:00:59.000Z</time>
      </trkpt>
      <trkpt lat="45.39445" lon="4.43395">
        <ele>916.29534912109</ele>
        <time>2015-12-22T19:01:01.000Z</time>
      </trkpt>
      <trkpt lat="45.39443" lon="4.43407">
        <ele>926.45208740234</ele>
        <time>2015-12-22T19:01:04.000Z</time>
      </trkpt>
      <trkpt lat="45.39442" lon="4.43418">
        <ele>933.53167724609</ele>
        <time>2015-12-22T19:01:07.000Z</time>
      </trkpt>
      <trkpt lat="45.39439" lon="4.43427">
        <ele>939.42645263672</ele>
        <time>2015-12-22T19:01:10.000Z</time>
      </trkpt>
      <trkpt lat="45.39438" lon="4.43438">
        <ele>942.41058349609</ele>
        <time>2015-12-22T19:01:13.000Z</time>
      </trkpt>
      <trkpt lat="45.39438" lon="4.43449">
        <ele>943.19293212891</ele>
        <time>2015-12-22T19:01:16.000Z</time>
      </trkpt>
      <trkpt lat="45.39437" lon="4.43456">
        <ele>943.45202636719</ele>
        <time>2015-12-22T19:01:18.000Z</time>
      </trkpt>
      <trkpt lat="45.39437" lon="4.43466">
        <ele>944.03009033203</ele>
        <time>2015-12-22T19:01:21.000Z</time>
      </trkpt>
      <trkpt lat="45.39437" lon="4.43474">
        <ele>944.76251220703</ele>
        <time>2015-12-22T19:01:23.000Z</time>
      </trkpt>
      <trkpt lat="45.39437" lon="4.43483">
        <ele>945.46948242188</ele>
        <time>2015-12-22T19:01:25.000Z</time>
      </trkpt>
      <trkpt lat="45.39437" lon="4.43493">
        <ele>944.93328857422</ele>
        <time>2015-12-22T19:01:28.000Z</time>
      </trkpt>
      <trkpt lat="45.39436" lon="4.43505">
        <ele>944.30670166016</ele>
        <time>2015-12-22T19:01:31.000Z</time>
      </trkpt>
      <trkpt lat="45.39437" lon="4.4351">
        <ele>944.47985839844</ele>
        <time>2015-12-22T19:01:33.000Z</time>
      </trkpt>
      <trkpt lat="45.3944" lon="4.4352">
        <ele>944.13146972656</ele>
        <time>2015-12-22T19:01:36.000Z</time>
      </trkpt>
      <trkpt lat="45.39444" lon="4.4353">
        <ele>944.08520507812</ele>
        <time>2015-12-22T19:01:39.000Z</time>
      </trkpt>
      <trkpt lat="45.39447" lon="4.43536">
        <ele>943.98919677734</ele>
        <time>2015-12-22T19:01:41.000Z</time>
      </trkpt>
      <trkpt lat="45.39448" lon="4.43546">
        <ele>944.98083496094</ele>
        <time>2015-12-22T19:01:44.000Z</time>
      </trkpt>
      <trkpt lat="45.39448" lon="4.43554">
        <ele>945.58435058594</ele>
        <time>2015-12-22T19:01:47.000Z</time>
      </trkpt>
      <trkpt lat="45.39449" lon="4.43564">
        <ele>945.59301757812</ele>
        <time>2015-12-22T19:01:50.000Z</time>
      </trkpt>
      <trkpt lat="45.3945" lon="4.43571">
        <ele>945.57495117188</ele>
        <time>2015-12-22T19:01:52.000Z</time>
      </trkpt>
      <trkpt lat="45.39451" lon="4.43578">
        <ele>946.67291259766</ele>
        <time>2015-12-22T19:01:54.000Z</time>
      </trkpt>
      <trkpt lat="45.39452" lon="4.43585">
        <ele>946.72094726562</ele>
        <time>2015-12-22T19:01:56.000Z</time>
      </trkpt>
      <trkpt lat="45.39452" lon="4.43595">
        <ele>946.48028564453</ele>
        <time>2015-12-22T19:01:59.000Z</time>
      </trkpt>
      <trkpt lat="45.39453" lon="4.43603">
        <ele>945.86944580078</ele>
        <time>2015-12-22T19:02:01.000Z</time>
      </trkpt>
      <trkpt lat="45.39453" lon="4.43614">
        <ele>944.96472167969</ele>
        <time>2015-12-22T19:02:04.000Z</time>
      </trkpt>
      <trkpt lat="45.39454" lon="4.43625">
        <ele>943.48150634766</ele>
        <time>2015-12-22T19:02:07.000Z</time>
      </trkpt>
      <trkpt lat="45.39454" lon="4.43633">
        <ele>943.49243164062</ele>
        <time>2015-12-22T19:02:09.000Z</time>
      </trkpt>
      <trkpt lat="45.39452" lon="4.43644">
        <ele>943.78631591797</ele>
        <time>2015-12-22T19:02:12.000Z</time>
      </trkpt>
      <trkpt lat="45.39449" lon="4.4365">
        <ele>944.31939697266</ele>
        <time>2015-12-22T19:02:14.000Z</time>
      </trkpt>
      <trkpt lat="45.39443" lon="4.43659">
        <ele>944.29095458984</ele>
        <time>2015-12-22T19:02:17.000Z</time>
      </trkpt>
      <trkpt lat="45.39439" lon="4.43664">
        <ele>944.44097900391</ele>
        <time>2015-12-22T19:02:19.000Z</time>
      </trkpt>
      <trkpt lat="45.39434" lon="4.43668">
        <ele>943.73077392578</ele>
        <time>2015-12-22T19:02:21.000Z</time>
      </trkpt>
      <trkpt lat="45.3943" lon="4.43673">
        <ele>944.18365478516</ele>
        <time>2015-12-22T19:02:23.000Z</time>
      </trkpt>
      <trkpt lat="45.39427" lon="4.43677">
        <ele>944.43231201172</ele>
        <time>2015-12-22T19:02:25.000Z</time>
      </trkpt>
      <trkpt lat="45.39423" lon="4.4368">
        <ele>944.08514404297</ele>
        <time>2015-12-22T19:02:27.000Z</time>
      </trkpt>
      <trkpt lat="45.39417" lon="4.4369">
        <ele>942.82342529297</ele>
        <time>2015-12-22T19:02:30.000Z</time>
      </trkpt>
      <trkpt lat="45.39412" lon="4.43696">
        <ele>941.76428222656</ele>
        <time>2015-12-22T19:02:33.000Z</time>
      </trkpt>
      <trkpt lat="45.39405" lon="4.43701">
        <ele>941.43182373047</ele>
        <time>2015-12-22T19:02:36.000Z</time>
      </trkpt>
      <trkpt lat="45.39398" lon="4.43706">
        <ele>942.73699951172</ele>
        <time>2015-12-22T19:02:39.000Z</time>
      </trkpt>
      <trkpt lat="45.39392" lon="4.43711">
        <ele>942.69763183594</ele>
        <time>2015-12-22T19:02:42.000Z</time>
      </trkpt>
      <trkpt lat="45.39388" lon="4.43715">
        <ele>943.15570068359</ele>
        <time>2015-12-22T19:02:44.000Z</time>
      </trkpt>
      <trkpt lat="45.39384" lon="4.43723">
        <ele>941.69903564453</ele>
        <time>2015-12-22T19:02:47.000Z</time>
      </trkpt>
      <trkpt lat="45.39381" lon="4.43729">
        <ele>939.14434814453</ele>
        <time>2015-12-22T19:02:49.000Z</time>
      </trkpt>
      <trkpt lat="45.39375" lon="4.43736">
        <ele>937.18035888672</ele>
        <time>2015-12-22T19:02:52.000Z</time>
      </trkpt>
      <trkpt lat="45.39371" lon="4.43742">
        <ele>934.38110351562</ele>
        <time>2015-12-22T19:02:54.000Z</time>
      </trkpt>
      <trkpt lat="45.39367" lon="4.43744">
        <ele>931.94213867188</ele>
        <time>2015-12-22T19:02:56.000Z</time>
      </trkpt>
      <trkpt lat="45.39357" lon="4.43744">
        <ele>931.27770996094</ele>
        <time>2015-12-22T19:02:59.000Z</time>
      </trkpt>
      <trkpt lat="45.3935" lon="4.43748">
        <ele>929.10754394531</ele>
        <time>2015-12-22T19:03:02.000Z</time>
      </trkpt>
      <trkpt lat="45.39345" lon="4.43754">
        <ele>928.10906982422</ele>
        <time>2015-12-22T19:03:05.000Z</time>
      </trkpt>
      <trkpt lat="45.39338" lon="4.43758">
        <ele>928.4287109375</ele>
        <time>2015-12-22T19:03:08.000Z</time>
      </trkpt>
      <trkpt lat="45.39333" lon="4.43759">
        <ele>929.22784423828</ele>
        <time>2015-12-22T19:03:10.000Z</time>
      </trkpt>
      <trkpt lat="45.39328" lon="4.43766">
        <ele>927.69403076172</ele>
        <time>2015-12-22T19:03:13.000Z</time>
      </trkpt>
      <trkpt lat="45.39322" lon="4.43778">
        <ele>927.26373291016</ele>
        <time>2015-12-22T19:03:16.000Z</time>
      </trkpt>
      <trkpt lat="45.39319" lon="4.43784">
        <ele>928.10198974609</ele>
        <time>2015-12-22T19:03:18.000Z</time>
      </trkpt>
      <trkpt lat="45.39317" lon="4.43793">
        <ele>928.75207519531</ele>
        <time>2015-12-22T19:03:20.000Z</time>
      </trkpt>
      <trkpt lat="45.39311" lon="4.43801">
        <ele>930.98077392578</ele>
        <time>2015-12-22T19:03:23.000Z</time>
      </trkpt>
      <trkpt lat="45.39304" lon="4.43801">
        <ele>932.71142578125</ele>
        <time>2015-12-22T19:03:25.000Z</time>
      </trkpt>
      <trkpt lat="45.39299" lon="4.43802">
        <ele>933.81494140625</ele>
        <time>2015-12-22T19:03:27.000Z</time>
      </trkpt>
      <trkpt lat="45.39293" lon="4.4381">
        <ele>932.01519775391</ele>
        <time>2015-12-22T19:03:30.000Z</time>
      </trkpt>
      <trkpt lat="45.39284" lon="4.43818">
        <ele>929.98992919922</ele>
        <time>2015-12-22T19:03:33.000Z</time>
      </trkpt>
      <trkpt lat="45.39278" lon="4.43826">
        <ele>928.63812255859</ele>
        <time>2015-12-22T19:03:36.000Z</time>
      </trkpt>
      <trkpt lat="45.3927" lon="4.4383">
        <ele>928.76013183594</ele>
        <time>2015-12-22T19:03:39.000Z</time>
      </trkpt>
      <trkpt lat="45.39265" lon="4.43834">
        <ele>927.78399658203</ele>
        <time>2015-12-22T19:03:42.000Z</time>
      </trkpt>
      <trkpt lat="45.39261" lon="4.43835">
        <ele>926.73596191406</ele>
        <time>2015-12-22T19:03:44.000Z</time>
      </trkpt>
      <trkpt lat="45.39254" lon="4.4384">
        <ele>927.26995849609</ele>
        <time>2015-12-22T19:03:47.000Z</time>
      </trkpt>
      <trkpt lat="45.39246" lon="4.43842">
        <ele>929.20965576172</ele>
        <time>2015-12-22T19:03:50.000Z</time>
      </trkpt>
      <trkpt lat="45.39241" lon="4.43845">
        <ele>929.86187744141</ele>
        <time>2015-12-22T19:03:52.000Z</time>
      </trkpt>
      <trkpt lat="45.39236" lon="4.43845">
        <ele>930.03155517578</ele>
        <time>2015-12-22T19:03:54.000Z</time>
      </trkpt>
      <trkpt lat="45.3923" lon="4.43846">
        <ele>929.53839111328</ele>
        <time>2015-12-22T19:03:56.000Z</time>
      </trkpt>
      <trkpt lat="45.39224" lon="4.43849">
        <ele>927.87957763672</ele>
        <time>2015-12-22T19:03:58.000Z</time>
      </trkpt>
      <trkpt lat="45.39217" lon="4.43851">
        <ele>926.6943359375</ele>
        <time>2015-12-22T19:04:01.000Z</time>
      </trkpt>
      <trkpt lat="45.39212" lon="4.43851">
        <ele>926.05700683594</ele>
        <time>2015-12-22T19:04:03.000Z</time>
      </trkpt>
      <trkpt lat="45.39206" lon="4.4385">
        <ele>927.19244384766</ele>
        <time>2015-12-22T19:04:06.000Z</time>
      </trkpt>
      <trkpt lat="45.39199" lon="4.43853">
        <ele>928.37762451172</ele>
        <time>2015-12-22T19:04:09.000Z</time>
      </trkpt>
      <trkpt lat="45.39193" lon="4.43854">
        <ele>927.22833251953</ele>
        <time>2015-12-22T19:04:12.000Z</time>
      </trkpt>
      <trkpt lat="45.39188" lon="4.43855">
        <ele>925.82678222656</ele>
        <time>2015-12-22T19:04:14.000Z</time>
      </trkpt>
      <trkpt lat="45.39182" lon="4.43859">
        <ele>925.10192871094</ele>
        <time>2015-12-22T19:04:17.000Z</time>
      </trkpt>
      <trkpt lat="45.39178" lon="4.43864">
        <ele>926.06024169922</ele>
        <time>2015-12-22T19:04:19.000Z</time>
      </trkpt>
      <trkpt lat="45.39174" lon="4.43865">
        <ele>926.43865966797</ele>
        <time>2015-12-22T19:04:21.000Z</time>
      </trkpt>
      <trkpt lat="45.39169" lon="4.43866">
        <ele>926.49273681641</ele>
        <time>2015-12-22T19:04:23.000Z</time>
      </trkpt>
      <trkpt lat="45.39164" lon="4.43868">
        <ele>925.72259521484</ele>
        <time>2015-12-22T19:04:25.000Z</time>
      </trkpt>
      <trkpt lat="45.39159" lon="4.43869">
        <ele>925.80267333984</ele>
        <time>2015-12-22T19:04:27.000Z</time>
      </trkpt>
      <trkpt lat="45.39152" lon="4.43868">
        <ele>925.92059326172</ele>
        <time>2015-12-22T19:04:30.000Z</time>
      </trkpt>
      <trkpt lat="45.39147" lon="4.4387">
        <ele>925.63671875</ele>
        <time>2015-12-22T19:04:32.000Z</time>
      </trkpt>
      <trkpt lat="45.3914" lon="4.43873">
        <ele>925.0751953125</ele>
        <time>2015-12-22T19:04:35.000Z</time>
      </trkpt>
      <trkpt lat="45.39135" lon="4.43873">
        <ele>924.90936279297</ele>
        <time>2015-12-22T19:04:37.000Z</time>
      </trkpt>
      <trkpt lat="45.39131" lon="4.43874">
        <ele>924.20440673828</ele>
        <time>2015-12-22T19:04:39.000Z</time>
      </trkpt>
      <trkpt lat="45.39126" lon="4.43877">
        <ele>924.69647216797</ele>
        <time>2015-12-22T19:04:41.000Z</time>
      </trkpt>
      <trkpt lat="45.39122" lon="4.43881">
        <ele>924.85931396484</ele>
        <time>2015-12-22T19:04:43.000Z</time>
      </trkpt>
      <trkpt lat="45.39117" lon="4.43881">
        <ele>924.15405273438</ele>
        <time>2015-12-22T19:04:45.000Z</time>
      </trkpt>
      <trkpt lat="45.39109" lon="4.43884">
        <ele>924.62237548828</ele>
        <time>2015-12-22T19:04:48.000Z</time>
      </trkpt>
      <trkpt lat="45.39105" lon="4.43887">
        <ele>924.56237792969</ele>
        <time>2015-12-22T19:04:50.000Z</time>
      </trkpt>
      <trkpt lat="45.39101" lon="4.43888">
        <ele>923.68927001953</ele>
        <time>2015-12-22T19:04:52.000Z</time>
      </trkpt>
      <trkpt lat="45.39098" lon="4.43886">
        <ele>924.55816650391</ele>
        <time>2015-12-22T19:04:54.000Z</time>
      </trkpt>
      <trkpt lat="45.39093" lon="4.43886">
        <ele>925.01611328125</ele>
        <time>2015-12-22T19:04:56.000Z</time>
      </trkpt>
      <trkpt lat="45.39088" lon="4.43885">
        <ele>925.76580810547</ele>
        <time>2015-12-22T19:04:58.000Z</time>
      </trkpt>
      <trkpt lat="45.39076" lon="4.43881">
        <ele>927.05151367188</ele>
        <time>2015-12-22T19:05:01.000Z</time>
      </trkpt>
      <trkpt lat="45.39069" lon="4.43882">
        <ele>930.74127197266</ele>
        <time>2015-12-22T19:05:04.000Z</time>
      </trkpt>
      <trkpt lat="45.39065" lon="4.43885">
        <ele>931.43054199219</ele>
        <time>2015-12-22T19:05:07.000Z</time>
      </trkpt>
      <trkpt lat="45.39061" lon="4.43887">
        <ele>931.60107421875</ele>
        <time>2015-12-22T19:05:10.000Z</time>
      </trkpt>
      <trkpt lat="45.39059" lon="4.43889">
        <ele>930.06066894531</ele>
        <time>2015-12-22T19:05:12.000Z</time>
      </trkpt>
      <trkpt lat="45.39053" lon="4.43891">
        <ele>928.751953125</ele>
        <time>2015-12-22T19:05:15.000Z</time>
      </trkpt>
      <trkpt lat="45.39045" lon="4.43893">
        <ele>931.46948242188</ele>
        <time>2015-12-22T19:05:18.000Z</time>
      </trkpt>
      <trkpt lat="45.39044" lon="4.43894">
        <ele>931.76763916016</ele>
        <time>2015-12-22T19:05:20.000Z</time>
      </trkpt>
      <trkpt lat="45.39038" lon="4.43895">
        <ele>933.92358398438</ele>
        <time>2015-12-22T19:05:23.000Z</time>
      </trkpt>
      <trkpt lat="45.39034" lon="4.43895">
        <ele>935.30847167969</ele>
        <time>2015-12-22T19:05:25.000Z</time>
      </trkpt>
      <trkpt lat="45.3903" lon="4.43895">
        <ele>935.5322265625</ele>
        <time>2015-12-22T19:05:27.000Z</time>
      </trkpt>
      <trkpt lat="45.39024" lon="4.43895">
        <ele>934.58032226562</ele>
        <time>2015-12-22T19:05:30.000Z</time>
      </trkpt>
      <trkpt lat="45.39017" lon="4.43895">
        <ele>934.83435058594</ele>
        <time>2015-12-22T19:05:33.000Z</time>
      </trkpt>
      <trkpt lat="45.39011" lon="4.43894">
        <ele>933.91473388672</ele>
        <time>2015-12-22T19:05:36.000Z</time>
      </trkpt>
      <trkpt lat="45.39003" lon="4.43893">
        <ele>934.27447509766</ele>
        <time>2015-12-22T19:05:39.000Z</time>
      </trkpt>
      <trkpt lat="45.38994" lon="4.43892">
        <ele>935.5048828125</ele>
        <time>2015-12-22T19:05:42.000Z</time>
      </trkpt>
      <trkpt lat="45.38989" lon="4.43891">
        <ele>936.72894287109</ele>
        <time>2015-12-22T19:05:44.000Z</time>
      </trkpt>
      <trkpt lat="45.38983" lon="4.43889">
        <ele>936.80792236328</ele>
        <time>2015-12-22T19:05:47.000Z</time>
      </trkpt>
      <trkpt lat="45.38979" lon="4.43889">
        <ele>936.19506835938</ele>
        <time>2015-12-22T19:05:49.000Z</time>
      </trkpt>
      <trkpt lat="45.38973" lon="4.43888">
        <ele>935.19958496094</ele>
        <time>2015-12-22T19:05:52.000Z</time>
      </trkpt>
      <trkpt lat="45.38968" lon="4.43888">
        <ele>935.38677978516</ele>
        <time>2015-12-22T19:05:54.000Z</time>
      </trkpt>
      <trkpt lat="45.38964" lon="4.43887">
        <ele>937.46618652344</ele>
        <time>2015-12-22T19:05:56.000Z</time>
      </trkpt>
      <trkpt lat="45.38957" lon="4.43887">
        <ele>938.20629882812</ele>
        <time>2015-12-22T19:05:59.000Z</time>
      </trkpt>
      <trkpt lat="45.38953" lon="4.43886">
        <ele>937.77368164062</ele>
        <time>2015-12-22T19:06:01.000Z</time>
      </trkpt>
      <trkpt lat="45.38948" lon="4.43886">
        <ele>936.79711914062</ele>
        <time>2015-12-22T19:06:03.000Z</time>
      </trkpt>
      <trkpt lat="45.3894" lon="4.43886">
        <ele>936.99243164062</ele>
        <time>2015-12-22T19:06:06.000Z</time>
      </trkpt>
      <trkpt lat="45.38936" lon="4.43886">
        <ele>937.28192138672</ele>
        <time>2015-12-22T19:06:08.000Z</time>
      </trkpt>
      <trkpt lat="45.38932" lon="4.43886">
        <ele>937.54241943359</ele>
        <time>2015-12-22T19:06:10.000Z</time>
      </trkpt>
      <trkpt lat="45.38927" lon="4.43882">
        <ele>937.79858398438</ele>
        <time>2015-12-22T19:06:13.000Z</time>
      </trkpt>
      <trkpt lat="45.38923" lon="4.43878">
        <ele>938.28851318359</ele>
        <time>2015-12-22T19:06:15.000Z</time>
      </trkpt>
      <trkpt lat="45.38916" lon="4.43874">
        <ele>939.32080078125</ele>
        <time>2015-12-22T19:06:18.000Z</time>
      </trkpt>
      <trkpt lat="45.38913" lon="4.43871">
        <ele>940.28778076172</ele>
        <time>2015-12-22T19:06:20.000Z</time>
      </trkpt>
      <trkpt lat="45.38907" lon="4.43869">
        <ele>940.16851806641</ele>
        <time>2015-12-22T19:06:22.000Z</time>
      </trkpt>
      <trkpt lat="45.389" lon="4.43868">
        <ele>937.70611572266</ele>
        <time>2015-12-22T19:06:24.000Z</time>
      </trkpt>
      <trkpt lat="45.38895" lon="4.43865">
        <ele>938.26715087891</ele>
        <time>2015-12-22T19:06:26.000Z</time>
      </trkpt>
      <trkpt lat="45.38888" lon="4.43862">
        <ele>940.22174072266</ele>
        <time>2015-12-22T19:06:29.000Z</time>
      </trkpt>
      <trkpt lat="45.38881" lon="4.43858">
        <ele>939.10882568359</ele>
        <time>2015-12-22T19:06:32.000Z</time>
      </trkpt>
      <trkpt lat="45.38875" lon="4.43855">
        <ele>939.63714599609</ele>
        <time>2015-12-22T19:06:35.000Z</time>
      </trkpt>
      <trkpt lat="45.38869" lon="4.4385">
        <ele>939.64794921875</ele>
        <time>2015-12-22T19:06:38.000Z</time>
      </trkpt>
      <trkpt lat="45.38863" lon="4.43845">
        <ele>939.94146728516</ele>
        <time>2015-12-22T19:06:41.000Z</time>
      </trkpt>
      <trkpt lat="45.38858" lon="4.4384">
        <ele>939.22552490234</ele>
        <time>2015-12-22T19:06:43.000Z</time>
      </trkpt>
      <trkpt lat="45.38853" lon="4.43836">
        <ele>937.93548583984</ele>
        <time>2015-12-22T19:06:45.000Z</time>
      </trkpt>
      <trkpt lat="45.38848" lon="4.43834">
        <ele>938.29107666016</ele>
        <time>2015-12-22T19:06:47.000Z</time>
      </trkpt>
      <trkpt lat="45.38842" lon="4.43831">
        <ele>937.83508300781</ele>
        <time>2015-12-22T19:06:50.000Z</time>
      </trkpt>
      <trkpt lat="45.38838" lon="4.43827">
        <ele>938.29370117188</ele>
        <time>2015-12-22T19:06:52.000Z</time>
      </trkpt>
      <trkpt lat="45.38833" lon="4.43825">
        <ele>938.21350097656</ele>
        <time>2015-12-22T19:06:54.000Z</time>
      </trkpt>
      <trkpt lat="45.38829" lon="4.43823">
        <ele>938.48071289062</ele>
        <time>2015-12-22T19:06:56.000Z</time>
      </trkpt>
      <trkpt lat="45.38826" lon="4.4382">
        <ele>939.59613037109</ele>
        <time>2015-12-22T19:06:58.000Z</time>
      </trkpt>
      <trkpt lat="45.38816" lon="4.43818">
        <ele>941.2470703125</ele>
        <time>2015-12-22T19:07:01.000Z</time>
      </trkpt>
      <trkpt lat="45.38808" lon="4.43818">
        <ele>943.07348632812</ele>
        <time>2015-12-22T19:07:04.000Z</time>
      </trkpt>
      <trkpt lat="45.38801" lon="4.4382">
        <ele>944.56793212891</ele>
        <time>2015-12-22T19:07:07.000Z</time>
      </trkpt>
      <trkpt lat="45.38797" lon="4.43821">
        <ele>944.14050292969</ele>
        <time>2015-12-22T19:07:09.000Z</time>
      </trkpt>
      <trkpt lat="45.38791" lon="4.4382">
        <ele>944.79125976562</ele>
        <time>2015-12-22T19:07:12.000Z</time>
      </trkpt>
      <trkpt lat="45.38784" lon="4.43821">
        <ele>945.13360595703</ele>
        <time>2015-12-22T19:07:15.000Z</time>
      </trkpt>
      <trkpt lat="45.38772" lon="4.4383">
        <ele>940.01580810547</ele>
        <time>2015-12-22T19:07:18.000Z</time>
      </trkpt>
      <trkpt lat="45.38768" lon="4.43835">
        <ele>940.55963134766</ele>
        <time>2015-12-22T19:07:20.000Z</time>
      </trkpt>
      <trkpt lat="45.38762" lon="4.43838">
        <ele>940.52752685547</ele>
        <time>2015-12-22T19:07:23.000Z</time>
      </trkpt>
      <trkpt lat="45.38758" lon="4.43842">
        <ele>941.11309814453</ele>
        <time>2015-12-22T19:07:26.000Z</time>
      </trkpt>
      <trkpt lat="45.38753" lon="4.43846">
        <ele>941.74102783203</ele>
        <time>2015-12-22T19:07:29.000Z</time>
      </trkpt>
      <trkpt lat="45.3875" lon="4.43849">
        <ele>942.85565185547</ele>
        <time>2015-12-22T19:07:31.000Z</time>
      </trkpt>
      <trkpt lat="45.38745" lon="4.43849">
        <ele>943.68023681641</ele>
        <time>2015-12-22T19:07:34.000Z</time>
      </trkpt>
      <trkpt lat="45.38744" lon="4.43856">
        <ele>942.93853759766</ele>
        <time>2015-12-22T19:07:36.000Z</time>
      </trkpt>
      <trkpt lat="45.38742" lon="4.4387">
        <ele>942.58935546875</ele>
        <time>2015-12-22T19:07:39.000Z</time>
      </trkpt>
      <trkpt lat="45.38741" lon="4.43874">
        <ele>942.32305908203</ele>
        <time>2015-12-22T19:07:41.000Z</time>
      </trkpt>
      <trkpt lat="45.38738" lon="4.43873">
        <ele>941.17663574219</ele>
        <time>2015-12-22T19:07:43.000Z</time>
      </trkpt>
      <trkpt lat="45.38734" lon="4.43872">
        <ele>941.73760986328</ele>
        <time>2015-12-22T19:07:46.000Z</time>
      </trkpt>
      <trkpt lat="45.3873" lon="4.43873">
        <ele>943.71929931641</ele>
        <time>2015-12-22T19:07:48.000Z</time>
      </trkpt>
      <trkpt lat="45.38726" lon="4.43877">
        <ele>944.20904541016</ele>
        <time>2015-12-22T19:07:51.000Z</time>
      </trkpt>
      <trkpt lat="45.38725" lon="4.43881">
        <ele>945.26544189453</ele>
        <time>2015-12-22T19:07:53.000Z</time>
      </trkpt>
      <trkpt lat="45.38723" lon="4.43886">
        <ele>946.42163085938</ele>
        <time>2015-12-22T19:07:55.000Z</time>
      </trkpt>
      <trkpt lat="45.38718" lon="4.43891">
        <ele>947.39434814453</ele>
        <time>2015-12-22T19:07:57.000Z</time>
      </trkpt>
      <trkpt lat="45.38715" lon="4.43893">
        <ele>944.07293701172</ele>
        <time>2015-12-22T19:08:00.000Z</time>
      </trkpt>
      <trkpt lat="45.3871" lon="4.43896">
        <ele>943.42572021484</ele>
        <time>2015-12-22T19:08:02.000Z</time>
      </trkpt>
      <trkpt lat="45.38706" lon="4.43903">
        <ele>940.94323730469</ele>
        <time>2015-12-22T19:08:05.000Z</time>
      </trkpt>
      <trkpt lat="45.38702" lon="4.43905">
        <ele>940.12164306641</ele>
        <time>2015-12-22T19:08:08.000Z</time>
      </trkpt>
      <trkpt lat="45.387" lon="4.43909">
        <ele>940.33880615234</ele>
        <time>2015-12-22T19:08:10.000Z</time>
      </trkpt>
      <trkpt lat="45.38697" lon="4.43914">
        <ele>940.83013916016</ele>
        <time>2015-12-22T19:08:12.000Z</time>
      </trkpt>
      <trkpt lat="45.38692" lon="4.43923">
        <ele>943.82897949219</ele>
        <time>2015-12-22T19:08:15.000Z</time>
      </trkpt>
      <trkpt lat="45.38688" lon="4.43929">
        <ele>946.34045410156</ele>
        <time>2015-12-22T19:08:17.000Z</time>
      </trkpt>
      <trkpt lat="45.38684" lon="4.43937">
        <ele>947.37847900391</ele>
        <time>2015-12-22T19:08:20.000Z</time>
      </trkpt>
      <trkpt lat="45.38679" lon="4.43942">
        <ele>946.65606689453</ele>
        <time>2015-12-22T19:08:22.000Z</time>
      </trkpt>
      <trkpt lat="45.38676" lon="4.43948">
        <ele>947.52880859375</ele>
        <time>2015-12-22T19:08:24.000Z</time>
      </trkpt>
      <trkpt lat="45.38674" lon="4.43953">
        <ele>948.25457763672</ele>
        <time>2015-12-22T19:08:26.000Z</time>
      </trkpt>
      <trkpt lat="45.3867" lon="4.43958">
        <ele>948.86737060547</ele>
        <time>2015-12-22T19:08:29.000Z</time>
      </trkpt>
      <trkpt lat="45.38665" lon="4.43963">
        <ele>949.94097900391</ele>
        <time>2015-12-22T19:08:32.000Z</time>
      </trkpt>
      <trkpt lat="45.3866" lon="4.43968">
        <ele>948.89312744141</ele>
        <time>2015-12-22T19:08:35.000Z</time>
      </trkpt>
      <trkpt lat="45.38657" lon="4.43973">
        <ele>948.49890136719</ele>
        <time>2015-12-22T19:08:38.000Z</time>
      </trkpt>
      <trkpt lat="45.38653" lon="4.43978">
        <ele>949.15344238281</ele>
        <time>2015-12-22T19:08:40.000Z</time>
      </trkpt>
      <trkpt lat="45.38649" lon="4.43983">
        <ele>948.31799316406</ele>
        <time>2015-12-22T19:08:43.000Z</time>
      </trkpt>
      <trkpt lat="45.38645" lon="4.43987">
        <ele>948.35778808594</ele>
        <time>2015-12-22T19:08:45.000Z</time>
      </trkpt>
      <trkpt lat="45.38641" lon="4.43992">
        <ele>948.44940185547</ele>
        <time>2015-12-22T19:08:47.000Z</time>
      </trkpt>
      <trkpt lat="45.38636" lon="4.43998">
        <ele>950.79876708984</ele>
        <time>2015-12-22T19:08:50.000Z</time>
      </trkpt>
      <trkpt lat="45.38631" lon="4.44005">
        <ele>952.36108398438</ele>
        <time>2015-12-22T19:08:53.000Z</time>
      </trkpt>
      <trkpt lat="45.38628" lon="4.44009">
        <ele>952.49420166016</ele>
        <time>2015-12-22T19:08:55.000Z</time>
      </trkpt>
      <trkpt lat="45.38626" lon="4.44014">
        <ele>952.49719238281</ele>
        <time>2015-12-22T19:08:57.000Z</time>
      </trkpt>
      <trkpt lat="45.3862" lon="4.44023">
        <ele>954.32391357422</ele>
        <time>2015-12-22T19:09:00.000Z</time>
      </trkpt>
      <trkpt lat="45.38616" lon="4.44028">
        <ele>954.49267578125</ele>
        <time>2015-12-22T19:09:03.000Z</time>
      </trkpt>
      <trkpt lat="45.38613" lon="4.44031">
        <ele>954.07543945312</ele>
        <time>2015-12-22T19:09:05.000Z</time>
      </trkpt>
      <trkpt lat="45.38605" lon="4.44035">
        <ele>953.76342773438</ele>
        <time>2015-12-22T19:09:07.000Z</time>
      </trkpt>
      <trkpt lat="45.38599" lon="4.44037">
        <ele>954.85882568359</ele>
        <time>2015-12-22T19:09:10.000Z</time>
      </trkpt>
      <trkpt lat="45.38594" lon="4.44039">
        <ele>954.50085449219</ele>
        <time>2015-12-22T19:09:12.000Z</time>
      </trkpt>
      <trkpt lat="45.38588" lon="4.44042">
        <ele>953.18103027344</ele>
        <time>2015-12-22T19:09:15.000Z</time>
      </trkpt>
      <trkpt lat="45.38583" lon="4.44043">
        <ele>952.56030273438</ele>
        <time>2015-12-22T19:09:17.000Z</time>
      </trkpt>
      <trkpt lat="45.38576" lon="4.44042">
        <ele>953.43695068359</ele>
        <time>2015-12-22T19:09:20.000Z</time>
      </trkpt>
      <trkpt lat="45.3857" lon="4.44043">
        <ele>954.04809570312</ele>
        <time>2015-12-22T19:09:22.000Z</time>
      </trkpt>
      <trkpt lat="45.38565" lon="4.44046">
        <ele>953.57458496094</ele>
        <time>2015-12-22T19:09:24.000Z</time>
      </trkpt>
      <trkpt lat="45.3856" lon="4.44048">
        <ele>952.00427246094</ele>
        <time>2015-12-22T19:09:27.000Z</time>
      </trkpt>
      <trkpt lat="45.38554" lon="4.44049">
        <ele>951.44329833984</ele>
        <time>2015-12-22T19:09:29.000Z</time>
      </trkpt>
      <trkpt lat="45.38547" lon="4.44051">
        <ele>951.47326660156</ele>
        <time>2015-12-22T19:09:32.000Z</time>
      </trkpt>
      <trkpt lat="45.3854" lon="4.44053">
        <ele>951.06225585938</ele>
        <time>2015-12-22T19:09:35.000Z</time>
      </trkpt>
      <trkpt lat="45.38532" lon="4.44056">
        <ele>951.46978759766</ele>
        <time>2015-12-22T19:09:38.000Z</time>
      </trkpt>
      <trkpt lat="45.38525" lon="4.4406">
        <ele>950.46783447266</ele>
        <time>2015-12-22T19:09:41.000Z</time>
      </trkpt>
      <trkpt lat="45.38519" lon="4.44063">
        <ele>950.46405029297</ele>
        <time>2015-12-22T19:09:43.000Z</time>
      </trkpt>
      <trkpt lat="45.38511" lon="4.44067">
        <ele>949.95977783203</ele>
        <time>2015-12-22T19:09:46.000Z</time>
      </trkpt>
      <trkpt lat="45.38506" lon="4.4407">
        <ele>950.36651611328</ele>
        <time>2015-12-22T19:09:48.000Z</time>
      </trkpt>
      <trkpt lat="45.38499" lon="4.44075">
        <ele>950.47741699219</ele>
        <time>2015-12-22T19:09:51.000Z</time>
      </trkpt>
      <trkpt lat="45.38494" lon="4.44077">
        <ele>950.11291503906</ele>
        <time>2015-12-22T19:09:53.000Z</time>
      </trkpt>
      <trkpt lat="45.38487" lon="4.44081">
        <ele>949.95404052734</ele>
        <time>2015-12-22T19:09:56.000Z</time>
      </trkpt>
      <trkpt lat="45.38482" lon="4.44083">
        <ele>949.46240234375</ele>
        <time>2015-12-22T19:09:58.000Z</time>
      </trkpt>
      <trkpt lat="45.38474" lon="4.44086">
        <ele>948.96228027344</ele>
        <time>2015-12-22T19:10:02.000Z</time>
      </trkpt>
      <trkpt lat="45.38465" lon="4.44087">
        <ele>949.39312744141</ele>
        <time>2015-12-22T19:10:05.000Z</time>
      </trkpt>
      <trkpt lat="45.38461" lon="4.44087">
        <ele>949.50335693359</ele>
        <time>2015-12-22T19:10:07.000Z</time>
      </trkpt>
      <trkpt lat="45.38456" lon="4.44087">
        <ele>949.13751220703</ele>
        <time>2015-12-22T19:10:09.000Z</time>
      </trkpt>
      <trkpt lat="45.38448" lon="4.44086">
        <ele>949.17474365234</ele>
        <time>2015-12-22T19:10:12.000Z</time>
      </trkpt>
      <trkpt lat="45.38442" lon="4.44085">
        <ele>947.50500488281</ele>
        <time>2015-12-22T19:10:15.000Z</time>
      </trkpt>
      <trkpt lat="45.38433" lon="4.44083">
        <ele>947.54510498047</ele>
        <time>2015-12-22T19:10:18.000Z</time>
      </trkpt>
      <trkpt lat="45.38425" lon="4.44079">
        <ele>947.01379394531</ele>
        <time>2015-12-22T19:10:21.000Z</time>
      </trkpt>
      <trkpt lat="45.38421" lon="4.44077">
        <ele>945.62658691406</ele>
        <time>2015-12-22T19:10:23.000Z</time>
      </trkpt>
      <trkpt lat="45.38416" lon="4.44076">
        <ele>945.50927734375</ele>
        <time>2015-12-22T19:10:25.000Z</time>
      </trkpt>
      <trkpt lat="45.38409" lon="4.44074">
        <ele>946.46801757812</ele>
        <time>2015-12-22T19:10:27.000Z</time>
      </trkpt>
      <trkpt lat="45.384" lon="4.44072">
        <ele>948.02673339844</ele>
        <time>2015-12-22T19:10:30.000Z</time>
      </trkpt>
      <trkpt lat="45.38391" lon="4.44069">
        <ele>947.91906738281</ele>
        <time>2015-12-22T19:10:33.000Z</time>
      </trkpt>
      <trkpt lat="45.38385" lon="4.44068">
        <ele>948.07806396484</ele>
        <time>2015-12-22T19:10:35.000Z</time>
      </trkpt>
      <trkpt lat="45.38381" lon="4.44068">
        <ele>947.65759277344</ele>
        <time>2015-12-22T19:10:37.000Z</time>
      </trkpt>
      <trkpt lat="45.38375" lon="4.44066">
        <ele>946.93499755859</ele>
        <time>2015-12-22T19:10:39.000Z</time>
      </trkpt>
      <trkpt lat="45.38367" lon="4.44065">
        <ele>946.10321044922</ele>
        <time>2015-12-22T19:10:42.000Z</time>
      </trkpt>
      <trkpt lat="45.38359" lon="4.44065">
        <ele>946.03082275391</ele>
        <time>2015-12-22T19:10:45.000Z</time>
      </trkpt>
      <trkpt lat="45.38352" lon="4.44066">
        <ele>947.86474609375</ele>
        <time>2015-12-22T19:10:47.000Z</time>
      </trkpt>
      <trkpt lat="45.38346" lon="4.44065">
        <ele>948.00439453125</ele>
        <time>2015-12-22T19:10:49.000Z</time>
      </trkpt>
      <trkpt lat="45.38341" lon="4.44063">
        <ele>947.55230712891</ele>
        <time>2015-12-22T19:10:51.000Z</time>
      </trkpt>
      <trkpt lat="45.38336" lon="4.44059">
        <ele>948.00421142578</ele>
        <time>2015-12-22T19:10:53.000Z</time>
      </trkpt>
      <trkpt lat="45.38333" lon="4.44055">
        <ele>947.74096679688</ele>
        <time>2015-12-22T19:10:56.000Z</time>
      </trkpt>
      <trkpt lat="45.38328" lon="4.44054">
        <ele>946.74279785156</ele>
        <time>2015-12-22T19:10:58.000Z</time>
      </trkpt>
      <trkpt lat="45.38324" lon="4.44054">
        <ele>947.75616455078</ele>
        <time>2015-12-22T19:11:00.000Z</time>
      </trkpt>
      <trkpt lat="45.3832" lon="4.44055">
        <ele>948.09014892578</ele>
        <time>2015-12-22T19:11:03.000Z</time>
      </trkpt>
      <trkpt lat="45.3831" lon="4.44056">
        <ele>946.44445800781</ele>
        <time>2015-12-22T19:11:06.000Z</time>
      </trkpt>
      <trkpt lat="45.38306" lon="4.44058">
        <ele>944.85522460938</ele>
        <time>2015-12-22T19:11:08.000Z</time>
      </trkpt>
      <trkpt lat="45.38297" lon="4.44063">
        <ele>946.26739501953</ele>
        <time>2015-12-22T19:11:11.000Z</time>
      </trkpt>
      <trkpt lat="45.38291" lon="4.44066">
        <ele>945.53118896484</ele>
        <time>2015-12-22T19:11:14.000Z</time>
      </trkpt>
      <trkpt lat="45.38287" lon="4.44064">
        <ele>944.78112792969</ele>
        <time>2015-12-22T19:11:17.000Z</time>
      </trkpt>
      <trkpt lat="45.38286" lon="4.44059">
        <ele>943.58544921875</ele>
        <time>2015-12-22T19:11:19.000Z</time>
      </trkpt>
      <trkpt lat="45.38287" lon="4.44049">
        <ele>942.34545898438</ele>
        <time>2015-12-22T19:11:22.000Z</time>
      </trkpt>
      <trkpt lat="45.38288" lon="4.44043">
        <ele>941.69732666016</ele>
        <time>2015-12-22T19:11:24.000Z</time>
      </trkpt>
      <trkpt lat="45.38291" lon="4.44032">
        <ele>940.78332519531</ele>
        <time>2015-12-22T19:11:27.000Z</time>
      </trkpt>
      <trkpt lat="45.38293" lon="4.44022">
        <ele>940.46319580078</ele>
        <time>2015-12-22T19:11:30.000Z</time>
      </trkpt>
      <trkpt lat="45.38294" lon="4.44014">
        <ele>940.71569824219</ele>
        <time>2015-12-22T19:11:33.000Z</time>
      </trkpt>
      <trkpt lat="45.38295" lon="4.44004">
        <ele>940.68389892578</ele>
        <time>2015-12-22T19:11:36.000Z</time>
      </trkpt>
      <trkpt lat="45.38295" lon="4.43998">
        <ele>940.47546386719</ele>
        <time>2015-12-22T19:11:38.000Z</time>
      </trkpt>
      <trkpt lat="45.38292" lon="4.4399">
        <ele>940.52429199219</ele>
        <time>2015-12-22T19:11:41.000Z</time>
      </trkpt>
      <trkpt lat="45.38286" lon="4.43985">
        <ele>938.89923095703</ele>
        <time>2015-12-22T19:11:44.000Z</time>
      </trkpt>
      <trkpt lat="45.38279" lon="4.43982">
        <ele>936.83282470703</ele>
        <time>2015-12-22T19:11:47.000Z</time>
      </trkpt>
      <trkpt lat="45.38274" lon="4.4398">
        <ele>934.61169433594</ele>
        <time>2015-12-22T19:11:49.000Z</time>
      </trkpt>
      <trkpt lat="45.3827" lon="4.43976">
        <ele>932.86004638672</ele>
        <time>2015-12-22T19:11:52.000Z</time>
      </trkpt>
      <trkpt lat="45.38268" lon="4.43971">
        <ele>931.78149414062</ele>
        <time>2015-12-22T19:11:54.000Z</time>
      </trkpt>
      <trkpt lat="45.38267" lon="4.43965">
        <ele>931.2158203125</ele>
        <time>2015-12-22T19:11:56.000Z</time>
      </trkpt>
      <trkpt lat="45.38265" lon="4.43957">
        <ele>931.36352539062</ele>
        <time>2015-12-22T19:11:59.000Z</time>
      </trkpt>
      <trkpt lat="45.38263" lon="4.43952">
        <ele>929.96148681641</ele>
        <time>2015-12-22T19:12:02.000Z</time>
      </trkpt>
      <trkpt lat="45.38262" lon="4.43946">
        <ele>928.03479003906</ele>
        <time>2015-12-22T19:12:05.000Z</time>
      </trkpt>
      <trkpt lat="45.38261" lon="4.43941">
        <ele>927.12756347656</ele>
        <time>2015-12-22T19:12:07.000Z</time>
      </trkpt>
      <trkpt lat="45.3826" lon="4.43934">
        <ele>926.00610351562</ele>
        <time>2015-12-22T19:12:10.000Z</time>
      </trkpt>
      <trkpt lat="45.3826" lon="4.43928">
        <ele>925.03729248047</ele>
        <time>2015-12-22T19:12:13.000Z</time>
      </trkpt>
      <trkpt lat="45.38259" lon="4.43921">
        <ele>924.05993652344</ele>
        <time>2015-12-22T19:12:17.000Z</time>
      </trkpt>
      <trkpt lat="45.38257" lon="4.43913">
        <ele>923.50366210938</ele>
        <time>2015-12-22T19:12:20.000Z</time>
      </trkpt>
      <trkpt lat="45.38253" lon="4.43909">
        <ele>922.80590820312</ele>
        <time>2015-12-22T19:12:22.000Z</time>
      </trkpt>
      <trkpt lat="45.38251" lon="4.43906">
        <ele>921.86688232422</ele>
        <time>2015-12-22T19:12:24.000Z</time>
      </trkpt>
      <trkpt lat="45.38253" lon="4.43904">
        <ele>921.31878662109</ele>
        <time>2015-12-22T19:12:26.000Z</time>
      </trkpt>
      <trkpt lat="45.38255" lon="4.43902">
        <ele>920.72076416016</ele>
        <time>2015-12-22T19:12:28.000Z</time>
      </trkpt>
      <trkpt lat="45.38261" lon="4.43897">
        <ele>919.21228027344</ele>
        <time>2015-12-22T19:12:31.000Z</time>
      </trkpt>
      <trkpt lat="45.38266" lon="4.43893">
        <ele>918.21020507812</ele>
        <time>2015-12-22T19:12:33.000Z</time>
      </trkpt>
      <trkpt lat="45.38271" lon="4.43887">
        <ele>918.00714111328</ele>
        <time>2015-12-22T19:12:35.000Z</time>
      </trkpt>
      <trkpt lat="45.38274" lon="4.43877">
        <ele>919.06469726562</ele>
        <time>2015-12-22T19:12:37.000Z</time>
      </trkpt>
      <trkpt lat="45.3828" lon="4.43867">
        <ele>918.97894287109</ele>
        <time>2015-12-22T19:12:40.000Z</time>
      </trkpt>
      <trkpt lat="45.38284" lon="4.43861">
        <ele>919.70465087891</ele>
        <time>2015-12-22T19:12:42.000Z</time>
      </trkpt>
      <trkpt lat="45.3829" lon="4.43854">
        <ele>920.56359863281</ele>
        <time>2015-12-22T19:12:45.000Z</time>
      </trkpt>
      <trkpt lat="45.38293" lon="4.43847">
        <ele>919.59436035156</ele>
        <time>2015-12-22T19:12:48.000Z</time>
      </trkpt>
      <trkpt lat="45.38289" lon="4.43846">
        <ele>918.88238525391</ele>
        <time>2015-12-22T19:12:51.000Z</time>
      </trkpt>
      <trkpt lat="45.38285" lon="4.43846">
        <ele>918.53747558594</ele>
        <time>2015-12-22T19:12:53.000Z</time>
      </trkpt>
      <trkpt lat="45.3828" lon="4.43847">
        <ele>918.99383544922</ele>
        <time>2015-12-22T19:12:56.000Z</time>
      </trkpt>
      <trkpt lat="45.38275" lon="4.43848">
        <ele>919.31658935547</ele>
        <time>2015-12-22T19:12:58.000Z</time>
      </trkpt>
      <trkpt lat="45.38266" lon="4.43849">
        <ele>920.73895263672</ele>
        <time>2015-12-22T19:13:01.000Z</time>
      </trkpt>
      <trkpt lat="45.38257" lon="4.43852">
        <ele>919.68865966797</ele>
        <time>2015-12-22T19:13:04.000Z</time>
      </trkpt>
      <trkpt lat="45.38252" lon="4.43852">
        <ele>918.28619384766</ele>
        <time>2015-12-22T19:13:06.000Z</time>
      </trkpt>
      <trkpt lat="45.38248" lon="4.43853">
        <ele>917.16680908203</ele>
        <time>2015-12-22T19:13:08.000Z</time>
      </trkpt>
      <trkpt lat="45.38238" lon="4.43853">
        <ele>918.28021240234</ele>
        <time>2015-12-22T19:13:11.000Z</time>
      </trkpt>
      <trkpt lat="45.38229" lon="4.43852">
        <ele>918.96282958984</ele>
        <time>2015-12-22T19:13:14.000Z</time>
      </trkpt>
      <trkpt lat="45.38221" lon="4.43851">
        <ele>919.51452636719</ele>
        <time>2015-12-22T19:13:16.000Z</time>
      </trkpt>
      <trkpt lat="45.38213" lon="4.43849">
        <ele>919.54522705078</ele>
        <time>2015-12-22T19:13:19.000Z</time>
      </trkpt>
      <trkpt lat="45.38209" lon="4.43848">
        <ele>918.67883300781</ele>
        <time>2015-12-22T19:13:21.000Z</time>
      </trkpt>
      <trkpt lat="45.38206" lon="4.43849">
        <ele>917.24426269531</ele>
        <time>2015-12-22T19:13:23.000Z</time>
      </trkpt>
      <trkpt lat="45.38198" lon="4.43847">
        <ele>916.52624511719</ele>
        <time>2015-12-22T19:13:26.000Z</time>
      </trkpt>
      <trkpt lat="45.38192" lon="4.43845">
        <ele>915.24896240234</ele>
        <time>2015-12-22T19:13:29.000Z</time>
      </trkpt>
      <trkpt lat="45.38187" lon="4.43845">
        <ele>912.39794921875</ele>
        <time>2015-12-22T19:13:32.000Z</time>
      </trkpt>
      <trkpt lat="45.38181" lon="4.43844">
        <ele>910.048828125</ele>
        <time>2015-12-22T19:13:35.000Z</time>
      </trkpt>
      <trkpt lat="45.38173" lon="4.43841">
        <ele>909.00811767578</ele>
        <time>2015-12-22T19:13:38.000Z</time>
      </trkpt>
      <trkpt lat="45.38168" lon="4.43836">
        <ele>909.73767089844</ele>
        <time>2015-12-22T19:13:41.000Z</time>
      </trkpt>
      <trkpt lat="45.38165" lon="4.43833">
        <ele>909.58422851562</ele>
        <time>2015-12-22T19:13:43.000Z</time>
      </trkpt>
      <trkpt lat="45.3816" lon="4.4383">
        <ele>908.93548583984</ele>
        <time>2015-12-22T19:13:46.000Z</time>
      </trkpt>
      <trkpt lat="45.38149" lon="4.43827">
        <ele>908.55688476562</ele>
        <time>2015-12-22T19:13:49.000Z</time>
      </trkpt>
      <trkpt lat="45.38144" lon="4.43825">
        <ele>907.39276123047</ele>
        <time>2015-12-22T19:13:51.000Z</time>
      </trkpt>
      <trkpt lat="45.3814" lon="4.43821">
        <ele>906.27008056641</ele>
        <time>2015-12-22T19:13:53.000Z</time>
      </trkpt>
      <trkpt lat="45.3813" lon="4.43811">
        <ele>901.90399169922</ele>
        <time>2015-12-22T19:13:56.000Z</time>
      </trkpt>
      <trkpt lat="45.38121" lon="4.43806">
        <ele>901.52227783203</ele>
        <time>2015-12-22T19:13:58.000Z</time>
      </trkpt>
      <trkpt lat="45.38111" lon="4.43801">
        <ele>900.43316650391</ele>
        <time>2015-12-22T19:14:01.000Z</time>
      </trkpt>
      <trkpt lat="45.38104" lon="4.43795">
        <ele>898.74249267578</ele>
        <time>2015-12-22T19:14:04.000Z</time>
      </trkpt>
      <trkpt lat="45.38101" lon="4.43786">
        <ele>898.59320068359</ele>
        <time>2015-12-22T19:14:07.000Z</time>
      </trkpt>
      <trkpt lat="45.381" lon="4.43779">
        <ele>898.76770019531</ele>
        <time>2015-12-22T19:14:09.000Z</time>
      </trkpt>
      <trkpt lat="45.38102" lon="4.43774">
        <ele>897.48559570312</ele>
        <time>2015-12-22T19:14:11.000Z</time>
      </trkpt>
      <trkpt lat="45.38105" lon="4.43769">
        <ele>898.74072265625</ele>
        <time>2015-12-22T19:14:13.000Z</time>
      </trkpt>
      <trkpt lat="45.38109" lon="4.43766">
        <ele>901.40606689453</ele>
        <time>2015-12-22T19:14:16.000Z</time>
      </trkpt>
      <trkpt lat="45.38113" lon="4.43764">
        <ele>903.60552978516</ele>
        <time>2015-12-22T19:14:19.000Z</time>
      </trkpt>
      <trkpt lat="45.38117" lon="4.43763">
        <ele>904.83941650391</ele>
        <time>2015-12-22T19:14:21.000Z</time>
      </trkpt>
      <trkpt lat="45.38123" lon="4.43761">
        <ele>907.87512207031</ele>
        <time>2015-12-22T19:14:24.000Z</time>
      </trkpt>
      <trkpt lat="45.38126" lon="4.43761">
        <ele>910.03741455078</ele>
        <time>2015-12-22T19:14:26.000Z</time>
      </trkpt>
      <trkpt lat="45.38129" lon="4.4376">
        <ele>909.49670410156</ele>
        <time>2015-12-22T19:14:28.000Z</time>
      </trkpt>
      <trkpt lat="45.38136" lon="4.43757">
        <ele>906.74951171875</ele>
        <time>2015-12-22T19:14:31.000Z</time>
      </trkpt>
      <trkpt lat="45.38139" lon="4.43756">
        <ele>905.44659423828</ele>
        <time>2015-12-22T19:14:33.000Z</time>
      </trkpt>
      <trkpt lat="45.38144" lon="4.43756">
        <ele>904.53405761719</ele>
        <time>2015-12-22T19:14:36.000Z</time>
      </trkpt>
      <trkpt lat="45.38148" lon="4.43754">
        <ele>905.73754882812</ele>
        <time>2015-12-22T19:14:39.000Z</time>
      </trkpt>
      <trkpt lat="45.38153" lon="4.4375">
        <ele>904.9248046875</ele>
        <time>2015-12-22T19:14:41.000Z</time>
      </trkpt>
      <trkpt lat="45.38159" lon="4.43744">
        <ele>905.43426513672</ele>
        <time>2015-12-22T19:14:44.000Z</time>
      </trkpt>
      <trkpt lat="45.38165" lon="4.43738">
        <ele>906.57501220703</ele>
        <time>2015-12-22T19:14:47.000Z</time>
      </trkpt>
      <trkpt lat="45.38173" lon="4.4373">
        <ele>907.10925292969</ele>
        <time>2015-12-22T19:14:50.000Z</time>
      </trkpt>
      <trkpt lat="45.38177" lon="4.43726">
        <ele>907.05358886719</ele>
        <time>2015-12-22T19:14:52.000Z</time>
      </trkpt>
      <trkpt lat="45.38179" lon="4.43723">
        <ele>907.41064453125</ele>
        <time>2015-12-22T19:14:54.000Z</time>
      </trkpt>
      <trkpt lat="45.38184" lon="4.43721">
        <ele>907.95867919922</ele>
        <time>2015-12-22T19:14:56.000Z</time>
      </trkpt>
      <trkpt lat="45.38189" lon="4.4372">
        <ele>909.13348388672</ele>
        <time>2015-12-22T19:14:58.000Z</time>
      </trkpt>
      <trkpt lat="45.38194" lon="4.43719">
        <ele>910.06536865234</ele>
        <time>2015-12-22T19:15:01.000Z</time>
      </trkpt>
      <trkpt lat="45.38198" lon="4.43719">
        <ele>911.47485351562</ele>
        <time>2015-12-22T19:15:04.000Z</time>
      </trkpt>
      <trkpt lat="45.38203" lon="4.4372">
        <ele>912.58703613281</ele>
        <time>2015-12-22T19:15:07.000Z</time>
      </trkpt>
      <trkpt lat="45.3821" lon="4.43719">
        <ele>911.90850830078</ele>
        <time>2015-12-22T19:15:10.000Z</time>
      </trkpt>
      <trkpt lat="45.38214" lon="4.43715">
        <ele>912.32977294922</ele>
        <time>2015-12-22T19:15:12.000Z</time>
      </trkpt>
      <trkpt lat="45.38221" lon="4.43709">
        <ele>911.80169677734</ele>
        <time>2015-12-22T19:15:14.000Z</time>
      </trkpt>
      <trkpt lat="45.38227" lon="4.43705">
        <ele>910.10333251953</ele>
        <time>2015-12-22T19:15:17.000Z</time>
      </trkpt>
      <trkpt lat="45.38231" lon="4.43703">
        <ele>909.18548583984</ele>
        <time>2015-12-22T19:15:19.000Z</time>
      </trkpt>
      <trkpt lat="45.38239" lon="4.43699">
        <ele>908.99261474609</ele>
        <time>2015-12-22T19:15:22.000Z</time>
      </trkpt>
      <trkpt lat="45.38241" lon="4.43697">
        <ele>909.27423095703</ele>
        <time>2015-12-22T19:15:24.000Z</time>
      </trkpt>
      <trkpt lat="45.38246" lon="4.43692">
        <ele>910.17791748047</ele>
        <time>2015-12-22T19:15:27.000Z</time>
      </trkpt>
      <trkpt lat="45.38249" lon="4.43688">
        <ele>909.84295654297</ele>
        <time>2015-12-22T19:15:29.000Z</time>
      </trkpt>
      <trkpt lat="45.38252" lon="4.43683">
        <ele>907.58050537109</ele>
        <time>2015-12-22T19:15:32.000Z</time>
      </trkpt>
      <trkpt lat="45.38256" lon="4.43678">
        <ele>906.30816650391</ele>
        <time>2015-12-22T19:15:35.000Z</time>
      </trkpt>
      <trkpt lat="45.38262" lon="4.43673">
        <ele>907.35137939453</ele>
        <time>2015-12-22T19:15:38.000Z</time>
      </trkpt>
      <trkpt lat="45.38268" lon="4.43668">
        <ele>906.24237060547</ele>
        <time>2015-12-22T19:15:41.000Z</time>
      </trkpt>
      <trkpt lat="45.38272" lon="4.43663">
        <ele>905.98211669922</ele>
        <time>2015-12-22T19:15:43.000Z</time>
      </trkpt>
      <trkpt lat="45.38275" lon="4.4366">
        <ele>906.27893066406</ele>
        <time>2015-12-22T19:15:45.000Z</time>
      </trkpt>
      <trkpt lat="45.3828" lon="4.43654">
        <ele>907.79040527344</ele>
        <time>2015-12-22T19:15:48.000Z</time>
      </trkpt>
      <trkpt lat="45.38285" lon="4.43649">
        <ele>908.51940917969</ele>
        <time>2015-12-22T19:15:51.000Z</time>
      </trkpt>
      <trkpt lat="45.3829" lon="4.43646">
        <ele>907.58807373047</ele>
        <time>2015-12-22T19:15:53.000Z</time>
      </trkpt>
      <trkpt lat="45.38296" lon="4.43643">
        <ele>906.67321777344</ele>
        <time>2015-12-22T19:15:55.000Z</time>
      </trkpt>
      <trkpt lat="45.38303" lon="4.43636">
        <ele>906.85784912109</ele>
        <time>2015-12-22T19:15:58.000Z</time>
      </trkpt>
      <trkpt lat="45.38309" lon="4.43629">
        <ele>906.01538085938</ele>
        <time>2015-12-22T19:16:01.000Z</time>
      </trkpt>
      <trkpt lat="45.38314" lon="4.43621">
        <ele>904.27160644531</ele>
        <time>2015-12-22T19:16:04.000Z</time>
      </trkpt>
      <trkpt lat="45.38317" lon="4.43613">
        <ele>902.60076904297</ele>
        <time>2015-12-22T19:16:07.000Z</time>
      </trkpt>
      <trkpt lat="45.38321" lon="4.43605">
        <ele>901.83209228516</ele>
        <time>2015-12-22T19:16:10.000Z</time>
      </trkpt>
      <trkpt lat="45.38325" lon="4.43599">
        <ele>900.34869384766</ele>
        <time>2015-12-22T19:16:13.000Z</time>
      </trkpt>
      <trkpt lat="45.38329" lon="4.43588">
        <ele>897.10101318359</ele>
        <time>2015-12-22T19:16:16.000Z</time>
      </trkpt>
      <trkpt lat="45.38331" lon="4.4358">
        <ele>894.94555664062</ele>
        <time>2015-12-22T19:16:18.000Z</time>
      </trkpt>
      <trkpt lat="45.38336" lon="4.4357">
        <ele>896.17980957031</ele>
        <time>2015-12-22T19:16:21.000Z</time>
      </trkpt>
      <trkpt lat="45.38338" lon="4.43562">
        <ele>897.67828369141</ele>
        <time>2015-12-22T19:16:23.000Z</time>
      </trkpt>
      <trkpt lat="45.38339" lon="4.43555">
        <ele>898.20751953125</ele>
        <time>2015-12-22T19:16:25.000Z</time>
      </trkpt>
      <trkpt lat="45.38342" lon="4.43549">
        <ele>899.34661865234</ele>
        <time>2015-12-22T19:16:27.000Z</time>
      </trkpt>
      <trkpt lat="45.38346" lon="4.43545">
        <ele>902.34948730469</ele>
        <time>2015-12-22T19:16:29.000Z</time>
      </trkpt>
      <trkpt lat="45.38354" lon="4.43542">
        <ele>907.29107666016</ele>
        <time>2015-12-22T19:16:32.000Z</time>
      </trkpt>
      <trkpt lat="45.38362" lon="4.43541">
        <ele>908.26788330078</ele>
        <time>2015-12-22T19:16:35.000Z</time>
      </trkpt>
      <trkpt lat="45.3837" lon="4.43539">
        <ele>907.14770507812</ele>
        <time>2015-12-22T19:16:38.000Z</time>
      </trkpt>
      <trkpt lat="45.38375" lon="4.43537">
        <ele>907.78210449219</ele>
        <time>2015-12-22T19:16:40.000Z</time>
      </trkpt>
      <trkpt lat="45.3838" lon="4.43535">
        <ele>908.79895019531</ele>
        <time>2015-12-22T19:16:43.000Z</time>
      </trkpt>
      <trkpt lat="45.38387" lon="4.43536">
        <ele>910.03472900391</ele>
        <time>2015-12-22T19:16:46.000Z</time>
      </trkpt>
      <trkpt lat="45.38393" lon="4.43536">
        <ele>911.76129150391</ele>
        <time>2015-12-22T19:16:49.000Z</time>
      </trkpt>
      <trkpt lat="45.384" lon="4.43537">
        <ele>912.90606689453</ele>
        <time>2015-12-22T19:16:51.000Z</time>
      </trkpt>
      <trkpt lat="45.38406" lon="4.43538">
        <ele>914.57147216797</ele>
        <time>2015-12-22T19:16:53.000Z</time>
      </trkpt>
      <trkpt lat="45.3841" lon="4.43539">
        <ele>915.35754394531</ele>
        <time>2015-12-22T19:16:55.000Z</time>
      </trkpt>
      <trkpt lat="45.38415" lon="4.43539">
        <ele>914.43829345703</ele>
        <time>2015-12-22T19:16:57.000Z</time>
      </trkpt>
      <trkpt lat="45.38421" lon="4.43538">
        <ele>912.41235351562</ele>
        <time>2015-12-22T19:16:59.000Z</time>
      </trkpt>
      <trkpt lat="45.38426" lon="4.43534">
        <ele>912.56311035156</ele>
        <time>2015-12-22T19:17:02.000Z</time>
      </trkpt>
      <trkpt lat="45.38431" lon="4.43531">
        <ele>912.97991943359</ele>
        <time>2015-12-22T19:17:05.000Z</time>
      </trkpt>
      <trkpt lat="45.38436" lon="4.43531">
        <ele>912.30657958984</ele>
        <time>2015-12-22T19:17:08.000Z</time>
      </trkpt>
      <trkpt lat="45.3844" lon="4.43531">
        <ele>911.7490234375</ele>
        <time>2015-12-22T19:17:11.000Z</time>
      </trkpt>
      <trkpt lat="45.38449" lon="4.43529">
        <ele>910.79516601562</ele>
        <time>2015-12-22T19:17:14.000Z</time>
      </trkpt>
      <trkpt lat="45.38454" lon="4.43526">
        <ele>911.42279052734</ele>
        <time>2015-12-22T19:17:17.000Z</time>
      </trkpt>
      <trkpt lat="45.3846" lon="4.43524">
        <ele>911.55627441406</ele>
        <time>2015-12-22T19:17:19.000Z</time>
      </trkpt>
      <trkpt lat="45.38467" lon="4.43522">
        <ele>911.53588867188</ele>
        <time>2015-12-22T19:17:22.000Z</time>
      </trkpt>
      <trkpt lat="45.38477" lon="4.43519">
        <ele>912.13488769531</ele>
        <time>2015-12-22T19:17:25.000Z</time>
      </trkpt>
      <trkpt lat="45.38485" lon="4.43516">
        <ele>910.36206054688</ele>
        <time>2015-12-22T19:17:28.000Z</time>
      </trkpt>
      <trkpt lat="45.38491" lon="4.43513">
        <ele>908.77716064453</ele>
        <time>2015-12-22T19:17:30.000Z</time>
      </trkpt>
      <trkpt lat="45.38496" lon="4.43511">
        <ele>908.12066650391</ele>
        <time>2015-12-22T19:17:32.000Z</time>
      </trkpt>
      <trkpt lat="45.38501" lon="4.43511">
        <ele>909.32818603516</ele>
        <time>2015-12-22T19:17:36.000Z</time>
      </trkpt>
      <trkpt lat="45.38506" lon="4.43511">
        <ele>911.08038330078</ele>
        <time>2015-12-22T19:17:38.000Z</time>
      </trkpt>
      <trkpt lat="45.38515" lon="4.43508">
        <ele>913.78717041016</ele>
        <time>2015-12-22T19:17:41.000Z</time>
      </trkpt>
      <trkpt lat="45.38522" lon="4.43505">
        <ele>914.37158203125</ele>
        <time>2015-12-22T19:17:44.000Z</time>
      </trkpt>
      <trkpt lat="45.3853" lon="4.43505">
        <ele>913.58953857422</ele>
        <time>2015-12-22T19:17:47.000Z</time>
      </trkpt>
      <trkpt lat="45.38535" lon="4.43504">
        <ele>914.25042724609</ele>
        <time>2015-12-22T19:17:49.000Z</time>
      </trkpt>
      <trkpt lat="45.38539" lon="4.43503">
        <ele>914.11950683594</ele>
        <time>2015-12-22T19:17:51.000Z</time>
      </trkpt>
      <trkpt lat="45.38543" lon="4.43503">
        <ele>912.95727539062</ele>
        <time>2015-12-22T19:17:53.000Z</time>
      </trkpt>
      <trkpt lat="45.38548" lon="4.43501">
        <ele>911.80865478516</ele>
        <time>2015-12-22T19:17:55.000Z</time>
      </trkpt>
      <trkpt lat="45.38552" lon="4.43501">
        <ele>911.18878173828</ele>
        <time>2015-12-22T19:17:57.000Z</time>
      </trkpt>
      <trkpt lat="45.38557" lon="4.43499">
        <ele>912.8486328125</ele>
        <time>2015-12-22T19:18:00.000Z</time>
      </trkpt>
      <trkpt lat="45.3856" lon="4.43494">
        <ele>912.61169433594</ele>
        <time>2015-12-22T19:18:03.000Z</time>
      </trkpt>
      <trkpt lat="45.38565" lon="4.43491">
        <ele>913.84381103516</ele>
        <time>2015-12-22T19:18:06.000Z</time>
      </trkpt>
      <trkpt lat="45.3857" lon="4.43489">
        <ele>915.81127929688</ele>
        <time>2015-12-22T19:18:09.000Z</time>
      </trkpt>
      <trkpt lat="45.38578" lon="4.43485">
        <ele>913.95916748047</ele>
        <time>2015-12-22T19:18:12.000Z</time>
      </trkpt>
      <trkpt lat="45.38587" lon="4.43477">
        <ele>914.81823730469</ele>
        <time>2015-12-22T19:18:15.000Z</time>
      </trkpt>
      <trkpt lat="45.38594" lon="4.43471">
        <ele>915.21826171875</ele>
        <time>2015-12-22T19:18:18.000Z</time>
      </trkpt>
      <trkpt lat="45.38601" lon="4.43465">
        <ele>915.55511474609</ele>
        <time>2015-12-22T19:18:21.000Z</time>
      </trkpt>
      <trkpt lat="45.38605" lon="4.43463">
        <ele>915.16174316406</ele>
        <time>2015-12-22T19:18:23.000Z</time>
      </trkpt>
      <trkpt lat="45.38609" lon="4.43461">
        <ele>913.98376464844</ele>
        <time>2015-12-22T19:18:25.000Z</time>
      </trkpt>
      <trkpt lat="45.38612" lon="4.43456">
        <ele>913.21350097656</ele>
        <time>2015-12-22T19:18:27.000Z</time>
      </trkpt>
      <trkpt lat="45.38617" lon="4.43452">
        <ele>913.01910400391</ele>
        <time>2015-12-22T19:18:29.000Z</time>
      </trkpt>
      <trkpt lat="45.38625" lon="4.4345">
        <ele>914.85028076172</ele>
        <time>2015-12-22T19:18:32.000Z</time>
      </trkpt>
      <trkpt lat="45.3863" lon="4.43446">
        <ele>916.62762451172</ele>
        <time>2015-12-22T19:18:35.000Z</time>
      </trkpt>
      <trkpt lat="45.38636" lon="4.43439">
        <ele>917.88250732422</ele>
        <time>2015-12-22T19:18:38.000Z</time>
      </trkpt>
      <trkpt lat="45.38641" lon="4.43434">
        <ele>919.07006835938</ele>
        <time>2015-12-22T19:18:40.000Z</time>
      </trkpt>
      <trkpt lat="45.38645" lon="4.43429">
        <ele>919.78051757812</ele>
        <time>2015-12-22T19:18:42.000Z</time>
      </trkpt>
      <trkpt lat="45.38649" lon="4.43421">
        <ele>919.24639892578</ele>
        <time>2015-12-22T19:18:45.000Z</time>
      </trkpt>
      <trkpt lat="45.3865" lon="4.43413">
        <ele>919.33599853516</ele>
        <time>2015-12-22T19:18:47.000Z</time>
      </trkpt>
      <trkpt lat="45.38651" lon="4.43406">
        <ele>920.03704833984</ele>
        <time>2015-12-22T19:18:50.000Z</time>
      </trkpt>
      <trkpt lat="45.38654" lon="4.43399">
        <ele>920.57147216797</ele>
        <time>2015-12-22T19:18:53.000Z</time>
      </trkpt>
      <trkpt lat="45.38658" lon="4.43393">
        <ele>923.08087158203</ele>
        <time>2015-12-22T19:18:55.000Z</time>
      </trkpt>
      <trkpt lat="45.38661" lon="4.43384">
        <ele>925.46691894531</ele>
        <time>2015-12-22T19:18:58.000Z</time>
      </trkpt>
      <trkpt lat="45.38664" lon="4.43377">
        <ele>927.17730712891</ele>
        <time>2015-12-22T19:19:00.000Z</time>
      </trkpt>
      <trkpt lat="45.38667" lon="4.43371">
        <ele>929.76452636719</ele>
        <time>2015-12-22T19:19:02.000Z</time>
      </trkpt>
      <trkpt lat="45.3867" lon="4.43359">
        <ele>932.408203125</ele>
        <time>2015-12-22T19:19:05.000Z</time>
      </trkpt>
      <trkpt lat="45.38673" lon="4.43351">
        <ele>934.18304443359</ele>
        <time>2015-12-22T19:19:08.000Z</time>
      </trkpt>
      <trkpt lat="45.38673" lon="4.43344">
        <ele>934.7490234375</ele>
        <time>2015-12-22T19:19:10.000Z</time>
      </trkpt>
      <trkpt lat="45.38678" lon="4.43335">
        <ele>937.88159179688</ele>
        <time>2015-12-22T19:19:13.000Z</time>
      </trkpt>
      <trkpt lat="45.3868" lon="4.4333">
        <ele>938.19439697266</ele>
        <time>2015-12-22T19:19:15.000Z</time>
      </trkpt>
      <trkpt lat="45.38684" lon="4.43322">
        <ele>937.00451660156</ele>
        <time>2015-12-22T19:19:18.000Z</time>
      </trkpt>
      <trkpt lat="45.38685" lon="4.43315">
        <ele>937.40112304688</ele>
        <time>2015-12-22T19:19:20.000Z</time>
      </trkpt>
      <trkpt lat="45.38687" lon="4.43308">
        <ele>937.39666748047</ele>
        <time>2015-12-22T19:19:22.000Z</time>
      </trkpt>
      <trkpt lat="45.38689" lon="4.43302">
        <ele>938.64044189453</ele>
        <time>2015-12-22T19:19:24.000Z</time>
      </trkpt>
      <trkpt lat="45.38691" lon="4.43296">
        <ele>938.43121337891</ele>
        <time>2015-12-22T19:19:26.000Z</time>
      </trkpt>
      <trkpt lat="45.38696" lon="4.43287">
        <ele>938.27917480469</ele>
        <time>2015-12-22T19:19:29.000Z</time>
      </trkpt>
      <trkpt lat="45.38697" lon="4.43278">
        <ele>938.86572265625</ele>
        <time>2015-12-22T19:19:32.000Z</time>
      </trkpt>
      <trkpt lat="45.38698" lon="4.43272">
        <ele>940.77575683594</ele>
        <time>2015-12-22T19:19:34.000Z</time>
      </trkpt>
      <trkpt lat="45.38697" lon="4.43265">
        <ele>943.07147216797</ele>
        <time>2015-12-22T19:19:37.000Z</time>
      </trkpt>
      <trkpt lat="45.38696" lon="4.43261">
        <ele>942.69122314453</ele>
        <time>2015-12-22T19:19:40.000Z</time>
      </trkpt>
      <trkpt lat="45.38695" lon="4.4326">
        <ele>940.94671630859</ele>
        <time>2015-12-22T19:19:42.000Z</time>
      </trkpt>
      <trkpt lat="45.38699" lon="4.43259">
        <ele>936.28057861328</ele>
        <time>2015-12-22T19:19:45.000Z</time>
      </trkpt>
      <trkpt lat="45.38702" lon="4.43261">
        <ele>934.85339355469</ele>
        <time>2015-12-22T19:19:47.000Z</time>
      </trkpt>
      <trkpt lat="45.38705" lon="4.43262">
        <ele>934.41607666016</ele>
        <time>2015-12-22T19:19:49.000Z</time>
      </trkpt>
      <trkpt lat="45.3871" lon="4.43263">
        <ele>935.48028564453</ele>
        <time>2015-12-22T19:19:52.000Z</time>
      </trkpt>
      <trkpt lat="45.38716" lon="4.43269">
        <ele>935.32623291016</ele>
        <time>2015-12-22T19:19:55.000Z</time>
      </trkpt>
      <trkpt lat="45.38719" lon="4.43272">
        <ele>934.76611328125</ele>
        <time>2015-12-22T19:19:57.000Z</time>
      </trkpt>
      <trkpt lat="45.38723" lon="4.43275">
        <ele>935.63623046875</ele>
        <time>2015-12-22T19:19:59.000Z</time>
      </trkpt>
      <trkpt lat="45.38726" lon="4.43279">
        <ele>935.61071777344</ele>
        <time>2015-12-22T19:20:01.000Z</time>
      </trkpt>
      <trkpt lat="45.38731" lon="4.43284">
        <ele>934.77868652344</ele>
        <time>2015-12-22T19:20:04.000Z</time>
      </trkpt>
      <trkpt lat="45.38739" lon="4.43289">
        <ele>934.97814941406</ele>
        <time>2015-12-22T19:20:07.000Z</time>
      </trkpt>
      <trkpt lat="45.38744" lon="4.43293">
        <ele>936.49108886719</ele>
        <time>2015-12-22T19:20:09.000Z</time>
      </trkpt>
      <trkpt lat="45.38754" lon="4.43298">
        <ele>938.3466796875</ele>
        <time>2015-12-22T19:20:12.000Z</time>
      </trkpt>
      <trkpt lat="45.3876" lon="4.43301">
        <ele>938.11682128906</ele>
        <time>2015-12-22T19:20:14.000Z</time>
      </trkpt>
      <trkpt lat="45.38769" lon="4.43303">
        <ele>935.73846435547</ele>
        <time>2015-12-22T19:20:17.000Z</time>
      </trkpt>
      <trkpt lat="45.38777" lon="4.43303">
        <ele>935.97967529297</ele>
        <time>2015-12-22T19:20:20.000Z</time>
      </trkpt>
      <trkpt lat="45.38781" lon="4.43303">
        <ele>935.59814453125</ele>
        <time>2015-12-22T19:20:22.000Z</time>
      </trkpt>
      <trkpt lat="45.38786" lon="4.43303">
        <ele>935.90124511719</ele>
        <time>2015-12-22T19:20:24.000Z</time>
      </trkpt>
      <trkpt lat="45.38791" lon="4.43301">
        <ele>935.62152099609</ele>
        <time>2015-12-22T19:20:26.000Z</time>
      </trkpt>
      <trkpt lat="45.38794" lon="4.43299">
        <ele>935.85827636719</ele>
        <time>2015-12-22T19:20:29.000Z</time>
      </trkpt>
      <trkpt lat="45.38799" lon="4.43295">
        <ele>937.22723388672</ele>
        <time>2015-12-22T19:20:32.000Z</time>
      </trkpt>
      <trkpt lat="45.38802" lon="4.43294">
        <ele>937.03540039062</ele>
        <time>2015-12-22T19:20:34.000Z</time>
      </trkpt>
      <trkpt lat="45.38808" lon="4.43289">
        <ele>935.70861816406</ele>
        <time>2015-12-22T19:20:37.000Z</time>
      </trkpt>
      <trkpt lat="45.38812" lon="4.43282">
        <ele>934.68963623047</ele>
        <time>2015-12-22T19:20:40.000Z</time>
      </trkpt>
      <trkpt lat="45.38817" lon="4.43275">
        <ele>932.76733398438</ele>
        <time>2015-12-22T19:20:43.000Z</time>
      </trkpt>
      <trkpt lat="45.3882" lon="4.43272">
        <ele>931.63275146484</ele>
        <time>2015-12-22T19:20:45.000Z</time>
      </trkpt>
      <trkpt lat="45.38822" lon="4.43265">
        <ele>929.60211181641</ele>
        <time>2015-12-22T19:20:48.000Z</time>
      </trkpt>
      <trkpt lat="45.38824" lon="4.43253">
        <ele>929.38549804688</ele>
        <time>2015-12-22T19:20:51.000Z</time>
      </trkpt>
      <trkpt lat="45.38827" lon="4.43245">
        <ele>930.04156494141</ele>
        <time>2015-12-22T19:20:53.000Z</time>
      </trkpt>
      <trkpt lat="45.3883" lon="4.43238">
        <ele>930.80053710938</ele>
        <time>2015-12-22T19:20:55.000Z</time>
      </trkpt>
      <trkpt lat="45.38834" lon="4.43225">
        <ele>931.18572998047</ele>
        <time>2015-12-22T19:20:58.000Z</time>
      </trkpt>
      <trkpt lat="45.38835" lon="4.43218">
        <ele>931.35021972656</ele>
        <time>2015-12-22T19:21:00.000Z</time>
      </trkpt>
      <trkpt lat="45.38836" lon="4.43208">
        <ele>931.34088134766</ele>
        <time>2015-12-22T19:21:03.000Z</time>
      </trkpt>
      <trkpt lat="45.38837" lon="4.43197">
        <ele>931.77783203125</ele>
        <time>2015-12-22T19:21:06.000Z</time>
      </trkpt>
      <trkpt lat="45.38838" lon="4.43186">
        <ele>932.54656982422</ele>
        <time>2015-12-22T19:21:09.000Z</time>
      </trkpt>
      <trkpt lat="45.38838" lon="4.43179">
        <ele>932.80395507812</ele>
        <time>2015-12-22T19:21:11.000Z</time>
      </trkpt>
      <trkpt lat="45.38839" lon="4.43166">
        <ele>933.35736083984</ele>
        <time>2015-12-22T19:21:14.000Z</time>
      </trkpt>
      <trkpt lat="45.38842" lon="4.43154">
        <ele>933.77282714844</ele>
        <time>2015-12-22T19:21:17.000Z</time>
      </trkpt>
      <trkpt lat="45.38843" lon="4.43142">
        <ele>931.96368408203</ele>
        <time>2015-12-22T19:21:20.000Z</time>
      </trkpt>
      <trkpt lat="45.38844" lon="4.43132">
        <ele>930.38244628906</ele>
        <time>2015-12-22T19:21:23.000Z</time>
      </trkpt>
      <trkpt lat="45.38845" lon="4.43125">
        <ele>929.48699951172</ele>
        <time>2015-12-22T19:21:25.000Z</time>
      </trkpt>
      <trkpt lat="45.38847" lon="4.43115">
        <ele>930.21173095703</ele>
        <time>2015-12-22T19:21:28.000Z</time>
      </trkpt>
      <trkpt lat="45.38847" lon="4.43108">
        <ele>929.76806640625</ele>
        <time>2015-12-22T19:21:30.000Z</time>
      </trkpt>
      <trkpt lat="45.38848" lon="4.43102">
        <ele>930.63555908203</ele>
        <time>2015-12-22T19:21:32.000Z</time>
      </trkpt>
      <trkpt lat="45.3885" lon="4.43091">
        <ele>933.00604248047</ele>
        <time>2015-12-22T19:21:35.000Z</time>
      </trkpt>
      <trkpt lat="45.3885" lon="4.4308">
        <ele>932.87847900391</ele>
        <time>2015-12-22T19:21:38.000Z</time>
      </trkpt>
      <trkpt lat="45.38849" lon="4.4307">
        <ele>933.21051025391</ele>
        <time>2015-12-22T19:21:41.000Z</time>
      </trkpt>
      <trkpt lat="45.38849" lon="4.43064">
        <ele>932.97772216797</ele>
        <time>2015-12-22T19:21:43.000Z</time>
      </trkpt>
      <trkpt lat="45.38849" lon="4.43058">
        <ele>932.0302734375</ele>
        <time>2015-12-22T19:21:45.000Z</time>
      </trkpt>
      <trkpt lat="45.38848" lon="4.43049">
        <ele>932.46154785156</ele>
        <time>2015-12-22T19:21:48.000Z</time>
      </trkpt>
      <trkpt lat="45.38848" lon="4.43043">
        <ele>934.78961181641</ele>
        <time>2015-12-22T19:21:50.000Z</time>
      </trkpt>
      <trkpt lat="45.3885" lon="4.43036">
        <ele>936.17962646484</ele>
        <time>2015-12-22T19:21:52.000Z</time>
      </trkpt>
      <trkpt lat="45.38852" lon="4.43027">
        <ele>937.21234130859</ele>
        <time>2015-12-22T19:21:54.000Z</time>
      </trkpt>
      <trkpt lat="45.38853" lon="4.43018">
        <ele>937.71105957031</ele>
        <time>2015-12-22T19:21:56.000Z</time>
      </trkpt>
      <trkpt lat="45.38854" lon="4.43008">
        <ele>938.27380371094</ele>
        <time>2015-12-22T19:21:59.000Z</time>
      </trkpt>
      <trkpt lat="45.38856" lon="4.43002">
        <ele>939.95025634766</ele>
        <time>2015-12-22T19:22:01.000Z</time>
      </trkpt>
      <trkpt lat="45.38858" lon="4.42993">
        <ele>943.07507324219</ele>
        <time>2015-12-22T19:22:04.000Z</time>
      </trkpt>
      <trkpt lat="45.38858" lon="4.42984">
        <ele>944.84973144531</ele>
        <time>2015-12-22T19:22:07.000Z</time>
      </trkpt>
      <trkpt lat="45.38859" lon="4.42976">
        <ele>945.57092285156</ele>
        <time>2015-12-22T19:22:09.000Z</time>
      </trkpt>
      <trkpt lat="45.38858" lon="4.42965">
        <ele>945.53088378906</ele>
        <time>2015-12-22T19:22:12.000Z</time>
      </trkpt>
      <trkpt lat="45.38858" lon="4.42954">
        <ele>943.21875</ele>
        <time>2015-12-22T19:22:15.000Z</time>
      </trkpt>
      <trkpt lat="45.38857" lon="4.42944">
        <ele>942.81341552734</ele>
        <time>2015-12-22T19:22:18.000Z</time>
      </trkpt>
      <trkpt lat="45.38857" lon="4.42934">
        <ele>942.46179199219</ele>
        <time>2015-12-22T19:22:21.000Z</time>
      </trkpt>
      <trkpt lat="45.38857" lon="4.42927">
        <ele>941.71246337891</ele>
        <time>2015-12-22T19:22:23.000Z</time>
      </trkpt>
      <trkpt lat="45.38856" lon="4.4292">
        <ele>940.18206787109</ele>
        <time>2015-12-22T19:22:25.000Z</time>
      </trkpt>
      <trkpt lat="45.38855" lon="4.4291">
        <ele>941.43713378906</ele>
        <time>2015-12-22T19:22:28.000Z</time>
      </trkpt>
      <trkpt lat="45.3885" lon="4.42897">
        <ele>901.20672607422</ele>
        <time>2015-12-22T19:22:31.000Z</time>
      </trkpt>
      <trkpt lat="45.38859" lon="4.42892">
        <ele>831.92657470703</ele>
        <time>2015-12-22T19:22:33.000Z</time>
      </trkpt>
      <trkpt lat="45.3886" lon="4.42885">
        <ele>858.1005859375</ele>
        <time>2015-12-22T19:22:35.000Z</time>
      </trkpt>
      <trkpt lat="45.38859" lon="4.42876">
        <ele>885.47283935547</ele>
        <time>2015-12-22T19:22:38.000Z</time>
      </trkpt>
      <trkpt lat="45.38859" lon="4.42869">
        <ele>899.84167480469</ele>
        <time>2015-12-22T19:22:40.000Z</time>
      </trkpt>
      <trkpt lat="45.38861" lon="4.42863">
        <ele>910.67291259766</ele>
        <time>2015-12-22T19:22:42.000Z</time>
      </trkpt>
      <trkpt lat="45.38864" lon="4.42857">
        <ele>918.05834960938</ele>
        <time>2015-12-22T19:22:44.000Z</time>
      </trkpt>
      <trkpt lat="45.38867" lon="4.42847">
        <ele>923.60327148438</ele>
        <time>2015-12-22T19:22:47.000Z</time>
      </trkpt>
      <trkpt lat="45.3887" lon="4.42838">
        <ele>926.25616455078</ele>
        <time>2015-12-22T19:22:50.000Z</time>
      </trkpt>
      <trkpt lat="45.38874" lon="4.42831">
        <ele>929.59906005859</ele>
        <time>2015-12-22T19:22:53.000Z</time>
      </trkpt>
      <trkpt lat="45.38876" lon="4.42823">
        <ele>931.75109863281</ele>
        <time>2015-12-22T19:22:56.000Z</time>
      </trkpt>
      <trkpt lat="45.38881" lon="4.42813">
        <ele>932.9951171875</ele>
        <time>2015-12-22T19:22:59.000Z</time>
      </trkpt>
      <trkpt lat="45.38885" lon="4.42809">
        <ele>933.82379150391</ele>
        <time>2015-12-22T19:23:01.000Z</time>
      </trkpt>
      <trkpt lat="45.38887" lon="4.42804">
        <ele>933.99053955078</ele>
        <time>2015-12-22T19:23:03.000Z</time>
      </trkpt>
      <trkpt lat="45.38891" lon="4.42797">
        <ele>936.29693603516</ele>
        <time>2015-12-22T19:23:06.000Z</time>
      </trkpt>
      <trkpt lat="45.38895" lon="4.42789">
        <ele>935.46234130859</ele>
        <time>2015-12-22T19:23:09.000Z</time>
      </trkpt>
      <trkpt lat="45.38897" lon="4.4278">
        <ele>933.89971923828</ele>
        <time>2015-12-22T19:23:12.000Z</time>
      </trkpt>
      <trkpt lat="45.38899" lon="4.42775">
        <ele>933.15948486328</ele>
        <time>2015-12-22T19:23:14.000Z</time>
      </trkpt>
      <trkpt lat="45.38903" lon="4.42766">
        <ele>933.22369384766</ele>
        <time>2015-12-22T19:23:17.000Z</time>
      </trkpt>
      <trkpt lat="45.38905" lon="4.4276">
        <ele>934.04455566406</ele>
        <time>2015-12-22T19:23:19.000Z</time>
      </trkpt>
      <trkpt lat="45.38909" lon="4.42752">
        <ele>936.44860839844</ele>
        <time>2015-12-22T19:23:22.000Z</time>
      </trkpt>
      <trkpt lat="45.38916" lon="4.42744">
        <ele>936.86193847656</ele>
        <time>2015-12-22T19:23:25.000Z</time>
      </trkpt>
      <trkpt lat="45.38919" lon="4.42739">
        <ele>936.23455810547</ele>
        <time>2015-12-22T19:23:27.000Z</time>
      </trkpt>
      <trkpt lat="45.38921" lon="4.4273">
        <ele>936.04992675781</ele>
        <time>2015-12-22T19:23:29.000Z</time>
      </trkpt>
      <trkpt lat="45.38924" lon="4.42718">
        <ele>936.41442871094</ele>
        <time>2015-12-22T19:23:32.000Z</time>
      </trkpt>
      <trkpt lat="45.38926" lon="4.42706">
        <ele>938.31909179688</ele>
        <time>2015-12-22T19:23:35.000Z</time>
      </trkpt>
      <trkpt lat="45.38927" lon="4.42698">
        <ele>939.08203125</ele>
        <time>2015-12-22T19:23:37.000Z</time>
      </trkpt>
      <trkpt lat="45.38929" lon="4.4269">
        <ele>938.24340820312</ele>
        <time>2015-12-22T19:23:39.000Z</time>
      </trkpt>
      <trkpt lat="45.38931" lon="4.42679">
        <ele>936.87078857422</ele>
        <time>2015-12-22T19:23:42.000Z</time>
      </trkpt>
      <trkpt lat="45.38931" lon="4.42672">
        <ele>936.76788330078</ele>
        <time>2015-12-22T19:23:44.000Z</time>
      </trkpt>
      <trkpt lat="45.38931" lon="4.42664">
        <ele>936.32513427734</ele>
        <time>2015-12-22T19:23:46.000Z</time>
      </trkpt>
      <trkpt lat="45.38931" lon="4.42654">
        <ele>934.34484863281</ele>
        <time>2015-12-22T19:23:49.000Z</time>
      </trkpt>
      <trkpt lat="45.38931" lon="4.42648">
        <ele>934.79895019531</ele>
        <time>2015-12-22T19:23:51.000Z</time>
      </trkpt>
      <trkpt lat="45.38929" lon="4.42641">
        <ele>934.89990234375</ele>
        <time>2015-12-22T19:23:53.000Z</time>
      </trkpt>
      <trkpt lat="45.38927" lon="4.4263">
        <ele>934.70690917969</ele>
        <time>2015-12-22T19:23:56.000Z</time>
      </trkpt>
      <trkpt lat="45.38926" lon="4.4262">
        <ele>932.81494140625</ele>
        <time>2015-12-22T19:23:59.000Z</time>
      </trkpt>
      <trkpt lat="45.38925" lon="4.42608">
        <ele>930.85284423828</ele>
        <time>2015-12-22T19:24:02.000Z</time>
      </trkpt>
      <trkpt lat="45.38924" lon="4.426">
        <ele>929.84533691406</ele>
        <time>2015-12-22T19:24:04.000Z</time>
      </trkpt>
      <trkpt lat="45.38924" lon="4.42593">
        <ele>929.24517822266</ele>
        <time>2015-12-22T19:24:06.000Z</time>
      </trkpt>
      <trkpt lat="45.38922" lon="4.42581">
        <ele>927.73590087891</ele>
        <time>2015-12-22T19:24:09.000Z</time>
      </trkpt>
      <trkpt lat="45.3892" lon="4.42574">
        <ele>927.49145507812</ele>
        <time>2015-12-22T19:24:11.000Z</time>
      </trkpt>
      <trkpt lat="45.38919" lon="4.42568">
        <ele>926.5859375</ele>
        <time>2015-12-22T19:24:13.000Z</time>
      </trkpt>
      <trkpt lat="45.38919" lon="4.42559">
        <ele>926.84515380859</ele>
        <time>2015-12-22T19:24:16.000Z</time>
      </trkpt>
      <trkpt lat="45.3892" lon="4.42552">
        <ele>926.4140625</ele>
        <time>2015-12-22T19:24:18.000Z</time>
      </trkpt>
      <trkpt lat="45.38921" lon="4.42545">
        <ele>925.92822265625</ele>
        <time>2015-12-22T19:24:20.000Z</time>
      </trkpt>
      <trkpt lat="45.38921" lon="4.42535">
        <ele>927.46423339844</ele>
        <time>2015-12-22T19:24:23.000Z</time>
      </trkpt>
      <trkpt lat="45.3892" lon="4.42528">
        <ele>929.38977050781</ele>
        <time>2015-12-22T19:24:25.000Z</time>
      </trkpt>
      <trkpt lat="45.38918" lon="4.42516">
        <ele>931.91455078125</ele>
        <time>2015-12-22T19:24:28.000Z</time>
      </trkpt>
      <trkpt lat="45.38917" lon="4.42509">
        <ele>933.15026855469</ele>
        <time>2015-12-22T19:24:30.000Z</time>
      </trkpt>
      <trkpt lat="45.38917" lon="4.42498">
        <ele>933.91613769531</ele>
        <time>2015-12-22T19:24:33.000Z</time>
      </trkpt>
      <trkpt lat="45.38916" lon="4.42486">
        <ele>933.32843017578</ele>
        <time>2015-12-22T19:24:36.000Z</time>
      </trkpt>
      <trkpt lat="45.38916" lon="4.42478">
        <ele>932.75402832031</ele>
        <time>2015-12-22T19:24:38.000Z</time>
      </trkpt>
      <trkpt lat="45.38915" lon="4.42468">
        <ele>933.71118164062</ele>
        <time>2015-12-22T19:24:41.000Z</time>
      </trkpt>
      <trkpt lat="45.38915" lon="4.42457">
        <ele>935.13635253906</ele>
        <time>2015-12-22T19:24:44.000Z</time>
      </trkpt>
      <trkpt lat="45.38916" lon="4.42449">
        <ele>935.9072265625</ele>
        <time>2015-12-22T19:24:46.000Z</time>
      </trkpt>
      <trkpt lat="45.38914" lon="4.42435">
        <ele>936.91235351562</ele>
        <time>2015-12-22T19:24:49.000Z</time>
      </trkpt>
      <trkpt lat="45.38914" lon="4.42426">
        <ele>937.95239257812</ele>
        <time>2015-12-22T19:24:51.000Z</time>
      </trkpt>
      <trkpt lat="45.38913" lon="4.42414">
        <ele>940.10766601562</ele>
        <time>2015-12-22T19:24:54.000Z</time>
      </trkpt>
      <trkpt lat="45.38914" lon="4.42405">
        <ele>941.85217285156</ele>
        <time>2015-12-22T19:24:56.000Z</time>
      </trkpt>
      <trkpt lat="45.38915" lon="4.42397">
        <ele>942.11926269531</ele>
        <time>2015-12-22T19:24:58.000Z</time>
      </trkpt>
      <trkpt lat="45.38918" lon="4.42391">
        <ele>942.6787109375</ele>
        <time>2015-12-22T19:25:00.000Z</time>
      </trkpt>
      <trkpt lat="45.38921" lon="4.42385">
        <ele>943.95721435547</ele>
        <time>2015-12-22T19:25:02.000Z</time>
      </trkpt>
      <trkpt lat="45.38925" lon="4.42377">
        <ele>944.54254150391</ele>
        <time>2015-12-22T19:25:05.000Z</time>
      </trkpt>
      <trkpt lat="45.38928" lon="4.42365">
        <ele>942.28936767578</ele>
        <time>2015-12-22T19:25:08.000Z</time>
      </trkpt>
      <trkpt lat="45.3893" lon="4.42352">
        <ele>940.76947021484</ele>
        <time>2015-12-22T19:25:11.000Z</time>
      </trkpt>
      <trkpt lat="45.38933" lon="4.42345">
        <ele>941.400390625</ele>
        <time>2015-12-22T19:25:13.000Z</time>
      </trkpt>
      <trkpt lat="45.38935" lon="4.42337">
        <ele>942.76391601562</ele>
        <time>2015-12-22T19:25:15.000Z</time>
      </trkpt>
      <trkpt lat="45.38936" lon="4.42323">
        <ele>942.34857177734</ele>
        <time>2015-12-22T19:25:18.000Z</time>
      </trkpt>
      <trkpt lat="45.38937" lon="4.42316">
        <ele>941.83679199219</ele>
        <time>2015-12-22T19:25:20.000Z</time>
      </trkpt>
      <trkpt lat="45.3894" lon="4.4231">
        <ele>942.38537597656</ele>
        <time>2015-12-22T19:25:22.000Z</time>
      </trkpt>
      <trkpt lat="45.38944" lon="4.42301">
        <ele>944.00213623047</ele>
        <time>2015-12-22T19:25:25.000Z</time>
      </trkpt>
      <trkpt lat="45.38946" lon="4.42296">
        <ele>944.07678222656</ele>
        <time>2015-12-22T19:25:27.000Z</time>
      </trkpt>
      <trkpt lat="45.3895" lon="4.42284">
        <ele>942.22509765625</ele>
        <time>2015-12-22T19:25:30.000Z</time>
      </trkpt>
      <trkpt lat="45.38952" lon="4.42276">
        <ele>942.01098632812</ele>
        <time>2015-12-22T19:25:32.000Z</time>
      </trkpt>
      <trkpt lat="45.38954" lon="4.42262">
        <ele>943.80474853516</ele>
        <time>2015-12-22T19:25:35.000Z</time>
      </trkpt>
      <trkpt lat="45.38956" lon="4.42256">
        <ele>944.07171630859</ele>
        <time>2015-12-22T19:25:37.000Z</time>
      </trkpt>
      <trkpt lat="45.38958" lon="4.4225">
        <ele>942.51477050781</ele>
        <time>2015-12-22T19:25:39.000Z</time>
      </trkpt>
      <trkpt lat="45.38959" lon="4.42242">
        <ele>940.64807128906</ele>
        <time>2015-12-22T19:25:41.000Z</time>
      </trkpt>
      <trkpt lat="45.38962" lon="4.42232">
        <ele>937.92193603516</ele>
        <time>2015-12-22T19:25:44.000Z</time>
      </trkpt>
      <trkpt lat="45.38963" lon="4.42217">
        <ele>934.65185546875</ele>
        <time>2015-12-22T19:25:47.000Z</time>
      </trkpt>
      <trkpt lat="45.38964" lon="4.42208">
        <ele>933.17150878906</ele>
        <time>2015-12-22T19:25:49.000Z</time>
      </trkpt>
      <trkpt lat="45.38967" lon="4.42198">
        <ele>933.36138916016</ele>
        <time>2015-12-22T19:25:52.000Z</time>
      </trkpt>
      <trkpt lat="45.38973" lon="4.42194">
        <ele>935.50268554688</ele>
        <time>2015-12-22T19:25:54.000Z</time>
      </trkpt>
      <trkpt lat="45.38978" lon="4.42185">
        <ele>937.78350830078</ele>
        <time>2015-12-22T19:25:57.000Z</time>
      </trkpt>
      <trkpt lat="45.38979" lon="4.42177">
        <ele>938.11468505859</ele>
        <time>2015-12-22T19:25:59.000Z</time>
      </trkpt>
      <trkpt lat="45.38981" lon="4.42162">
        <ele>934.67120361328</ele>
        <time>2015-12-22T19:26:02.000Z</time>
      </trkpt>
      <trkpt lat="45.38982" lon="4.42154">
        <ele>933.27856445312</ele>
        <time>2015-12-22T19:26:04.000Z</time>
      </trkpt>
      <trkpt lat="45.38985" lon="4.42146">
        <ele>932.03631591797</ele>
        <time>2015-12-22T19:26:06.000Z</time>
      </trkpt>
      <trkpt lat="45.38988" lon="4.42135">
        <ele>932.87847900391</ele>
        <time>2015-12-22T19:26:09.000Z</time>
      </trkpt>
      <trkpt lat="45.38991" lon="4.42123">
        <ele>932.73980712891</ele>
        <time>2015-12-22T19:26:12.000Z</time>
      </trkpt>
      <trkpt lat="45.38994" lon="4.42115">
        <ele>933.38928222656</ele>
        <time>2015-12-22T19:26:14.000Z</time>
      </trkpt>
      <trkpt lat="45.38996" lon="4.42108">
        <ele>935.1201171875</ele>
        <time>2015-12-22T19:26:16.000Z</time>
      </trkpt>
      <trkpt lat="45.38997" lon="4.42102">
        <ele>934.98394775391</ele>
        <time>2015-12-22T19:26:18.000Z</time>
      </trkpt>
      <trkpt lat="45.38998" lon="4.42095">
        <ele>932.45855712891</ele>
        <time>2015-12-22T19:26:20.000Z</time>
      </trkpt>
      <trkpt lat="45.38999" lon="4.42085">
        <ele>930.15246582031</ele>
        <time>2015-12-22T19:26:23.000Z</time>
      </trkpt>
      <trkpt lat="45.39" lon="4.42078">
        <ele>928.88690185547</ele>
        <time>2015-12-22T19:26:25.000Z</time>
      </trkpt>
      <trkpt lat="45.39002" lon="4.42067">
        <ele>927.86309814453</ele>
        <time>2015-12-22T19:26:28.000Z</time>
      </trkpt>
      <trkpt lat="45.39006" lon="4.42057">
        <ele>927.71228027344</ele>
        <time>2015-12-22T19:26:31.000Z</time>
      </trkpt>
      <trkpt lat="45.39009" lon="4.42046">
        <ele>925.93682861328</ele>
        <time>2015-12-22T19:26:34.000Z</time>
      </trkpt>
      <trkpt lat="45.39013" lon="4.42037">
        <ele>925.90246582031</ele>
        <time>2015-12-22T19:26:37.000Z</time>
      </trkpt>
      <trkpt lat="45.39016" lon="4.4203">
        <ele>926.06463623047</ele>
        <time>2015-12-22T19:26:39.000Z</time>
      </trkpt>
      <trkpt lat="45.39019" lon="4.42016">
        <ele>925.49456787109</ele>
        <time>2015-12-22T19:26:42.000Z</time>
      </trkpt>
      <trkpt lat="45.39021" lon="4.42007">
        <ele>925.12158203125</ele>
        <time>2015-12-22T19:26:44.000Z</time>
      </trkpt>
      <trkpt lat="45.39025" lon="4.41996">
        <ele>923.76245117188</ele>
        <time>2015-12-22T19:26:47.000Z</time>
      </trkpt>
      <trkpt lat="45.39027" lon="4.4199">
        <ele>922.84631347656</ele>
        <time>2015-12-22T19:26:49.000Z</time>
      </trkpt>
      <trkpt lat="45.39029" lon="4.41982">
        <ele>922.13775634766</ele>
        <time>2015-12-22T19:26:51.000Z</time>
      </trkpt>
      <trkpt lat="45.39031" lon="4.41974">
        <ele>921.56463623047</ele>
        <time>2015-12-22T19:26:53.000Z</time>
      </trkpt>
      <trkpt lat="45.39035" lon="4.41963">
        <ele>920.974609375</ele>
        <time>2015-12-22T19:26:56.000Z</time>
      </trkpt>
      <trkpt lat="45.39038" lon="4.41956">
        <ele>920.64916992188</ele>
        <time>2015-12-22T19:26:58.000Z</time>
      </trkpt>
      <trkpt lat="45.39041" lon="4.4195">
        <ele>920.94671630859</ele>
        <time>2015-12-22T19:27:00.000Z</time>
      </trkpt>
      <trkpt lat="45.39043" lon="4.41944">
        <ele>920.63958740234</ele>
        <time>2015-12-22T19:27:02.000Z</time>
      </trkpt>
      <trkpt lat="45.39046" lon="4.41935">
        <ele>919.26904296875</ele>
        <time>2015-12-22T19:27:05.000Z</time>
      </trkpt>
      <trkpt lat="45.39051" lon="4.41924">
        <ele>917.47961425781</ele>
        <time>2015-12-22T19:27:08.000Z</time>
      </trkpt>
      <trkpt lat="45.39054" lon="4.41918">
        <ele>916.70092773438</ele>
        <time>2015-12-22T19:27:10.000Z</time>
      </trkpt>
      <trkpt lat="45.39059" lon="4.41908">
        <ele>915.28991699219</ele>
        <time>2015-12-22T19:27:13.000Z</time>
      </trkpt>
      <trkpt lat="45.39062" lon="4.41901">
        <ele>914.37414550781</ele>
        <time>2015-12-22T19:27:15.000Z</time>
      </trkpt>
      <trkpt lat="45.39066" lon="4.41895">
        <ele>913.99005126953</ele>
        <time>2015-12-22T19:27:17.000Z</time>
      </trkpt>
      <trkpt lat="45.39071" lon="4.41887">
        <ele>909.89404296875</ele>
        <time>2015-12-22T19:27:20.000Z</time>
      </trkpt>
      <trkpt lat="45.39077" lon="4.41878">
        <ele>908.68243408203</ele>
        <time>2015-12-22T19:27:23.000Z</time>
      </trkpt>
      <trkpt lat="45.3908" lon="4.41873">
        <ele>909.01544189453</ele>
        <time>2015-12-22T19:27:25.000Z</time>
      </trkpt>
      <trkpt lat="45.39086" lon="4.41867">
        <ele>908.26837158203</ele>
        <time>2015-12-22T19:27:28.000Z</time>
      </trkpt>
      <trkpt lat="45.3909" lon="4.41863">
        <ele>907.74639892578</ele>
        <time>2015-12-22T19:27:30.000Z</time>
      </trkpt>
      <trkpt lat="45.39098" lon="4.41856">
        <ele>908.65417480469</ele>
        <time>2015-12-22T19:27:33.000Z</time>
      </trkpt>
      <trkpt lat="45.39104" lon="4.41848">
        <ele>910.17999267578</ele>
        <time>2015-12-22T19:27:36.000Z</time>
      </trkpt>
      <trkpt lat="45.39109" lon="4.41844">
        <ele>910.15289306641</ele>
        <time>2015-12-22T19:27:38.000Z</time>
      </trkpt>
      <trkpt lat="45.3912" lon="4.41842">
        <ele>908.76257324219</ele>
        <time>2015-12-22T19:27:41.000Z</time>
      </trkpt>
      <trkpt lat="45.39128" lon="4.41834">
        <ele>921.3955078125</ele>
        <time>2015-12-22T19:27:44.000Z</time>
      </trkpt>
      <trkpt lat="45.39129" lon="4.41827">
        <ele>920.99523925781</ele>
        <time>2015-12-22T19:27:46.000Z</time>
      </trkpt>
      <trkpt lat="45.3913" lon="4.41825">
        <ele>920.02972412109</ele>
        <time>2015-12-22T19:27:48.000Z</time>
      </trkpt>
      <trkpt lat="45.39132" lon="4.41818">
        <ele>917.21435546875</ele>
        <time>2015-12-22T19:27:50.000Z</time>
      </trkpt>
      <trkpt lat="45.39137" lon="4.41812">
        <ele>912.54321289062</ele>
        <time>2015-12-22T19:27:52.000Z</time>
      </trkpt>
      <trkpt lat="45.39138" lon="4.41806">
        <ele>910.39477539062</ele>
        <time>2015-12-22T19:27:54.000Z</time>
      </trkpt>
      <trkpt lat="45.39141" lon="4.41794">
        <ele>915.83361816406</ele>
        <time>2015-12-22T19:27:57.000Z</time>
      </trkpt>
      <trkpt lat="45.39144" lon="4.41785">
        <ele>917.15844726562</ele>
        <time>2015-12-22T19:28:00.000Z</time>
      </trkpt>
      <trkpt lat="45.39146" lon="4.41779">
        <ele>915.82922363281</ele>
        <time>2015-12-22T19:28:02.000Z</time>
      </trkpt>
      <trkpt lat="45.39152" lon="4.41772">
        <ele>913.20989990234</ele>
        <time>2015-12-22T19:28:05.000Z</time>
      </trkpt>
      <trkpt lat="45.39155" lon="4.41765">
        <ele>911.5810546875</ele>
        <time>2015-12-22T19:28:08.000Z</time>
      </trkpt>
      <trkpt lat="45.39157" lon="4.41758">
        <ele>911.05645751953</ele>
        <time>2015-12-22T19:28:10.000Z</time>
      </trkpt>
      <trkpt lat="45.39164" lon="4.41747">
        <ele>915.6591796875</ele>
        <time>2015-12-22T19:28:13.000Z</time>
      </trkpt>
      <trkpt lat="45.39169" lon="4.41735">
        <ele>914.33709716797</ele>
        <time>2015-12-22T19:28:16.000Z</time>
      </trkpt>
      <trkpt lat="45.39172" lon="4.41726">
        <ele>914.52331542969</ele>
        <time>2015-12-22T19:28:18.000Z</time>
      </trkpt>
      <trkpt lat="45.39172" lon="4.41716">
        <ele>913.90362548828</ele>
        <time>2015-12-22T19:28:20.000Z</time>
      </trkpt>
      <trkpt lat="45.39174" lon="4.41703">
        <ele>915.91748046875</ele>
        <time>2015-12-22T19:28:23.000Z</time>
      </trkpt>
      <trkpt lat="45.39175" lon="4.41693">
        <ele>916.00024414062</ele>
        <time>2015-12-22T19:28:26.000Z</time>
      </trkpt>
      <trkpt lat="45.39176" lon="4.41684">
        <ele>915.48675537109</ele>
        <time>2015-12-22T19:28:28.000Z</time>
      </trkpt>
      <trkpt lat="45.3918" lon="4.4167">
        <ele>916.91351318359</ele>
        <time>2015-12-22T19:28:31.000Z</time>
      </trkpt>
      <trkpt lat="45.39179" lon="4.41662">
        <ele>916.27844238281</ele>
        <time>2015-12-22T19:28:33.000Z</time>
      </trkpt>
      <trkpt lat="45.39181" lon="4.41652">
        <ele>914.79974365234</ele>
        <time>2015-12-22T19:28:35.000Z</time>
      </trkpt>
      <trkpt lat="45.3918" lon="4.41636">
        <ele>910.92346191406</ele>
        <time>2015-12-22T19:28:38.000Z</time>
      </trkpt>
      <trkpt lat="45.39179" lon="4.41624">
        <ele>908.42340087891</ele>
        <time>2015-12-22T19:28:41.000Z</time>
      </trkpt>
      <trkpt lat="45.39181" lon="4.41613">
        <ele>909.65490722656</ele>
        <time>2015-12-22T19:28:44.000Z</time>
      </trkpt>
      <trkpt lat="45.39183" lon="4.41601">
        <ele>910.35986328125</ele>
        <time>2015-12-22T19:28:47.000Z</time>
      </trkpt>
      <trkpt lat="45.39186" lon="4.41591">
        <ele>910.2900390625</ele>
        <time>2015-12-22T19:28:50.000Z</time>
      </trkpt>
      <trkpt lat="45.39189" lon="4.41584">
        <ele>909.42614746094</ele>
        <time>2015-12-22T19:28:52.000Z</time>
      </trkpt>
      <trkpt lat="45.39191" lon="4.41576">
        <ele>907.80743408203</ele>
        <time>2015-12-22T19:28:54.000Z</time>
      </trkpt>
      <trkpt lat="45.39194" lon="4.41565">
        <ele>906.525390625</ele>
        <time>2015-12-22T19:28:57.000Z</time>
      </trkpt>
      <trkpt lat="45.39199" lon="4.41554">
        <ele>906.48254394531</ele>
        <time>2015-12-22T19:29:00.000Z</time>
      </trkpt>
      <trkpt lat="45.39201" lon="4.41546">
        <ele>906.77087402344</ele>
        <time>2015-12-22T19:29:02.000Z</time>
      </trkpt>
      <trkpt lat="45.39203" lon="4.41539">
        <ele>907.19104003906</ele>
        <time>2015-12-22T19:29:04.000Z</time>
      </trkpt>
      <trkpt lat="45.39205" lon="4.41529">
        <ele>908.25329589844</ele>
        <time>2015-12-22T19:29:07.000Z</time>
      </trkpt>
      <trkpt lat="45.39206" lon="4.41516">
        <ele>907.13757324219</ele>
        <time>2015-12-22T19:29:10.000Z</time>
      </trkpt>
      <trkpt lat="45.39208" lon="4.41506">
        <ele>905.22399902344</ele>
        <time>2015-12-22T19:29:13.000Z</time>
      </trkpt>
      <trkpt lat="45.39209" lon="4.41497">
        <ele>904.29730224609</ele>
        <time>2015-12-22T19:29:15.000Z</time>
      </trkpt>
      <trkpt lat="45.39209" lon="4.41488">
        <ele>903.78765869141</ele>
        <time>2015-12-22T19:29:17.000Z</time>
      </trkpt>
      <trkpt lat="45.3921" lon="4.41476">
        <ele>903.00610351562</ele>
        <time>2015-12-22T19:29:20.000Z</time>
      </trkpt>
      <trkpt lat="45.39212" lon="4.41465">
        <ele>903.3896484375</ele>
        <time>2015-12-22T19:29:23.000Z</time>
      </trkpt>
      <trkpt lat="45.39214" lon="4.41457">
        <ele>903.88201904297</ele>
        <time>2015-12-22T19:29:25.000Z</time>
      </trkpt>
      <trkpt lat="45.39219" lon="4.41446">
        <ele>903.38513183594</ele>
        <time>2015-12-22T19:29:28.000Z</time>
      </trkpt>
      <trkpt lat="45.39223" lon="4.41435">
        <ele>903.23333740234</ele>
        <time>2015-12-22T19:29:31.000Z</time>
      </trkpt>
      <trkpt lat="45.39226" lon="4.41425">
        <ele>905.20245361328</ele>
        <time>2015-12-22T19:29:34.000Z</time>
      </trkpt>
      <trkpt lat="45.39228" lon="4.41418">
        <ele>906.60845947266</ele>
        <time>2015-12-22T19:29:36.000Z</time>
      </trkpt>
      <trkpt lat="45.39229" lon="4.41409">
        <ele>914.24255371094</ele>
        <time>2015-12-22T19:29:39.000Z</time>
      </trkpt>
      <trkpt lat="45.3923" lon="4.414">
        <ele>912.64715576172</ele>
        <time>2015-12-22T19:29:41.000Z</time>
      </trkpt>
      <trkpt lat="45.39232" lon="4.41389">
        <ele>910.14190673828</ele>
        <time>2015-12-22T19:29:44.000Z</time>
      </trkpt>
      <trkpt lat="45.39234" lon="4.41377">
        <ele>908.17810058594</ele>
        <time>2015-12-22T19:29:47.000Z</time>
      </trkpt>
      <trkpt lat="45.39231" lon="4.41364">
        <ele>905.75054931641</ele>
        <time>2015-12-22T19:29:50.000Z</time>
      </trkpt>
      <trkpt lat="45.3923" lon="4.41357">
        <ele>905.70092773438</ele>
        <time>2015-12-22T19:29:52.000Z</time>
      </trkpt>
      <trkpt lat="45.39228" lon="4.41351">
        <ele>906.89630126953</ele>
        <time>2015-12-22T19:29:54.000Z</time>
      </trkpt>
      <trkpt lat="45.39228" lon="4.41341">
        <ele>908.74444580078</ele>
        <time>2015-12-22T19:29:57.000Z</time>
      </trkpt>
      <trkpt lat="45.39228" lon="4.41335">
        <ele>909.24963378906</ele>
        <time>2015-12-22T19:29:59.000Z</time>
      </trkpt>
      <trkpt lat="45.39227" lon="4.41327">
        <ele>907.37756347656</ele>
        <time>2015-12-22T19:30:01.000Z</time>
      </trkpt>
      <trkpt lat="45.39226" lon="4.41319">
        <ele>905.931640625</ele>
        <time>2015-12-22T19:30:03.000Z</time>
      </trkpt>
      <trkpt lat="45.39226" lon="4.41309">
        <ele>905.28466796875</ele>
        <time>2015-12-22T19:30:06.000Z</time>
      </trkpt>
      <trkpt lat="45.39224" lon="4.41298">
        <ele>902.55993652344</ele>
        <time>2015-12-22T19:30:09.000Z</time>
      </trkpt>
      <trkpt lat="45.39223" lon="4.41289">
        <ele>901.20806884766</ele>
        <time>2015-12-22T19:30:12.000Z</time>
      </trkpt>
      <trkpt lat="45.39223" lon="4.41278">
        <ele>901.70819091797</ele>
        <time>2015-12-22T19:30:15.000Z</time>
      </trkpt>
      <trkpt lat="45.39221" lon="4.41271">
        <ele>901.10406494141</ele>
        <time>2015-12-22T19:30:17.000Z</time>
      </trkpt>
      <trkpt lat="45.39218" lon="4.4126">
        <ele>899.48712158203</ele>
        <time>2015-12-22T19:30:20.000Z</time>
      </trkpt>
      <trkpt lat="45.39215" lon="4.41253">
        <ele>898.29876708984</ele>
        <time>2015-12-22T19:30:22.000Z</time>
      </trkpt>
      <trkpt lat="45.39214" lon="4.41248">
        <ele>897.74261474609</ele>
        <time>2015-12-22T19:30:24.000Z</time>
      </trkpt>
      <trkpt lat="45.39213" lon="4.41243">
        <ele>897.51220703125</ele>
        <time>2015-12-22T19:30:26.000Z</time>
      </trkpt>
      <trkpt lat="45.39209" lon="4.41235">
        <ele>895.37536621094</ele>
        <time>2015-12-22T19:30:29.000Z</time>
      </trkpt>
      <trkpt lat="45.39206" lon="4.4123">
        <ele>894.56060791016</ele>
        <time>2015-12-22T19:30:31.000Z</time>
      </trkpt>
      <trkpt lat="45.39201" lon="4.4122">
        <ele>895.25244140625</ele>
        <time>2015-12-22T19:30:34.000Z</time>
      </trkpt>
      <trkpt lat="45.39198" lon="4.41215">
        <ele>896.25537109375</ele>
        <time>2015-12-22T19:30:36.000Z</time>
      </trkpt>
      <trkpt lat="45.39193" lon="4.41207">
        <ele>895.31475830078</ele>
        <time>2015-12-22T19:30:39.000Z</time>
      </trkpt>
      <trkpt lat="45.39191" lon="4.41202">
        <ele>895.65405273438</ele>
        <time>2015-12-22T19:30:41.000Z</time>
      </trkpt>
      <trkpt lat="45.39187" lon="4.41193">
        <ele>896.49731445312</ele>
        <time>2015-12-22T19:30:44.000Z</time>
      </trkpt>
      <trkpt lat="45.39185" lon="4.41188">
        <ele>896.55407714844</ele>
        <time>2015-12-22T19:30:46.000Z</time>
      </trkpt>
      <trkpt lat="45.39182" lon="4.41181">
        <ele>895.1796875</ele>
        <time>2015-12-22T19:30:49.000Z</time>
      </trkpt>
      <trkpt lat="45.39176" lon="4.41172">
        <ele>895.822265625</ele>
        <time>2015-12-22T19:30:52.000Z</time>
      </trkpt>
      <trkpt lat="45.39172" lon="4.41164">
        <ele>897.72552490234</ele>
        <time>2015-12-22T19:30:55.000Z</time>
      </trkpt>
      <trkpt lat="45.39169" lon="4.41156">
        <ele>897.8876953125</ele>
        <time>2015-12-22T19:30:58.000Z</time>
      </trkpt>
      <trkpt lat="45.39165" lon="4.41146">
        <ele>898.84301757812</ele>
        <time>2015-12-22T19:31:01.000Z</time>
      </trkpt>
      <trkpt lat="45.39161" lon="4.41135">
        <ele>901.94390869141</ele>
        <time>2015-12-22T19:31:04.000Z</time>
      </trkpt>
      <trkpt lat="45.39158" lon="4.41129">
        <ele>903.06872558594</ele>
        <time>2015-12-22T19:31:06.000Z</time>
      </trkpt>
      <trkpt lat="45.39155" lon="4.41123">
        <ele>904.61413574219</ele>
        <time>2015-12-22T19:31:08.000Z</time>
      </trkpt>
      <trkpt lat="45.39151" lon="4.41114">
        <ele>905.01843261719</ele>
        <time>2015-12-22T19:31:11.000Z</time>
      </trkpt>
      <trkpt lat="45.3915" lon="4.41103">
        <ele>905.52844238281</ele>
        <time>2015-12-22T19:31:14.000Z</time>
      </trkpt>
      <trkpt lat="45.39149" lon="4.41093">
        <ele>907.39782714844</ele>
        <time>2015-12-22T19:31:17.000Z</time>
      </trkpt>
      <trkpt lat="45.39148" lon="4.41082">
        <ele>907.69744873047</ele>
        <time>2015-12-22T19:31:20.000Z</time>
      </trkpt>
      <trkpt lat="45.39145" lon="4.41075">
        <ele>906.98852539062</ele>
        <time>2015-12-22T19:31:22.000Z</time>
      </trkpt>
      <trkpt lat="45.39141" lon="4.41065">
        <ele>903.58453369141</ele>
        <time>2015-12-22T19:31:25.000Z</time>
      </trkpt>
      <trkpt lat="45.39139" lon="4.41057">
        <ele>902.34503173828</ele>
        <time>2015-12-22T19:31:27.000Z</time>
      </trkpt>
      <trkpt lat="45.39135" lon="4.41046">
        <ele>901.53210449219</ele>
        <time>2015-12-22T19:31:30.000Z</time>
      </trkpt>
      <trkpt lat="45.39133" lon="4.4104">
        <ele>900.53033447266</ele>
        <time>2015-12-22T19:31:32.000Z</time>
      </trkpt>
      <trkpt lat="45.3913" lon="4.41036">
        <ele>898.70538330078</ele>
        <time>2015-12-22T19:31:34.000Z</time>
      </trkpt>
      <trkpt lat="45.39127" lon="4.41025">
        <ele>899.67517089844</ele>
        <time>2015-12-22T19:31:37.000Z</time>
      </trkpt>
      <trkpt lat="45.39125" lon="4.41013">
        <ele>901.71911621094</ele>
        <time>2015-12-22T19:31:40.000Z</time>
      </trkpt>
      <trkpt lat="45.39124" lon="4.41004">
        <ele>901.81762695312</ele>
        <time>2015-12-22T19:31:43.000Z</time>
      </trkpt>
      <trkpt lat="45.3912" lon="4.40997">
        <ele>902.65850830078</ele>
        <time>2015-12-22T19:31:45.000Z</time>
      </trkpt>
      <trkpt lat="45.39118" lon="4.4099">
        <ele>902.375</ele>
        <time>2015-12-22T19:31:47.000Z</time>
      </trkpt>
      <trkpt lat="45.39115" lon="4.40979">
        <ele>900.21490478516</ele>
        <time>2015-12-22T19:31:50.000Z</time>
      </trkpt>
      <trkpt lat="45.39112" lon="4.40973">
        <ele>897.58410644531</ele>
        <time>2015-12-22T19:31:52.000Z</time>
      </trkpt>
      <trkpt lat="45.39108" lon="4.40967">
        <ele>894.63079833984</ele>
        <time>2015-12-22T19:31:54.000Z</time>
      </trkpt>
      <trkpt lat="45.39103" lon="4.40956">
        <ele>893.66693115234</ele>
        <time>2015-12-22T19:31:57.000Z</time>
      </trkpt>
      <trkpt lat="45.39101" lon="4.40948">
        <ele>894.18029785156</ele>
        <time>2015-12-22T19:31:59.000Z</time>
      </trkpt>
      <trkpt lat="45.39094" lon="4.40939">
        <ele>895.09875488281</ele>
        <time>2015-12-22T19:32:02.000Z</time>
      </trkpt>
      <trkpt lat="45.39087" lon="4.4093">
        <ele>894.28448486328</ele>
        <time>2015-12-22T19:32:05.000Z</time>
      </trkpt>
      <trkpt lat="45.39081" lon="4.40922">
        <ele>894.67919921875</ele>
        <time>2015-12-22T19:32:08.000Z</time>
      </trkpt>
      <trkpt lat="45.39075" lon="4.40916">
        <ele>894.98077392578</ele>
        <time>2015-12-22T19:32:10.000Z</time>
      </trkpt>
      <trkpt lat="45.39071" lon="4.40911">
        <ele>894.20239257812</ele>
        <time>2015-12-22T19:32:12.000Z</time>
      </trkpt>
      <trkpt lat="45.39065" lon="4.40902">
        <ele>891.76544189453</ele>
        <time>2015-12-22T19:32:15.000Z</time>
      </trkpt>
      <trkpt lat="45.39061" lon="4.40897">
        <ele>891.17639160156</ele>
        <time>2015-12-22T19:32:17.000Z</time>
      </trkpt>
      <trkpt lat="45.39054" lon="4.40888">
        <ele>894.15252685547</ele>
        <time>2015-12-22T19:32:20.000Z</time>
      </trkpt>
      <trkpt lat="45.39048" lon="4.40879">
        <ele>895.50262451172</ele>
        <time>2015-12-22T19:32:23.000Z</time>
      </trkpt>
      <trkpt lat="45.39043" lon="4.4087">
        <ele>896.05108642578</ele>
        <time>2015-12-22T19:32:26.000Z</time>
      </trkpt>
      <trkpt lat="45.39041" lon="4.40865">
        <ele>897.03057861328</ele>
        <time>2015-12-22T19:32:28.000Z</time>
      </trkpt>
      <trkpt lat="45.39037" lon="4.40858">
        <ele>896.80737304688</ele>
        <time>2015-12-22T19:32:30.000Z</time>
      </trkpt>
      <trkpt lat="45.39031" lon="4.40849">
        <ele>894.11676025391</ele>
        <time>2015-12-22T19:32:33.000Z</time>
      </trkpt>
      <trkpt lat="45.39027" lon="4.40844">
        <ele>894.57647705078</ele>
        <time>2015-12-22T19:32:35.000Z</time>
      </trkpt>
      <trkpt lat="45.39022" lon="4.40836">
        <ele>895.90686035156</ele>
        <time>2015-12-22T19:32:38.000Z</time>
      </trkpt>
      <trkpt lat="45.39019" lon="4.4083">
        <ele>895.38000488281</ele>
        <time>2015-12-22T19:32:40.000Z</time>
      </trkpt>
      <trkpt lat="45.39015" lon="4.40825">
        <ele>894.89544677734</ele>
        <time>2015-12-22T19:32:42.000Z</time>
      </trkpt>
      <trkpt lat="45.39012" lon="4.40819">
        <ele>895.30712890625</ele>
        <time>2015-12-22T19:32:44.000Z</time>
      </trkpt>
      <trkpt lat="45.39007" lon="4.40807">
        <ele>893.93762207031</ele>
        <time>2015-12-22T19:32:47.000Z</time>
      </trkpt>
      <trkpt lat="45.39004" lon="4.40797">
        <ele>892.29077148438</ele>
        <time>2015-12-22T19:32:50.000Z</time>
      </trkpt>
      <trkpt lat="45.39001" lon="4.40791">
        <ele>892.318359375</ele>
        <time>2015-12-22T19:32:52.000Z</time>
      </trkpt>
      <trkpt lat="45.38998" lon="4.40785">
        <ele>892.81707763672</ele>
        <time>2015-12-22T19:32:54.000Z</time>
      </trkpt>
      <trkpt lat="45.38996" lon="4.40778">
        <ele>892.24438476562</ele>
        <time>2015-12-22T19:32:56.000Z</time>
      </trkpt>
      <trkpt lat="45.38992" lon="4.40767">
        <ele>893.02600097656</ele>
        <time>2015-12-22T19:32:59.000Z</time>
      </trkpt>
      <trkpt lat="45.3899" lon="4.4076">
        <ele>893.3837890625</ele>
        <time>2015-12-22T19:33:01.000Z</time>
      </trkpt>
      <trkpt lat="45.38988" lon="4.40753">
        <ele>893.158203125</ele>
        <time>2015-12-22T19:33:03.000Z</time>
      </trkpt>
      <trkpt lat="45.38986" lon="4.40743">
        <ele>894.49951171875</ele>
        <time>2015-12-22T19:33:06.000Z</time>
      </trkpt>
      <trkpt lat="45.38984" lon="4.40731">
        <ele>895.32299804688</ele>
        <time>2015-12-22T19:33:09.000Z</time>
      </trkpt>
      <trkpt lat="45.38983" lon="4.40722">
        <ele>893.99847412109</ele>
        <time>2015-12-22T19:33:11.000Z</time>
      </trkpt>
      <trkpt lat="45.38982" lon="4.40714">
        <ele>892.47943115234</ele>
        <time>2015-12-22T19:33:13.000Z</time>
      </trkpt>
      <trkpt lat="45.3898" lon="4.40703">
        <ele>891.21881103516</ele>
        <time>2015-12-22T19:33:16.000Z</time>
      </trkpt>
      <trkpt lat="45.3898" lon="4.40693">
        <ele>890.35833740234</ele>
        <time>2015-12-22T19:33:19.000Z</time>
      </trkpt>
      <trkpt lat="45.38982" lon="4.4068">
        <ele>890.56677246094</ele>
        <time>2015-12-22T19:33:22.000Z</time>
      </trkpt>
      <trkpt lat="45.38984" lon="4.40668">
        <ele>891.63739013672</ele>
        <time>2015-12-22T19:33:25.000Z</time>
      </trkpt>
      <trkpt lat="45.38987" lon="4.40661">
        <ele>892.40551757812</ele>
        <time>2015-12-22T19:33:27.000Z</time>
      </trkpt>
      <trkpt lat="45.38989" lon="4.40653">
        <ele>892.14178466797</ele>
        <time>2015-12-22T19:33:29.000Z</time>
      </trkpt>
      <trkpt lat="45.3899" lon="4.40646">
        <ele>890.97894287109</ele>
        <time>2015-12-22T19:33:31.000Z</time>
      </trkpt>
      <trkpt lat="45.38991" lon="4.4064">
        <ele>889.86090087891</ele>
        <time>2015-12-22T19:33:33.000Z</time>
      </trkpt>
      <trkpt lat="45.38995" lon="4.40631">
        <ele>889.95330810547</ele>
        <time>2015-12-22T19:33:36.000Z</time>
      </trkpt>
      <trkpt lat="45.38999" lon="4.40624">
        <ele>889.2646484375</ele>
        <time>2015-12-22T19:33:38.000Z</time>
      </trkpt>
      <trkpt lat="45.39001" lon="4.40617">
        <ele>888.02233886719</ele>
        <time>2015-12-22T19:33:40.000Z</time>
      </trkpt>
      <trkpt lat="45.39004" lon="4.40607">
        <ele>886.912109375</ele>
        <time>2015-12-22T19:33:43.000Z</time>
      </trkpt>
      <trkpt lat="45.39009" lon="4.40595">
        <ele>888.64404296875</ele>
        <time>2015-12-22T19:33:46.000Z</time>
      </trkpt>
      <trkpt lat="45.39012" lon="4.40586">
        <ele>888.30413818359</ele>
        <time>2015-12-22T19:33:48.000Z</time>
      </trkpt>
      <trkpt lat="45.39015" lon="4.40575">
        <ele>886.759765625</ele>
        <time>2015-12-22T19:33:51.000Z</time>
      </trkpt>
      <trkpt lat="45.3902" lon="4.40565">
        <ele>886.9609375</ele>
        <time>2015-12-22T19:33:54.000Z</time>
      </trkpt>
      <trkpt lat="45.39022" lon="4.40558">
        <ele>887.54455566406</ele>
        <time>2015-12-22T19:33:56.000Z</time>
      </trkpt>
      <trkpt lat="45.39025" lon="4.40546">
        <ele>887.52258300781</ele>
        <time>2015-12-22T19:33:59.000Z</time>
      </trkpt>
      <trkpt lat="45.39031" lon="4.40536">
        <ele>886.31658935547</ele>
        <time>2015-12-22T19:34:02.000Z</time>
      </trkpt>
      <trkpt lat="45.39032" lon="4.40526">
        <ele>884.57086181641</ele>
        <time>2015-12-22T19:34:04.000Z</time>
      </trkpt>
      <trkpt lat="45.39039" lon="4.40518">
        <ele>883.08477783203</ele>
        <time>2015-12-22T19:34:07.000Z</time>
      </trkpt>
      <trkpt lat="45.39041" lon="4.40511">
        <ele>881.9658203125</ele>
        <time>2015-12-22T19:34:09.000Z</time>
      </trkpt>
      <trkpt lat="45.39045" lon="4.40507">
        <ele>881.13946533203</ele>
        <time>2015-12-22T19:34:11.000Z</time>
      </trkpt>
      <trkpt lat="45.39052" lon="4.40503">
        <ele>880.90148925781</ele>
        <time>2015-12-22T19:34:14.000Z</time>
      </trkpt>
      <trkpt lat="45.39058" lon="4.405">
        <ele>883.71325683594</ele>
        <time>2015-12-22T19:34:16.000Z</time>
      </trkpt>
      <trkpt lat="45.39067" lon="4.40492">
        <ele>885.529296875</ele>
        <time>2015-12-22T19:34:19.000Z</time>
      </trkpt>
      <trkpt lat="45.39074" lon="4.40486">
        <ele>885.22906494141</ele>
        <time>2015-12-22T19:34:21.000Z</time>
      </trkpt>
      <trkpt lat="45.39081" lon="4.40476">
        <ele>886.73126220703</ele>
        <time>2015-12-22T19:34:24.000Z</time>
      </trkpt>
      <trkpt lat="45.39087" lon="4.40466">
        <ele>886.19171142578</ele>
        <time>2015-12-22T19:34:27.000Z</time>
      </trkpt>
      <trkpt lat="45.39091" lon="4.4046">
        <ele>886.34436035156</ele>
        <time>2015-12-22T19:34:29.000Z</time>
      </trkpt>
      <trkpt lat="45.39098" lon="4.40455">
        <ele>888.41076660156</ele>
        <time>2015-12-22T19:34:31.000Z</time>
      </trkpt>
      <trkpt lat="45.39104" lon="4.40445">
        <ele>888.39569091797</ele>
        <time>2015-12-22T19:34:34.000Z</time>
      </trkpt>
      <trkpt lat="45.39107" lon="4.40434">
        <ele>887.61553955078</ele>
        <time>2015-12-22T19:34:37.000Z</time>
      </trkpt>
      <trkpt lat="45.39111" lon="4.40431">
        <ele>886.80450439453</ele>
        <time>2015-12-22T19:34:39.000Z</time>
      </trkpt>
      <trkpt lat="45.39116" lon="4.40427">
        <ele>888.00482177734</ele>
        <time>2015-12-22T19:34:41.000Z</time>
      </trkpt>
      <trkpt lat="45.39119" lon="4.40415">
        <ele>889.31658935547</ele>
        <time>2015-12-22T19:34:44.000Z</time>
      </trkpt>
      <trkpt lat="45.39117" lon="4.40402">
        <ele>890.24993896484</ele>
        <time>2015-12-22T19:34:46.000Z</time>
      </trkpt>
      <trkpt lat="45.39117" lon="4.40394">
        <ele>892.18023681641</ele>
        <time>2015-12-22T19:34:48.000Z</time>
      </trkpt>
      <trkpt lat="45.39121" lon="4.40384">
        <ele>894.75042724609</ele>
        <time>2015-12-22T19:34:51.000Z</time>
      </trkpt>
      <trkpt lat="45.39125" lon="4.40378">
        <ele>895.28381347656</ele>
        <time>2015-12-22T19:34:53.000Z</time>
      </trkpt>
      <trkpt lat="45.3913" lon="4.4037">
        <ele>892.11059570312</ele>
        <time>2015-12-22T19:34:56.000Z</time>
      </trkpt>
      <trkpt lat="45.39136" lon="4.40361">
        <ele>892.30773925781</ele>
        <time>2015-12-22T19:34:59.000Z</time>
      </trkpt>
      <trkpt lat="45.39138" lon="4.40352">
        <ele>892.83758544922</ele>
        <time>2015-12-22T19:35:02.000Z</time>
      </trkpt>
      <trkpt lat="45.3914" lon="4.40343">
        <ele>892.67456054688</ele>
        <time>2015-12-22T19:35:04.000Z</time>
      </trkpt>
      <trkpt lat="45.39143" lon="4.40334">
        <ele>891.88781738281</ele>
        <time>2015-12-22T19:35:07.000Z</time>
      </trkpt>
      <trkpt lat="45.39145" lon="4.40329">
        <ele>891.69873046875</ele>
        <time>2015-12-22T19:35:09.000Z</time>
      </trkpt>
      <trkpt lat="45.39148" lon="4.40325">
        <ele>891.22808837891</ele>
        <time>2015-12-22T19:35:11.000Z</time>
      </trkpt>
      <trkpt lat="45.39154" lon="4.40316">
        <ele>889.94921875</ele>
        <time>2015-12-22T19:35:14.000Z</time>
      </trkpt>
      <trkpt lat="45.39157" lon="4.40308">
        <ele>888.34851074219</ele>
        <time>2015-12-22T19:35:16.000Z</time>
      </trkpt>
      <trkpt lat="45.39161" lon="4.40297">
        <ele>886.96942138672</ele>
        <time>2015-12-22T19:35:19.000Z</time>
      </trkpt>
      <trkpt lat="45.39163" lon="4.40289">
        <ele>885.23052978516</ele>
        <time>2015-12-22T19:35:21.000Z</time>
      </trkpt>
      <trkpt lat="45.39164" lon="4.40279">
        <ele>884.85076904297</ele>
        <time>2015-12-22T19:35:23.000Z</time>
      </trkpt>
      <trkpt lat="45.39169" lon="4.40275">
        <ele>883.94458007812</ele>
        <time>2015-12-22T19:35:25.000Z</time>
      </trkpt>
      <trkpt lat="45.39177" lon="4.40268">
        <ele>884.94317626953</ele>
        <time>2015-12-22T19:35:28.000Z</time>
      </trkpt>
      <trkpt lat="45.39183" lon="4.4026">
        <ele>884.17626953125</ele>
        <time>2015-12-22T19:35:31.000Z</time>
      </trkpt>
      <trkpt lat="45.39192" lon="4.40252">
        <ele>885.08001708984</ele>
        <time>2015-12-22T19:35:34.000Z</time>
      </trkpt>
      <trkpt lat="45.39194" lon="4.40245">
        <ele>884.73663330078</ele>
        <time>2015-12-22T19:35:36.000Z</time>
      </trkpt>
      <trkpt lat="45.39199" lon="4.40237">
        <ele>883.82275390625</ele>
        <time>2015-12-22T19:35:39.000Z</time>
      </trkpt>
      <trkpt lat="45.39204" lon="4.40233">
        <ele>883.46673583984</ele>
        <time>2015-12-22T19:35:42.000Z</time>
      </trkpt>
      <trkpt lat="45.39212" lon="4.40226">
        <ele>885.61315917969</ele>
        <time>2015-12-22T19:35:45.000Z</time>
      </trkpt>
      <trkpt lat="45.3922" lon="4.40221">
        <ele>887.36572265625</ele>
        <time>2015-12-22T19:35:48.000Z</time>
      </trkpt>
      <trkpt lat="45.39224" lon="4.40217">
        <ele>886.37982177734</ele>
        <time>2015-12-22T19:35:51.000Z</time>
      </trkpt>
      <trkpt lat="45.39226" lon="4.40216">
        <ele>885.74200439453</ele>
        <time>2015-12-22T19:35:53.000Z</time>
      </trkpt>
      <trkpt lat="45.39232" lon="4.40211">
        <ele>884.45104980469</ele>
        <time>2015-12-22T19:35:56.000Z</time>
      </trkpt>
      <trkpt lat="45.39238" lon="4.40209">
        <ele>884.34594726562</ele>
        <time>2015-12-22T19:35:58.000Z</time>
      </trkpt>
      <trkpt lat="45.39244" lon="4.40205">
        <ele>885.34234619141</ele>
        <time>2015-12-22T19:36:00.000Z</time>
      </trkpt>
      <trkpt lat="45.39252" lon="4.40201">
        <ele>886.15649414062</ele>
        <time>2015-12-22T19:36:03.000Z</time>
      </trkpt>
      <trkpt lat="45.39264" lon="4.402">
        <ele>886.62652587891</ele>
        <time>2015-12-22T19:36:06.000Z</time>
      </trkpt>
      <trkpt lat="45.39273" lon="4.40199">
        <ele>883.9208984375</ele>
        <time>2015-12-22T19:36:09.000Z</time>
      </trkpt>
      <trkpt lat="45.39278" lon="4.40198">
        <ele>883.87933349609</ele>
        <time>2015-12-22T19:36:11.000Z</time>
      </trkpt>
      <trkpt lat="45.39284" lon="4.40198">
        <ele>880.4072265625</ele>
        <time>2015-12-22T19:36:13.000Z</time>
      </trkpt>
      <trkpt lat="45.39292" lon="4.40198">
        <ele>878.68597412109</ele>
        <time>2015-12-22T19:36:16.000Z</time>
      </trkpt>
      <trkpt lat="45.39298" lon="4.40197">
        <ele>875.74865722656</ele>
        <time>2015-12-22T19:36:19.000Z</time>
      </trkpt>
      <trkpt lat="45.39303" lon="4.40197">
        <ele>872.748046875</ele>
        <time>2015-12-22T19:36:21.000Z</time>
      </trkpt>
      <trkpt lat="45.39308" lon="4.40197">
        <ele>870.75842285156</ele>
        <time>2015-12-22T19:36:23.000Z</time>
      </trkpt>
      <trkpt lat="45.39318" lon="4.40193">
        <ele>870.69384765625</ele>
        <time>2015-12-22T19:36:26.000Z</time>
      </trkpt>
      <trkpt lat="45.39322" lon="4.4019">
        <ele>868.59490966797</ele>
        <time>2015-12-22T19:36:28.000Z</time>
      </trkpt>
      <trkpt lat="45.39331" lon="4.40187">
        <ele>866.67980957031</ele>
        <time>2015-12-22T19:36:31.000Z</time>
      </trkpt>
      <trkpt lat="45.39336" lon="4.4018">
        <ele>866.87969970703</ele>
        <time>2015-12-22T19:36:33.000Z</time>
      </trkpt>
      <trkpt lat="45.39345" lon="4.40174">
        <ele>866.73303222656</ele>
        <time>2015-12-22T19:36:36.000Z</time>
      </trkpt>
      <trkpt lat="45.39354" lon="4.40172">
        <ele>865.98864746094</ele>
        <time>2015-12-22T19:36:39.000Z</time>
      </trkpt>
      <trkpt lat="45.3936" lon="4.40171">
        <ele>866.82788085938</ele>
        <time>2015-12-22T19:36:41.000Z</time>
      </trkpt>
      <trkpt lat="45.39366" lon="4.40171">
        <ele>866.25158691406</ele>
        <time>2015-12-22T19:36:43.000Z</time>
      </trkpt>
      <trkpt lat="45.39371" lon="4.4017">
        <ele>866.81109619141</ele>
        <time>2015-12-22T19:36:45.000Z</time>
      </trkpt>
      <trkpt lat="45.39379" lon="4.40168">
        <ele>866.54284667969</ele>
        <time>2015-12-22T19:36:48.000Z</time>
      </trkpt>
      <trkpt lat="45.39386" lon="4.40167">
        <ele>866.12829589844</ele>
        <time>2015-12-22T19:36:51.000Z</time>
      </trkpt>
      <trkpt lat="45.39392" lon="4.40165">
        <ele>864.39251708984</ele>
        <time>2015-12-22T19:36:53.000Z</time>
      </trkpt>
      <trkpt lat="45.39397" lon="4.40162">
        <ele>864.35510253906</ele>
        <time>2015-12-22T19:36:55.000Z</time>
      </trkpt>
      <trkpt lat="45.39402" lon="4.4016">
        <ele>864.08325195312</ele>
        <time>2015-12-22T19:36:57.000Z</time>
      </trkpt>
      <trkpt lat="45.3941" lon="4.40156">
        <ele>864.81750488281</ele>
        <time>2015-12-22T19:37:00.000Z</time>
      </trkpt>
      <trkpt lat="45.39415" lon="4.40155">
        <ele>863.49237060547</ele>
        <time>2015-12-22T19:37:02.000Z</time>
      </trkpt>
      <trkpt lat="45.39421" lon="4.40154">
        <ele>863.44543457031</ele>
        <time>2015-12-22T19:37:05.000Z</time>
      </trkpt>
      <trkpt lat="45.39427" lon="4.40152">
        <ele>862.1591796875</ele>
        <time>2015-12-22T19:37:08.000Z</time>
      </trkpt>
      <trkpt lat="45.39431" lon="4.4015">
        <ele>861.59222412109</ele>
        <time>2015-12-22T19:37:10.000Z</time>
      </trkpt>
      <trkpt lat="45.39437" lon="4.40148">
        <ele>861.86529541016</ele>
        <time>2015-12-22T19:37:12.000Z</time>
      </trkpt>
      <trkpt lat="45.39444" lon="4.40148">
        <ele>859.26141357422</ele>
        <time>2015-12-22T19:37:15.000Z</time>
      </trkpt>
      <trkpt lat="45.39449" lon="4.40148">
        <ele>858.87121582031</ele>
        <time>2015-12-22T19:37:17.000Z</time>
      </trkpt>
      <trkpt lat="45.39457" lon="4.40146">
        <ele>858.01452636719</ele>
        <time>2015-12-22T19:37:20.000Z</time>
      </trkpt>
      <trkpt lat="45.39466" lon="4.40145">
        <ele>858.51971435547</ele>
        <time>2015-12-22T19:37:23.000Z</time>
      </trkpt>
      <trkpt lat="45.39472" lon="4.40143">
        <ele>859.00036621094</ele>
        <time>2015-12-22T19:37:25.000Z</time>
      </trkpt>
      <trkpt lat="45.39478" lon="4.4014">
        <ele>859.07250976562</ele>
        <time>2015-12-22T19:37:27.000Z</time>
      </trkpt>
      <trkpt lat="45.39485" lon="4.40138">
        <ele>859.86517333984</ele>
        <time>2015-12-22T19:37:30.000Z</time>
      </trkpt>
      <trkpt lat="45.39489" lon="4.40136">
        <ele>858.97155761719</ele>
        <time>2015-12-22T19:37:32.000Z</time>
      </trkpt>
      <trkpt lat="45.39495" lon="4.40135">
        <ele>858.20812988281</ele>
        <time>2015-12-22T19:37:34.000Z</time>
      </trkpt>
      <trkpt lat="45.39503" lon="4.40134">
        <ele>857.72381591797</ele>
        <time>2015-12-22T19:37:37.000Z</time>
      </trkpt>
      <trkpt lat="45.39508" lon="4.40135">
        <ele>857.06701660156</ele>
        <time>2015-12-22T19:37:39.000Z</time>
      </trkpt>
      <trkpt lat="45.39511" lon="4.40138">
        <ele>855.39996337891</ele>
        <time>2015-12-22T19:37:41.000Z</time>
      </trkpt>
      <trkpt lat="45.39519" lon="4.40144">
        <ele>854.81591796875</ele>
        <time>2015-12-22T19:37:44.000Z</time>
      </trkpt>
      <trkpt lat="45.39524" lon="4.40151">
        <ele>856.53234863281</ele>
        <time>2015-12-22T19:37:47.000Z</time>
      </trkpt>
      <trkpt lat="45.39528" lon="4.40155">
        <ele>856.57183837891</ele>
        <time>2015-12-22T19:37:49.000Z</time>
      </trkpt>
      <trkpt lat="45.3953" lon="4.40161">
        <ele>856.49719238281</ele>
        <time>2015-12-22T19:37:51.000Z</time>
      </trkpt>
      <trkpt lat="45.39531" lon="4.40169">
        <ele>856.91711425781</ele>
        <time>2015-12-22T19:37:53.000Z</time>
      </trkpt>
      <trkpt lat="45.39533" lon="4.40181">
        <ele>857.6669921875</ele>
        <time>2015-12-22T19:37:56.000Z</time>
      </trkpt>
      <trkpt lat="45.39534" lon="4.40191">
        <ele>858.60089111328</ele>
        <time>2015-12-22T19:37:59.000Z</time>
      </trkpt>
      <trkpt lat="45.39536" lon="4.402">
        <ele>857.51947021484</ele>
        <time>2015-12-22T19:38:02.000Z</time>
      </trkpt>
      <trkpt lat="45.39538" lon="4.40207">
        <ele>855.72473144531</ele>
        <time>2015-12-22T19:38:04.000Z</time>
      </trkpt>
      <trkpt lat="45.39541" lon="4.40217">
        <ele>856.07073974609</ele>
        <time>2015-12-22T19:38:07.000Z</time>
      </trkpt>
      <trkpt lat="45.39543" lon="4.4023">
        <ele>856.25567626953</ele>
        <time>2015-12-22T19:38:10.000Z</time>
      </trkpt>
      <trkpt lat="45.39544" lon="4.40241">
        <ele>855.15576171875</ele>
        <time>2015-12-22T19:38:13.000Z</time>
      </trkpt>
      <trkpt lat="45.39545" lon="4.40248">
        <ele>854.52917480469</ele>
        <time>2015-12-22T19:38:15.000Z</time>
      </trkpt>
      <trkpt lat="45.39545" lon="4.4026">
        <ele>853.95880126953</ele>
        <time>2015-12-22T19:38:18.000Z</time>
      </trkpt>
      <trkpt lat="45.39545" lon="4.40268">
        <ele>854.20739746094</ele>
        <time>2015-12-22T19:38:20.000Z</time>
      </trkpt>
      <trkpt lat="45.39546" lon="4.40281">
        <ele>853.37396240234</ele>
        <time>2015-12-22T19:38:23.000Z</time>
      </trkpt>
      <trkpt lat="45.39545" lon="4.40291">
        <ele>853.15380859375</ele>
        <time>2015-12-22T19:38:25.000Z</time>
      </trkpt>
      <trkpt lat="45.39543" lon="4.40297">
        <ele>850.71099853516</ele>
        <time>2015-12-22T19:38:27.000Z</time>
      </trkpt>
      <trkpt lat="45.39541" lon="4.40307">
        <ele>849.48333740234</ele>
        <time>2015-12-22T19:38:30.000Z</time>
      </trkpt>
      <trkpt lat="45.39541" lon="4.40318">
        <ele>850.08941650391</ele>
        <time>2015-12-22T19:38:33.000Z</time>
      </trkpt>
      <trkpt lat="45.39541" lon="4.40327">
        <ele>849.57971191406</ele>
        <time>2015-12-22T19:38:35.000Z</time>
      </trkpt>
      <trkpt lat="45.39542" lon="4.40335">
        <ele>850.06256103516</ele>
        <time>2015-12-22T19:38:37.000Z</time>
      </trkpt>
      <trkpt lat="45.39542" lon="4.40347">
        <ele>850.68316650391</ele>
        <time>2015-12-22T19:38:40.000Z</time>
      </trkpt>
      <trkpt lat="45.39542" lon="4.40354">
        <ele>850.2587890625</ele>
        <time>2015-12-22T19:38:42.000Z</time>
      </trkpt>
      <trkpt lat="45.39548" lon="4.40363">
        <ele>850.45379638672</ele>
        <time>2015-12-22T19:38:45.000Z</time>
      </trkpt>
      <trkpt lat="45.39552" lon="4.40372">
        <ele>851.77313232422</ele>
        <time>2015-12-22T19:38:48.000Z</time>
      </trkpt>
      <trkpt lat="45.39559" lon="4.40373">
        <ele>851.53814697266</ele>
        <time>2015-12-22T19:38:50.000Z</time>
      </trkpt>
      <trkpt lat="45.39567" lon="4.4037">
        <ele>853.99591064453</ele>
        <time>2015-12-22T19:38:52.000Z</time>
      </trkpt>
      <trkpt lat="45.39574" lon="4.40368">
        <ele>853.75958251953</ele>
        <time>2015-12-22T19:38:54.000Z</time>
      </trkpt>
      <trkpt lat="45.3958" lon="4.40363">
        <ele>855.50579833984</ele>
        <time>2015-12-22T19:38:57.000Z</time>
      </trkpt>
      <trkpt lat="45.39582" lon="4.40362">
        <ele>855.65496826172</ele>
        <time>2015-12-22T19:38:59.000Z</time>
      </trkpt>
      <trkpt lat="45.39583" lon="4.40362">
        <ele>855.01403808594</ele>
        <time>2015-12-22T19:39:02.000Z</time>
      </trkpt>
      <trkpt lat="45.39584" lon="4.40362">
        <ele>854.10565185547</ele>
        <time>2015-12-22T19:39:07.000Z</time>
      </trkpt>
      <trkpt lat="45.39586" lon="4.4036">
        <ele>854.40759277344</ele>
        <time>2015-12-22T19:39:10.000Z</time>
      </trkpt>
      <trkpt lat="45.39585" lon="4.40358">
        <ele>854.63073730469</ele>
        <time>2015-12-22T19:39:13.000Z</time>
      </trkpt>
      <trkpt lat="45.39584" lon="4.40355">
        <ele>854.02075195312</ele>
        <time>2015-12-22T19:39:21.000Z</time>
      </trkpt>
      <trkpt lat="45.39584" lon="4.40341">
        <ele>853.42840576172</ele>
        <time>2015-12-22T19:39:24.000Z</time>
      </trkpt>
      <trkpt lat="45.39584" lon="4.4033">
        <ele>853.01574707031</ele>
        <time>2015-12-22T19:39:27.000Z</time>
      </trkpt>
      <trkpt lat="45.39585" lon="4.40318">
        <ele>854.16674804688</ele>
        <time>2015-12-22T19:39:29.000Z</time>
      </trkpt>
      <trkpt lat="45.39586" lon="4.40309">
        <ele>853.96173095703</ele>
        <time>2015-12-22T19:39:31.000Z</time>
      </trkpt>
      <trkpt lat="45.39588" lon="4.40299">
        <ele>852.52789306641</ele>
        <time>2015-12-22T19:39:34.000Z</time>
      </trkpt>
      <trkpt lat="45.3959" lon="4.40291">
        <ele>852.62982177734</ele>
        <time>2015-12-22T19:39:36.000Z</time>
      </trkpt>
      <trkpt lat="45.39594" lon="4.40278">
        <ele>854.45336914062</ele>
        <time>2015-12-22T19:39:39.000Z</time>
      </trkpt>
      <trkpt lat="45.39596" lon="4.4027">
        <ele>855.43969726562</ele>
        <time>2015-12-22T19:39:41.000Z</time>
      </trkpt>
      <trkpt lat="45.396" lon="4.40258">
        <ele>854.88073730469</ele>
        <time>2015-12-22T19:39:44.000Z</time>
      </trkpt>
      <trkpt lat="45.39602" lon="4.40249">
        <ele>855.53948974609</ele>
        <time>2015-12-22T19:39:46.000Z</time>
      </trkpt>
      <trkpt lat="45.39607" lon="4.40238">
        <ele>854.24816894531</ele>
        <time>2015-12-22T19:39:49.000Z</time>
      </trkpt>
      <trkpt lat="45.3961" lon="4.40231">
        <ele>853.59741210938</ele>
        <time>2015-12-22T19:39:51.000Z</time>
      </trkpt>
      <trkpt lat="45.39615" lon="4.40221">
        <ele>853.87451171875</ele>
        <time>2015-12-22T19:39:54.000Z</time>
      </trkpt>
      <trkpt lat="45.39623" lon="4.40211">
        <ele>857.59313964844</ele>
        <time>2015-12-22T19:39:57.000Z</time>
      </trkpt>
      <trkpt lat="45.39626" lon="4.40204">
        <ele>858.11242675781</ele>
        <time>2015-12-22T19:39:59.000Z</time>
      </trkpt>
      <trkpt lat="45.39629" lon="4.40199">
        <ele>855.78314208984</ele>
        <time>2015-12-22T19:40:01.000Z</time>
      </trkpt>
      <trkpt lat="45.3963" lon="4.40193">
        <ele>852.03131103516</ele>
        <time>2015-12-22T19:40:04.000Z</time>
      </trkpt>
      <trkpt lat="45.39631" lon="4.4019">
        <ele>850.34545898438</ele>
        <time>2015-12-22T19:40:06.000Z</time>
      </trkpt>
      <trkpt lat="45.39632" lon="4.40187">
        <ele>849.49908447266</ele>
        <time>2015-12-22T19:40:09.000Z</time>
      </trkpt>
      <trkpt lat="45.39635" lon="4.40181">
        <ele>847.4931640625</ele>
        <time>2015-12-22T19:40:12.000Z</time>
      </trkpt>
      <trkpt lat="45.39639" lon="4.40175">
        <ele>847.38439941406</ele>
        <time>2015-12-22T19:40:14.000Z</time>
      </trkpt>
      <trkpt lat="45.39642" lon="4.4017">
        <ele>846.05712890625</ele>
        <time>2015-12-22T19:40:16.000Z</time>
      </trkpt>
      <trkpt lat="45.39646" lon="4.40159">
        <ele>842.232421875</ele>
        <time>2015-12-22T19:40:19.000Z</time>
      </trkpt>
      <trkpt lat="45.39649" lon="4.40148">
        <ele>839.15026855469</ele>
        <time>2015-12-22T19:40:22.000Z</time>
      </trkpt>
      <trkpt lat="45.39653" lon="4.40142">
        <ele>839.18090820312</ele>
        <time>2015-12-22T19:40:24.000Z</time>
      </trkpt>
      <trkpt lat="45.39656" lon="4.40137">
        <ele>837.70587158203</ele>
        <time>2015-12-22T19:40:26.000Z</time>
      </trkpt>
      <trkpt lat="45.3966" lon="4.40127">
        <ele>836.54284667969</ele>
        <time>2015-12-22T19:40:29.000Z</time>
      </trkpt>
      <trkpt lat="45.39664" lon="4.4012">
        <ele>836.48870849609</ele>
        <time>2015-12-22T19:40:31.000Z</time>
      </trkpt>
      <trkpt lat="45.39668" lon="4.40114">
        <ele>837.25646972656</ele>
        <time>2015-12-22T19:40:33.000Z</time>
      </trkpt>
      <trkpt lat="45.39675" lon="4.40107">
        <ele>839.24572753906</ele>
        <time>2015-12-22T19:40:36.000Z</time>
      </trkpt>
      <trkpt lat="45.39681" lon="4.40099">
        <ele>839.18804931641</ele>
        <time>2015-12-22T19:40:39.000Z</time>
      </trkpt>
      <trkpt lat="45.39689" lon="4.40091">
        <ele>838.89410400391</ele>
        <time>2015-12-22T19:40:42.000Z</time>
      </trkpt>
      <trkpt lat="45.39692" lon="4.40085">
        <ele>838.22180175781</ele>
        <time>2015-12-22T19:40:44.000Z</time>
      </trkpt>
      <trkpt lat="45.39695" lon="4.40078">
        <ele>838.30859375</ele>
        <time>2015-12-22T19:40:46.000Z</time>
      </trkpt>
      <trkpt lat="45.397" lon="4.40069">
        <ele>838.30322265625</ele>
        <time>2015-12-22T19:40:49.000Z</time>
      </trkpt>
      <trkpt lat="45.39701" lon="4.40061">
        <ele>838.40313720703</ele>
        <time>2015-12-22T19:40:51.000Z</time>
      </trkpt>
      <trkpt lat="45.39705" lon="4.40053">
        <ele>839.47369384766</ele>
        <time>2015-12-22T19:40:53.000Z</time>
      </trkpt>
      <trkpt lat="45.39708" lon="4.40042">
        <ele>839.19482421875</ele>
        <time>2015-12-22T19:40:56.000Z</time>
      </trkpt>
      <trkpt lat="45.39709" lon="4.40035">
        <ele>837.66979980469</ele>
        <time>2015-12-22T19:40:58.000Z</time>
      </trkpt>
      <trkpt lat="45.39711" lon="4.40026">
        <ele>836.47119140625</ele>
        <time>2015-12-22T19:41:00.000Z</time>
      </trkpt>
      <trkpt lat="45.39714" lon="4.40016">
        <ele>836.23150634766</ele>
        <time>2015-12-22T19:41:03.000Z</time>
      </trkpt>
      <trkpt lat="45.39718" lon="4.40005">
        <ele>832.0029296875</ele>
        <time>2015-12-22T19:41:06.000Z</time>
      </trkpt>
      <trkpt lat="45.3972" lon="4.39996">
        <ele>829.73614501953</ele>
        <time>2015-12-22T19:41:08.000Z</time>
      </trkpt>
      <trkpt lat="45.39722" lon="4.39988">
        <ele>827.92028808594</ele>
        <time>2015-12-22T19:41:10.000Z</time>
      </trkpt>
      <trkpt lat="45.39727" lon="4.39978">
        <ele>825.51934814453</ele>
        <time>2015-12-22T19:41:13.000Z</time>
      </trkpt>
      <trkpt lat="45.3973" lon="4.39971">
        <ele>825.44836425781</ele>
        <time>2015-12-22T19:41:15.000Z</time>
      </trkpt>
      <trkpt lat="45.39734" lon="4.39962">
        <ele>825.75500488281</ele>
        <time>2015-12-22T19:41:18.000Z</time>
      </trkpt>
      <trkpt lat="45.39735" lon="4.39954">
        <ele>825.26239013672</ele>
        <time>2015-12-22T19:41:20.000Z</time>
      </trkpt>
      <trkpt lat="45.39739" lon="4.39943">
        <ele>826.30401611328</ele>
        <time>2015-12-22T19:41:23.000Z</time>
      </trkpt>
      <trkpt lat="45.39743" lon="4.39928">
        <ele>824.98504638672</ele>
        <time>2015-12-22T19:41:26.000Z</time>
      </trkpt>
      <trkpt lat="45.39745" lon="4.3992">
        <ele>824.25769042969</ele>
        <time>2015-12-22T19:41:28.000Z</time>
      </trkpt>
      <trkpt lat="45.39749" lon="4.39914">
        <ele>825.85095214844</ele>
        <time>2015-12-22T19:41:30.000Z</time>
      </trkpt>
      <trkpt lat="45.39756" lon="4.39904">
        <ele>827.12261962891</ele>
        <time>2015-12-22T19:41:33.000Z</time>
      </trkpt>
      <trkpt lat="45.39761" lon="4.39897">
        <ele>828.70593261719</ele>
        <time>2015-12-22T19:41:35.000Z</time>
      </trkpt>
      <trkpt lat="45.39767" lon="4.39887">
        <ele>828.28332519531</ele>
        <time>2015-12-22T19:41:38.000Z</time>
      </trkpt>
      <trkpt lat="45.39771" lon="4.3988">
        <ele>826.91918945312</ele>
        <time>2015-12-22T19:41:40.000Z</time>
      </trkpt>
      <trkpt lat="45.39775" lon="4.39873">
        <ele>828.70544433594</ele>
        <time>2015-12-22T19:41:42.000Z</time>
      </trkpt>
      <trkpt lat="45.39779" lon="4.39867">
        <ele>829.47174072266</ele>
        <time>2015-12-22T19:41:44.000Z</time>
      </trkpt>
      <trkpt lat="45.39783" lon="4.3986">
        <ele>829.86218261719</ele>
        <time>2015-12-22T19:41:46.000Z</time>
      </trkpt>
      <trkpt lat="45.39788" lon="4.39851">
        <ele>830.66375732422</ele>
        <time>2015-12-22T19:41:49.000Z</time>
      </trkpt>
      <trkpt lat="45.39794" lon="4.39841">
        <ele>831.33520507812</ele>
        <time>2015-12-22T19:41:52.000Z</time>
      </trkpt>
      <trkpt lat="45.39801" lon="4.39832">
        <ele>832.16516113281</ele>
        <time>2015-12-22T19:41:55.000Z</time>
      </trkpt>
      <trkpt lat="45.39807" lon="4.39823">
        <ele>831.31072998047</ele>
        <time>2015-12-22T19:41:58.000Z</time>
      </trkpt>
      <trkpt lat="45.39813" lon="4.39815">
        <ele>829.29034423828</ele>
        <time>2015-12-22T19:42:01.000Z</time>
      </trkpt>
      <trkpt lat="45.39817" lon="4.39807">
        <ele>828.90698242188</ele>
        <time>2015-12-22T19:42:03.000Z</time>
      </trkpt>
      <trkpt lat="45.39823" lon="4.39799">
        <ele>830.60998535156</ele>
        <time>2015-12-22T19:42:06.000Z</time>
      </trkpt>
      <trkpt lat="45.39827" lon="4.39789">
        <ele>827.53063964844</ele>
        <time>2015-12-22T19:42:09.000Z</time>
      </trkpt>
      <trkpt lat="45.39833" lon="4.39784">
        <ele>863.06903076172</ele>
        <time>2015-12-22T19:42:11.000Z</time>
      </trkpt>
      <trkpt lat="45.39838" lon="4.39777">
        <ele>853.84265136719</ele>
        <time>2015-12-22T19:42:14.000Z</time>
      </trkpt>
      <trkpt lat="45.39845" lon="4.39768">
        <ele>845.72100830078</ele>
        <time>2015-12-22T19:42:17.000Z</time>
      </trkpt>
      <trkpt lat="45.39851" lon="4.3976">
        <ele>839.68719482422</ele>
        <time>2015-12-22T19:42:20.000Z</time>
      </trkpt>
      <trkpt lat="45.39855" lon="4.39756">
        <ele>837.15362548828</ele>
        <time>2015-12-22T19:42:22.000Z</time>
      </trkpt>
      <trkpt lat="45.39859" lon="4.3975">
        <ele>834.74371337891</ele>
        <time>2015-12-22T19:42:24.000Z</time>
      </trkpt>
      <trkpt lat="45.39867" lon="4.39741">
        <ele>833.09326171875</ele>
        <time>2015-12-22T19:42:27.000Z</time>
      </trkpt>
      <trkpt lat="45.39871" lon="4.39735">
        <ele>832.37622070312</ele>
        <time>2015-12-22T19:42:29.000Z</time>
      </trkpt>
      <trkpt lat="45.3988" lon="4.39728">
        <ele>830.43963623047</ele>
        <time>2015-12-22T19:42:32.000Z</time>
      </trkpt>
      <trkpt lat="45.39887" lon="4.39723">
        <ele>828.39263916016</ele>
        <time>2015-12-22T19:42:34.000Z</time>
      </trkpt>
      <trkpt lat="45.39894" lon="4.39719">
        <ele>825.90148925781</ele>
        <time>2015-12-22T19:42:37.000Z</time>
      </trkpt>
      <trkpt lat="45.39903" lon="4.39713">
        <ele>825.51293945312</ele>
        <time>2015-12-22T19:42:40.000Z</time>
      </trkpt>
      <trkpt lat="45.39907" lon="4.39711">
        <ele>824.49603271484</ele>
        <time>2015-12-22T19:42:42.000Z</time>
      </trkpt>
      <trkpt lat="45.39916" lon="4.39708">
        <ele>824.95812988281</ele>
        <time>2015-12-22T19:42:45.000Z</time>
      </trkpt>
      <trkpt lat="45.39922" lon="4.39706">
        <ele>822.75299072266</ele>
        <time>2015-12-22T19:42:47.000Z</time>
      </trkpt>
      <trkpt lat="45.3993" lon="4.397">
        <ele>818.21673583984</ele>
        <time>2015-12-22T19:42:50.000Z</time>
      </trkpt>
      <trkpt lat="45.39938" lon="4.39695">
        <ele>815.77813720703</ele>
        <time>2015-12-22T19:42:53.000Z</time>
      </trkpt>
      <trkpt lat="45.39945" lon="4.39692">
        <ele>813.23150634766</ele>
        <time>2015-12-22T19:42:56.000Z</time>
      </trkpt>
      <trkpt lat="45.39951" lon="4.39688">
        <ele>813.65032958984</ele>
        <time>2015-12-22T19:42:58.000Z</time>
      </trkpt>
      <trkpt lat="45.39959" lon="4.39683">
        <ele>814.48321533203</ele>
        <time>2015-12-22T19:43:01.000Z</time>
      </trkpt>
      <trkpt lat="45.39965" lon="4.3968">
        <ele>814.4921875</ele>
        <time>2015-12-22T19:43:04.000Z</time>
      </trkpt>
      <trkpt lat="45.39971" lon="4.39676">
        <ele>812.69140625</ele>
        <time>2015-12-22T19:43:07.000Z</time>
      </trkpt>
      <trkpt lat="45.39975" lon="4.39671">
        <ele>811.69561767578</ele>
        <time>2015-12-22T19:43:09.000Z</time>
      </trkpt>
      <trkpt lat="45.39982" lon="4.39663">
        <ele>812.15704345703</ele>
        <time>2015-12-22T19:43:12.000Z</time>
      </trkpt>
      <trkpt lat="45.39987" lon="4.39656">
        <ele>812.14801025391</ele>
        <time>2015-12-22T19:43:14.000Z</time>
      </trkpt>
      <trkpt lat="45.39992" lon="4.39649">
        <ele>814.6875</ele>
        <time>2015-12-22T19:43:16.000Z</time>
      </trkpt>
      <trkpt lat="45.39997" lon="4.39638">
        <ele>815.33740234375</ele>
        <time>2015-12-22T19:43:19.000Z</time>
      </trkpt>
      <trkpt lat="45.40002" lon="4.39626">
        <ele>818.71057128906</ele>
        <time>2015-12-22T19:43:22.000Z</time>
      </trkpt>
      <trkpt lat="45.40007" lon="4.39616">
        <ele>820.26733398438</ele>
        <time>2015-12-22T19:43:25.000Z</time>
      </trkpt>
      <trkpt lat="45.4001" lon="4.39605">
        <ele>820.4873046875</ele>
        <time>2015-12-22T19:43:28.000Z</time>
      </trkpt>
      <trkpt lat="45.40013" lon="4.39594">
        <ele>820.14642333984</ele>
        <time>2015-12-22T19:43:31.000Z</time>
      </trkpt>
      <trkpt lat="45.40015" lon="4.39587">
        <ele>820.56750488281</ele>
        <time>2015-12-22T19:43:33.000Z</time>
      </trkpt>
      <trkpt lat="45.40018" lon="4.39575">
        <ele>821.01300048828</ele>
        <time>2015-12-22T19:43:36.000Z</time>
      </trkpt>
      <trkpt lat="45.40018" lon="4.39568">
        <ele>819.8935546875</ele>
        <time>2015-12-22T19:43:38.000Z</time>
      </trkpt>
      <trkpt lat="45.40021" lon="4.39558">
        <ele>816.94305419922</ele>
        <time>2015-12-22T19:43:41.000Z</time>
      </trkpt>
      <trkpt lat="45.40025" lon="4.39547">
        <ele>813.98278808594</ele>
        <time>2015-12-22T19:43:44.000Z</time>
      </trkpt>
      <trkpt lat="45.4003" lon="4.39537">
        <ele>813.60998535156</ele>
        <time>2015-12-22T19:43:47.000Z</time>
      </trkpt>
      <trkpt lat="45.40033" lon="4.39531">
        <ele>813.04730224609</ele>
        <time>2015-12-22T19:43:49.000Z</time>
      </trkpt>
      <trkpt lat="45.40038" lon="4.39526">
        <ele>813.32147216797</ele>
        <time>2015-12-22T19:43:51.000Z</time>
      </trkpt>
      <trkpt lat="45.40042" lon="4.39521">
        <ele>812.78552246094</ele>
        <time>2015-12-22T19:43:53.000Z</time>
      </trkpt>
      <trkpt lat="45.40047" lon="4.39512">
        <ele>810.34405517578</ele>
        <time>2015-12-22T19:43:56.000Z</time>
      </trkpt>
      <trkpt lat="45.40054" lon="4.39507">
        <ele>810.94122314453</ele>
        <time>2015-12-22T19:43:59.000Z</time>
      </trkpt>
      <trkpt lat="45.40062" lon="4.39504">
        <ele>811.09100341797</ele>
        <time>2015-12-22T19:44:02.000Z</time>
      </trkpt>
      <trkpt lat="45.40071" lon="4.39497">
        <ele>811.75451660156</ele>
        <time>2015-12-22T19:44:05.000Z</time>
      </trkpt>
      <trkpt lat="45.4008" lon="4.39489">
        <ele>811.76434326172</ele>
        <time>2015-12-22T19:44:08.000Z</time>
      </trkpt>
      <trkpt lat="45.40085" lon="4.39485">
        <ele>811.53283691406</ele>
        <time>2015-12-22T19:44:10.000Z</time>
      </trkpt>
      <trkpt lat="45.40092" lon="4.3948">
        <ele>811.69799804688</ele>
        <time>2015-12-22T19:44:13.000Z</time>
      </trkpt>
      <trkpt lat="45.40097" lon="4.39476">
        <ele>810.32836914062</ele>
        <time>2015-12-22T19:44:15.000Z</time>
      </trkpt>
      <trkpt lat="45.40102" lon="4.39471">
        <ele>808.83123779297</ele>
        <time>2015-12-22T19:44:17.000Z</time>
      </trkpt>
      <trkpt lat="45.40106" lon="4.39465">
        <ele>805.98638916016</ele>
        <time>2015-12-22T19:44:19.000Z</time>
      </trkpt>
      <trkpt lat="45.4011" lon="4.3946">
        <ele>804.27746582031</ele>
        <time>2015-12-22T19:44:21.000Z</time>
      </trkpt>
      <trkpt lat="45.40117" lon="4.39452">
        <ele>804.23126220703</ele>
        <time>2015-12-22T19:44:24.000Z</time>
      </trkpt>
      <trkpt lat="45.40125" lon="4.39446">
        <ele>802.55114746094</ele>
        <time>2015-12-22T19:44:27.000Z</time>
      </trkpt>
      <trkpt lat="45.40131" lon="4.39441">
        <ele>801.30041503906</ele>
        <time>2015-12-22T19:44:30.000Z</time>
      </trkpt>
      <trkpt lat="45.40135" lon="4.39436">
        <ele>799.58752441406</ele>
        <time>2015-12-22T19:44:32.000Z</time>
      </trkpt>
      <trkpt lat="45.4014" lon="4.39433">
        <ele>799.32800292969</ele>
        <time>2015-12-22T19:44:34.000Z</time>
      </trkpt>
      <trkpt lat="45.40146" lon="4.39424">
        <ele>797.70623779297</ele>
        <time>2015-12-22T19:44:37.000Z</time>
      </trkpt>
      <trkpt lat="45.40148" lon="4.39417">
        <ele>796.74560546875</ele>
        <time>2015-12-22T19:44:39.000Z</time>
      </trkpt>
      <trkpt lat="45.40154" lon="4.39409">
        <ele>797.48907470703</ele>
        <time>2015-12-22T19:44:42.000Z</time>
      </trkpt>
      <trkpt lat="45.40162" lon="4.394">
        <ele>799.55346679688</ele>
        <time>2015-12-22T19:44:45.000Z</time>
      </trkpt>
      <trkpt lat="45.40166" lon="4.3939">
        <ele>801.64196777344</ele>
        <time>2015-12-22T19:44:48.000Z</time>
      </trkpt>
      <trkpt lat="45.4017" lon="4.39379">
        <ele>803.38092041016</ele>
        <time>2015-12-22T19:44:51.000Z</time>
      </trkpt>
      <trkpt lat="45.4017" lon="4.39371">
        <ele>802.69024658203</ele>
        <time>2015-12-22T19:44:53.000Z</time>
      </trkpt>
      <trkpt lat="45.4017" lon="4.39362">
        <ele>801.55737304688</ele>
        <time>2015-12-22T19:44:55.000Z</time>
      </trkpt>
      <trkpt lat="45.40169" lon="4.39349">
        <ele>799.78582763672</ele>
        <time>2015-12-22T19:44:58.000Z</time>
      </trkpt>
      <trkpt lat="45.4017" lon="4.39342">
        <ele>799.74078369141</ele>
        <time>2015-12-22T19:45:00.000Z</time>
      </trkpt>
      <trkpt lat="45.4017" lon="4.3933">
        <ele>799.30926513672</ele>
        <time>2015-12-22T19:45:03.000Z</time>
      </trkpt>
      <trkpt lat="45.40168" lon="4.39321">
        <ele>797.86303710938</ele>
        <time>2015-12-22T19:45:05.000Z</time>
      </trkpt>
      <trkpt lat="45.40165" lon="4.39308">
        <ele>796.23382568359</ele>
        <time>2015-12-22T19:45:08.000Z</time>
      </trkpt>
      <trkpt lat="45.40163" lon="4.39295">
        <ele>795.52874755859</ele>
        <time>2015-12-22T19:45:11.000Z</time>
      </trkpt>
      <trkpt lat="45.40159" lon="4.39284">
        <ele>849.55523681641</ele>
        <time>2015-12-22T19:45:14.000Z</time>
      </trkpt>
      <trkpt lat="45.40157" lon="4.39274">
        <ele>829.40118408203</ele>
        <time>2015-12-22T19:45:17.000Z</time>
      </trkpt>
      <trkpt lat="45.40157" lon="4.39266">
        <ele>820.33831787109</ele>
        <time>2015-12-22T19:45:19.000Z</time>
      </trkpt>
      <trkpt lat="45.40153" lon="4.39254">
        <ele>810.10992431641</ele>
        <time>2015-12-22T19:45:22.000Z</time>
      </trkpt>
      <trkpt lat="45.40152" lon="4.39248">
        <ele>805.00128173828</ele>
        <time>2015-12-22T19:45:24.000Z</time>
      </trkpt>
      <trkpt lat="45.4015" lon="4.3924">
        <ele>800.66485595703</ele>
        <time>2015-12-22T19:45:26.000Z</time>
      </trkpt>
      <trkpt lat="45.40148" lon="4.39228">
        <ele>796.92840576172</ele>
        <time>2015-12-22T19:45:29.000Z</time>
      </trkpt>
      <trkpt lat="45.40147" lon="4.39221">
        <ele>795.61633300781</ele>
        <time>2015-12-22T19:45:31.000Z</time>
      </trkpt>
      <trkpt lat="45.40147" lon="4.39207">
        <ele>794.12451171875</ele>
        <time>2015-12-22T19:45:34.000Z</time>
      </trkpt>
      <trkpt lat="45.40144" lon="4.39195">
        <ele>791.35668945312</ele>
        <time>2015-12-22T19:45:37.000Z</time>
      </trkpt>
      <trkpt lat="45.40144" lon="4.39182">
        <ele>790.07940673828</ele>
        <time>2015-12-22T19:45:40.000Z</time>
      </trkpt>
      <trkpt lat="45.40143" lon="4.39174">
        <ele>789.76208496094</ele>
        <time>2015-12-22T19:45:42.000Z</time>
      </trkpt>
      <trkpt lat="45.40139" lon="4.39159">
        <ele>785.69140625</ele>
        <time>2015-12-22T19:45:45.000Z</time>
      </trkpt>
      <trkpt lat="45.40136" lon="4.3915">
        <ele>782.85919189453</ele>
        <time>2015-12-22T19:45:47.000Z</time>
      </trkpt>
      <trkpt lat="45.40135" lon="4.39142">
        <ele>782.24377441406</ele>
        <time>2015-12-22T19:45:49.000Z</time>
      </trkpt>
      <trkpt lat="45.40132" lon="4.39131">
        <ele>782.73724365234</ele>
        <time>2015-12-22T19:45:52.000Z</time>
      </trkpt>
      <trkpt lat="45.40131" lon="4.39124">
        <ele>782.94128417969</ele>
        <time>2015-12-22T19:45:54.000Z</time>
      </trkpt>
      <trkpt lat="45.40128" lon="4.39116">
        <ele>782.38531494141</ele>
        <time>2015-12-22T19:45:56.000Z</time>
      </trkpt>
      <trkpt lat="45.40124" lon="4.39105">
        <ele>781.58050537109</ele>
        <time>2015-12-22T19:45:59.000Z</time>
      </trkpt>
      <trkpt lat="45.40123" lon="4.39094">
        <ele>781.42419433594</ele>
        <time>2015-12-22T19:46:02.000Z</time>
      </trkpt>
      <trkpt lat="45.40123" lon="4.39086">
        <ele>780.35949707031</ele>
        <time>2015-12-22T19:46:04.000Z</time>
      </trkpt>
      <trkpt lat="45.40119" lon="4.39075">
        <ele>780.69061279297</ele>
        <time>2015-12-22T19:46:07.000Z</time>
      </trkpt>
      <trkpt lat="45.40116" lon="4.39063">
        <ele>781.07623291016</ele>
        <time>2015-12-22T19:46:10.000Z</time>
      </trkpt>
      <trkpt lat="45.40112" lon="4.39052">
        <ele>782.01715087891</ele>
        <time>2015-12-22T19:46:13.000Z</time>
      </trkpt>
      <trkpt lat="45.4011" lon="4.39045">
        <ele>781.75036621094</ele>
        <time>2015-12-22T19:46:15.000Z</time>
      </trkpt>
      <trkpt lat="45.40107" lon="4.39037">
        <ele>778.98864746094</ele>
        <time>2015-12-22T19:46:17.000Z</time>
      </trkpt>
      <trkpt lat="45.40105" lon="4.39029">
        <ele>776.87518310547</ele>
        <time>2015-12-22T19:46:19.000Z</time>
      </trkpt>
      <trkpt lat="45.40102" lon="4.39016">
        <ele>774.39642333984</ele>
        <time>2015-12-22T19:46:22.000Z</time>
      </trkpt>
      <trkpt lat="45.40101" lon="4.39008">
        <ele>773.63659667969</ele>
        <time>2015-12-22T19:46:24.000Z</time>
      </trkpt>
      <trkpt lat="45.40099" lon="4.39">
        <ele>772.18957519531</ele>
        <time>2015-12-22T19:46:26.000Z</time>
      </trkpt>
      <trkpt lat="45.40097" lon="4.38988">
        <ele>771.51574707031</ele>
        <time>2015-12-22T19:46:29.000Z</time>
      </trkpt>
      <trkpt lat="45.40097" lon="4.38976">
        <ele>770.59100341797</ele>
        <time>2015-12-22T19:46:32.000Z</time>
      </trkpt>
      <trkpt lat="45.40097" lon="4.38967">
        <ele>770.65423583984</ele>
        <time>2015-12-22T19:46:34.000Z</time>
      </trkpt>
      <trkpt lat="45.40098" lon="4.38955">
        <ele>770.04388427734</ele>
        <time>2015-12-22T19:46:37.000Z</time>
      </trkpt>
      <trkpt lat="45.40101" lon="4.38945">
        <ele>770.1533203125</ele>
        <time>2015-12-22T19:46:40.000Z</time>
      </trkpt>
      <trkpt lat="45.40107" lon="4.38937">
        <ele>769.42956542969</ele>
        <time>2015-12-22T19:46:43.000Z</time>
      </trkpt>
      <trkpt lat="45.40113" lon="4.38931">
        <ele>769.2705078125</ele>
        <time>2015-12-22T19:46:46.000Z</time>
      </trkpt>
      <trkpt lat="45.40118" lon="4.38925">
        <ele>771.76702880859</ele>
        <time>2015-12-22T19:46:48.000Z</time>
      </trkpt>
      <trkpt lat="45.40123" lon="4.38918">
        <ele>773.73791503906</ele>
        <time>2015-12-22T19:46:50.000Z</time>
      </trkpt>
      <trkpt lat="45.40129" lon="4.38913">
        <ele>775.61218261719</ele>
        <time>2015-12-22T19:46:52.000Z</time>
      </trkpt>
      <trkpt lat="45.40133" lon="4.38908">
        <ele>776.79351806641</ele>
        <time>2015-12-22T19:46:54.000Z</time>
      </trkpt>
      <trkpt lat="45.40137" lon="4.38903">
        <ele>778.75970458984</ele>
        <time>2015-12-22T19:46:56.000Z</time>
      </trkpt>
      <trkpt lat="45.4014" lon="4.38897">
        <ele>778.83294677734</ele>
        <time>2015-12-22T19:46:59.000Z</time>
      </trkpt>
      <trkpt lat="45.40145" lon="4.38889">
        <ele>777.259765625</ele>
        <time>2015-12-22T19:47:02.000Z</time>
      </trkpt>
      <trkpt lat="45.40148" lon="4.38881">
        <ele>776.63195800781</ele>
        <time>2015-12-22T19:47:04.000Z</time>
      </trkpt>
      <trkpt lat="45.4015" lon="4.38869">
        <ele>776.47192382812</ele>
        <time>2015-12-22T19:47:07.000Z</time>
      </trkpt>
      <trkpt lat="45.40151" lon="4.38861">
        <ele>776.15551757812</ele>
        <time>2015-12-22T19:47:09.000Z</time>
      </trkpt>
      <trkpt lat="45.40154" lon="4.38849">
        <ele>773.95111083984</ele>
        <time>2015-12-22T19:47:12.000Z</time>
      </trkpt>
      <trkpt lat="45.40155" lon="4.38841">
        <ele>772.71252441406</ele>
        <time>2015-12-22T19:47:14.000Z</time>
      </trkpt>
      <trkpt lat="45.40157" lon="4.38829">
        <ele>772.98455810547</ele>
        <time>2015-12-22T19:47:17.000Z</time>
      </trkpt>
      <trkpt lat="45.40158" lon="4.3882">
        <ele>771.85601806641</ele>
        <time>2015-12-22T19:47:19.000Z</time>
      </trkpt>
      <trkpt lat="45.40159" lon="4.38808">
        <ele>770.63861083984</ele>
        <time>2015-12-22T19:47:22.000Z</time>
      </trkpt>
      <trkpt lat="45.40161" lon="4.38795">
        <ele>768.54162597656</ele>
        <time>2015-12-22T19:47:25.000Z</time>
      </trkpt>
      <trkpt lat="45.40166" lon="4.38784">
        <ele>728.28149414062</ele>
        <time>2015-12-22T19:47:28.000Z</time>
      </trkpt>
      <trkpt lat="45.40166" lon="4.38776">
        <ele>730.98693847656</ele>
        <time>2015-12-22T19:47:30.000Z</time>
      </trkpt>
      <trkpt lat="45.40167" lon="4.38768">
        <ele>737.24755859375</ele>
        <time>2015-12-22T19:47:32.000Z</time>
      </trkpt>
      <trkpt lat="45.40167" lon="4.38761">
        <ele>741.35589599609</ele>
        <time>2015-12-22T19:47:34.000Z</time>
      </trkpt>
      <trkpt lat="45.4017" lon="4.3875">
        <ele>747.22442626953</ele>
        <time>2015-12-22T19:47:37.000Z</time>
      </trkpt>
      <trkpt lat="45.40173" lon="4.38737">
        <ele>751.44079589844</ele>
        <time>2015-12-22T19:47:40.000Z</time>
      </trkpt>
      <trkpt lat="45.40174" lon="4.38725">
        <ele>754.40081787109</ele>
        <time>2015-12-22T19:47:43.000Z</time>
      </trkpt>
      <trkpt lat="45.40176" lon="4.38717">
        <ele>755.75305175781</ele>
        <time>2015-12-22T19:47:45.000Z</time>
      </trkpt>
      <trkpt lat="45.40177" lon="4.38702">
        <ele>757.68493652344</ele>
        <time>2015-12-22T19:47:48.000Z</time>
      </trkpt>
      <trkpt lat="45.40174" lon="4.38683">
        <ele>761.70477294922</ele>
        <time>2015-12-22T19:47:51.000Z</time>
      </trkpt>
      <trkpt lat="45.40175" lon="4.38673">
        <ele>762.6611328125</ele>
        <time>2015-12-22T19:47:54.000Z</time>
      </trkpt>
      <trkpt lat="45.40176" lon="4.3866">
        <ele>761.55059814453</ele>
        <time>2015-12-22T19:47:57.000Z</time>
      </trkpt>
      <trkpt lat="45.40176" lon="4.38653">
        <ele>760.05078125</ele>
        <time>2015-12-22T19:47:59.000Z</time>
      </trkpt>
      <trkpt lat="45.40174" lon="4.3864">
        <ele>758.02697753906</ele>
        <time>2015-12-22T19:48:02.000Z</time>
      </trkpt>
      <trkpt lat="45.40174" lon="4.38632">
        <ele>757.51538085938</ele>
        <time>2015-12-22T19:48:04.000Z</time>
      </trkpt>
      <trkpt lat="45.40176" lon="4.38621">
        <ele>757.16833496094</ele>
        <time>2015-12-22T19:48:07.000Z</time>
      </trkpt>
      <trkpt lat="45.40176" lon="4.38614">
        <ele>757.22894287109</ele>
        <time>2015-12-22T19:48:09.000Z</time>
      </trkpt>
      <trkpt lat="45.40174" lon="4.38602">
        <ele>755.16107177734</ele>
        <time>2015-12-22T19:48:12.000Z</time>
      </trkpt>
      <trkpt lat="45.4017" lon="4.38592">
        <ele>751.27899169922</ele>
        <time>2015-12-22T19:48:14.000Z</time>
      </trkpt>
      <trkpt lat="45.40166" lon="4.38581">
        <ele>748.35168457031</ele>
        <time>2015-12-22T19:48:17.000Z</time>
      </trkpt>
      <trkpt lat="45.40166" lon="4.38577">
        <ele>747.10144042969</ele>
        <time>2015-12-22T19:48:19.000Z</time>
      </trkpt>
      <trkpt lat="45.40166" lon="4.38575">
        <ele>747.71234130859</ele>
        <time>2015-12-22T19:48:22.000Z</time>
      </trkpt>
      <trkpt lat="45.40164" lon="4.38564">
        <ele>746.85107421875</ele>
        <time>2015-12-22T19:48:25.000Z</time>
      </trkpt>
      <trkpt lat="45.40163" lon="4.38548">
        <ele>746.05895996094</ele>
        <time>2015-12-22T19:48:28.000Z</time>
      </trkpt>
      <trkpt lat="45.40165" lon="4.3854">
        <ele>747.28210449219</ele>
        <time>2015-12-22T19:48:30.000Z</time>
      </trkpt>
      <trkpt lat="45.40167" lon="4.38529">
        <ele>748.19348144531</ele>
        <time>2015-12-22T19:48:33.000Z</time>
      </trkpt>
      <trkpt lat="45.40167" lon="4.3852">
        <ele>748.16302490234</ele>
        <time>2015-12-22T19:48:35.000Z</time>
      </trkpt>
      <trkpt lat="45.40167" lon="4.38507">
        <ele>747.45550537109</ele>
        <time>2015-12-22T19:48:38.000Z</time>
      </trkpt>
      <trkpt lat="45.40166" lon="4.38495">
        <ele>748.11315917969</ele>
        <time>2015-12-22T19:48:41.000Z</time>
      </trkpt>
      <trkpt lat="45.40165" lon="4.38487">
        <ele>747.47760009766</ele>
        <time>2015-12-22T19:48:43.000Z</time>
      </trkpt>
      <trkpt lat="45.40163" lon="4.38474">
        <ele>746.59692382812</ele>
        <time>2015-12-22T19:48:46.000Z</time>
      </trkpt>
      <trkpt lat="45.40163" lon="4.38467">
        <ele>746.73999023438</ele>
        <time>2015-12-22T19:48:48.000Z</time>
      </trkpt>
      <trkpt lat="45.40161" lon="4.38456">
        <ele>747.74224853516</ele>
        <time>2015-12-22T19:48:51.000Z</time>
      </trkpt>
      <trkpt lat="45.4016" lon="4.38444">
        <ele>748.72045898438</ele>
        <time>2015-12-22T19:48:54.000Z</time>
      </trkpt>
      <trkpt lat="45.40159" lon="4.38432">
        <ele>748.88690185547</ele>
        <time>2015-12-22T19:48:57.000Z</time>
      </trkpt>
      <trkpt lat="45.40162" lon="4.38426">
        <ele>779.59698486328</ele>
        <time>2015-12-22T19:48:59.000Z</time>
      </trkpt>
      <trkpt lat="45.40155" lon="4.38413">
        <ele>841.03002929688</ele>
        <time>2015-12-22T19:49:02.000Z</time>
      </trkpt>
      <trkpt lat="45.4015" lon="4.384">
        <ele>809.23950195312</ele>
        <time>2015-12-22T19:49:05.000Z</time>
      </trkpt>
      <trkpt lat="45.40147" lon="4.38393">
        <ele>787.37585449219</ele>
        <time>2015-12-22T19:49:07.000Z</time>
      </trkpt>
      <trkpt lat="45.40146" lon="4.3838">
        <ele>769.80541992188</ele>
        <time>2015-12-22T19:49:10.000Z</time>
      </trkpt>
      <trkpt lat="45.40144" lon="4.38369">
        <ele>760.94781494141</ele>
        <time>2015-12-22T19:49:13.000Z</time>
      </trkpt>
      <trkpt lat="45.40144" lon="4.38361">
        <ele>758.51184082031</ele>
        <time>2015-12-22T19:49:15.000Z</time>
      </trkpt>
      <trkpt lat="45.40144" lon="4.38348">
        <ele>755.91839599609</ele>
        <time>2015-12-22T19:49:18.000Z</time>
      </trkpt>
      <trkpt lat="45.40143" lon="4.38338">
        <ele>754.71960449219</ele>
        <time>2015-12-22T19:49:20.000Z</time>
      </trkpt>
      <trkpt lat="45.40142" lon="4.3833">
        <ele>754.13073730469</ele>
        <time>2015-12-22T19:49:22.000Z</time>
      </trkpt>
      <trkpt lat="45.40142" lon="4.38318">
        <ele>754.22094726562</ele>
        <time>2015-12-22T19:49:25.000Z</time>
      </trkpt>
      <trkpt lat="45.40141" lon="4.38306">
        <ele>752.88049316406</ele>
        <time>2015-12-22T19:49:28.000Z</time>
      </trkpt>
      <trkpt lat="45.4014" lon="4.38297">
        <ele>751.48992919922</ele>
        <time>2015-12-22T19:49:30.000Z</time>
      </trkpt>
      <trkpt lat="45.40139" lon="4.38287">
        <ele>749.82904052734</ele>
        <time>2015-12-22T19:49:32.000Z</time>
      </trkpt>
      <trkpt lat="45.4014" lon="4.38274">
        <ele>749.33984375</ele>
        <time>2015-12-22T19:49:35.000Z</time>
      </trkpt>
      <trkpt lat="45.40141" lon="4.38263">
        <ele>748.81896972656</ele>
        <time>2015-12-22T19:49:38.000Z</time>
      </trkpt>
      <trkpt lat="45.40141" lon="4.38251">
        <ele>747.44360351562</ele>
        <time>2015-12-22T19:49:41.000Z</time>
      </trkpt>
      <trkpt lat="45.40143" lon="4.38238">
        <ele>746.25311279297</ele>
        <time>2015-12-22T19:49:44.000Z</time>
      </trkpt>
      <trkpt lat="45.40143" lon="4.38224">
        <ele>746.83996582031</ele>
        <time>2015-12-22T19:49:47.000Z</time>
      </trkpt>
      <trkpt lat="45.40142" lon="4.38209">
        <ele>745.74572753906</ele>
        <time>2015-12-22T19:49:50.000Z</time>
      </trkpt>
      <trkpt lat="45.40141" lon="4.38201">
        <ele>744.45843505859</ele>
        <time>2015-12-22T19:49:52.000Z</time>
      </trkpt>
      <trkpt lat="45.40141" lon="4.38195">
        <ele>744.111328125</ele>
        <time>2015-12-22T19:49:54.000Z</time>
      </trkpt>
      <trkpt lat="45.40141" lon="4.38183">
        <ele>743.998046875</ele>
        <time>2015-12-22T19:49:57.000Z</time>
      </trkpt>
      <trkpt lat="45.40142" lon="4.3817">
        <ele>744.64739990234</ele>
        <time>2015-12-22T19:50:00.000Z</time>
      </trkpt>
      <trkpt lat="45.40142" lon="4.38163">
        <ele>744.43426513672</ele>
        <time>2015-12-22T19:50:02.000Z</time>
      </trkpt>
      <trkpt lat="45.40144" lon="4.38152">
        <ele>744.15502929688</ele>
        <time>2015-12-22T19:50:05.000Z</time>
      </trkpt>
      <trkpt lat="45.40145" lon="4.38144">
        <ele>743.75567626953</ele>
        <time>2015-12-22T19:50:07.000Z</time>
      </trkpt>
      <trkpt lat="45.40145" lon="4.38131">
        <ele>742.78100585938</ele>
        <time>2015-12-22T19:50:10.000Z</time>
      </trkpt>
      <trkpt lat="45.40147" lon="4.38119">
        <ele>822.08978271484</ele>
        <time>2015-12-22T19:50:13.000Z</time>
      </trkpt>
      <trkpt lat="45.40147" lon="4.38113">
        <ele>810.79351806641</ele>
        <time>2015-12-22T19:50:15.000Z</time>
      </trkpt>
      <trkpt lat="45.4015" lon="4.38101">
        <ele>782.53540039062</ele>
        <time>2015-12-22T19:50:18.000Z</time>
      </trkpt>
      <trkpt lat="45.40148" lon="4.38088">
        <ele>761.65008544922</ele>
        <time>2015-12-22T19:50:21.000Z</time>
      </trkpt>
      <trkpt lat="45.40145" lon="4.38079">
        <ele>754.22454833984</ele>
        <time>2015-12-22T19:50:23.000Z</time>
      </trkpt>
      <trkpt lat="45.40147" lon="4.38067">
        <ele>746.80450439453</ele>
        <time>2015-12-22T19:50:26.000Z</time>
      </trkpt>
      <trkpt lat="45.40149" lon="4.38061">
        <ele>742.65014648438</ele>
        <time>2015-12-22T19:50:28.000Z</time>
      </trkpt>
      <trkpt lat="45.40152" lon="4.38051">
        <ele>739.06268310547</ele>
        <time>2015-12-22T19:50:31.000Z</time>
      </trkpt>
      <trkpt lat="45.40155" lon="4.3804">
        <ele>738.84271240234</ele>
        <time>2015-12-22T19:50:34.000Z</time>
      </trkpt>
      <trkpt lat="45.40159" lon="4.38031">
        <ele>738.26055908203</ele>
        <time>2015-12-22T19:50:37.000Z</time>
      </trkpt>
      <trkpt lat="45.40163" lon="4.38027">
        <ele>736.58361816406</ele>
        <time>2015-12-22T19:50:39.000Z</time>
      </trkpt>
      <trkpt lat="45.40168" lon="4.38024">
        <ele>735.21044921875</ele>
        <time>2015-12-22T19:50:41.000Z</time>
      </trkpt>
      <trkpt lat="45.40176" lon="4.38023">
        <ele>734.11474609375</ele>
        <time>2015-12-22T19:50:44.000Z</time>
      </trkpt>
      <trkpt lat="45.40182" lon="4.38024">
        <ele>733.42138671875</ele>
        <time>2015-12-22T19:50:46.000Z</time>
      </trkpt>
      <trkpt lat="45.4019" lon="4.38029">
        <ele>732.427734375</ele>
        <time>2015-12-22T19:50:49.000Z</time>
      </trkpt>
      <trkpt lat="45.40195" lon="4.38033">
        <ele>731.20697021484</ele>
        <time>2015-12-22T19:50:51.000Z</time>
      </trkpt>
      <trkpt lat="45.40197" lon="4.38037">
        <ele>730.25335693359</ele>
        <time>2015-12-22T19:50:53.000Z</time>
      </trkpt>
      <trkpt lat="45.402" lon="4.38041">
        <ele>728.03118896484</ele>
        <time>2015-12-22T19:50:55.000Z</time>
      </trkpt>
      <trkpt lat="45.40204" lon="4.38049">
        <ele>724.50048828125</ele>
        <time>2015-12-22T19:50:58.000Z</time>
      </trkpt>
      <trkpt lat="45.40208" lon="4.38056">
        <ele>722.33697509766</ele>
        <time>2015-12-22T19:51:01.000Z</time>
      </trkpt>
      <trkpt lat="45.40211" lon="4.38058">
        <ele>722.50750732422</ele>
        <time>2015-12-22T19:51:06.000Z</time>
      </trkpt>
      <trkpt lat="45.40211" lon="4.38058">
        <ele>708.40167236328</ele>
        <time>2015-12-22T19:51:26.000Z</time>
      </trkpt>
      <trkpt lat="45.40212" lon="4.38061">
        <ele>724.25469970703</ele>
        <time>2015-12-22T19:51:36.000Z</time>
      </trkpt>
      <trkpt lat="45.40213" lon="4.38064">
        <ele>724.89898681641</ele>
        <time>2015-12-22T19:51:39.000Z</time>
      </trkpt>
      <trkpt lat="45.40214" lon="4.38065">
        <ele>726.63879394531</ele>
        <time>2015-12-22T19:51:43.000Z</time>
      </trkpt>
      <trkpt lat="45.40215" lon="4.38066">
        <ele>729.08410644531</ele>
        <time>2015-12-22T19:51:47.000Z</time>
      </trkpt>
      <trkpt lat="45.40216" lon="4.3807">
        <ele>730.70715332031</ele>
        <time>2015-12-22T19:51:49.000Z</time>
      </trkpt>
      <trkpt lat="45.40217" lon="4.38088">
        <ele>727.44616699219</ele>
        <time>2015-12-22T19:51:52.000Z</time>
      </trkpt>
      <trkpt lat="45.40221" lon="4.38101">
        <ele>727.25238037109</ele>
        <time>2015-12-22T19:51:55.000Z</time>
      </trkpt>
      <trkpt lat="45.40224" lon="4.38111">
        <ele>725.90930175781</ele>
        <time>2015-12-22T19:51:57.000Z</time>
      </trkpt>
      <trkpt lat="45.40226" lon="4.38121">
        <ele>723.59136962891</ele>
        <time>2015-12-22T19:51:59.000Z</time>
      </trkpt>
      <trkpt lat="45.40225" lon="4.38128">
        <ele>719.37176513672</ele>
        <time>2015-12-22T19:52:01.000Z</time>
      </trkpt>
      <trkpt lat="45.40225" lon="4.38136">
        <ele>716.28082275391</ele>
        <time>2015-12-22T19:52:03.000Z</time>
      </trkpt>
      <trkpt lat="45.40225" lon="4.38143">
        <ele>715.91705322266</ele>
        <time>2015-12-22T19:52:05.000Z</time>
      </trkpt>
      <trkpt lat="45.40226" lon="4.38158">
        <ele>714.80657958984</ele>
        <time>2015-12-22T19:52:08.000Z</time>
      </trkpt>
      <trkpt lat="45.40226" lon="4.38165">
        <ele>714.451171875</ele>
        <time>2015-12-22T19:52:10.000Z</time>
      </trkpt>
      <trkpt lat="45.40229" lon="4.38178">
        <ele>714.14868164062</ele>
        <time>2015-12-22T19:52:13.000Z</time>
      </trkpt>
      <trkpt lat="45.40234" lon="4.38187">
        <ele>712.32080078125</ele>
        <time>2015-12-22T19:52:16.000Z</time>
      </trkpt>
      <trkpt lat="45.40244" lon="4.3819">
        <ele>710.19342041016</ele>
        <time>2015-12-22T19:52:19.000Z</time>
      </trkpt>
      <trkpt lat="45.40251" lon="4.38189">
        <ele>711.60668945312</ele>
        <time>2015-12-22T19:52:21.000Z</time>
      </trkpt>
      <trkpt lat="45.40259" lon="4.38184">
        <ele>710.85290527344</ele>
        <time>2015-12-22T19:52:24.000Z</time>
      </trkpt>
      <trkpt lat="45.40263" lon="4.38179">
        <ele>711.69659423828</ele>
        <time>2015-12-22T19:52:26.000Z</time>
      </trkpt>
      <trkpt lat="45.40268" lon="4.38168">
        <ele>711.86199951172</ele>
        <time>2015-12-22T19:52:29.000Z</time>
      </trkpt>
      <trkpt lat="45.40269" lon="4.3816">
        <ele>712.12408447266</ele>
        <time>2015-12-22T19:52:31.000Z</time>
      </trkpt>
      <trkpt lat="45.40268" lon="4.38152">
        <ele>713.13824462891</ele>
        <time>2015-12-22T19:52:33.000Z</time>
      </trkpt>
      <trkpt lat="45.40268" lon="4.38141">
        <ele>714.03436279297</ele>
        <time>2015-12-22T19:52:36.000Z</time>
      </trkpt>
      <trkpt lat="45.40267" lon="4.38133">
        <ele>713.50952148438</ele>
        <time>2015-12-22T19:52:38.000Z</time>
      </trkpt>
      <trkpt lat="45.40267" lon="4.3812">
        <ele>713.54431152344</ele>
        <time>2015-12-22T19:52:41.000Z</time>
      </trkpt>
      <trkpt lat="45.40265" lon="4.38106">
        <ele>712.96466064453</ele>
        <time>2015-12-22T19:52:44.000Z</time>
      </trkpt>
      <trkpt lat="45.40262" lon="4.38097">
        <ele>712.97778320312</ele>
        <time>2015-12-22T19:52:46.000Z</time>
      </trkpt>
      <trkpt lat="45.40261" lon="4.38089">
        <ele>712.68255615234</ele>
        <time>2015-12-22T19:52:48.000Z</time>
      </trkpt>
      <trkpt lat="45.40258" lon="4.38076">
        <ele>713.52984619141</ele>
        <time>2015-12-22T19:52:51.000Z</time>
      </trkpt>
      <trkpt lat="45.40257" lon="4.38065">
        <ele>712.61584472656</ele>
        <time>2015-12-22T19:52:54.000Z</time>
      </trkpt>
      <trkpt lat="45.40257" lon="4.38057">
        <ele>712.14245605469</ele>
        <time>2015-12-22T19:52:56.000Z</time>
      </trkpt>
      <trkpt lat="45.40255" lon="4.38045">
        <ele>712.23138427734</ele>
        <time>2015-12-22T19:52:59.000Z</time>
      </trkpt>
      <trkpt lat="45.40255" lon="4.38037">
        <ele>712.86633300781</ele>
        <time>2015-12-22T19:53:01.000Z</time>
      </trkpt>
      <trkpt lat="45.40254" lon="4.38028">
        <ele>713.59039306641</ele>
        <time>2015-12-22T19:53:04.000Z</time>
      </trkpt>
      <trkpt lat="45.40254" lon="4.38014">
        <ele>713.42236328125</ele>
        <time>2015-12-22T19:53:07.000Z</time>
      </trkpt>
      <trkpt lat="45.40254" lon="4.38007">
        <ele>713.99176025391</ele>
        <time>2015-12-22T19:53:09.000Z</time>
      </trkpt>
      <trkpt lat="45.40254" lon="4.37994">
        <ele>714.24334716797</ele>
        <time>2015-12-22T19:53:12.000Z</time>
      </trkpt>
      <trkpt lat="45.40255" lon="4.37981">
        <ele>713.07415771484</ele>
        <time>2015-12-22T19:53:15.000Z</time>
      </trkpt>
      <trkpt lat="45.40255" lon="4.37973">
        <ele>712.38714599609</ele>
        <time>2015-12-22T19:53:17.000Z</time>
      </trkpt>
      <trkpt lat="45.40255" lon="4.37957">
        <ele>711.16381835938</ele>
        <time>2015-12-22T19:53:20.000Z</time>
      </trkpt>
      <trkpt lat="45.40255" lon="4.37948">
        <ele>710.4404296875</ele>
        <time>2015-12-22T19:53:22.000Z</time>
      </trkpt>
      <trkpt lat="45.40256" lon="4.3794">
        <ele>710.14080810547</ele>
        <time>2015-12-22T19:53:24.000Z</time>
      </trkpt>
      <trkpt lat="45.40258" lon="4.37926">
        <ele>710.29876708984</ele>
        <time>2015-12-22T19:53:27.000Z</time>
      </trkpt>
      <trkpt lat="45.40257" lon="4.37916">
        <ele>711.59930419922</ele>
        <time>2015-12-22T19:53:29.000Z</time>
      </trkpt>
      <trkpt lat="45.40257" lon="4.37901">
        <ele>712.40637207031</ele>
        <time>2015-12-22T19:53:32.000Z</time>
      </trkpt>
      <trkpt lat="45.40255" lon="4.37891">
        <ele>711.62292480469</ele>
        <time>2015-12-22T19:53:34.000Z</time>
      </trkpt>
      <trkpt lat="45.40254" lon="4.37876">
        <ele>711.8642578125</ele>
        <time>2015-12-22T19:53:37.000Z</time>
      </trkpt>
      <trkpt lat="45.40253" lon="4.37866">
        <ele>710.71112060547</ele>
        <time>2015-12-22T19:53:39.000Z</time>
      </trkpt>
      <trkpt lat="45.4025" lon="4.37851">
        <ele>709.88665771484</ele>
        <time>2015-12-22T19:53:42.000Z</time>
      </trkpt>
      <trkpt lat="45.40244" lon="4.37838">
        <ele>706.52618408203</ele>
        <time>2015-12-22T19:53:45.000Z</time>
      </trkpt>
      <trkpt lat="45.40241" lon="4.37831">
        <ele>704.98986816406</ele>
        <time>2015-12-22T19:53:47.000Z</time>
      </trkpt>
      <trkpt lat="45.40235" lon="4.37818">
        <ele>704.16430664062</ele>
        <time>2015-12-22T19:53:50.000Z</time>
      </trkpt>
      <trkpt lat="45.40229" lon="4.3781">
        <ele>703.98779296875</ele>
        <time>2015-12-22T19:53:52.000Z</time>
      </trkpt>
      <trkpt lat="45.40222" lon="4.37799">
        <ele>704.44506835938</ele>
        <time>2015-12-22T19:53:55.000Z</time>
      </trkpt>
      <trkpt lat="45.40217" lon="4.37788">
        <ele>702.84802246094</ele>
        <time>2015-12-22T19:53:58.000Z</time>
      </trkpt>
      <trkpt lat="45.40214" lon="4.37779">
        <ele>702.7001953125</ele>
        <time>2015-12-22T19:54:01.000Z</time>
      </trkpt>
      <trkpt lat="45.4021" lon="4.37772">
        <ele>700.587890625</ele>
        <time>2015-12-22T19:54:03.000Z</time>
      </trkpt>
      <trkpt lat="45.40202" lon="4.37759">
        <ele>698.93811035156</ele>
        <time>2015-12-22T19:54:06.000Z</time>
      </trkpt>
      <trkpt lat="45.40199" lon="4.37751">
        <ele>698.93811035156</ele>
        <time>2015-12-22T19:54:08.000Z</time>
      </trkpt>
      <trkpt lat="45.40196" lon="4.37743">
        <ele>698.30682373047</ele>
        <time>2015-12-22T19:54:10.000Z</time>
      </trkpt>
      <trkpt lat="45.40192" lon="4.37728">
        <ele>699.14245605469</ele>
        <time>2015-12-22T19:54:13.000Z</time>
      </trkpt>
      <trkpt lat="45.40187" lon="4.37715">
        <ele>697.11590576172</ele>
        <time>2015-12-22T19:54:16.000Z</time>
      </trkpt>
      <trkpt lat="45.40182" lon="4.37701">
        <ele>694.16748046875</ele>
        <time>2015-12-22T19:54:19.000Z</time>
      </trkpt>
      <trkpt lat="45.40178" lon="4.37687">
        <ele>692.94647216797</ele>
        <time>2015-12-22T19:54:22.000Z</time>
      </trkpt>
      <trkpt lat="45.40173" lon="4.37677">
        <ele>693.69665527344</ele>
        <time>2015-12-22T19:54:24.000Z</time>
      </trkpt>
      <trkpt lat="45.40167" lon="4.37663">
        <ele>693.7431640625</ele>
        <time>2015-12-22T19:54:27.000Z</time>
      </trkpt>
      <trkpt lat="45.40165" lon="4.37655">
        <ele>693.86700439453</ele>
        <time>2015-12-22T19:54:29.000Z</time>
      </trkpt>
      <trkpt lat="45.40161" lon="4.37643">
        <ele>693.55700683594</ele>
        <time>2015-12-22T19:54:32.000Z</time>
      </trkpt>
      <trkpt lat="45.40157" lon="4.37637">
        <ele>693.16558837891</ele>
        <time>2015-12-22T19:54:34.000Z</time>
      </trkpt>
      <trkpt lat="45.4015" lon="4.3763">
        <ele>692.14849853516</ele>
        <time>2015-12-22T19:54:37.000Z</time>
      </trkpt>
      <trkpt lat="45.40146" lon="4.37626">
        <ele>692.37719726562</ele>
        <time>2015-12-22T19:54:39.000Z</time>
      </trkpt>
      <trkpt lat="45.40138" lon="4.37624">
        <ele>689.4541015625</ele>
        <time>2015-12-22T19:54:42.000Z</time>
      </trkpt>
      <trkpt lat="45.40133" lon="4.37624">
        <ele>689.73767089844</ele>
        <time>2015-12-22T19:54:44.000Z</time>
      </trkpt>
      <trkpt lat="45.40126" lon="4.37623">
        <ele>690.45184326172</ele>
        <time>2015-12-22T19:54:46.000Z</time>
      </trkpt>
      <trkpt lat="45.4012" lon="4.37623">
        <ele>690.13934326172</ele>
        <time>2015-12-22T19:54:48.000Z</time>
      </trkpt>
      <trkpt lat="45.40112" lon="4.37621">
        <ele>687.22033691406</ele>
        <time>2015-12-22T19:54:51.000Z</time>
      </trkpt>
      <trkpt lat="45.40107" lon="4.37617">
        <ele>685.78405761719</ele>
        <time>2015-12-22T19:54:53.000Z</time>
      </trkpt>
      <trkpt lat="45.401" lon="4.3761">
        <ele>684.61181640625</ele>
        <time>2015-12-22T19:54:56.000Z</time>
      </trkpt>
      <trkpt lat="45.40096" lon="4.37604">
        <ele>684.12261962891</ele>
        <time>2015-12-22T19:54:58.000Z</time>
      </trkpt>
      <trkpt lat="45.40094" lon="4.37593">
        <ele>683.55261230469</ele>
        <time>2015-12-22T19:55:01.000Z</time>
      </trkpt>
      <trkpt lat="45.40094" lon="4.37583">
        <ele>683.90380859375</ele>
        <time>2015-12-22T19:55:03.000Z</time>
      </trkpt>
      <trkpt lat="45.40097" lon="4.37572">
        <ele>686.70941162109</ele>
        <time>2015-12-22T19:55:06.000Z</time>
      </trkpt>
      <trkpt lat="45.40103" lon="4.37562">
        <ele>686.64849853516</ele>
        <time>2015-12-22T19:55:09.000Z</time>
      </trkpt>
      <trkpt lat="45.40108" lon="4.3756">
        <ele>684.91003417969</ele>
        <time>2015-12-22T19:55:11.000Z</time>
      </trkpt>
      <trkpt lat="45.40113" lon="4.37558">
        <ele>684.49792480469</ele>
        <time>2015-12-22T19:55:13.000Z</time>
      </trkpt>
      <trkpt lat="45.4012" lon="4.37556">
        <ele>684.52136230469</ele>
        <time>2015-12-22T19:55:15.000Z</time>
      </trkpt>
      <trkpt lat="45.40131" lon="4.37553">
        <ele>687.53485107422</ele>
        <time>2015-12-22T19:55:18.000Z</time>
      </trkpt>
      <trkpt lat="45.40137" lon="4.37551">
        <ele>689.75299072266</ele>
        <time>2015-12-22T19:55:20.000Z</time>
      </trkpt>
      <trkpt lat="45.40147" lon="4.37548">
        <ele>691.96527099609</ele>
        <time>2015-12-22T19:55:23.000Z</time>
      </trkpt>
      <trkpt lat="45.40154" lon="4.37545">
        <ele>691.22515869141</ele>
        <time>2015-12-22T19:55:25.000Z</time>
      </trkpt>
      <trkpt lat="45.40164" lon="4.37545">
        <ele>690.92779541016</ele>
        <time>2015-12-22T19:55:28.000Z</time>
      </trkpt>
      <trkpt lat="45.40171" lon="4.37546">
        <ele>691.11761474609</ele>
        <time>2015-12-22T19:55:30.000Z</time>
      </trkpt>
      <trkpt lat="45.40181" lon="4.37548">
        <ele>691.2666015625</ele>
        <time>2015-12-22T19:55:33.000Z</time>
      </trkpt>
      <trkpt lat="45.40188" lon="4.37552">
        <ele>690.26489257812</ele>
        <time>2015-12-22T19:55:36.000Z</time>
      </trkpt>
      <trkpt lat="45.40193" lon="4.37555">
        <ele>688.38275146484</ele>
        <time>2015-12-22T19:55:38.000Z</time>
      </trkpt>
      <trkpt lat="45.40202" lon="4.37562">
        <ele>686.96850585938</ele>
        <time>2015-12-22T19:55:41.000Z</time>
      </trkpt>
      <trkpt lat="45.40211" lon="4.37571">
        <ele>682.23992919922</ele>
        <time>2015-12-22T19:55:44.000Z</time>
      </trkpt>
      <trkpt lat="45.40217" lon="4.37575">
        <ele>680.20599365234</ele>
        <time>2015-12-22T19:55:46.000Z</time>
      </trkpt>
      <trkpt lat="45.40221" lon="4.37582">
        <ele>679.92889404297</ele>
        <time>2015-12-22T19:55:48.000Z</time>
      </trkpt>
      <trkpt lat="45.40226" lon="4.37592">
        <ele>677.78625488281</ele>
        <time>2015-12-22T19:55:51.000Z</time>
      </trkpt>
      <trkpt lat="45.40232" lon="4.37597">
        <ele>678.58551025391</ele>
        <time>2015-12-22T19:55:53.000Z</time>
      </trkpt>
      <trkpt lat="45.40239" lon="4.37605">
        <ele>676.98052978516</ele>
        <time>2015-12-22T19:55:56.000Z</time>
      </trkpt>
      <trkpt lat="45.40244" lon="4.37611">
        <ele>675.69763183594</ele>
        <time>2015-12-22T19:55:58.000Z</time>
      </trkpt>
      <trkpt lat="45.40248" lon="4.37617">
        <ele>673.56475830078</ele>
        <time>2015-12-22T19:56:00.000Z</time>
      </trkpt>
      <trkpt lat="45.40255" lon="4.37627">
        <ele>672.45172119141</ele>
        <time>2015-12-22T19:56:03.000Z</time>
      </trkpt>
      <trkpt lat="45.4026" lon="4.37635">
        <ele>669.00646972656</ele>
        <time>2015-12-22T19:56:05.000Z</time>
      </trkpt>
      <trkpt lat="45.40266" lon="4.37647">
        <ele>668.33203125</ele>
        <time>2015-12-22T19:56:08.000Z</time>
      </trkpt>
      <trkpt lat="45.40273" lon="4.37657">
        <ele>667.39868164062</ele>
        <time>2015-12-22T19:56:11.000Z</time>
      </trkpt>
      <trkpt lat="45.40279" lon="4.37666">
        <ele>665.123046875</ele>
        <time>2015-12-22T19:56:14.000Z</time>
      </trkpt>
      <trkpt lat="45.40283" lon="4.37674">
        <ele>663.05450439453</ele>
        <time>2015-12-22T19:56:16.000Z</time>
      </trkpt>
      <trkpt lat="45.40287" lon="4.3768">
        <ele>660.20336914062</ele>
        <time>2015-12-22T19:56:18.000Z</time>
      </trkpt>
      <trkpt lat="45.40292" lon="4.37692">
        <ele>657.52191162109</ele>
        <time>2015-12-22T19:56:21.000Z</time>
      </trkpt>
      <trkpt lat="45.40299" lon="4.37701">
        <ele>657.55078125</ele>
        <time>2015-12-22T19:56:24.000Z</time>
      </trkpt>
      <trkpt lat="45.40303" lon="4.37708">
        <ele>656.28454589844</ele>
        <time>2015-12-22T19:56:26.000Z</time>
      </trkpt>
      <trkpt lat="45.40309" lon="4.37719">
        <ele>653.59735107422</ele>
        <time>2015-12-22T19:56:29.000Z</time>
      </trkpt>
      <trkpt lat="45.40313" lon="4.37725">
        <ele>652.56915283203</ele>
        <time>2015-12-22T19:56:31.000Z</time>
      </trkpt>
      <trkpt lat="45.40321" lon="4.37733">
        <ele>651.99078369141</ele>
        <time>2015-12-22T19:56:34.000Z</time>
      </trkpt>
      <trkpt lat="45.40329" lon="4.37741">
        <ele>655.08947753906</ele>
        <time>2015-12-22T19:56:37.000Z</time>
      </trkpt>
      <trkpt lat="45.40337" lon="4.37749">
        <ele>653.93334960938</ele>
        <time>2015-12-22T19:56:40.000Z</time>
      </trkpt>
      <trkpt lat="45.40343" lon="4.37757">
        <ele>653.81634521484</ele>
        <time>2015-12-22T19:56:43.000Z</time>
      </trkpt>
      <trkpt lat="45.40348" lon="4.37763">
        <ele>654.68890380859</ele>
        <time>2015-12-22T19:56:45.000Z</time>
      </trkpt>
      <trkpt lat="45.40354" lon="4.37768">
        <ele>654.85192871094</ele>
        <time>2015-12-22T19:56:47.000Z</time>
      </trkpt>
      <trkpt lat="45.40363" lon="4.37775">
        <ele>653.38610839844</ele>
        <time>2015-12-22T19:56:50.000Z</time>
      </trkpt>
      <trkpt lat="45.40372" lon="4.37783">
        <ele>650.63366699219</ele>
        <time>2015-12-22T19:56:53.000Z</time>
      </trkpt>
      <trkpt lat="45.40382" lon="4.37793">
        <ele>649.95343017578</ele>
        <time>2015-12-22T19:56:56.000Z</time>
      </trkpt>
      <trkpt lat="45.40388" lon="4.378">
        <ele>650.69989013672</ele>
        <time>2015-12-22T19:56:58.000Z</time>
      </trkpt>
      <trkpt lat="45.40395" lon="4.3781">
        <ele>650.84600830078</ele>
        <time>2015-12-22T19:57:01.000Z</time>
      </trkpt>
      <trkpt lat="45.40401" lon="4.37814">
        <ele>650.45819091797</ele>
        <time>2015-12-22T19:57:03.000Z</time>
      </trkpt>
      <trkpt lat="45.40412" lon="4.3782">
        <ele>649.00390625</ele>
        <time>2015-12-22T19:57:06.000Z</time>
      </trkpt>
      <trkpt lat="45.40419" lon="4.37827">
        <ele>649.18505859375</ele>
        <time>2015-12-22T19:57:09.000Z</time>
      </trkpt>
      <trkpt lat="45.40423" lon="4.37834">
        <ele>649.51501464844</ele>
        <time>2015-12-22T19:57:11.000Z</time>
      </trkpt>
      <trkpt lat="45.40428" lon="4.37841">
        <ele>649.8974609375</ele>
        <time>2015-12-22T19:57:13.000Z</time>
      </trkpt>
      <trkpt lat="45.40434" lon="4.37851">
        <ele>648.70825195312</ele>
        <time>2015-12-22T19:57:16.000Z</time>
      </trkpt>
      <trkpt lat="45.40438" lon="4.37859">
        <ele>647.30456542969</ele>
        <time>2015-12-22T19:57:18.000Z</time>
      </trkpt>
      <trkpt lat="45.40445" lon="4.3787">
        <ele>646.77746582031</ele>
        <time>2015-12-22T19:57:21.000Z</time>
      </trkpt>
      <trkpt lat="45.40451" lon="4.37877">
        <ele>648.09045410156</ele>
        <time>2015-12-22T19:57:24.000Z</time>
      </trkpt>
      <trkpt lat="45.40456" lon="4.37883">
        <ele>648.14044189453</ele>
        <time>2015-12-22T19:57:27.000Z</time>
      </trkpt>
      <trkpt lat="45.40462" lon="4.37892">
        <ele>648.00360107422</ele>
        <time>2015-12-22T19:57:30.000Z</time>
      </trkpt>
      <trkpt lat="45.40471" lon="4.379">
        <ele>646.19219970703</ele>
        <time>2015-12-22T19:57:33.000Z</time>
      </trkpt>
      <trkpt lat="45.40479" lon="4.3791">
        <ele>643.75445556641</ele>
        <time>2015-12-22T19:57:36.000Z</time>
      </trkpt>
      <trkpt lat="45.40482" lon="4.37917">
        <ele>642.33197021484</ele>
        <time>2015-12-22T19:57:38.000Z</time>
      </trkpt>
      <trkpt lat="45.40489" lon="4.37927">
        <ele>641.80181884766</ele>
        <time>2015-12-22T19:57:41.000Z</time>
      </trkpt>
      <trkpt lat="45.40495" lon="4.37933">
        <ele>642.79180908203</ele>
        <time>2015-12-22T19:57:43.000Z</time>
      </trkpt>
      <trkpt lat="45.40504" lon="4.37942">
        <ele>640.89178466797</ele>
        <time>2015-12-22T19:57:46.000Z</time>
      </trkpt>
      <trkpt lat="45.40511" lon="4.37946">
        <ele>638.68182373047</ele>
        <time>2015-12-22T19:57:48.000Z</time>
      </trkpt>
      <trkpt lat="45.40522" lon="4.37953">
        <ele>637.52001953125</ele>
        <time>2015-12-22T19:57:51.000Z</time>
      </trkpt>
      <trkpt lat="45.40529" lon="4.37958">
        <ele>636.16845703125</ele>
        <time>2015-12-22T19:57:53.000Z</time>
      </trkpt>
      <trkpt lat="45.40538" lon="4.37965">
        <ele>634.06842041016</ele>
        <time>2015-12-22T19:57:56.000Z</time>
      </trkpt>
      <trkpt lat="45.40544" lon="4.3797">
        <ele>636.02807617188</ele>
        <time>2015-12-22T19:57:58.000Z</time>
      </trkpt>
      <trkpt lat="45.40552" lon="4.37978">
        <ele>637.63165283203</ele>
        <time>2015-12-22T19:58:01.000Z</time>
      </trkpt>
      <trkpt lat="45.40558" lon="4.37983">
        <ele>637.44812011719</ele>
        <time>2015-12-22T19:58:03.000Z</time>
      </trkpt>
      <trkpt lat="45.40566" lon="4.37994">
        <ele>638.62036132812</ele>
        <time>2015-12-22T19:58:06.000Z</time>
      </trkpt>
      <trkpt lat="45.40569" lon="4.38002">
        <ele>638.61907958984</ele>
        <time>2015-12-22T19:58:08.000Z</time>
      </trkpt>
      <trkpt lat="45.40572" lon="4.38012">
        <ele>638.83709716797</ele>
        <time>2015-12-22T19:58:10.000Z</time>
      </trkpt>
      <trkpt lat="45.40578" lon="4.38022">
        <ele>637.55682373047</ele>
        <time>2015-12-22T19:58:13.000Z</time>
      </trkpt>
      <trkpt lat="45.40586" lon="4.38032">
        <ele>639.14428710938</ele>
        <time>2015-12-22T19:58:16.000Z</time>
      </trkpt>
      <trkpt lat="45.40591" lon="4.3804">
        <ele>638.66516113281</ele>
        <time>2015-12-22T19:58:18.000Z</time>
      </trkpt>
      <trkpt lat="45.40598" lon="4.38051">
        <ele>637.90478515625</ele>
        <time>2015-12-22T19:58:21.000Z</time>
      </trkpt>
      <trkpt lat="45.40604" lon="4.38061">
        <ele>637.32092285156</ele>
        <time>2015-12-22T19:58:24.000Z</time>
      </trkpt>
      <trkpt lat="45.40611" lon="4.38072">
        <ele>637.98034667969</ele>
        <time>2015-12-22T19:58:27.000Z</time>
      </trkpt>
      <trkpt lat="45.40614" lon="4.3808">
        <ele>637.17864990234</ele>
        <time>2015-12-22T19:58:29.000Z</time>
      </trkpt>
      <trkpt lat="45.40617" lon="4.3809">
        <ele>636.91107177734</ele>
        <time>2015-12-22T19:58:31.000Z</time>
      </trkpt>
      <trkpt lat="45.40619" lon="4.38099">
        <ele>635.92138671875</ele>
        <time>2015-12-22T19:58:33.000Z</time>
      </trkpt>
      <trkpt lat="45.40623" lon="4.38112">
        <ele>634.35388183594</ele>
        <time>2015-12-22T19:58:36.000Z</time>
      </trkpt>
      <trkpt lat="45.40627" lon="4.38119">
        <ele>633.89172363281</ele>
        <time>2015-12-22T19:58:38.000Z</time>
      </trkpt>
      <trkpt lat="45.40635" lon="4.38117">
        <ele>634.99188232422</ele>
        <time>2015-12-22T19:58:41.000Z</time>
      </trkpt>
      <trkpt lat="45.40641" lon="4.38113">
        <ele>634.39587402344</ele>
        <time>2015-12-22T19:58:43.000Z</time>
      </trkpt>
      <trkpt lat="45.40646" lon="4.38108">
        <ele>633.63336181641</ele>
        <time>2015-12-22T19:58:45.000Z</time>
      </trkpt>
      <trkpt lat="45.40653" lon="4.38098">
        <ele>634.31579589844</ele>
        <time>2015-12-22T19:58:48.000Z</time>
      </trkpt>
      <trkpt lat="45.40657" lon="4.38092">
        <ele>634.61938476562</ele>
        <time>2015-12-22T19:58:50.000Z</time>
      </trkpt>
      <trkpt lat="45.40663" lon="4.38083">
        <ele>631.88562011719</ele>
        <time>2015-12-22T19:58:53.000Z</time>
      </trkpt>
      <trkpt lat="45.40666" lon="4.38077">
        <ele>629.03582763672</ele>
        <time>2015-12-22T19:58:55.000Z</time>
      </trkpt>
      <trkpt lat="45.40673" lon="4.38065">
        <ele>627.6240234375</ele>
        <time>2015-12-22T19:58:58.000Z</time>
      </trkpt>
      <trkpt lat="45.40681" lon="4.38059">
        <ele>631.39190673828</ele>
        <time>2015-12-22T19:59:00.000Z</time>
      </trkpt>
      <trkpt lat="45.40685" lon="4.38054">
        <ele>632.47009277344</ele>
        <time>2015-12-22T19:59:02.000Z</time>
      </trkpt>
      <trkpt lat="45.40689" lon="4.3805">
        <ele>634.34783935547</ele>
        <time>2015-12-22T19:59:05.000Z</time>
      </trkpt>
      <trkpt lat="45.40695" lon="4.3805">
        <ele>637.01098632812</ele>
        <time>2015-12-22T19:59:07.000Z</time>
      </trkpt>
      <trkpt lat="45.40701" lon="4.38049">
        <ele>639.90496826172</ele>
        <time>2015-12-22T19:59:09.000Z</time>
      </trkpt>
      <trkpt lat="45.40706" lon="4.38045">
        <ele>642.52264404297</ele>
        <time>2015-12-22T19:59:11.000Z</time>
      </trkpt>
      <trkpt lat="45.40709" lon="4.38037">
        <ele>639.19342041016</ele>
        <time>2015-12-22T19:59:14.000Z</time>
      </trkpt>
      <trkpt lat="45.4071" lon="4.38036">
        <ele>637.08905029297</ele>
        <time>2015-12-22T19:59:16.000Z</time>
      </trkpt>
      <trkpt lat="45.40714" lon="4.38037">
        <ele>635.25354003906</ele>
        <time>2015-12-22T19:59:18.000Z</time>
      </trkpt>
      <trkpt lat="45.40722" lon="4.38038">
        <ele>634.2421875</ele>
        <time>2015-12-22T19:59:21.000Z</time>
      </trkpt>
      <trkpt lat="45.40727" lon="4.3804">
        <ele>633.52764892578</ele>
        <time>2015-12-22T19:59:23.000Z</time>
      </trkpt>
      <trkpt lat="45.40732" lon="4.38053">
        <ele>631.54797363281</ele>
        <time>2015-12-22T19:59:25.000Z</time>
      </trkpt>
      <trkpt lat="45.40732" lon="4.38056">
        <ele>632.40850830078</ele>
        <time>2015-12-22T19:59:28.000Z</time>
      </trkpt>
      <trkpt lat="45.40735" lon="4.38057">
        <ele>634.791015625</ele>
        <time>2015-12-22T19:59:30.000Z</time>
      </trkpt>
      <trkpt lat="45.40742" lon="4.38061">
        <ele>638.31903076172</ele>
        <time>2015-12-22T19:59:33.000Z</time>
      </trkpt>
      <trkpt lat="45.40748" lon="4.38062">
        <ele>635.03033447266</ele>
        <time>2015-12-22T19:59:36.000Z</time>
      </trkpt>
      <trkpt lat="45.40755" lon="4.38062">
        <ele>632.70892333984</ele>
        <time>2015-12-22T19:59:39.000Z</time>
      </trkpt>
      <trkpt lat="45.40757" lon="4.3807">
        <ele>631.75897216797</ele>
        <time>2015-12-22T19:59:41.000Z</time>
      </trkpt>
      <trkpt lat="45.4076" lon="4.38082">
        <ele>629.82543945312</ele>
        <time>2015-12-22T19:59:44.000Z</time>
      </trkpt>
      <trkpt lat="45.40763" lon="4.38087">
        <ele>630.3251953125</ele>
        <time>2015-12-22T19:59:46.000Z</time>
      </trkpt>
      <trkpt lat="45.40774" lon="4.38106">
        <ele>626.77984619141</ele>
        <time>2015-12-22T19:59:49.000Z</time>
      </trkpt>
      <trkpt lat="45.40777" lon="4.38117">
        <ele>625.25952148438</ele>
        <time>2015-12-22T19:59:51.000Z</time>
      </trkpt>
      <trkpt lat="45.40783" lon="4.38124">
        <ele>623.98028564453</ele>
        <time>2015-12-22T19:59:53.000Z</time>
      </trkpt>
      <trkpt lat="45.4079" lon="4.38136">
        <ele>623.06134033203</ele>
        <time>2015-12-22T19:59:56.000Z</time>
      </trkpt>
      <trkpt lat="45.40795" lon="4.38148">
        <ele>624.12957763672</ele>
        <time>2015-12-22T19:59:59.000Z</time>
      </trkpt>
      <trkpt lat="45.408" lon="4.38154">
        <ele>622.70581054688</ele>
        <time>2015-12-22T20:00:01.000Z</time>
      </trkpt>
      <trkpt lat="45.40807" lon="4.38162">
        <ele>621.92547607422</ele>
        <time>2015-12-22T20:00:03.000Z</time>
      </trkpt>
      <trkpt lat="45.40814" lon="4.38174">
        <ele>622.08911132812</ele>
        <time>2015-12-22T20:00:06.000Z</time>
      </trkpt>
      <trkpt lat="45.40819" lon="4.38178">
        <ele>620.08197021484</ele>
        <time>2015-12-22T20:00:08.000Z</time>
      </trkpt>
      <trkpt lat="45.40823" lon="4.38182">
        <ele>618.15844726562</ele>
        <time>2015-12-22T20:00:10.000Z</time>
      </trkpt>
      <trkpt lat="45.40831" lon="4.38189">
        <ele>615.86016845703</ele>
        <time>2015-12-22T20:00:13.000Z</time>
      </trkpt>
      <trkpt lat="45.40835" lon="4.38194">
        <ele>615.44207763672</ele>
        <time>2015-12-22T20:00:15.000Z</time>
      </trkpt>
      <trkpt lat="45.40839" lon="4.38199">
        <ele>615.37249755859</ele>
        <time>2015-12-22T20:00:17.000Z</time>
      </trkpt>
      <trkpt lat="45.40848" lon="4.38204">
        <ele>616.14227294922</ele>
        <time>2015-12-22T20:00:20.000Z</time>
      </trkpt>
      <trkpt lat="45.40855" lon="4.38208">
        <ele>616.41973876953</ele>
        <time>2015-12-22T20:00:22.000Z</time>
      </trkpt>
      <trkpt lat="45.40864" lon="4.38215">
        <ele>615.14709472656</ele>
        <time>2015-12-22T20:00:25.000Z</time>
      </trkpt>
      <trkpt lat="45.40873" lon="4.38223">
        <ele>614.46527099609</ele>
        <time>2015-12-22T20:00:28.000Z</time>
      </trkpt>
      <trkpt lat="45.40879" lon="4.38226">
        <ele>614.41589355469</ele>
        <time>2015-12-22T20:00:30.000Z</time>
      </trkpt>
      <trkpt lat="45.40887" lon="4.38234">
        <ele>614.41979980469</ele>
        <time>2015-12-22T20:00:33.000Z</time>
      </trkpt>
      <trkpt lat="45.40894" lon="4.38243">
        <ele>614.66094970703</ele>
        <time>2015-12-22T20:00:36.000Z</time>
      </trkpt>
      <trkpt lat="45.40899" lon="4.38248">
        <ele>615.35510253906</ele>
        <time>2015-12-22T20:00:38.000Z</time>
      </trkpt>
      <trkpt lat="45.40909" lon="4.38256">
        <ele>615.43530273438</ele>
        <time>2015-12-22T20:00:41.000Z</time>
      </trkpt>
      <trkpt lat="45.40913" lon="4.3826">
        <ele>614.6943359375</ele>
        <time>2015-12-22T20:00:43.000Z</time>
      </trkpt>
      <trkpt lat="45.4092" lon="4.38269">
        <ele>613.27191162109</ele>
        <time>2015-12-22T20:00:46.000Z</time>
      </trkpt>
      <trkpt lat="45.40924" lon="4.38273">
        <ele>613.98297119141</ele>
        <time>2015-12-22T20:00:48.000Z</time>
      </trkpt>
      <trkpt lat="45.4093" lon="4.38285">
        <ele>613.70922851562</ele>
        <time>2015-12-22T20:00:51.000Z</time>
      </trkpt>
      <trkpt lat="45.40933" lon="4.38293">
        <ele>612.37622070312</ele>
        <time>2015-12-22T20:00:53.000Z</time>
      </trkpt>
      <trkpt lat="45.40937" lon="4.38308">
        <ele>611.69982910156</ele>
        <time>2015-12-22T20:00:56.000Z</time>
      </trkpt>
      <trkpt lat="45.4094" lon="4.38317">
        <ele>611.50170898438</ele>
        <time>2015-12-22T20:00:58.000Z</time>
      </trkpt>
      <trkpt lat="45.40945" lon="4.38327">
        <ele>610.31188964844</ele>
        <time>2015-12-22T20:01:01.000Z</time>
      </trkpt>
      <trkpt lat="45.4095" lon="4.38336">
        <ele>610.36846923828</ele>
        <time>2015-12-22T20:01:04.000Z</time>
      </trkpt>
      <trkpt lat="45.40955" lon="4.38344">
        <ele>609.35101318359</ele>
        <time>2015-12-22T20:01:07.000Z</time>
      </trkpt>
      <trkpt lat="45.40959" lon="4.38352">
        <ele>608.36938476562</ele>
        <time>2015-12-22T20:01:10.000Z</time>
      </trkpt>
      <trkpt lat="45.4096" lon="4.38356">
        <ele>607.15447998047</ele>
        <time>2015-12-22T20:01:12.000Z</time>
      </trkpt>
      <trkpt lat="45.40957" lon="4.38361">
        <ele>607.12072753906</ele>
        <time>2015-12-22T20:01:14.000Z</time>
      </trkpt>
      <trkpt lat="45.40954" lon="4.38377">
        <ele>608.19580078125</ele>
        <time>2015-12-22T20:01:17.000Z</time>
      </trkpt>
      <trkpt lat="45.40953" lon="4.38385">
        <ele>609.19555664062</ele>
        <time>2015-12-22T20:01:19.000Z</time>
      </trkpt>
      <trkpt lat="45.40952" lon="4.38393">
        <ele>609.56140136719</ele>
        <time>2015-12-22T20:01:22.000Z</time>
      </trkpt>
      <trkpt lat="45.40947" lon="4.38398">
        <ele>607.64971923828</ele>
        <time>2015-12-22T20:01:24.000Z</time>
      </trkpt>
      <trkpt lat="45.40941" lon="4.38403">
        <ele>605.65393066406</ele>
        <time>2015-12-22T20:01:26.000Z</time>
      </trkpt>
      <trkpt lat="45.40931" lon="4.38411">
        <ele>604.79461669922</ele>
        <time>2015-12-22T20:01:29.000Z</time>
      </trkpt>
      <trkpt lat="45.40928" lon="4.38418">
        <ele>604.20245361328</ele>
        <time>2015-12-22T20:01:31.000Z</time>
      </trkpt>
      <trkpt lat="45.4093" lon="4.38437">
        <ele>604.32763671875</ele>
        <time>2015-12-22T20:01:34.000Z</time>
      </trkpt>
      <trkpt lat="45.40936" lon="4.38454">
        <ele>604.41723632812</ele>
        <time>2015-12-22T20:01:37.000Z</time>
      </trkpt>
      <trkpt lat="45.40941" lon="4.38469">
        <ele>605.36267089844</ele>
        <time>2015-12-22T20:01:40.000Z</time>
      </trkpt>
      <trkpt lat="45.40944" lon="4.38478">
        <ele>605.60241699219</ele>
        <time>2015-12-22T20:01:42.000Z</time>
      </trkpt>
      <trkpt lat="45.40946" lon="4.38486">
        <ele>604.56768798828</ele>
        <time>2015-12-22T20:01:44.000Z</time>
      </trkpt>
      <trkpt lat="45.40947" lon="4.38493">
        <ele>603.98876953125</ele>
        <time>2015-12-22T20:01:46.000Z</time>
      </trkpt>
      <trkpt lat="45.4095" lon="4.38505">
        <ele>603.07452392578</ele>
        <time>2015-12-22T20:01:49.000Z</time>
      </trkpt>
      <trkpt lat="45.40951" lon="4.38517">
        <ele>602.96942138672</ele>
        <time>2015-12-22T20:01:51.000Z</time>
      </trkpt>
      <trkpt lat="45.40953" lon="4.3853">
        <ele>601.85064697266</ele>
        <time>2015-12-22T20:01:54.000Z</time>
      </trkpt>
      <trkpt lat="45.40955" lon="4.3854">
        <ele>601.84075927734</ele>
        <time>2015-12-22T20:01:56.000Z</time>
      </trkpt>
      <trkpt lat="45.40956" lon="4.38549">
        <ele>602.93988037109</ele>
        <time>2015-12-22T20:01:58.000Z</time>
      </trkpt>
      <trkpt lat="45.40958" lon="4.38561">
        <ele>603.29211425781</ele>
        <time>2015-12-22T20:02:01.000Z</time>
      </trkpt>
      <trkpt lat="45.40959" lon="4.38571">
        <ele>602.44757080078</ele>
        <time>2015-12-22T20:02:04.000Z</time>
      </trkpt>
      <trkpt lat="45.40958" lon="4.38581">
        <ele>601.86407470703</ele>
        <time>2015-12-22T20:02:07.000Z</time>
      </trkpt>
      <trkpt lat="45.40958" lon="4.38591">
        <ele>643.52801513672</ele>
        <time>2015-12-22T20:02:09.000Z</time>
      </trkpt>
      <trkpt lat="45.40961" lon="4.38607">
        <ele>630.65802001953</ele>
        <time>2015-12-22T20:02:12.000Z</time>
      </trkpt>
      <trkpt lat="45.40963" lon="4.38617">
        <ele>619.47473144531</ele>
        <time>2015-12-22T20:02:14.000Z</time>
      </trkpt>
      <trkpt lat="45.40966" lon="4.38627">
        <ele>612.32415771484</ele>
        <time>2015-12-22T20:02:17.000Z</time>
      </trkpt>
      <trkpt lat="45.40966" lon="4.38633">
        <ele>608.32196044922</ele>
        <time>2015-12-22T20:02:19.000Z</time>
      </trkpt>
      <trkpt lat="45.40964" lon="4.38643">
        <ele>603.92779541016</ele>
        <time>2015-12-22T20:02:22.000Z</time>
      </trkpt>
      <trkpt lat="45.40963" lon="4.38652">
        <ele>601.45269775391</ele>
        <time>2015-12-22T20:02:25.000Z</time>
      </trkpt>
      <trkpt lat="45.40963" lon="4.38658">
        <ele>600.53198242188</ele>
        <time>2015-12-22T20:02:28.000Z</time>
      </trkpt>
      <trkpt lat="45.40957" lon="4.38665">
        <ele>602.47528076172</ele>
        <time>2015-12-22T20:02:30.000Z</time>
      </trkpt>
      <trkpt lat="45.40955" lon="4.38676">
        <ele>602.38641357422</ele>
        <time>2015-12-22T20:02:33.000Z</time>
      </trkpt>
      <trkpt lat="45.40954" lon="4.38689">
        <ele>601.07336425781</ele>
        <time>2015-12-22T20:02:36.000Z</time>
      </trkpt>
      <trkpt lat="45.40955" lon="4.38696">
        <ele>600.36285400391</ele>
        <time>2015-12-22T20:02:38.000Z</time>
      </trkpt>
      <trkpt lat="45.4096" lon="4.38705">
        <ele>595.25653076172</ele>
        <time>2015-12-22T20:02:41.000Z</time>
      </trkpt>
      <trkpt lat="45.40965" lon="4.38711">
        <ele>594.97241210938</ele>
        <time>2015-12-22T20:02:43.000Z</time>
      </trkpt>
      <trkpt lat="45.40968" lon="4.38719">
        <ele>595.34899902344</ele>
        <time>2015-12-22T20:02:45.000Z</time>
      </trkpt>
      <trkpt lat="45.40972" lon="4.38729">
        <ele>594.57971191406</ele>
        <time>2015-12-22T20:02:48.000Z</time>
      </trkpt>
      <trkpt lat="45.40974" lon="4.38737">
        <ele>594.12957763672</ele>
        <time>2015-12-22T20:02:50.000Z</time>
      </trkpt>
      <trkpt lat="45.40977" lon="4.38745">
        <ele>594.24237060547</ele>
        <time>2015-12-22T20:02:52.000Z</time>
      </trkpt>
      <trkpt lat="45.40981" lon="4.38751">
        <ele>594.39880371094</ele>
        <time>2015-12-22T20:02:54.000Z</time>
      </trkpt>
      <trkpt lat="45.40988" lon="4.3876">
        <ele>594.42712402344</ele>
        <time>2015-12-22T20:02:57.000Z</time>
      </trkpt>
      <trkpt lat="45.40994" lon="4.38764">
        <ele>593.24761962891</ele>
        <time>2015-12-22T20:02:59.000Z</time>
      </trkpt>
      <trkpt lat="45.40999" lon="4.38768">
        <ele>593.26519775391</ele>
        <time>2015-12-22T20:03:01.000Z</time>
      </trkpt>
      <trkpt lat="45.41006" lon="4.38776">
        <ele>593.93463134766</ele>
        <time>2015-12-22T20:03:04.000Z</time>
      </trkpt>
      <trkpt lat="45.41012" lon="4.38784">
        <ele>592.52685546875</ele>
        <time>2015-12-22T20:03:07.000Z</time>
      </trkpt>
      <trkpt lat="45.41017" lon="4.3879">
        <ele>592.80718994141</ele>
        <time>2015-12-22T20:03:09.000Z</time>
      </trkpt>
      <trkpt lat="45.41026" lon="4.38797">
        <ele>596.16442871094</ele>
        <time>2015-12-22T20:03:12.000Z</time>
      </trkpt>
      <trkpt lat="45.4103" lon="4.38802">
        <ele>596.55755615234</ele>
        <time>2015-12-22T20:03:14.000Z</time>
      </trkpt>
      <trkpt lat="45.41035" lon="4.38806">
        <ele>595.71331787109</ele>
        <time>2015-12-22T20:03:16.000Z</time>
      </trkpt>
      <trkpt lat="45.41043" lon="4.38815">
        <ele>594.46319580078</ele>
        <time>2015-12-22T20:03:19.000Z</time>
      </trkpt>
      <trkpt lat="45.4105" lon="4.38822">
        <ele>592.22607421875</ele>
        <time>2015-12-22T20:03:22.000Z</time>
      </trkpt>
      <trkpt lat="45.41054" lon="4.38829">
        <ele>592.54638671875</ele>
        <time>2015-12-22T20:03:24.000Z</time>
      </trkpt>
      <trkpt lat="45.41057" lon="4.38835">
        <ele>592.13586425781</ele>
        <time>2015-12-22T20:03:26.000Z</time>
      </trkpt>
      <trkpt lat="45.4106" lon="4.38844">
        <ele>590.91485595703</ele>
        <time>2015-12-22T20:03:28.000Z</time>
      </trkpt>
      <trkpt lat="45.41065" lon="4.38853">
        <ele>590.26312255859</ele>
        <time>2015-12-22T20:03:31.000Z</time>
      </trkpt>
      <trkpt lat="45.41069" lon="4.3886">
        <ele>588.47845458984</ele>
        <time>2015-12-22T20:03:33.000Z</time>
      </trkpt>
      <trkpt lat="45.41076" lon="4.38869">
        <ele>587.796875</ele>
        <time>2015-12-22T20:03:36.000Z</time>
      </trkpt>
      <trkpt lat="45.41081" lon="4.38875">
        <ele>588.36108398438</ele>
        <time>2015-12-22T20:03:38.000Z</time>
      </trkpt>
      <trkpt lat="45.41089" lon="4.38882">
        <ele>588.08245849609</ele>
        <time>2015-12-22T20:03:41.000Z</time>
      </trkpt>
      <trkpt lat="45.41094" lon="4.38887">
        <ele>586.39318847656</ele>
        <time>2015-12-22T20:03:43.000Z</time>
      </trkpt>
      <trkpt lat="45.41099" lon="4.38893">
        <ele>583.97216796875</ele>
        <time>2015-12-22T20:03:45.000Z</time>
      </trkpt>
      <trkpt lat="45.41105" lon="4.38903">
        <ele>582.53588867188</ele>
        <time>2015-12-22T20:03:48.000Z</time>
      </trkpt>
      <trkpt lat="45.4111" lon="4.38909">
        <ele>581.91528320312</ele>
        <time>2015-12-22T20:03:50.000Z</time>
      </trkpt>
      <trkpt lat="45.41117" lon="4.38918">
        <ele>579.70263671875</ele>
        <time>2015-12-22T20:03:53.000Z</time>
      </trkpt>
      <trkpt lat="45.41122" lon="4.38924">
        <ele>578.51721191406</ele>
        <time>2015-12-22T20:03:55.000Z</time>
      </trkpt>
      <trkpt lat="45.41126" lon="4.38929">
        <ele>577.66821289062</ele>
        <time>2015-12-22T20:03:57.000Z</time>
      </trkpt>
      <trkpt lat="45.4113" lon="4.38935">
        <ele>577.44158935547</ele>
        <time>2015-12-22T20:03:59.000Z</time>
      </trkpt>
      <trkpt lat="45.41136" lon="4.38945">
        <ele>577.43566894531</ele>
        <time>2015-12-22T20:04:02.000Z</time>
      </trkpt>
      <trkpt lat="45.41142" lon="4.38956">
        <ele>577.62426757812</ele>
        <time>2015-12-22T20:04:05.000Z</time>
      </trkpt>
      <trkpt lat="45.41148" lon="4.38968">
        <ele>577.43914794922</ele>
        <time>2015-12-22T20:04:08.000Z</time>
      </trkpt>
      <trkpt lat="45.41153" lon="4.38974">
        <ele>577.83746337891</ele>
        <time>2015-12-22T20:04:10.000Z</time>
      </trkpt>
      <trkpt lat="45.4116" lon="4.3898">
        <ele>581.03265380859</ele>
        <time>2015-12-22T20:04:13.000Z</time>
      </trkpt>
      <trkpt lat="45.41165" lon="4.3899">
        <ele>581.61700439453</ele>
        <time>2015-12-22T20:04:16.000Z</time>
      </trkpt>
      <trkpt lat="45.41169" lon="4.38995">
        <ele>582.01800537109</ele>
        <time>2015-12-22T20:04:18.000Z</time>
      </trkpt>
      <trkpt lat="45.41174" lon="4.39001">
        <ele>583.51440429688</ele>
        <time>2015-12-22T20:04:20.000Z</time>
      </trkpt>
      <trkpt lat="45.41179" lon="4.39008">
        <ele>584.04071044922</ele>
        <time>2015-12-22T20:04:22.000Z</time>
      </trkpt>
      <trkpt lat="45.41186" lon="4.39017">
        <ele>583.10833740234</ele>
        <time>2015-12-22T20:04:25.000Z</time>
      </trkpt>
      <trkpt lat="45.41192" lon="4.39024">
        <ele>581.53063964844</ele>
        <time>2015-12-22T20:04:28.000Z</time>
      </trkpt>
      <trkpt lat="45.41197" lon="4.39033">
        <ele>580.29443359375</ele>
        <time>2015-12-22T20:04:31.000Z</time>
      </trkpt>
      <trkpt lat="45.41202" lon="4.39042">
        <ele>580.09814453125</ele>
        <time>2015-12-22T20:04:34.000Z</time>
      </trkpt>
      <trkpt lat="45.41205" lon="4.39048">
        <ele>577.88360595703</ele>
        <time>2015-12-22T20:04:36.000Z</time>
      </trkpt>
      <trkpt lat="45.41211" lon="4.39056">
        <ele>578.62072753906</ele>
        <time>2015-12-22T20:04:39.000Z</time>
      </trkpt>
      <trkpt lat="45.41216" lon="4.39065">
        <ele>579.18536376953</ele>
        <time>2015-12-22T20:04:42.000Z</time>
      </trkpt>
      <trkpt lat="45.41221" lon="4.3907">
        <ele>578.83441162109</ele>
        <time>2015-12-22T20:04:44.000Z</time>
      </trkpt>
      <trkpt lat="45.41226" lon="4.39075">
        <ele>577.38879394531</ele>
        <time>2015-12-22T20:04:46.000Z</time>
      </trkpt>
      <trkpt lat="45.41231" lon="4.39084">
        <ele>577.24487304688</ele>
        <time>2015-12-22T20:04:49.000Z</time>
      </trkpt>
      <trkpt lat="45.41236" lon="4.3909">
        <ele>581.64294433594</ele>
        <time>2015-12-22T20:04:52.000Z</time>
      </trkpt>
      <trkpt lat="45.41239" lon="4.39094">
        <ele>582.85290527344</ele>
        <time>2015-12-22T20:04:55.000Z</time>
      </trkpt>
      <trkpt lat="45.41246" lon="4.39102">
        <ele>583.02618408203</ele>
        <time>2015-12-22T20:04:58.000Z</time>
      </trkpt>
      <trkpt lat="45.41254" lon="4.3911">
        <ele>583.67767333984</ele>
        <time>2015-12-22T20:05:01.000Z</time>
      </trkpt>
      <trkpt lat="45.41258" lon="4.39115">
        <ele>583.50103759766</ele>
        <time>2015-12-22T20:05:03.000Z</time>
      </trkpt>
      <trkpt lat="45.41264" lon="4.39126">
        <ele>583.2880859375</ele>
        <time>2015-12-22T20:05:06.000Z</time>
      </trkpt>
      <trkpt lat="45.41269" lon="4.39132">
        <ele>583.44482421875</ele>
        <time>2015-12-22T20:05:08.000Z</time>
      </trkpt>
      <trkpt lat="45.41276" lon="4.39142">
        <ele>583.64544677734</ele>
        <time>2015-12-22T20:05:11.000Z</time>
      </trkpt>
      <trkpt lat="45.41283" lon="4.39152">
        <ele>583.96240234375</ele>
        <time>2015-12-22T20:05:14.000Z</time>
      </trkpt>
      <trkpt lat="45.41287" lon="4.39159">
        <ele>582.67938232422</ele>
        <time>2015-12-22T20:05:16.000Z</time>
      </trkpt>
      <trkpt lat="45.41291" lon="4.39166">
        <ele>582.01580810547</ele>
        <time>2015-12-22T20:05:18.000Z</time>
      </trkpt>
      <trkpt lat="45.41298" lon="4.39174">
        <ele>585.23352050781</ele>
        <time>2015-12-22T20:05:21.000Z</time>
      </trkpt>
      <trkpt lat="45.41302" lon="4.3918">
        <ele>586.38543701172</ele>
        <time>2015-12-22T20:05:23.000Z</time>
      </trkpt>
      <trkpt lat="45.4131" lon="4.39188">
        <ele>585.69818115234</ele>
        <time>2015-12-22T20:05:26.000Z</time>
      </trkpt>
      <trkpt lat="45.41318" lon="4.39195">
        <ele>583.62719726562</ele>
        <time>2015-12-22T20:05:29.000Z</time>
      </trkpt>
      <trkpt lat="45.41324" lon="4.39198">
        <ele>582.4990234375</ele>
        <time>2015-12-22T20:05:31.000Z</time>
      </trkpt>
      <trkpt lat="45.41328" lon="4.39202">
        <ele>582.39489746094</ele>
        <time>2015-12-22T20:05:33.000Z</time>
      </trkpt>
      <trkpt lat="45.41337" lon="4.39208">
        <ele>582.28039550781</ele>
        <time>2015-12-22T20:05:36.000Z</time>
      </trkpt>
      <trkpt lat="45.41342" lon="4.39212">
        <ele>580.87731933594</ele>
        <time>2015-12-22T20:05:38.000Z</time>
      </trkpt>
      <trkpt lat="45.41348" lon="4.39213">
        <ele>580.06079101562</ele>
        <time>2015-12-22T20:05:40.000Z</time>
      </trkpt>
      <trkpt lat="45.41354" lon="4.39215">
        <ele>579.88659667969</ele>
        <time>2015-12-22T20:05:42.000Z</time>
      </trkpt>
      <trkpt lat="45.41364" lon="4.39221">
        <ele>578.57006835938</ele>
        <time>2015-12-22T20:05:45.000Z</time>
      </trkpt>
      <trkpt lat="45.41372" lon="4.39226">
        <ele>579.91705322266</ele>
        <time>2015-12-22T20:05:48.000Z</time>
      </trkpt>
      <trkpt lat="45.41376" lon="4.39229">
        <ele>581.02777099609</ele>
        <time>2015-12-22T20:05:50.000Z</time>
      </trkpt>
      <trkpt lat="45.41386" lon="4.39234">
        <ele>582.96899414062</ele>
        <time>2015-12-22T20:05:53.000Z</time>
      </trkpt>
      <trkpt lat="45.41391" lon="4.39238">
        <ele>582.66705322266</ele>
        <time>2015-12-22T20:05:55.000Z</time>
      </trkpt>
      <trkpt lat="45.41395" lon="4.39243">
        <ele>585.05798339844</ele>
        <time>2015-12-22T20:05:57.000Z</time>
      </trkpt>
      <trkpt lat="45.41398" lon="4.39247">
        <ele>587.42254638672</ele>
        <time>2015-12-22T20:05:59.000Z</time>
      </trkpt>
      <trkpt lat="45.41405" lon="4.39253">
        <ele>590.79327392578</ele>
        <time>2015-12-22T20:06:02.000Z</time>
      </trkpt>
      <trkpt lat="45.41414" lon="4.39258">
        <ele>589.24090576172</ele>
        <time>2015-12-22T20:06:05.000Z</time>
      </trkpt>
      <trkpt lat="45.41419" lon="4.39263">
        <ele>588.78350830078</ele>
        <time>2015-12-22T20:06:08.000Z</time>
      </trkpt>
      <trkpt lat="45.41425" lon="4.39264">
        <ele>590.08605957031</ele>
        <time>2015-12-22T20:06:10.000Z</time>
      </trkpt>
      <trkpt lat="45.41433" lon="4.39267">
        <ele>591.64288330078</ele>
        <time>2015-12-22T20:06:13.000Z</time>
      </trkpt>
      <trkpt lat="45.41438" lon="4.39268">
        <ele>591.87084960938</ele>
        <time>2015-12-22T20:06:15.000Z</time>
      </trkpt>
      <trkpt lat="45.41447" lon="4.39271">
        <ele>593.41986083984</ele>
        <time>2015-12-22T20:06:18.000Z</time>
      </trkpt>
      <trkpt lat="45.41452" lon="4.39274">
        <ele>592.80560302734</ele>
        <time>2015-12-22T20:06:20.000Z</time>
      </trkpt>
      <trkpt lat="45.41457" lon="4.39278">
        <ele>592.88262939453</ele>
        <time>2015-12-22T20:06:22.000Z</time>
      </trkpt>
      <trkpt lat="45.41465" lon="4.39283">
        <ele>593.59466552734</ele>
        <time>2015-12-22T20:06:25.000Z</time>
      </trkpt>
      <trkpt lat="45.41478" lon="4.39286">
        <ele>591.12158203125</ele>
        <time>2015-12-22T20:06:28.000Z</time>
      </trkpt>
      <trkpt lat="45.41484" lon="4.39289">
        <ele>588.36755371094</ele>
        <time>2015-12-22T20:06:30.000Z</time>
      </trkpt>
      <trkpt lat="45.4149" lon="4.39294">
        <ele>586.08209228516</ele>
        <time>2015-12-22T20:06:33.000Z</time>
      </trkpt>
      <trkpt lat="45.41497" lon="4.39298">
        <ele>584.50512695312</ele>
        <time>2015-12-22T20:06:36.000Z</time>
      </trkpt>
      <trkpt lat="45.41505" lon="4.39298">
        <ele>585.60101318359</ele>
        <time>2015-12-22T20:06:38.000Z</time>
      </trkpt>
      <trkpt lat="45.41511" lon="4.39299">
        <ele>586.30157470703</ele>
        <time>2015-12-22T20:06:40.000Z</time>
      </trkpt>
      <trkpt lat="45.4152" lon="4.393">
        <ele>585.63842773438</ele>
        <time>2015-12-22T20:06:43.000Z</time>
      </trkpt>
      <trkpt lat="45.41526" lon="4.39301">
        <ele>584.59063720703</ele>
        <time>2015-12-22T20:06:45.000Z</time>
      </trkpt>
      <trkpt lat="45.41533" lon="4.39304">
        <ele>582.10485839844</ele>
        <time>2015-12-22T20:06:48.000Z</time>
      </trkpt>
      <trkpt lat="45.41539" lon="4.39313">
        <ele>579.39099121094</ele>
        <time>2015-12-22T20:06:51.000Z</time>
      </trkpt>
      <trkpt lat="45.41543" lon="4.3932">
        <ele>579.50787353516</ele>
        <time>2015-12-22T20:06:53.000Z</time>
      </trkpt>
      <trkpt lat="45.41551" lon="4.39327">
        <ele>579.42224121094</ele>
        <time>2015-12-22T20:06:56.000Z</time>
      </trkpt>
      <trkpt lat="45.41558" lon="4.39332">
        <ele>577.78344726562</ele>
        <time>2015-12-22T20:06:59.000Z</time>
      </trkpt>
      <trkpt lat="45.41566" lon="4.39336">
        <ele>575.84991455078</ele>
        <time>2015-12-22T20:07:02.000Z</time>
      </trkpt>
      <trkpt lat="45.41572" lon="4.39338">
        <ele>575.85565185547</ele>
        <time>2015-12-22T20:07:04.000Z</time>
      </trkpt>
      <trkpt lat="45.41582" lon="4.39342">
        <ele>575.63665771484</ele>
        <time>2015-12-22T20:07:07.000Z</time>
      </trkpt>
      <trkpt lat="45.41592" lon="4.39345">
        <ele>572.29217529297</ele>
        <time>2015-12-22T20:07:10.000Z</time>
      </trkpt>
      <trkpt lat="45.41597" lon="4.39347">
        <ele>571.826171875</ele>
        <time>2015-12-22T20:07:12.000Z</time>
      </trkpt>
      <trkpt lat="45.41603" lon="4.39353">
        <ele>571.09722900391</ele>
        <time>2015-12-22T20:07:15.000Z</time>
      </trkpt>
      <trkpt lat="45.41607" lon="4.39357">
        <ele>571.34710693359</ele>
        <time>2015-12-22T20:07:17.000Z</time>
      </trkpt>
      <trkpt lat="45.41611" lon="4.3936">
        <ele>570.75256347656</ele>
        <time>2015-12-22T20:07:20.000Z</time>
      </trkpt>
      <trkpt lat="45.41615" lon="4.39361">
        <ele>570.85070800781</ele>
        <time>2015-12-22T20:07:22.000Z</time>
      </trkpt>
      <trkpt lat="45.41624" lon="4.39361">
        <ele>571.51806640625</ele>
        <time>2015-12-22T20:07:25.000Z</time>
      </trkpt>
      <trkpt lat="45.41632" lon="4.39362">
        <ele>571.91088867188</ele>
        <time>2015-12-22T20:07:27.000Z</time>
      </trkpt>
      <trkpt lat="45.41645" lon="4.39365">
        <ele>572.267578125</ele>
        <time>2015-12-22T20:07:30.000Z</time>
      </trkpt>
      <trkpt lat="45.41653" lon="4.39367">
        <ele>572.1044921875</ele>
        <time>2015-12-22T20:07:33.000Z</time>
      </trkpt>
      <trkpt lat="45.41657" lon="4.39367">
        <ele>572.39636230469</ele>
        <time>2015-12-22T20:07:35.000Z</time>
      </trkpt>
      <trkpt lat="45.41661" lon="4.39368">
        <ele>573.14477539062</ele>
        <time>2015-12-22T20:07:37.000Z</time>
      </trkpt>
      <trkpt lat="45.41669" lon="4.39369">
        <ele>574.00158691406</ele>
        <time>2015-12-22T20:07:40.000Z</time>
      </trkpt>
      <trkpt lat="45.41674" lon="4.3937">
        <ele>572.85186767578</ele>
        <time>2015-12-22T20:07:42.000Z</time>
      </trkpt>
      <trkpt lat="45.41679" lon="4.3937">
        <ele>572.12414550781</ele>
        <time>2015-12-22T20:07:44.000Z</time>
      </trkpt>
      <trkpt lat="45.41685" lon="4.3937">
        <ele>572.52270507812</ele>
        <time>2015-12-22T20:07:47.000Z</time>
      </trkpt>
      <trkpt lat="45.41692" lon="4.3937">
        <ele>572.60900878906</ele>
        <time>2015-12-22T20:07:49.000Z</time>
      </trkpt>
      <trkpt lat="45.41697" lon="4.39369">
        <ele>572.52026367188</ele>
        <time>2015-12-22T20:07:51.000Z</time>
      </trkpt>
      <trkpt lat="45.41705" lon="4.39376">
        <ele>574.72778320312</ele>
        <time>2015-12-22T20:07:54.000Z</time>
      </trkpt>
      <trkpt lat="45.41711" lon="4.3939">
        <ele>574.69122314453</ele>
        <time>2015-12-22T20:07:57.000Z</time>
      </trkpt>
      <trkpt lat="45.41717" lon="4.39408">
        <ele>569.33685302734</ele>
        <time>2015-12-22T20:08:00.000Z</time>
      </trkpt>
      <trkpt lat="45.41719" lon="4.39421">
        <ele>567.63891601562</ele>
        <time>2015-12-22T20:08:03.000Z</time>
      </trkpt>
      <trkpt lat="45.41721" lon="4.39425">
        <ele>567.18426513672</ele>
        <time>2015-12-22T20:08:05.000Z</time>
      </trkpt>
      <trkpt lat="45.41729" lon="4.39424">
        <ele>570.83508300781</ele>
        <time>2015-12-22T20:08:07.000Z</time>
      </trkpt>
      <trkpt lat="45.41736" lon="4.39424">
        <ele>572.87817382812</ele>
        <time>2015-12-22T20:08:09.000Z</time>
      </trkpt>
      <trkpt lat="45.41742" lon="4.39424">
        <ele>574.62054443359</ele>
        <time>2015-12-22T20:08:11.000Z</time>
      </trkpt>
      <trkpt lat="45.41746" lon="4.39427">
        <ele>575.31140136719</ele>
        <time>2015-12-22T20:08:13.000Z</time>
      </trkpt>
      <trkpt lat="45.41751" lon="4.3943">
        <ele>575.75823974609</ele>
        <time>2015-12-22T20:08:15.000Z</time>
      </trkpt>
      <trkpt lat="45.41756" lon="4.39434">
        <ele>574.00286865234</ele>
        <time>2015-12-22T20:08:17.000Z</time>
      </trkpt>
      <trkpt lat="45.41763" lon="4.39439">
        <ele>572.86926269531</ele>
        <time>2015-12-22T20:08:20.000Z</time>
      </trkpt>
      <trkpt lat="45.41771" lon="4.39448">
        <ele>572.47430419922</ele>
        <time>2015-12-22T20:08:23.000Z</time>
      </trkpt>
      <trkpt lat="45.41779" lon="4.3945">
        <ele>576.71832275391</ele>
        <time>2015-12-22T20:08:26.000Z</time>
      </trkpt>
      <trkpt lat="45.41784" lon="4.39453">
        <ele>576.52270507812</ele>
        <time>2015-12-22T20:08:29.000Z</time>
      </trkpt>
      <trkpt lat="45.41791" lon="4.39458">
        <ele>577.14825439453</ele>
        <time>2015-12-22T20:08:32.000Z</time>
      </trkpt>
      <trkpt lat="45.41797" lon="4.39462">
        <ele>577.30249023438</ele>
        <time>2015-12-22T20:08:34.000Z</time>
      </trkpt>
      <trkpt lat="45.41805" lon="4.39469">
        <ele>575.09918212891</ele>
        <time>2015-12-22T20:08:37.000Z</time>
      </trkpt>
      <trkpt lat="45.41809" lon="4.39475">
        <ele>575.24212646484</ele>
        <time>2015-12-22T20:08:39.000Z</time>
      </trkpt>
      <trkpt lat="45.41809" lon="4.39486">
        <ele>576.22625732422</ele>
        <time>2015-12-22T20:08:42.000Z</time>
      </trkpt>
      <trkpt lat="45.41817" lon="4.39492">
        <ele>577.43914794922</ele>
        <time>2015-12-22T20:08:45.000Z</time>
      </trkpt>
      <trkpt lat="45.41826" lon="4.39497">
        <ele>577.43426513672</ele>
        <time>2015-12-22T20:08:48.000Z</time>
      </trkpt>
      <trkpt lat="45.41831" lon="4.39508">
        <ele>576.97357177734</ele>
        <time>2015-12-22T20:08:51.000Z</time>
      </trkpt>
      <trkpt lat="45.41833" lon="4.39511">
        <ele>576.68487548828</ele>
        <time>2015-12-22T20:08:53.000Z</time>
      </trkpt>
      <trkpt lat="45.41835" lon="4.39512">
        <ele>576.23980712891</ele>
        <time>2015-12-22T20:08:55.000Z</time>
      </trkpt>
      <trkpt lat="45.41845" lon="4.39511">
        <ele>575.52593994141</ele>
        <time>2015-12-22T20:08:58.000Z</time>
      </trkpt>
      <trkpt lat="45.41851" lon="4.39508">
        <ele>574.45367431641</ele>
        <time>2015-12-22T20:09:00.000Z</time>
      </trkpt>
      <trkpt lat="45.41861" lon="4.39522">
        <ele>571.78051757812</ele>
        <time>2015-12-22T20:09:03.000Z</time>
      </trkpt>
      <trkpt lat="45.41863" lon="4.3954">
        <ele>572.27856445312</ele>
        <time>2015-12-22T20:09:05.000Z</time>
      </trkpt>
      <trkpt lat="45.41867" lon="4.39546">
        <ele>569.79321289062</ele>
        <time>2015-12-22T20:09:08.000Z</time>
      </trkpt>
      <trkpt lat="45.41874" lon="4.39546">
        <ele>568.52587890625</ele>
        <time>2015-12-22T20:09:10.000Z</time>
      </trkpt>
      <trkpt lat="45.41885" lon="4.39544">
        <ele>569.52526855469</ele>
        <time>2015-12-22T20:09:13.000Z</time>
      </trkpt>
      <trkpt lat="45.4189" lon="4.39543">
        <ele>569.54528808594</ele>
        <time>2015-12-22T20:09:15.000Z</time>
      </trkpt>
      <trkpt lat="45.41898" lon="4.39541">
        <ele>568.31378173828</ele>
        <time>2015-12-22T20:09:17.000Z</time>
      </trkpt>
      <trkpt lat="45.41906" lon="4.39541">
        <ele>567.57647705078</ele>
        <time>2015-12-22T20:09:19.000Z</time>
      </trkpt>
      <trkpt lat="45.41912" lon="4.39544">
        <ele>567.83892822266</ele>
        <time>2015-12-22T20:09:21.000Z</time>
      </trkpt>
      <trkpt lat="45.4192" lon="4.39547">
        <ele>569.13763427734</ele>
        <time>2015-12-22T20:09:24.000Z</time>
      </trkpt>
      <trkpt lat="45.41928" lon="4.3956">
        <ele>568.67346191406</ele>
        <time>2015-12-22T20:09:27.000Z</time>
      </trkpt>
      <trkpt lat="45.41936" lon="4.39573">
        <ele>567.19812011719</ele>
        <time>2015-12-22T20:09:30.000Z</time>
      </trkpt>
      <trkpt lat="45.41941" lon="4.39581">
        <ele>564.86865234375</ele>
        <time>2015-12-22T20:09:32.000Z</time>
      </trkpt>
      <trkpt lat="45.4195" lon="4.39589">
        <ele>563.91149902344</ele>
        <time>2015-12-22T20:09:35.000Z</time>
      </trkpt>
      <trkpt lat="45.41954" lon="4.39593">
        <ele>565.01214599609</ele>
        <time>2015-12-22T20:09:38.000Z</time>
      </trkpt>
      <trkpt lat="45.41969" lon="4.39589">
        <ele>564.59063720703</ele>
        <time>2015-12-22T20:09:41.000Z</time>
      </trkpt>
      <trkpt lat="45.41974" lon="4.39589">
        <ele>564.52276611328</ele>
        <time>2015-12-22T20:09:44.000Z</time>
      </trkpt>
      <trkpt lat="45.41983" lon="4.3959">
        <ele>563.06573486328</ele>
        <time>2015-12-22T20:09:47.000Z</time>
      </trkpt>
      <trkpt lat="45.41992" lon="4.39595">
        <ele>562.23107910156</ele>
        <time>2015-12-22T20:09:50.000Z</time>
      </trkpt>
      <trkpt lat="45.41998" lon="4.39601">
        <ele>562.9248046875</ele>
        <time>2015-12-22T20:09:53.000Z</time>
      </trkpt>
      <trkpt lat="45.42001" lon="4.39602">
        <ele>564.09149169922</ele>
        <time>2015-12-22T20:09:55.000Z</time>
      </trkpt>
      <trkpt lat="45.42006" lon="4.39607">
        <ele>565.9755859375</ele>
        <time>2015-12-22T20:09:57.000Z</time>
      </trkpt>
      <trkpt lat="45.4201" lon="4.3961">
        <ele>567.85424804688</ele>
        <time>2015-12-22T20:09:59.000Z</time>
      </trkpt>
      <trkpt lat="45.42017" lon="4.3962">
        <ele>569.17510986328</ele>
        <time>2015-12-22T20:10:02.000Z</time>
      </trkpt>
      <trkpt lat="45.42022" lon="4.39629">
        <ele>566.71472167969</ele>
        <time>2015-12-22T20:10:04.000Z</time>
      </trkpt>
      <trkpt lat="45.42029" lon="4.39636">
        <ele>564.31201171875</ele>
        <time>2015-12-22T20:10:07.000Z</time>
      </trkpt>
      <trkpt lat="45.42034" lon="4.39659">
        <ele>560.68090820312</ele>
        <time>2015-12-22T20:10:10.000Z</time>
      </trkpt>
      <trkpt lat="45.42038" lon="4.39665">
        <ele>560.55322265625</ele>
        <time>2015-12-22T20:10:12.000Z</time>
      </trkpt>
      <trkpt lat="45.42044" lon="4.3967">
        <ele>561.00830078125</ele>
        <time>2015-12-22T20:10:15.000Z</time>
      </trkpt>
      <trkpt lat="45.42048" lon="4.3967">
        <ele>560.96307373047</ele>
        <time>2015-12-22T20:10:17.000Z</time>
      </trkpt>
      <trkpt lat="45.42053" lon="4.39672">
        <ele>561.34136962891</ele>
        <time>2015-12-22T20:10:19.000Z</time>
      </trkpt>
      <trkpt lat="45.42062" lon="4.39674">
        <ele>560.15753173828</ele>
        <time>2015-12-22T20:10:22.000Z</time>
      </trkpt>
      <trkpt lat="45.4207" lon="4.39677">
        <ele>560.63568115234</ele>
        <time>2015-12-22T20:10:25.000Z</time>
      </trkpt>
      <trkpt lat="45.42077" lon="4.39683">
        <ele>558.67059326172</ele>
        <time>2015-12-22T20:10:27.000Z</time>
      </trkpt>
      <trkpt lat="45.42089" lon="4.39709">
        <ele>556.17694091797</ele>
        <time>2015-12-22T20:10:30.000Z</time>
      </trkpt>
      <trkpt lat="45.42096" lon="4.39714">
        <ele>555.50750732422</ele>
        <time>2015-12-22T20:10:33.000Z</time>
      </trkpt>
      <trkpt lat="45.42104" lon="4.39717">
        <ele>554.32141113281</ele>
        <time>2015-12-22T20:10:36.000Z</time>
      </trkpt>
      <trkpt lat="45.42115" lon="4.3973">
        <ele>554.77734375</ele>
        <time>2015-12-22T20:10:39.000Z</time>
      </trkpt>
      <trkpt lat="45.42123" lon="4.39735">
        <ele>554.57757568359</ele>
        <time>2015-12-22T20:10:42.000Z</time>
      </trkpt>
      <trkpt lat="45.42129" lon="4.39739">
        <ele>555.65203857422</ele>
        <time>2015-12-22T20:10:44.000Z</time>
      </trkpt>
      <trkpt lat="45.42131" lon="4.39736">
        <ele>556.96264648438</ele>
        <time>2015-12-22T20:10:46.000Z</time>
      </trkpt>
      <trkpt lat="45.42132" lon="4.39734">
        <ele>558.59362792969</ele>
        <time>2015-12-22T20:10:48.000Z</time>
      </trkpt>
      <trkpt lat="45.42131" lon="4.39736">
        <ele>560.54962158203</ele>
        <time>2015-12-22T20:10:51.000Z</time>
      </trkpt>
      <trkpt lat="45.42133" lon="4.39735">
        <ele>565.19989013672</ele>
        <time>2015-12-22T20:10:54.000Z</time>
      </trkpt>
      <trkpt lat="45.42139" lon="4.39731">
        <ele>571.55303955078</ele>
        <time>2015-12-22T20:10:57.000Z</time>
      </trkpt>
      <trkpt lat="45.42142" lon="4.39726">
        <ele>574.16821289062</ele>
        <time>2015-12-22T20:10:59.000Z</time>
      </trkpt>
      <trkpt lat="45.42147" lon="4.39722">
        <ele>574.75268554688</ele>
        <time>2015-12-22T20:11:02.000Z</time>
      </trkpt>
      <trkpt lat="45.4215" lon="4.39723">
        <ele>574.91082763672</ele>
        <time>2015-12-22T20:11:04.000Z</time>
      </trkpt>
      <trkpt lat="45.42159" lon="4.39726">
        <ele>578.01458740234</ele>
        <time>2015-12-22T20:11:07.000Z</time>
      </trkpt>
      <trkpt lat="45.42168" lon="4.39733">
        <ele>576.7431640625</ele>
        <time>2015-12-22T20:11:10.000Z</time>
      </trkpt>
      <trkpt lat="45.42174" lon="4.39739">
        <ele>576.42803955078</ele>
        <time>2015-12-22T20:11:12.000Z</time>
      </trkpt>
      <trkpt lat="45.42179" lon="4.39742">
        <ele>575.67144775391</ele>
        <time>2015-12-22T20:11:14.000Z</time>
      </trkpt>
      <trkpt lat="45.42183" lon="4.39747">
        <ele>575.46411132812</ele>
        <time>2015-12-22T20:11:16.000Z</time>
      </trkpt>
      <trkpt lat="45.42188" lon="4.39755">
        <ele>574.69403076172</ele>
        <time>2015-12-22T20:11:18.000Z</time>
      </trkpt>
      <trkpt lat="45.42196" lon="4.39776">
        <ele>572.51116943359</ele>
        <time>2015-12-22T20:11:21.000Z</time>
      </trkpt>
      <trkpt lat="45.42202" lon="4.39782">
        <ele>571.86584472656</ele>
        <time>2015-12-22T20:11:23.000Z</time>
      </trkpt>
      <trkpt lat="45.42208" lon="4.39788">
        <ele>571.4248046875</ele>
        <time>2015-12-22T20:11:26.000Z</time>
      </trkpt>
      <trkpt lat="45.42218" lon="4.398">
        <ele>567.52606201172</ele>
        <time>2015-12-22T20:11:29.000Z</time>
      </trkpt>
      <trkpt lat="45.42225" lon="4.3981">
        <ele>564.75183105469</ele>
        <time>2015-12-22T20:11:31.000Z</time>
      </trkpt>
      <trkpt lat="45.42231" lon="4.39815">
        <ele>564.34301757812</ele>
        <time>2015-12-22T20:11:34.000Z</time>
      </trkpt>
      <trkpt lat="45.42238" lon="4.39819">
        <ele>564.10736083984</ele>
        <time>2015-12-22T20:11:37.000Z</time>
      </trkpt>
      <trkpt lat="45.42242" lon="4.39822">
        <ele>565.88055419922</ele>
        <time>2015-12-22T20:11:39.000Z</time>
      </trkpt>
      <trkpt lat="45.42249" lon="4.39822">
        <ele>568.61309814453</ele>
        <time>2015-12-22T20:11:41.000Z</time>
      </trkpt>
      <trkpt lat="45.42255" lon="4.39822">
        <ele>569.48358154297</ele>
        <time>2015-12-22T20:11:43.000Z</time>
      </trkpt>
      <trkpt lat="45.42259" lon="4.39821">
        <ele>568.66931152344</ele>
        <time>2015-12-22T20:11:46.000Z</time>
      </trkpt>
      <trkpt lat="45.42262" lon="4.39818">
        <ele>567.55578613281</ele>
        <time>2015-12-22T20:11:48.000Z</time>
      </trkpt>
      <trkpt lat="45.42265" lon="4.39816">
        <ele>566.74084472656</ele>
        <time>2015-12-22T20:11:50.000Z</time>
      </trkpt>
      <trkpt lat="45.4227" lon="4.39815">
        <ele>565.837890625</ele>
        <time>2015-12-22T20:11:53.000Z</time>
      </trkpt>
      <trkpt lat="45.42273" lon="4.39814">
        <ele>565.90393066406</ele>
        <time>2015-12-22T20:11:55.000Z</time>
      </trkpt>
      <trkpt lat="45.42278" lon="4.3981">
        <ele>566.00354003906</ele>
        <time>2015-12-22T20:11:57.000Z</time>
      </trkpt>
      <trkpt lat="45.42283" lon="4.39803">
        <ele>566.43762207031</ele>
        <time>2015-12-22T20:12:00.000Z</time>
      </trkpt>
      <trkpt lat="45.42287" lon="4.39799">
        <ele>566.54382324219</ele>
        <time>2015-12-22T20:12:03.000Z</time>
      </trkpt>
      <trkpt lat="45.42295" lon="4.39804">
        <ele>562.08630371094</ele>
        <time>2015-12-22T20:12:06.000Z</time>
      </trkpt>
      <trkpt lat="45.42297" lon="4.39807">
        <ele>561.41827392578</ele>
        <time>2015-12-22T20:12:09.000Z</time>
      </trkpt>
      <trkpt lat="45.42302" lon="4.39807">
        <ele>561.99267578125</ele>
        <time>2015-12-22T20:12:12.000Z</time>
      </trkpt>
      <trkpt lat="45.42307" lon="4.39803">
        <ele>562.01330566406</ele>
        <time>2015-12-22T20:12:14.000Z</time>
      </trkpt>
      <trkpt lat="45.42312" lon="4.39798">
        <ele>562.82305908203</ele>
        <time>2015-12-22T20:12:17.000Z</time>
      </trkpt>
      <trkpt lat="45.42319" lon="4.39796">
        <ele>562.66204833984</ele>
        <time>2015-12-22T20:12:20.000Z</time>
      </trkpt>
      <trkpt lat="45.42324" lon="4.39795">
        <ele>562.84448242188</ele>
        <time>2015-12-22T20:12:23.000Z</time>
      </trkpt>
      <trkpt lat="45.42329" lon="4.39789">
        <ele>563.13439941406</ele>
        <time>2015-12-22T20:12:25.000Z</time>
      </trkpt>
      <trkpt lat="45.42335" lon="4.39783">
        <ele>564.41839599609</ele>
        <time>2015-12-22T20:12:28.000Z</time>
      </trkpt>
      <trkpt lat="45.42339" lon="4.39781">
        <ele>564.55499267578</ele>
        <time>2015-12-22T20:12:30.000Z</time>
      </trkpt>
      <trkpt lat="45.42344" lon="4.39776">
        <ele>566.38482666016</ele>
        <time>2015-12-22T20:12:33.000Z</time>
      </trkpt>
      <trkpt lat="45.42346" lon="4.39771">
        <ele>567.05249023438</ele>
        <time>2015-12-22T20:12:36.000Z</time>
      </trkpt>
      <trkpt lat="45.42349" lon="4.39767">
        <ele>566.75518798828</ele>
        <time>2015-12-22T20:12:38.000Z</time>
      </trkpt>
      <trkpt lat="45.42351" lon="4.39765">
        <ele>565.70959472656</ele>
        <time>2015-12-22T20:12:40.000Z</time>
      </trkpt>
      <trkpt lat="45.42356" lon="4.39763">
        <ele>563.46228027344</ele>
        <time>2015-12-22T20:12:43.000Z</time>
      </trkpt>
      <trkpt lat="45.42359" lon="4.3976">
        <ele>563.58026123047</ele>
        <time>2015-12-22T20:12:45.000Z</time>
      </trkpt>
      <trkpt lat="45.42362" lon="4.39755">
        <ele>563.24615478516</ele>
        <time>2015-12-22T20:12:47.000Z</time>
      </trkpt>
      <trkpt lat="45.42368" lon="4.39756">
        <ele>561.84173583984</ele>
        <time>2015-12-22T20:12:50.000Z</time>
      </trkpt>
      <trkpt lat="45.42372" lon="4.39757">
        <ele>560.50219726562</ele>
        <time>2015-12-22T20:12:52.000Z</time>
      </trkpt>
      <trkpt lat="45.42374" lon="4.39759">
        <ele>560.04138183594</ele>
        <time>2015-12-22T20:12:54.000Z</time>
      </trkpt>
      <trkpt lat="45.42376" lon="4.39758">
        <ele>561.19476318359</ele>
        <time>2015-12-22T20:12:57.000Z</time>
      </trkpt>
      <trkpt lat="45.42383" lon="4.39747">
        <ele>565.8388671875</ele>
        <time>2015-12-22T20:13:00.000Z</time>
      </trkpt>
      <trkpt lat="45.42389" lon="4.39745">
        <ele>567.14166259766</ele>
        <time>2015-12-22T20:13:02.000Z</time>
      </trkpt>
      <trkpt lat="45.42399" lon="4.39745">
        <ele>567.01971435547</ele>
        <time>2015-12-22T20:13:05.000Z</time>
      </trkpt>
      <trkpt lat="45.42405" lon="4.39744">
        <ele>565.96710205078</ele>
        <time>2015-12-22T20:13:07.000Z</time>
      </trkpt>
      <trkpt lat="45.42417" lon="4.39744">
        <ele>564.8759765625</ele>
        <time>2015-12-22T20:13:10.000Z</time>
      </trkpt>
      <trkpt lat="45.42422" lon="4.39742">
        <ele>563.89306640625</ele>
        <time>2015-12-22T20:13:12.000Z</time>
      </trkpt>
      <trkpt lat="45.42429" lon="4.39739">
        <ele>565.08782958984</ele>
        <time>2015-12-22T20:13:14.000Z</time>
      </trkpt>
      <trkpt lat="45.42437" lon="4.39735">
        <ele>564.18334960938</ele>
        <time>2015-12-22T20:13:17.000Z</time>
      </trkpt>
      <trkpt lat="45.42444" lon="4.39729">
        <ele>564.56750488281</ele>
        <time>2015-12-22T20:13:20.000Z</time>
      </trkpt>
      <trkpt lat="45.42452" lon="4.39722">
        <ele>565.60437011719</ele>
        <time>2015-12-22T20:13:23.000Z</time>
      </trkpt>
      <trkpt lat="45.42461" lon="4.39718">
        <ele>564.26165771484</ele>
        <time>2015-12-22T20:13:26.000Z</time>
      </trkpt>
      <trkpt lat="45.42466" lon="4.3971">
        <ele>565.15069580078</ele>
        <time>2015-12-22T20:13:28.000Z</time>
      </trkpt>
      <trkpt lat="45.42469" lon="4.39704">
        <ele>567.24505615234</ele>
        <time>2015-12-22T20:13:30.000Z</time>
      </trkpt>
      <trkpt lat="45.42474" lon="4.39699">
        <ele>567.81799316406</ele>
        <time>2015-12-22T20:13:33.000Z</time>
      </trkpt>
      <trkpt lat="45.4248" lon="4.39699">
        <ele>565.8837890625</ele>
        <time>2015-12-22T20:13:36.000Z</time>
      </trkpt>
      <trkpt lat="45.42488" lon="4.39697">
        <ele>565.93292236328</ele>
        <time>2015-12-22T20:13:39.000Z</time>
      </trkpt>
      <trkpt lat="45.42492" lon="4.39693">
        <ele>566.81890869141</ele>
        <time>2015-12-22T20:13:41.000Z</time>
      </trkpt>
      <trkpt lat="45.42494" lon="4.39687">
        <ele>567.1767578125</ele>
        <time>2015-12-22T20:13:44.000Z</time>
      </trkpt>
      <trkpt lat="45.42498" lon="4.39682">
        <ele>568.47595214844</ele>
        <time>2015-12-22T20:13:46.000Z</time>
      </trkpt>
      <trkpt lat="45.42503" lon="4.39676">
        <ele>572.42028808594</ele>
        <time>2015-12-22T20:13:49.000Z</time>
      </trkpt>
      <trkpt lat="45.42512" lon="4.39674">
        <ele>573.1552734375</ele>
        <time>2015-12-22T20:13:52.000Z</time>
      </trkpt>
      <trkpt lat="45.42517" lon="4.39671">
        <ele>574.20147705078</ele>
        <time>2015-12-22T20:13:54.000Z</time>
      </trkpt>
      <trkpt lat="45.42525" lon="4.39663">
        <ele>575.15283203125</ele>
        <time>2015-12-22T20:13:57.000Z</time>
      </trkpt>
      <trkpt lat="45.42531" lon="4.39665">
        <ele>574.79962158203</ele>
        <time>2015-12-22T20:13:59.000Z</time>
      </trkpt>
      <trkpt lat="45.42539" lon="4.39661">
        <ele>573.48089599609</ele>
        <time>2015-12-22T20:14:02.000Z</time>
      </trkpt>
      <trkpt lat="45.42547" lon="4.39659">
        <ele>570.9755859375</ele>
        <time>2015-12-22T20:14:05.000Z</time>
      </trkpt>
      <trkpt lat="45.42552" lon="4.39659">
        <ele>569.34149169922</ele>
        <time>2015-12-22T20:14:07.000Z</time>
      </trkpt>
      <trkpt lat="45.42557" lon="4.39656">
        <ele>568.71960449219</ele>
        <time>2015-12-22T20:14:09.000Z</time>
      </trkpt>
      <trkpt lat="45.42564" lon="4.39649">
        <ele>568.65533447266</ele>
        <time>2015-12-22T20:14:12.000Z</time>
      </trkpt>
      <trkpt lat="45.42567" lon="4.39646">
        <ele>567.10388183594</ele>
        <time>2015-12-22T20:14:14.000Z</time>
      </trkpt>
      <trkpt lat="45.42571" lon="4.39641">
        <ele>566.26251220703</ele>
        <time>2015-12-22T20:14:16.000Z</time>
      </trkpt>
      <trkpt lat="45.42575" lon="4.39636">
        <ele>565.28637695312</ele>
        <time>2015-12-22T20:14:18.000Z</time>
      </trkpt>
      <trkpt lat="45.42582" lon="4.39631">
        <ele>565.95977783203</ele>
        <time>2015-12-22T20:14:21.000Z</time>
      </trkpt>
      <trkpt lat="45.42588" lon="4.39624">
        <ele>565.91870117188</ele>
        <time>2015-12-22T20:14:24.000Z</time>
      </trkpt>
      <trkpt lat="45.42593" lon="4.39625">
        <ele>565.07922363281</ele>
        <time>2015-12-22T20:14:26.000Z</time>
      </trkpt>
      <trkpt lat="45.42599" lon="4.39624">
        <ele>565.13220214844</ele>
        <time>2015-12-22T20:14:29.000Z</time>
      </trkpt>
      <trkpt lat="45.42604" lon="4.3962">
        <ele>568.51892089844</ele>
        <time>2015-12-22T20:14:32.000Z</time>
      </trkpt>
      <trkpt lat="45.42611" lon="4.39614">
        <ele>568.54296875</ele>
        <time>2015-12-22T20:14:35.000Z</time>
      </trkpt>
      <trkpt lat="45.42618" lon="4.39605">
        <ele>567.81958007812</ele>
        <time>2015-12-22T20:14:38.000Z</time>
      </trkpt>
      <trkpt lat="45.42624" lon="4.396">
        <ele>566.056640625</ele>
        <time>2015-12-22T20:14:41.000Z</time>
      </trkpt>
      <trkpt lat="45.42629" lon="4.39596">
        <ele>565.55041503906</ele>
        <time>2015-12-22T20:14:43.000Z</time>
      </trkpt>
      <trkpt lat="45.42638" lon="4.39589">
        <ele>566.47375488281</ele>
        <time>2015-12-22T20:14:46.000Z</time>
      </trkpt>
      <trkpt lat="45.42644" lon="4.39586">
        <ele>567.68304443359</ele>
        <time>2015-12-22T20:14:48.000Z</time>
      </trkpt>
      <trkpt lat="45.4265" lon="4.39578">
        <ele>569.37347412109</ele>
        <time>2015-12-22T20:14:51.000Z</time>
      </trkpt>
      <trkpt lat="45.42655" lon="4.39571">
        <ele>569.18292236328</ele>
        <time>2015-12-22T20:14:53.000Z</time>
      </trkpt>
      <trkpt lat="45.42662" lon="4.39562">
        <ele>569.47009277344</ele>
        <time>2015-12-22T20:14:56.000Z</time>
      </trkpt>
      <trkpt lat="45.42667" lon="4.39555">
        <ele>569.53454589844</ele>
        <time>2015-12-22T20:14:58.000Z</time>
      </trkpt>
      <trkpt lat="45.42672" lon="4.39554">
        <ele>569.94476318359</ele>
        <time>2015-12-22T20:15:00.000Z</time>
      </trkpt>
      <trkpt lat="45.4268" lon="4.39553">
        <ele>570.50494384766</ele>
        <time>2015-12-22T20:15:03.000Z</time>
      </trkpt>
      <trkpt lat="45.42686" lon="4.39547">
        <ele>571.58154296875</ele>
        <time>2015-12-22T20:15:06.000Z</time>
      </trkpt>
      <trkpt lat="45.42692" lon="4.39541">
        <ele>572.45428466797</ele>
        <time>2015-12-22T20:15:08.000Z</time>
      </trkpt>
      <trkpt lat="45.427" lon="4.39541">
        <ele>572.52893066406</ele>
        <time>2015-12-22T20:15:11.000Z</time>
      </trkpt>
      <trkpt lat="45.4271" lon="4.39538">
        <ele>572.5556640625</ele>
        <time>2015-12-22T20:15:14.000Z</time>
      </trkpt>
      <trkpt lat="45.42715" lon="4.39533">
        <ele>573.25286865234</ele>
        <time>2015-12-22T20:15:16.000Z</time>
      </trkpt>
      <trkpt lat="45.4272" lon="4.39527">
        <ele>573.51629638672</ele>
        <time>2015-12-22T20:15:19.000Z</time>
      </trkpt>
      <trkpt lat="45.42722" lon="4.39523">
        <ele>574.29907226562</ele>
        <time>2015-12-22T20:15:21.000Z</time>
      </trkpt>
      <trkpt lat="45.42728" lon="4.39516">
        <ele>574.8876953125</ele>
        <time>2015-12-22T20:15:24.000Z</time>
      </trkpt>
      <trkpt lat="45.42738" lon="4.39511">
        <ele>573.95031738281</ele>
        <time>2015-12-22T20:15:27.000Z</time>
      </trkpt>
      <trkpt lat="45.42745" lon="4.39506">
        <ele>573.28735351562</ele>
        <time>2015-12-22T20:15:30.000Z</time>
      </trkpt>
      <trkpt lat="45.42751" lon="4.39505">
        <ele>572.716796875</ele>
        <time>2015-12-22T20:15:32.000Z</time>
      </trkpt>
      <trkpt lat="45.42758" lon="4.395">
        <ele>572.57379150391</ele>
        <time>2015-12-22T20:15:34.000Z</time>
      </trkpt>
      <trkpt lat="45.42767" lon="4.39496">
        <ele>572.55419921875</ele>
        <time>2015-12-22T20:15:37.000Z</time>
      </trkpt>
      <trkpt lat="45.42773" lon="4.39501">
        <ele>569.01031494141</ele>
        <time>2015-12-22T20:15:39.000Z</time>
      </trkpt>
      <trkpt lat="45.42786" lon="4.3951">
        <ele>561.05419921875</ele>
        <time>2015-12-22T20:15:42.000Z</time>
      </trkpt>
      <trkpt lat="45.42796" lon="4.39509">
        <ele>559.90142822266</ele>
        <time>2015-12-22T20:15:45.000Z</time>
      </trkpt>
      <trkpt lat="45.42804" lon="4.39508">
        <ele>562.81744384766</ele>
        <time>2015-12-22T20:15:48.000Z</time>
      </trkpt>
      <trkpt lat="45.42812" lon="4.39508">
        <ele>562.47900390625</ele>
        <time>2015-12-22T20:15:50.000Z</time>
      </trkpt>
      <trkpt lat="45.42821" lon="4.39508">
        <ele>559.69464111328</ele>
        <time>2015-12-22T20:15:52.000Z</time>
      </trkpt>
      <trkpt lat="45.42828" lon="4.39508">
        <ele>554.42877197266</ele>
        <time>2015-12-22T20:15:55.000Z</time>
      </trkpt>
      <trkpt lat="45.42831" lon="4.39506">
        <ele>552.88116455078</ele>
        <time>2015-12-22T20:15:57.000Z</time>
      </trkpt>
      <trkpt lat="45.42835" lon="4.39499">
        <ele>552.49444580078</ele>
        <time>2015-12-22T20:16:00.000Z</time>
      </trkpt>
      <trkpt lat="45.42838" lon="4.39492">
        <ele>553.65490722656</ele>
        <time>2015-12-22T20:16:02.000Z</time>
      </trkpt>
      <trkpt lat="45.42842" lon="4.39484">
        <ele>557.34838867188</ele>
        <time>2015-12-22T20:16:05.000Z</time>
      </trkpt>
      <trkpt lat="45.42847" lon="4.39487">
        <ele>557.41339111328</ele>
        <time>2015-12-22T20:16:08.000Z</time>
      </trkpt>
      <trkpt lat="45.4285" lon="4.3949">
        <ele>553.92504882812</ele>
        <time>2015-12-22T20:16:11.000Z</time>
      </trkpt>
    </trkseg>
  </trk>
</gpx>